<?xml version="1.0" encoding="UTF-8" standalone="no" ?>
<gpx xmlns="http://www.topografix.com/GPX/1/1" xmlns:xsi="http://www.w3.org/2001/XMLSchema-instance" xsi:schemaLocation="http://www.topografix.com/GPX/1/1 http://www.topografix.com/GPX/1/1/gpx.xsd" version="1.1" creator="VisuGPX - https://www.visugpx.com">
  <metadata>
    <name>VTT avec les garçons</name>
    <desc><![CDATA[Super balade pour se dégourdir, à faire dans le sens inverse la prochaine fois.]]></desc>
  </metadata>
  <trk>
    <name><![CDATA[VTT avec les garçons_1]]></name>
    <trkseg>
      <trkpt lat="48.05743" lon="7.26796">
        <ele>589.48251</ele>
        <time>2018-05-04T12:39:52Z</time>
      </trkpt>
      <trkpt lat="48.05752" lon="7.26803">
        <ele>588.55844</ele>
        <time>2018-05-04T12:39:53Z</time>
      </trkpt>
      <trkpt lat="48.0575" lon="7.268">
        <ele>588.66452</ele>
        <time>2018-05-04T12:39:54Z</time>
      </trkpt>
      <trkpt lat="48.05745" lon="7.26801">
        <ele>583.06576</ele>
        <time>2018-05-04T12:39:55Z</time>
      </trkpt>
      <trkpt lat="48.05749" lon="7.26789">
        <ele>579.19699</ele>
        <time>2018-05-04T12:39:56Z</time>
      </trkpt>
      <trkpt lat="48.05739" lon="7.26794">
        <ele>581.60019</ele>
        <time>2018-05-04T12:39:57Z</time>
      </trkpt>
      <trkpt lat="48.05745" lon="7.26788">
        <ele>586.57919</ele>
        <time>2018-05-04T12:39:58Z</time>
      </trkpt>
      <trkpt lat="48.05741" lon="7.26784">
        <ele>585.26999</ele>
        <time>2018-05-04T12:39:59Z</time>
      </trkpt>
      <trkpt lat="48.05749" lon="7.26782">
        <ele>584.32504</ele>
        <time>2018-05-04T12:40:00Z</time>
      </trkpt>
      <trkpt lat="48.05755" lon="7.26798">
        <ele>583.74887</ele>
        <time>2018-05-04T12:40:01Z</time>
      </trkpt>
      <trkpt lat="48.05761" lon="7.26804">
        <ele>589.2452</ele>
        <time>2018-05-04T12:40:02Z</time>
      </trkpt>
      <trkpt lat="48.05745" lon="7.26784">
        <ele>584.28207</ele>
        <time>2018-05-04T12:40:02Z</time>
      </trkpt>
      <trkpt lat="48.05744" lon="7.26795">
        <ele>584.43563</ele>
        <time>2018-05-04T12:40:03Z</time>
      </trkpt>
      <trkpt lat="48.05748" lon="7.26806">
        <ele>588.28256</ele>
        <time>2018-05-04T12:40:04Z</time>
      </trkpt>
      <trkpt lat="48.05747" lon="7.26805">
        <ele>592.10653</ele>
        <time>2018-05-04T12:40:06Z</time>
      </trkpt>
      <trkpt lat="48.05749" lon="7.26806">
        <ele>591.2131</ele>
        <time>2018-05-04T12:40:07Z</time>
      </trkpt>
      <trkpt lat="48.05747" lon="7.26805">
        <ele>591.4852</ele>
        <time>2018-05-04T12:40:11Z</time>
      </trkpt>
      <trkpt lat="48.05746" lon="7.26805">
        <ele>591.03732</ele>
        <time>2018-05-04T12:40:12Z</time>
      </trkpt>
      <trkpt lat="48.05743" lon="7.26803">
        <ele>585.45883</ele>
        <time>2018-05-04T12:40:18Z</time>
      </trkpt>
      <trkpt lat="48.05743" lon="7.26792">
        <ele>583.63852</ele>
        <time>2018-05-04T12:40:21Z</time>
      </trkpt>
      <trkpt lat="48.05742" lon="7.26789">
        <ele>583.37436</ele>
        <time>2018-05-04T12:40:22Z</time>
      </trkpt>
      <trkpt lat="48.05742" lon="7.26787">
        <ele>583.79672</ele>
        <time>2018-05-04T12:40:23Z</time>
      </trkpt>
      <trkpt lat="48.05742" lon="7.26781">
        <ele>582.4725</ele>
        <time>2018-05-04T12:40:26Z</time>
      </trkpt>
      <trkpt lat="48.05741" lon="7.26779">
        <ele>583.57504</ele>
        <time>2018-05-04T12:40:27Z</time>
      </trkpt>
      <trkpt lat="48.05741" lon="7.26778">
        <ele>583.96273</ele>
        <time>2018-05-04T12:40:29Z</time>
      </trkpt>
      <trkpt lat="48.05741" lon="7.26777">
        <ele>584.52963</ele>
        <time>2018-05-04T12:40:30Z</time>
      </trkpt>
      <trkpt lat="48.0574" lon="7.26776">
        <ele>584.27426</ele>
        <time>2018-05-04T12:40:34Z</time>
      </trkpt>
      <trkpt lat="48.05738" lon="7.26772">
        <ele>583.95468</ele>
        <time>2018-05-04T12:40:38Z</time>
      </trkpt>
      <trkpt lat="48.05736" lon="7.2677">
        <ele>584.32602</ele>
        <time>2018-05-04T12:40:39Z</time>
      </trkpt>
      <trkpt lat="48.05716" lon="7.26764">
        <ele>586.46493</ele>
        <time>2018-05-04T12:40:50Z</time>
      </trkpt>
      <trkpt lat="48.05709" lon="7.26759">
        <ele>586.00229</ele>
        <time>2018-05-04T12:40:53Z</time>
      </trkpt>
      <trkpt lat="48.05707" lon="7.26758">
        <ele>586.21127</ele>
        <time>2018-05-04T12:40:54Z</time>
      </trkpt>
      <trkpt lat="48.05702" lon="7.26743">
        <ele>584.6932</ele>
        <time>2018-05-04T12:40:59Z</time>
      </trkpt>
      <trkpt lat="48.05702" lon="7.26738">
        <ele>584.74276</ele>
        <time>2018-05-04T12:41:00Z</time>
      </trkpt>
      <trkpt lat="48.05701" lon="7.26734">
        <ele>584.28817</ele>
        <time>2018-05-04T12:41:01Z</time>
      </trkpt>
      <trkpt lat="48.05702" lon="7.26729">
        <ele>584.22885</ele>
        <time>2018-05-04T12:41:02Z</time>
      </trkpt>
      <trkpt lat="48.05702" lon="7.26725">
        <ele>584.01693</ele>
        <time>2018-05-04T12:41:03Z</time>
      </trkpt>
      <trkpt lat="48.05702" lon="7.26722">
        <ele>583.9664</ele>
        <time>2018-05-04T12:41:04Z</time>
      </trkpt>
      <trkpt lat="48.05702" lon="7.2672">
        <ele>583.60983</ele>
        <time>2018-05-04T12:41:05Z</time>
      </trkpt>
      <trkpt lat="48.05695" lon="7.26705">
        <ele>584.01156</ele>
        <time>2018-05-04T12:41:10Z</time>
      </trkpt>
      <trkpt lat="48.05693" lon="7.26702">
        <ele>584.3851</ele>
        <time>2018-05-04T12:41:11Z</time>
      </trkpt>
      <trkpt lat="48.05691" lon="7.26699">
        <ele>584.69821</ele>
        <time>2018-05-04T12:41:12Z</time>
      </trkpt>
      <trkpt lat="48.05688" lon="7.26697">
        <ele>584.99496</ele>
        <time>2018-05-04T12:41:13Z</time>
      </trkpt>
      <trkpt lat="48.05682" lon="7.26695">
        <ele>585.33212</ele>
        <time>2018-05-04T12:41:15Z</time>
      </trkpt>
      <trkpt lat="48.0568" lon="7.26694">
        <ele>585.38949</ele>
        <time>2018-05-04T12:41:16Z</time>
      </trkpt>
      <trkpt lat="48.05677" lon="7.26693">
        <ele>584.88461</ele>
        <time>2018-05-04T12:41:17Z</time>
      </trkpt>
      <trkpt lat="48.05673" lon="7.26688">
        <ele>584.81955</ele>
        <time>2018-05-04T12:41:19Z</time>
      </trkpt>
      <trkpt lat="48.05671" lon="7.26686">
        <ele>584.58065</ele>
        <time>2018-05-04T12:41:20Z</time>
      </trkpt>
      <trkpt lat="48.05667" lon="7.26675">
        <ele>585.00717</ele>
        <time>2018-05-04T12:41:23Z</time>
      </trkpt>
      <trkpt lat="48.05666" lon="7.26671">
        <ele>584.97396</ele>
        <time>2018-05-04T12:41:24Z</time>
      </trkpt>
      <trkpt lat="48.05666" lon="7.26667">
        <ele>585.47299</ele>
        <time>2018-05-04T12:41:25Z</time>
      </trkpt>
      <trkpt lat="48.05665" lon="7.2666">
        <ele>585.46322</ele>
        <time>2018-05-04T12:41:27Z</time>
      </trkpt>
      <trkpt lat="48.05664" lon="7.26657">
        <ele>585.26706</ele>
        <time>2018-05-04T12:41:28Z</time>
      </trkpt>
      <trkpt lat="48.05663" lon="7.26655">
        <ele>585.34921</ele>
        <time>2018-05-04T12:41:29Z</time>
      </trkpt>
      <trkpt lat="48.05661" lon="7.26654">
        <ele>585.2496</ele>
        <time>2018-05-04T12:41:30Z</time>
      </trkpt>
      <trkpt lat="48.05654" lon="7.26653">
        <ele>585.12497</ele>
        <time>2018-05-04T12:41:32Z</time>
      </trkpt>
      <trkpt lat="48.05645" lon="7.26651">
        <ele>585.40463</ele>
        <time>2018-05-04T12:41:35Z</time>
      </trkpt>
      <trkpt lat="48.05637" lon="7.26651">
        <ele>585.55209</ele>
        <time>2018-05-04T12:41:38Z</time>
      </trkpt>
      <trkpt lat="48.05634" lon="7.26651">
        <ele>585.50277</ele>
        <time>2018-05-04T12:41:39Z</time>
      </trkpt>
      <trkpt lat="48.05631" lon="7.2665">
        <ele>585.20919</ele>
        <time>2018-05-04T12:41:40Z</time>
      </trkpt>
      <trkpt lat="48.05626" lon="7.26646">
        <ele>584.78036</ele>
        <time>2018-05-04T12:41:42Z</time>
      </trkpt>
      <trkpt lat="48.05623" lon="7.26642">
        <ele>584.46908</ele>
        <time>2018-05-04T12:41:44Z</time>
      </trkpt>
      <trkpt lat="48.05622" lon="7.26639">
        <ele>583.98019</ele>
        <time>2018-05-04T12:41:45Z</time>
      </trkpt>
      <trkpt lat="48.05621" lon="7.26637">
        <ele>584.45651</ele>
        <time>2018-05-04T12:41:46Z</time>
      </trkpt>
      <trkpt lat="48.05621" lon="7.26636">
        <ele>584.48239</ele>
        <time>2018-05-04T12:41:47Z</time>
      </trkpt>
      <trkpt lat="48.0562" lon="7.26634">
        <ele>584.53659</ele>
        <time>2018-05-04T12:41:48Z</time>
      </trkpt>
      <trkpt lat="48.0562" lon="7.26632">
        <ele>584.37143</ele>
        <time>2018-05-04T12:41:49Z</time>
      </trkpt>
      <trkpt lat="48.05617" lon="7.26628">
        <ele>584.32821</ele>
        <time>2018-05-04T12:41:51Z</time>
      </trkpt>
      <trkpt lat="48.05615" lon="7.26625">
        <ele>584.04123</ele>
        <time>2018-05-04T12:41:53Z</time>
      </trkpt>
      <trkpt lat="48.05614" lon="7.26624">
        <ele>584.14633</ele>
        <time>2018-05-04T12:41:54Z</time>
      </trkpt>
      <trkpt lat="48.05613" lon="7.26623">
        <ele>584.82748</ele>
        <time>2018-05-04T12:41:55Z</time>
      </trkpt>
      <trkpt lat="48.05613" lon="7.26623">
        <ele>584.64364</ele>
        <time>2018-05-04T12:41:56Z</time>
      </trkpt>
      <trkpt lat="48.05612" lon="7.26622">
        <ele>584.4581</ele>
        <time>2018-05-04T12:41:57Z</time>
      </trkpt>
      <trkpt lat="48.05611" lon="7.26623">
        <ele>584.49789</ele>
        <time>2018-05-04T12:41:58Z</time>
      </trkpt>
      <trkpt lat="48.0561" lon="7.26623">
        <ele>584.05111</ele>
        <time>2018-05-04T12:42:00Z</time>
      </trkpt>
      <trkpt lat="48.05603" lon="7.26629">
        <ele>584.05404</ele>
        <time>2018-05-04T12:42:06Z</time>
      </trkpt>
      <trkpt lat="48.05595" lon="7.26636">
        <ele>584.55319</ele>
        <time>2018-05-04T12:42:10Z</time>
      </trkpt>
      <trkpt lat="48.05588" lon="7.26646">
        <ele>584.5621</ele>
        <time>2018-05-04T12:42:14Z</time>
      </trkpt>
      <trkpt lat="48.05587" lon="7.26648">
        <ele>584.51059</ele>
        <time>2018-05-04T12:42:15Z</time>
      </trkpt>
      <trkpt lat="48.05585" lon="7.26649">
        <ele>584.56283</ele>
        <time>2018-05-04T12:42:16Z</time>
      </trkpt>
      <trkpt lat="48.05583" lon="7.2665">
        <ele>584.76974</ele>
        <time>2018-05-04T12:42:17Z</time>
      </trkpt>
      <trkpt lat="48.05581" lon="7.26651">
        <ele>584.88803</ele>
        <time>2018-05-04T12:42:18Z</time>
      </trkpt>
      <trkpt lat="48.05579" lon="7.26651">
        <ele>584.67636</ele>
        <time>2018-05-04T12:42:19Z</time>
      </trkpt>
      <trkpt lat="48.05561" lon="7.26648">
        <ele>584.94479</ele>
        <time>2018-05-04T12:42:27Z</time>
      </trkpt>
      <trkpt lat="48.05548" lon="7.26649">
        <ele>585.40902</ele>
        <time>2018-05-04T12:42:31Z</time>
      </trkpt>
      <trkpt lat="48.05546" lon="7.26648">
        <ele>585.45138</ele>
        <time>2018-05-04T12:42:32Z</time>
      </trkpt>
      <trkpt lat="48.05536" lon="7.26648">
        <ele>586.30343</ele>
        <time>2018-05-04T12:42:36Z</time>
      </trkpt>
      <trkpt lat="48.05534" lon="7.26647">
        <ele>586.55966</ele>
        <time>2018-05-04T12:42:37Z</time>
      </trkpt>
      <trkpt lat="48.0553" lon="7.26645">
        <ele>586.48275</ele>
        <time>2018-05-04T12:42:39Z</time>
      </trkpt>
      <trkpt lat="48.05527" lon="7.26642">
        <ele>586.94906</ele>
        <time>2018-05-04T12:42:41Z</time>
      </trkpt>
      <trkpt lat="48.05525" lon="7.2664">
        <ele>587.02853</ele>
        <time>2018-05-04T12:42:42Z</time>
      </trkpt>
      <trkpt lat="48.05522" lon="7.26638">
        <ele>586.92672</ele>
        <time>2018-05-04T12:42:44Z</time>
      </trkpt>
      <trkpt lat="48.0552" lon="7.26638">
        <ele>586.66122</ele>
        <time>2018-05-04T12:42:45Z</time>
      </trkpt>
      <trkpt lat="48.05516" lon="7.26637">
        <ele>586.79757</ele>
        <time>2018-05-04T12:42:47Z</time>
      </trkpt>
      <trkpt lat="48.05515" lon="7.26636">
        <ele>586.81454</ele>
        <time>2018-05-04T12:42:48Z</time>
      </trkpt>
      <trkpt lat="48.05514" lon="7.26635">
        <ele>586.63412</ele>
        <time>2018-05-04T12:42:49Z</time>
      </trkpt>
      <trkpt lat="48.05512" lon="7.26633">
        <ele>586.53988</ele>
        <time>2018-05-04T12:42:51Z</time>
      </trkpt>
      <trkpt lat="48.05511" lon="7.26632">
        <ele>586.51962</ele>
        <time>2018-05-04T12:42:52Z</time>
      </trkpt>
      <trkpt lat="48.05509" lon="7.2663">
        <ele>586.46688</ele>
        <time>2018-05-04T12:42:53Z</time>
      </trkpt>
      <trkpt lat="48.05505" lon="7.26629">
        <ele>586.59567</ele>
        <time>2018-05-04T12:42:55Z</time>
      </trkpt>
      <trkpt lat="48.05504" lon="7.26628">
        <ele>586.58944</ele>
        <time>2018-05-04T12:42:56Z</time>
      </trkpt>
      <trkpt lat="48.05502" lon="7.26627">
        <ele>586.75412</ele>
        <time>2018-05-04T12:42:57Z</time>
      </trkpt>
      <trkpt lat="48.05501" lon="7.26626">
        <ele>586.89462</ele>
        <time>2018-05-04T12:42:58Z</time>
      </trkpt>
      <trkpt lat="48.05498" lon="7.26625">
        <ele>586.82626</ele>
        <time>2018-05-04T12:43:00Z</time>
      </trkpt>
      <trkpt lat="48.05497" lon="7.26625">
        <ele>586.87582</ele>
        <time>2018-05-04T12:43:01Z</time>
      </trkpt>
      <trkpt lat="48.05496" lon="7.26624">
        <ele>586.8237</ele>
        <time>2018-05-04T12:43:02Z</time>
      </trkpt>
      <trkpt lat="48.05494" lon="7.26622">
        <ele>586.86288</ele>
        <time>2018-05-04T12:43:03Z</time>
      </trkpt>
      <trkpt lat="48.05492" lon="7.26614">
        <ele>586.89047</ele>
        <time>2018-05-04T12:43:06Z</time>
      </trkpt>
      <trkpt lat="48.05489" lon="7.26605">
        <ele>587.63559</ele>
        <time>2018-05-04T12:43:10Z</time>
      </trkpt>
      <trkpt lat="48.05489" lon="7.26604">
        <ele>587.80185</ele>
        <time>2018-05-04T12:43:11Z</time>
      </trkpt>
      <trkpt lat="48.05488" lon="7.26603">
        <ele>587.71359</ele>
        <time>2018-05-04T12:43:12Z</time>
      </trkpt>
      <trkpt lat="48.05487" lon="7.26603">
        <ele>587.93393</ele>
        <time>2018-05-04T12:43:13Z</time>
      </trkpt>
      <trkpt lat="48.05481" lon="7.26602">
        <ele>587.7236</ele>
        <time>2018-05-04T12:43:15Z</time>
      </trkpt>
      <trkpt lat="48.05479" lon="7.26602">
        <ele>587.74093</ele>
        <time>2018-05-04T12:43:16Z</time>
      </trkpt>
      <trkpt lat="48.05478" lon="7.26601">
        <ele>587.6683</ele>
        <time>2018-05-04T12:43:17Z</time>
      </trkpt>
      <trkpt lat="48.05476" lon="7.266">
        <ele>587.5975</ele>
        <time>2018-05-04T12:43:18Z</time>
      </trkpt>
      <trkpt lat="48.05475" lon="7.26599">
        <ele>587.63559</ele>
        <time>2018-05-04T12:43:19Z</time>
      </trkpt>
      <trkpt lat="48.05471" lon="7.26595">
        <ele>588.15426</ele>
        <time>2018-05-04T12:43:22Z</time>
      </trkpt>
      <trkpt lat="48.0547" lon="7.26594">
        <ele>588.33578</ele>
        <time>2018-05-04T12:43:23Z</time>
      </trkpt>
      <trkpt lat="48.05469" lon="7.26593">
        <ele>588.40561</ele>
        <time>2018-05-04T12:43:24Z</time>
      </trkpt>
      <trkpt lat="48.05468" lon="7.26593">
        <ele>588.54452</ele>
        <time>2018-05-04T12:43:25Z</time>
      </trkpt>
      <trkpt lat="48.05467" lon="7.26592">
        <ele>588.67257</ele>
        <time>2018-05-04T12:43:26Z</time>
      </trkpt>
      <trkpt lat="48.05466" lon="7.26591">
        <ele>588.82699</ele>
        <time>2018-05-04T12:43:27Z</time>
      </trkpt>
      <trkpt lat="48.05461" lon="7.2659">
        <ele>588.72738</ele>
        <time>2018-05-04T12:43:30Z</time>
      </trkpt>
      <trkpt lat="48.0546" lon="7.26588">
        <ele>589.07589</ele>
        <time>2018-05-04T12:43:32Z</time>
      </trkpt>
      <trkpt lat="48.05459" lon="7.26587">
        <ele>589.24887</ele>
        <time>2018-05-04T12:43:33Z</time>
      </trkpt>
      <trkpt lat="48.05459" lon="7.26585">
        <ele>589.46359</ele>
        <time>2018-05-04T12:43:34Z</time>
      </trkpt>
      <trkpt lat="48.05459" lon="7.26583">
        <ele>589.42343</ele>
        <time>2018-05-04T12:43:35Z</time>
      </trkpt>
      <trkpt lat="48.05458" lon="7.26582">
        <ele>589.74398</ele>
        <time>2018-05-04T12:43:36Z</time>
      </trkpt>
      <trkpt lat="48.05453" lon="7.26574">
        <ele>590.5433</ele>
        <time>2018-05-04T12:43:41Z</time>
      </trkpt>
      <trkpt lat="48.05452" lon="7.26573">
        <ele>590.81283</ele>
        <time>2018-05-04T12:43:42Z</time>
      </trkpt>
      <trkpt lat="48.05447" lon="7.26569">
        <ele>590.42855</ele>
        <time>2018-05-04T12:43:45Z</time>
      </trkpt>
      <trkpt lat="48.05444" lon="7.26565">
        <ele>591.29892</ele>
        <time>2018-05-04T12:43:47Z</time>
      </trkpt>
      <trkpt lat="48.05442" lon="7.26561">
        <ele>591.52108</ele>
        <time>2018-05-04T12:43:49Z</time>
      </trkpt>
      <trkpt lat="48.05441" lon="7.26559">
        <ele>591.78061</ele>
        <time>2018-05-04T12:43:50Z</time>
      </trkpt>
      <trkpt lat="48.0544" lon="7.26554">
        <ele>591.92172</ele>
        <time>2018-05-04T12:43:52Z</time>
      </trkpt>
      <trkpt lat="48.05439" lon="7.26552">
        <ele>592.00045</ele>
        <time>2018-05-04T12:43:53Z</time>
      </trkpt>
      <trkpt lat="48.05438" lon="7.2655">
        <ele>592.14901</ele>
        <time>2018-05-04T12:43:54Z</time>
      </trkpt>
      <trkpt lat="48.05434" lon="7.26544">
        <ele>592.5317</ele>
        <time>2018-05-04T12:43:57Z</time>
      </trkpt>
      <trkpt lat="48.05433" lon="7.26542">
        <ele>592.36935</ele>
        <time>2018-05-04T12:43:58Z</time>
      </trkpt>
      <trkpt lat="48.05433" lon="7.26541">
        <ele>592.27621</ele>
        <time>2018-05-04T12:43:59Z</time>
      </trkpt>
      <trkpt lat="48.05432" lon="7.2654">
        <ele>592.19833</ele>
        <time>2018-05-04T12:44:00Z</time>
      </trkpt>
      <trkpt lat="48.0543" lon="7.26537">
        <ele>591.8309</ele>
        <time>2018-05-04T12:44:02Z</time>
      </trkpt>
      <trkpt lat="48.05429" lon="7.26535">
        <ele>591.62204</ele>
        <time>2018-05-04T12:44:03Z</time>
      </trkpt>
      <trkpt lat="48.05426" lon="7.26528">
        <ele>591.7037</ele>
        <time>2018-05-04T12:44:06Z</time>
      </trkpt>
      <trkpt lat="48.05422" lon="7.26522">
        <ele>591.6213</ele>
        <time>2018-05-04T12:44:09Z</time>
      </trkpt>
      <trkpt lat="48.0542" lon="7.2652">
        <ele>591.59823</ele>
        <time>2018-05-04T12:44:10Z</time>
      </trkpt>
      <trkpt lat="48.05417" lon="7.26519">
        <ele>591.64633</ele>
        <time>2018-05-04T12:44:12Z</time>
      </trkpt>
      <trkpt lat="48.05412" lon="7.26518">
        <ele>591.66562</ele>
        <time>2018-05-04T12:44:15Z</time>
      </trkpt>
      <trkpt lat="48.0541" lon="7.26517">
        <ele>591.54074</ele>
        <time>2018-05-04T12:44:16Z</time>
      </trkpt>
      <trkpt lat="48.05408" lon="7.26516">
        <ele>591.44198</ele>
        <time>2018-05-04T12:44:17Z</time>
      </trkpt>
      <trkpt lat="48.05407" lon="7.26515">
        <ele>591.28085</ele>
        <time>2018-05-04T12:44:18Z</time>
      </trkpt>
      <trkpt lat="48.05406" lon="7.26512">
        <ele>591.46518</ele>
        <time>2018-05-04T12:44:19Z</time>
      </trkpt>
      <trkpt lat="48.05405" lon="7.2651">
        <ele>591.3995</ele>
        <time>2018-05-04T12:44:20Z</time>
      </trkpt>
      <trkpt lat="48.05404" lon="7.26508">
        <ele>591.28219</ele>
        <time>2018-05-04T12:44:21Z</time>
      </trkpt>
      <trkpt lat="48.05402" lon="7.26506">
        <ele>591.53256</ele>
        <time>2018-05-04T12:44:22Z</time>
      </trkpt>
      <trkpt lat="48.05398" lon="7.26502">
        <ele>591.50119</ele>
        <time>2018-05-04T12:44:24Z</time>
      </trkpt>
      <trkpt lat="48.05393" lon="7.26495">
        <ele>591.52255</ele>
        <time>2018-05-04T12:44:27Z</time>
      </trkpt>
      <trkpt lat="48.05392" lon="7.26492">
        <ele>591.55087</ele>
        <time>2018-05-04T12:44:28Z</time>
      </trkpt>
      <trkpt lat="48.0539" lon="7.26489">
        <ele>591.74643</ele>
        <time>2018-05-04T12:44:29Z</time>
      </trkpt>
      <trkpt lat="48.05387" lon="7.26487">
        <ele>591.85214</ele>
        <time>2018-05-04T12:44:30Z</time>
      </trkpt>
      <trkpt lat="48.05375" lon="7.2648">
        <ele>593.73666</ele>
        <time>2018-05-04T12:44:36Z</time>
      </trkpt>
      <trkpt lat="48.05373" lon="7.26479">
        <ele>593.91586</ele>
        <time>2018-05-04T12:44:37Z</time>
      </trkpt>
      <trkpt lat="48.05372" lon="7.2648">
        <ele>594.20517</ele>
        <time>2018-05-04T12:44:38Z</time>
      </trkpt>
      <trkpt lat="48.05371" lon="7.2648">
        <ele>594.50204</ele>
        <time>2018-05-04T12:44:39Z</time>
      </trkpt>
      <trkpt lat="48.0537" lon="7.26479">
        <ele>594.94113</ele>
        <time>2018-05-04T12:44:40Z</time>
      </trkpt>
      <trkpt lat="48.05369" lon="7.26479">
        <ele>594.96078</ele>
        <time>2018-05-04T12:44:41Z</time>
      </trkpt>
      <trkpt lat="48.05369" lon="7.2648">
        <ele>595.37875</ele>
        <time>2018-05-04T12:44:44Z</time>
      </trkpt>
      <trkpt lat="48.05368" lon="7.26482">
        <ele>595.4393</ele>
        <time>2018-05-04T12:44:45Z</time>
      </trkpt>
      <trkpt lat="48.05367" lon="7.26484">
        <ele>595.09555</ele>
        <time>2018-05-04T12:44:46Z</time>
      </trkpt>
      <trkpt lat="48.05366" lon="7.26486">
        <ele>595.20907</ele>
        <time>2018-05-04T12:44:47Z</time>
      </trkpt>
      <trkpt lat="48.05366" lon="7.26487">
        <ele>595.48983</ele>
        <time>2018-05-04T12:44:48Z</time>
      </trkpt>
      <trkpt lat="48.05366" lon="7.26489">
        <ele>595.95919</ele>
        <time>2018-05-04T12:44:49Z</time>
      </trkpt>
      <trkpt lat="48.05365" lon="7.26491">
        <ele>595.76229</ele>
        <time>2018-05-04T12:44:50Z</time>
      </trkpt>
      <trkpt lat="48.05364" lon="7.26494">
        <ele>595.93881</ele>
        <time>2018-05-04T12:44:51Z</time>
      </trkpt>
      <trkpt lat="48.05363" lon="7.26495">
        <ele>596.01754</ele>
        <time>2018-05-04T12:44:52Z</time>
      </trkpt>
      <trkpt lat="48.05358" lon="7.26501">
        <ele>596.72543</ele>
        <time>2018-05-04T12:44:57Z</time>
      </trkpt>
      <trkpt lat="48.05357" lon="7.26502">
        <ele>596.1849</ele>
        <time>2018-05-04T12:44:58Z</time>
      </trkpt>
      <trkpt lat="48.05356" lon="7.26504">
        <ele>596.20895</ele>
        <time>2018-05-04T12:44:59Z</time>
      </trkpt>
      <trkpt lat="48.05355" lon="7.26505">
        <ele>596.34396</ele>
        <time>2018-05-04T12:45:00Z</time>
      </trkpt>
      <trkpt lat="48.05354" lon="7.26506">
        <ele>596.61789</ele>
        <time>2018-05-04T12:45:01Z</time>
      </trkpt>
      <trkpt lat="48.05354" lon="7.26507">
        <ele>597.16562</ele>
        <time>2018-05-04T12:45:02Z</time>
      </trkpt>
      <trkpt lat="48.05353" lon="7.26509">
        <ele>597.25668</ele>
        <time>2018-05-04T12:45:03Z</time>
      </trkpt>
      <trkpt lat="48.05352" lon="7.26512">
        <ele>597.30697</ele>
        <time>2018-05-04T12:45:05Z</time>
      </trkpt>
      <trkpt lat="48.05352" lon="7.26514">
        <ele>597.55722</ele>
        <time>2018-05-04T12:45:06Z</time>
      </trkpt>
      <trkpt lat="48.05352" lon="7.26515">
        <ele>597.4006</ele>
        <time>2018-05-04T12:45:07Z</time>
      </trkpt>
      <trkpt lat="48.05352" lon="7.26516">
        <ele>597.6329</ele>
        <time>2018-05-04T12:45:08Z</time>
      </trkpt>
      <trkpt lat="48.05352" lon="7.26517">
        <ele>597.73166</ele>
        <time>2018-05-04T12:45:10Z</time>
      </trkpt>
      <trkpt lat="48.05351" lon="7.2652">
        <ele>597.56552</ele>
        <time>2018-05-04T12:45:12Z</time>
      </trkpt>
      <trkpt lat="48.0535" lon="7.26523">
        <ele>596.9598</ele>
        <time>2018-05-04T12:45:14Z</time>
      </trkpt>
      <trkpt lat="48.0535" lon="7.26525">
        <ele>596.65805</ele>
        <time>2018-05-04T12:45:15Z</time>
      </trkpt>
      <trkpt lat="48.05349" lon="7.26527">
        <ele>596.46432</ele>
        <time>2018-05-04T12:45:16Z</time>
      </trkpt>
      <trkpt lat="48.05349" lon="7.26528">
        <ele>596.36898</ele>
        <time>2018-05-04T12:45:17Z</time>
      </trkpt>
      <trkpt lat="48.05349" lon="7.26529">
        <ele>596.4172</ele>
        <time>2018-05-04T12:45:18Z</time>
      </trkpt>
      <trkpt lat="48.05348" lon="7.26531">
        <ele>596.41439</ele>
        <time>2018-05-04T12:45:19Z</time>
      </trkpt>
      <trkpt lat="48.05345" lon="7.26533">
        <ele>596.20395</ele>
        <time>2018-05-04T12:45:21Z</time>
      </trkpt>
      <trkpt lat="48.05343" lon="7.26534">
        <ele>596.3663</ele>
        <time>2018-05-04T12:45:22Z</time>
      </trkpt>
      <trkpt lat="48.05337" lon="7.26536">
        <ele>595.90219</ele>
        <time>2018-05-04T12:45:25Z</time>
      </trkpt>
      <trkpt lat="48.05333" lon="7.26536">
        <ele>595.8182</ele>
        <time>2018-05-04T12:45:27Z</time>
      </trkpt>
      <trkpt lat="48.05332" lon="7.26536">
        <ele>595.83358</ele>
        <time>2018-05-04T12:45:28Z</time>
      </trkpt>
      <trkpt lat="48.05328" lon="7.26538">
        <ele>596.02157</ele>
        <time>2018-05-04T12:45:30Z</time>
      </trkpt>
      <trkpt lat="48.05326" lon="7.2654">
        <ele>595.83944</ele>
        <time>2018-05-04T12:45:32Z</time>
      </trkpt>
      <trkpt lat="48.05324" lon="7.26541">
        <ele>596.23068</ele>
        <time>2018-05-04T12:45:33Z</time>
      </trkpt>
      <trkpt lat="48.05324" lon="7.26542">
        <ele>596.44796</ele>
        <time>2018-05-04T12:45:34Z</time>
      </trkpt>
      <trkpt lat="48.05323" lon="7.26544">
        <ele>596.30465</ele>
        <time>2018-05-04T12:45:35Z</time>
      </trkpt>
      <trkpt lat="48.05322" lon="7.26545">
        <ele>596.5206</ele>
        <time>2018-05-04T12:45:36Z</time>
      </trkpt>
      <trkpt lat="48.05321" lon="7.26545">
        <ele>596.78769</ele>
        <time>2018-05-04T12:45:37Z</time>
      </trkpt>
      <trkpt lat="48.05316" lon="7.26548">
        <ele>596.90097</ele>
        <time>2018-05-04T12:45:42Z</time>
      </trkpt>
      <trkpt lat="48.05315" lon="7.26549">
        <ele>596.9952</ele>
        <time>2018-05-04T12:45:43Z</time>
      </trkpt>
      <trkpt lat="48.05315" lon="7.26549">
        <ele>597.40536</ele>
        <time>2018-05-04T12:45:52Z</time>
      </trkpt>
      <trkpt lat="48.05316" lon="7.26548">
        <ele>598.34042</ele>
        <time>2018-05-04T12:45:57Z</time>
      </trkpt>
      <trkpt lat="48.05316" lon="7.26547">
        <ele>599.09555</ele>
        <time>2018-05-04T12:45:59Z</time>
      </trkpt>
      <trkpt lat="48.05315" lon="7.26547">
        <ele>598.32602</ele>
        <time>2018-05-04T12:46:04Z</time>
      </trkpt>
      <trkpt lat="48.0531" lon="7.26547">
        <ele>599.76425</ele>
        <time>2018-05-04T12:46:08Z</time>
      </trkpt>
      <trkpt lat="48.05312" lon="7.26547">
        <ele>602.03292</ele>
        <time>2018-05-04T12:46:15Z</time>
      </trkpt>
      <trkpt lat="48.05313" lon="7.26547">
        <ele>602.07309</ele>
        <time>2018-05-04T12:46:16Z</time>
      </trkpt>
      <trkpt lat="48.05313" lon="7.26548">
        <ele>602.67587</ele>
        <time>2018-05-04T12:46:18Z</time>
      </trkpt>
      <trkpt lat="48.0531" lon="7.26548">
        <ele>603.20004</ele>
        <time>2018-05-04T12:46:47Z</time>
      </trkpt>
      <trkpt lat="48.05309" lon="7.26547">
        <ele>603.60995</ele>
        <time>2018-05-04T12:46:49Z</time>
      </trkpt>
      <trkpt lat="48.05308" lon="7.26547">
        <ele>603.77475</ele>
        <time>2018-05-04T12:46:51Z</time>
      </trkpt>
      <trkpt lat="48.05306" lon="7.26547">
        <ele>603.71469</ele>
        <time>2018-05-04T12:46:52Z</time>
      </trkpt>
      <trkpt lat="48.05305" lon="7.26549">
        <ele>603.53573</ele>
        <time>2018-05-04T12:46:53Z</time>
      </trkpt>
      <trkpt lat="48.05304" lon="7.2655">
        <ele>603.74655</ele>
        <time>2018-05-04T12:46:54Z</time>
      </trkpt>
      <trkpt lat="48.05303" lon="7.2655">
        <ele>604.58578</ele>
        <time>2018-05-04T12:46:56Z</time>
      </trkpt>
      <trkpt lat="48.05303" lon="7.26549">
        <ele>605.00338</ele>
        <time>2018-05-04T12:46:57Z</time>
      </trkpt>
      <trkpt lat="48.05302" lon="7.26548">
        <ele>605.75058</ele>
        <time>2018-05-04T12:46:58Z</time>
      </trkpt>
      <trkpt lat="48.05301" lon="7.26547">
        <ele>606.47543</ele>
        <time>2018-05-04T12:46:59Z</time>
      </trkpt>
      <trkpt lat="48.053" lon="7.26546">
        <ele>605.72128</ele>
        <time>2018-05-04T12:47:00Z</time>
      </trkpt>
      <trkpt lat="48.05299" lon="7.26545">
        <ele>604.72519</ele>
        <time>2018-05-04T12:47:01Z</time>
      </trkpt>
      <trkpt lat="48.05298" lon="7.26543">
        <ele>605.4161</ele>
        <time>2018-05-04T12:47:02Z</time>
      </trkpt>
      <trkpt lat="48.05297" lon="7.2654">
        <ele>604.54281</ele>
        <time>2018-05-04T12:47:04Z</time>
      </trkpt>
      <trkpt lat="48.05297" lon="7.26539">
        <ele>604.49862</ele>
        <time>2018-05-04T12:47:05Z</time>
      </trkpt>
      <trkpt lat="48.05297" lon="7.26537">
        <ele>603.66391</ele>
        <time>2018-05-04T12:47:06Z</time>
      </trkpt>
      <trkpt lat="48.05297" lon="7.26535">
        <ele>603.13717</ele>
        <time>2018-05-04T12:47:07Z</time>
      </trkpt>
      <trkpt lat="48.05292" lon="7.26515">
        <ele>602.77499</ele>
        <time>2018-05-04T12:47:12Z</time>
      </trkpt>
      <trkpt lat="48.0529" lon="7.2651">
        <ele>602.6102</ele>
        <time>2018-05-04T12:47:13Z</time>
      </trkpt>
      <trkpt lat="48.05288" lon="7.26506">
        <ele>602.50583</ele>
        <time>2018-05-04T12:47:14Z</time>
      </trkpt>
      <trkpt lat="48.05286" lon="7.26504">
        <ele>602.83505</ele>
        <time>2018-05-04T12:47:15Z</time>
      </trkpt>
      <trkpt lat="48.05284" lon="7.26502">
        <ele>603.92001</ele>
        <time>2018-05-04T12:47:16Z</time>
      </trkpt>
      <trkpt lat="48.05281" lon="7.265">
        <ele>603.92721</ele>
        <time>2018-05-04T12:47:17Z</time>
      </trkpt>
      <trkpt lat="48.05278" lon="7.265">
        <ele>604.07516</ele>
        <time>2018-05-04T12:47:18Z</time>
      </trkpt>
      <trkpt lat="48.05263" lon="7.26498">
        <ele>603.34872</ele>
        <time>2018-05-04T12:47:23Z</time>
      </trkpt>
      <trkpt lat="48.05254" lon="7.26495">
        <ele>604.19979</ele>
        <time>2018-05-04T12:47:26Z</time>
      </trkpt>
      <trkpt lat="48.05251" lon="7.26494">
        <ele>604.01669</ele>
        <time>2018-05-04T12:47:27Z</time>
      </trkpt>
      <trkpt lat="48.05239" lon="7.26495">
        <ele>604.59567</ele>
        <time>2018-05-04T12:47:30Z</time>
      </trkpt>
      <trkpt lat="48.05237" lon="7.26495">
        <ele>604.88534</ele>
        <time>2018-05-04T12:47:31Z</time>
      </trkpt>
      <trkpt lat="48.05231" lon="7.26494">
        <ele>604.44174</ele>
        <time>2018-05-04T12:47:33Z</time>
      </trkpt>
      <trkpt lat="48.05228" lon="7.26494">
        <ele>604.2955</ele>
        <time>2018-05-04T12:47:34Z</time>
      </trkpt>
      <trkpt lat="48.0522" lon="7.26496">
        <ele>603.56417</ele>
        <time>2018-05-04T12:47:37Z</time>
      </trkpt>
      <trkpt lat="48.05218" lon="7.26496">
        <ele>603.54733</ele>
        <time>2018-05-04T12:47:38Z</time>
      </trkpt>
      <trkpt lat="48.05198" lon="7.26494">
        <ele>603.12374</ele>
        <time>2018-05-04T12:47:45Z</time>
      </trkpt>
      <trkpt lat="48.05192" lon="7.26492">
        <ele>602.69906</ele>
        <time>2018-05-04T12:47:47Z</time>
      </trkpt>
      <trkpt lat="48.05184" lon="7.26492">
        <ele>602.39169</ele>
        <time>2018-05-04T12:47:50Z</time>
      </trkpt>
      <trkpt lat="48.05181" lon="7.26491">
        <ele>602.35678</ele>
        <time>2018-05-04T12:47:51Z</time>
      </trkpt>
      <trkpt lat="48.05179" lon="7.2649">
        <ele>602.26278</ele>
        <time>2018-05-04T12:47:52Z</time>
      </trkpt>
      <trkpt lat="48.05175" lon="7.26487">
        <ele>602.42965</ele>
        <time>2018-05-04T12:47:54Z</time>
      </trkpt>
      <trkpt lat="48.05174" lon="7.26485">
        <ele>602.34518</ele>
        <time>2018-05-04T12:47:55Z</time>
      </trkpt>
      <trkpt lat="48.05173" lon="7.26483">
        <ele>601.63949</ele>
        <time>2018-05-04T12:47:56Z</time>
      </trkpt>
      <trkpt lat="48.05172" lon="7.26482">
        <ele>601.59616</ele>
        <time>2018-05-04T12:47:57Z</time>
      </trkpt>
      <trkpt lat="48.05171" lon="7.26481">
        <ele>602.19967</ele>
        <time>2018-05-04T12:47:58Z</time>
      </trkpt>
      <trkpt lat="48.05169" lon="7.26479">
        <ele>602.57821</ele>
        <time>2018-05-04T12:48:00Z</time>
      </trkpt>
      <trkpt lat="48.05167" lon="7.26479">
        <ele>602.53341</ele>
        <time>2018-05-04T12:48:01Z</time>
      </trkpt>
      <trkpt lat="48.05166" lon="7.26479">
        <ele>603.10934</ele>
        <time>2018-05-04T12:48:02Z</time>
      </trkpt>
      <trkpt lat="48.05164" lon="7.26479">
        <ele>603.28671</ele>
        <time>2018-05-04T12:48:03Z</time>
      </trkpt>
      <trkpt lat="48.05162" lon="7.26479">
        <ele>603.52499</ele>
        <time>2018-05-04T12:48:04Z</time>
      </trkpt>
      <trkpt lat="48.05161" lon="7.2648">
        <ele>603.41415</ele>
        <time>2018-05-04T12:48:05Z</time>
      </trkpt>
      <trkpt lat="48.0516" lon="7.2648">
        <ele>603.41244</ele>
        <time>2018-05-04T12:48:06Z</time>
      </trkpt>
      <trkpt lat="48.05159" lon="7.26481">
        <ele>603.49923</ele>
        <time>2018-05-04T12:48:07Z</time>
      </trkpt>
      <trkpt lat="48.05158" lon="7.26481">
        <ele>603.63241</ele>
        <time>2018-05-04T12:48:08Z</time>
      </trkpt>
      <trkpt lat="48.05157" lon="7.2648">
        <ele>603.535</ele>
        <time>2018-05-04T12:48:09Z</time>
      </trkpt>
      <trkpt lat="48.05156" lon="7.2648">
        <ele>603.8702</ele>
        <time>2018-05-04T12:48:10Z</time>
      </trkpt>
      <trkpt lat="48.05155" lon="7.2648">
        <ele>603.89291</ele>
        <time>2018-05-04T12:48:11Z</time>
      </trkpt>
      <trkpt lat="48.05152" lon="7.26477">
        <ele>604.33603</ele>
        <time>2018-05-04T12:48:14Z</time>
      </trkpt>
      <trkpt lat="48.0515" lon="7.26477">
        <ele>603.65805</ele>
        <time>2018-05-04T12:48:15Z</time>
      </trkpt>
      <trkpt lat="48.05148" lon="7.26476">
        <ele>603.55673</ele>
        <time>2018-05-04T12:48:16Z</time>
      </trkpt>
      <trkpt lat="48.05145" lon="7.26476">
        <ele>603.42587</ele>
        <time>2018-05-04T12:48:18Z</time>
      </trkpt>
      <trkpt lat="48.0514" lon="7.26476">
        <ele>602.68295</ele>
        <time>2018-05-04T12:48:20Z</time>
      </trkpt>
      <trkpt lat="48.05138" lon="7.26477">
        <ele>602.77035</ele>
        <time>2018-05-04T12:48:21Z</time>
      </trkpt>
      <trkpt lat="48.05136" lon="7.26478">
        <ele>603.20089</ele>
        <time>2018-05-04T12:48:22Z</time>
      </trkpt>
      <trkpt lat="48.05134" lon="7.26479">
        <ele>603.02902</ele>
        <time>2018-05-04T12:48:23Z</time>
      </trkpt>
      <trkpt lat="48.05132" lon="7.26479">
        <ele>603.15451</ele>
        <time>2018-05-04T12:48:24Z</time>
      </trkpt>
      <trkpt lat="48.05125" lon="7.26476">
        <ele>603.1412</ele>
        <time>2018-05-04T12:48:28Z</time>
      </trkpt>
      <trkpt lat="48.05121" lon="7.26474">
        <ele>603.40402</ele>
        <time>2018-05-04T12:48:30Z</time>
      </trkpt>
      <trkpt lat="48.05119" lon="7.26474">
        <ele>603.5372</ele>
        <time>2018-05-04T12:48:31Z</time>
      </trkpt>
      <trkpt lat="48.05118" lon="7.26474">
        <ele>603.54416</ele>
        <time>2018-05-04T12:48:32Z</time>
      </trkpt>
      <trkpt lat="48.05117" lon="7.26474">
        <ele>603.74716</ele>
        <time>2018-05-04T12:48:33Z</time>
      </trkpt>
      <trkpt lat="48.05116" lon="7.26475">
        <ele>603.95163</ele>
        <time>2018-05-04T12:48:34Z</time>
      </trkpt>
      <trkpt lat="48.05112" lon="7.26477">
        <ele>604.9985</ele>
        <time>2018-05-04T12:48:37Z</time>
      </trkpt>
      <trkpt lat="48.05112" lon="7.26478">
        <ele>605.68734</ele>
        <time>2018-05-04T12:48:39Z</time>
      </trkpt>
      <trkpt lat="48.05111" lon="7.26479">
        <ele>606.09188</ele>
        <time>2018-05-04T12:48:40Z</time>
      </trkpt>
      <trkpt lat="48.05111" lon="7.2648">
        <ele>606.34188</ele>
        <time>2018-05-04T12:48:41Z</time>
      </trkpt>
      <trkpt lat="48.0511" lon="7.26477">
        <ele>606.483</ele>
        <time>2018-05-04T12:48:50Z</time>
      </trkpt>
      <trkpt lat="48.0511" lon="7.26477">
        <ele>606.29086</ele>
        <time>2018-05-04T12:48:52Z</time>
      </trkpt>
      <trkpt lat="48.05109" lon="7.26476">
        <ele>606.43661</ele>
        <time>2018-05-04T12:48:53Z</time>
      </trkpt>
      <trkpt lat="48.05109" lon="7.26477">
        <ele>606.76449</ele>
        <time>2018-05-04T12:48:54Z</time>
      </trkpt>
      <trkpt lat="48.05108" lon="7.26478">
        <ele>606.64828</ele>
        <time>2018-05-04T12:48:55Z</time>
      </trkpt>
      <trkpt lat="48.05108" lon="7.26477">
        <ele>607.55978</ele>
        <time>2018-05-04T12:49:00Z</time>
      </trkpt>
      <trkpt lat="48.05108" lon="7.26478">
        <ele>607.41391</ele>
        <time>2018-05-04T12:49:04Z</time>
      </trkpt>
      <trkpt lat="48.05109" lon="7.26478">
        <ele>607.0057</ele>
        <time>2018-05-04T12:49:05Z</time>
      </trkpt>
      <trkpt lat="48.05109" lon="7.26479">
        <ele>607.42685</ele>
        <time>2018-05-04T12:49:06Z</time>
      </trkpt>
      <trkpt lat="48.05108" lon="7.26481">
        <ele>607.06039</ele>
        <time>2018-05-04T12:49:07Z</time>
      </trkpt>
      <trkpt lat="48.05108" lon="7.26483">
        <ele>607.21518</ele>
        <time>2018-05-04T12:49:08Z</time>
      </trkpt>
      <trkpt lat="48.05108" lon="7.26484">
        <ele>607.28439</ele>
        <time>2018-05-04T12:49:09Z</time>
      </trkpt>
      <trkpt lat="48.05109" lon="7.26487">
        <ele>606.45163</ele>
        <time>2018-05-04T12:49:11Z</time>
      </trkpt>
      <trkpt lat="48.05109" lon="7.26489">
        <ele>606.45712</ele>
        <time>2018-05-04T12:49:12Z</time>
      </trkpt>
      <trkpt lat="48.05109" lon="7.2649">
        <ele>606.61105</ele>
        <time>2018-05-04T12:49:13Z</time>
      </trkpt>
      <trkpt lat="48.0511" lon="7.2649">
        <ele>606.48935</ele>
        <time>2018-05-04T12:49:14Z</time>
      </trkpt>
      <trkpt lat="48.0511" lon="7.26491">
        <ele>606.62484</ele>
        <time>2018-05-04T12:49:15Z</time>
      </trkpt>
      <trkpt lat="48.0511" lon="7.26492">
        <ele>606.50082</ele>
        <time>2018-05-04T12:49:16Z</time>
      </trkpt>
      <trkpt lat="48.0511" lon="7.26493">
        <ele>606.39547</ele>
        <time>2018-05-04T12:49:17Z</time>
      </trkpt>
      <trkpt lat="48.05109" lon="7.26494">
        <ele>606.50741</ele>
        <time>2018-05-04T12:49:18Z</time>
      </trkpt>
      <trkpt lat="48.05109" lon="7.26495">
        <ele>606.61117</ele>
        <time>2018-05-04T12:49:19Z</time>
      </trkpt>
      <trkpt lat="48.05109" lon="7.26495">
        <ele>606.63998</ele>
        <time>2018-05-04T12:49:20Z</time>
      </trkpt>
      <trkpt lat="48.05109" lon="7.26496">
        <ele>606.73935</ele>
        <time>2018-05-04T12:49:21Z</time>
      </trkpt>
      <trkpt lat="48.05109" lon="7.26498">
        <ele>606.81332</ele>
        <time>2018-05-04T12:49:23Z</time>
      </trkpt>
      <trkpt lat="48.05108" lon="7.26501">
        <ele>607.45846</ele>
        <time>2018-05-04T12:49:38Z</time>
      </trkpt>
      <trkpt lat="48.05108" lon="7.26503">
        <ele>607.57357</ele>
        <time>2018-05-04T12:49:50Z</time>
      </trkpt>
      <trkpt lat="48.05107" lon="7.26504">
        <ele>607.53769</ele>
        <time>2018-05-04T12:49:52Z</time>
      </trkpt>
      <trkpt lat="48.05106" lon="7.26505">
        <ele>607.07919</ele>
        <time>2018-05-04T12:49:53Z</time>
      </trkpt>
      <trkpt lat="48.05105" lon="7.26506">
        <ele>606.88534</ele>
        <time>2018-05-04T12:49:54Z</time>
      </trkpt>
      <trkpt lat="48.05104" lon="7.26506">
        <ele>606.26352</ele>
        <time>2018-05-04T12:49:55Z</time>
      </trkpt>
      <trkpt lat="48.05101" lon="7.26508">
        <ele>605.54696</ele>
        <time>2018-05-04T12:49:57Z</time>
      </trkpt>
      <trkpt lat="48.05099" lon="7.2651">
        <ele>605.19125</ele>
        <time>2018-05-04T12:49:58Z</time>
      </trkpt>
      <trkpt lat="48.05098" lon="7.2651">
        <ele>605.50937</ele>
        <time>2018-05-04T12:49:59Z</time>
      </trkpt>
      <trkpt lat="48.05098" lon="7.2651">
        <ele>606.21933</ele>
        <time>2018-05-04T12:50:00Z</time>
      </trkpt>
      <trkpt lat="48.05097" lon="7.26509">
        <ele>606.20785</ele>
        <time>2018-05-04T12:50:01Z</time>
      </trkpt>
      <trkpt lat="48.05098" lon="7.26509">
        <ele>606.21811</ele>
        <time>2018-05-04T12:50:03Z</time>
      </trkpt>
      <trkpt lat="48.05098" lon="7.2651">
        <ele>605.83554</ele>
        <time>2018-05-04T12:50:04Z</time>
      </trkpt>
      <trkpt lat="48.05098" lon="7.26511">
        <ele>606.15402</ele>
        <time>2018-05-04T12:50:05Z</time>
      </trkpt>
      <trkpt lat="48.05097" lon="7.26512">
        <ele>605.5538</ele>
        <time>2018-05-04T12:50:06Z</time>
      </trkpt>
      <trkpt lat="48.05096" lon="7.26513">
        <ele>605.55124</ele>
        <time>2018-05-04T12:50:07Z</time>
      </trkpt>
      <trkpt lat="48.05096" lon="7.26514">
        <ele>605.62521</ele>
        <time>2018-05-04T12:50:08Z</time>
      </trkpt>
      <trkpt lat="48.05096" lon="7.26515">
        <ele>604.88852</ele>
        <time>2018-05-04T12:50:09Z</time>
      </trkpt>
      <trkpt lat="48.05097" lon="7.26516">
        <ele>604.8923</ele>
        <time>2018-05-04T12:50:10Z</time>
      </trkpt>
      <trkpt lat="48.05097" lon="7.26517">
        <ele>604.65609</ele>
        <time>2018-05-04T12:50:11Z</time>
      </trkpt>
      <trkpt lat="48.05097" lon="7.26519">
        <ele>604.27572</ele>
        <time>2018-05-04T12:50:12Z</time>
      </trkpt>
      <trkpt lat="48.05095" lon="7.26528">
        <ele>603.74179</ele>
        <time>2018-05-04T12:50:20Z</time>
      </trkpt>
      <trkpt lat="48.05095" lon="7.26529">
        <ele>603.60897</ele>
        <time>2018-05-04T12:50:21Z</time>
      </trkpt>
      <trkpt lat="48.05094" lon="7.26531">
        <ele>603.90341</ele>
        <time>2018-05-04T12:50:22Z</time>
      </trkpt>
      <trkpt lat="48.05094" lon="7.26534">
        <ele>603.24508</ele>
        <time>2018-05-04T12:50:24Z</time>
      </trkpt>
      <trkpt lat="48.05095" lon="7.26535">
        <ele>603.24057</ele>
        <time>2018-05-04T12:50:25Z</time>
      </trkpt>
      <trkpt lat="48.05094" lon="7.26536">
        <ele>602.95077</ele>
        <time>2018-05-04T12:50:26Z</time>
      </trkpt>
      <trkpt lat="48.05094" lon="7.26538">
        <ele>603.16269</ele>
        <time>2018-05-04T12:50:27Z</time>
      </trkpt>
      <trkpt lat="48.05094" lon="7.26539">
        <ele>603.63498</ele>
        <time>2018-05-04T12:50:28Z</time>
      </trkpt>
      <trkpt lat="48.05093" lon="7.26542">
        <ele>603.77572</ele>
        <time>2018-05-04T12:50:30Z</time>
      </trkpt>
      <trkpt lat="48.05093" lon="7.26544">
        <ele>603.56942</ele>
        <time>2018-05-04T12:50:31Z</time>
      </trkpt>
      <trkpt lat="48.05092" lon="7.26545">
        <ele>603.21566</ele>
        <time>2018-05-04T12:50:32Z</time>
      </trkpt>
      <trkpt lat="48.05092" lon="7.26546">
        <ele>603.38021</ele>
        <time>2018-05-04T12:50:33Z</time>
      </trkpt>
      <trkpt lat="48.05092" lon="7.26548">
        <ele>603.73385</ele>
        <time>2018-05-04T12:50:34Z</time>
      </trkpt>
      <trkpt lat="48.05093" lon="7.26549">
        <ele>603.73007</ele>
        <time>2018-05-04T12:50:35Z</time>
      </trkpt>
      <trkpt lat="48.05093" lon="7.26551">
        <ele>603.60153</ele>
        <time>2018-05-04T12:50:36Z</time>
      </trkpt>
      <trkpt lat="48.05094" lon="7.26553">
        <ele>603.95041</ele>
        <time>2018-05-04T12:50:37Z</time>
      </trkpt>
      <trkpt lat="48.05094" lon="7.26558">
        <ele>603.81686</ele>
        <time>2018-05-04T12:50:39Z</time>
      </trkpt>
      <trkpt lat="48.05095" lon="7.26561">
        <ele>602.93014</ele>
        <time>2018-05-04T12:50:41Z</time>
      </trkpt>
      <trkpt lat="48.05096" lon="7.26565">
        <ele>602.8497</ele>
        <time>2018-05-04T12:50:43Z</time>
      </trkpt>
      <trkpt lat="48.05096" lon="7.26568">
        <ele>603.12436</ele>
        <time>2018-05-04T12:50:44Z</time>
      </trkpt>
      <trkpt lat="48.05096" lon="7.26571">
        <ele>603.63668</ele>
        <time>2018-05-04T12:50:46Z</time>
      </trkpt>
      <trkpt lat="48.05097" lon="7.26573">
        <ele>603.65536</ele>
        <time>2018-05-04T12:50:47Z</time>
      </trkpt>
      <trkpt lat="48.05097" lon="7.26575">
        <ele>603.57626</ele>
        <time>2018-05-04T12:50:48Z</time>
      </trkpt>
      <trkpt lat="48.05096" lon="7.26575">
        <ele>603.00253</ele>
        <time>2018-05-04T12:50:49Z</time>
      </trkpt>
      <trkpt lat="48.05095" lon="7.26575">
        <ele>602.25937</ele>
        <time>2018-05-04T12:50:52Z</time>
      </trkpt>
      <trkpt lat="48.05094" lon="7.26574">
        <ele>602.08566</ele>
        <time>2018-05-04T12:50:53Z</time>
      </trkpt>
      <trkpt lat="48.05094" lon="7.26574">
        <ele>602.061</ele>
        <time>2018-05-04T12:51:04Z</time>
      </trkpt>
      <trkpt lat="48.05094" lon="7.26574">
        <ele>601.9537</ele>
        <time>2018-05-04T12:51:06Z</time>
      </trkpt>
      <trkpt lat="48.05092" lon="7.26576">
        <ele>601.49545</ele>
        <time>2018-05-04T12:51:08Z</time>
      </trkpt>
      <trkpt lat="48.05092" lon="7.26577">
        <ele>601.47812</ele>
        <time>2018-05-04T12:51:09Z</time>
      </trkpt>
      <trkpt lat="48.05092" lon="7.26578">
        <ele>601.49252</ele>
        <time>2018-05-04T12:51:10Z</time>
      </trkpt>
      <trkpt lat="48.05092" lon="7.26579">
        <ele>601.76815</ele>
        <time>2018-05-04T12:51:11Z</time>
      </trkpt>
      <trkpt lat="48.05093" lon="7.26581">
        <ele>601.86264</ele>
        <time>2018-05-04T12:51:12Z</time>
      </trkpt>
      <trkpt lat="48.05094" lon="7.26584">
        <ele>601.19735</ele>
        <time>2018-05-04T12:51:14Z</time>
      </trkpt>
      <trkpt lat="48.05094" lon="7.26586">
        <ele>600.85434</ele>
        <time>2018-05-04T12:51:15Z</time>
      </trkpt>
      <trkpt lat="48.05094" lon="7.26588">
        <ele>601.14999</ele>
        <time>2018-05-04T12:51:16Z</time>
      </trkpt>
      <trkpt lat="48.05095" lon="7.26589">
        <ele>601.44528</ele>
        <time>2018-05-04T12:51:17Z</time>
      </trkpt>
      <trkpt lat="48.05095" lon="7.2659">
        <ele>601.54281</ele>
        <time>2018-05-04T12:51:18Z</time>
      </trkpt>
      <trkpt lat="48.05095" lon="7.26591">
        <ele>602.18832</ele>
        <time>2018-05-04T12:51:20Z</time>
      </trkpt>
      <trkpt lat="48.05096" lon="7.26591">
        <ele>602.20944</ele>
        <time>2018-05-04T12:51:27Z</time>
      </trkpt>
      <trkpt lat="48.05096" lon="7.26591">
        <ele>602.2977</ele>
        <time>2018-05-04T12:51:28Z</time>
      </trkpt>
      <trkpt lat="48.05095" lon="7.26592">
        <ele>602.57333</ele>
        <time>2018-05-04T12:51:34Z</time>
      </trkpt>
      <trkpt lat="48.05096" lon="7.26591">
        <ele>602.05722</ele>
        <time>2018-05-04T12:51:50Z</time>
      </trkpt>
      <trkpt lat="48.05096" lon="7.2659">
        <ele>603.14145</ele>
        <time>2018-05-04T12:51:51Z</time>
      </trkpt>
      <trkpt lat="48.05095" lon="7.26589">
        <ele>603.1318</ele>
        <time>2018-05-04T12:51:52Z</time>
      </trkpt>
      <trkpt lat="48.05095" lon="7.26587">
        <ele>603.4609</ele>
        <time>2018-05-04T12:51:53Z</time>
      </trkpt>
      <trkpt lat="48.05095" lon="7.26586">
        <ele>603.46579</ele>
        <time>2018-05-04T12:51:54Z</time>
      </trkpt>
      <trkpt lat="48.05094" lon="7.26586">
        <ele>605.04281</ele>
        <time>2018-05-04T12:51:57Z</time>
      </trkpt>
      <trkpt lat="48.05094" lon="7.26586">
        <ele>605.29818</ele>
        <time>2018-05-04T12:51:59Z</time>
      </trkpt>
      <trkpt lat="48.05093" lon="7.26585">
        <ele>605.61447</ele>
        <time>2018-05-04T12:52:01Z</time>
      </trkpt>
      <trkpt lat="48.05092" lon="7.26583">
        <ele>605.84347</ele>
        <time>2018-05-04T12:52:08Z</time>
      </trkpt>
      <trkpt lat="48.05091" lon="7.26584">
        <ele>604.93173</ele>
        <time>2018-05-04T12:52:09Z</time>
      </trkpt>
      <trkpt lat="48.05091" lon="7.26584">
        <ele>604.10263</ele>
        <time>2018-05-04T12:52:10Z</time>
      </trkpt>
      <trkpt lat="48.0509" lon="7.26584">
        <ele>604.32895</ele>
        <time>2018-05-04T12:52:11Z</time>
      </trkpt>
      <trkpt lat="48.0509" lon="7.26583">
        <ele>603.82846</ele>
        <time>2018-05-04T12:52:12Z</time>
      </trkpt>
      <trkpt lat="48.05089" lon="7.26581">
        <ele>603.28024</ele>
        <time>2018-05-04T12:52:13Z</time>
      </trkpt>
      <trkpt lat="48.05089" lon="7.26579">
        <ele>603.46103</ele>
        <time>2018-05-04T12:52:15Z</time>
      </trkpt>
      <trkpt lat="48.0509" lon="7.26578">
        <ele>602.26059</ele>
        <time>2018-05-04T12:52:16Z</time>
      </trkpt>
      <trkpt lat="48.05091" lon="7.26577">
        <ele>601.75644</ele>
        <time>2018-05-04T12:52:18Z</time>
      </trkpt>
      <trkpt lat="48.05093" lon="7.26576">
        <ele>602.57553</ele>
        <time>2018-05-04T12:52:23Z</time>
      </trkpt>
      <trkpt lat="48.05093" lon="7.26575">
        <ele>602.69198</ele>
        <time>2018-05-04T12:52:25Z</time>
      </trkpt>
      <trkpt lat="48.05093" lon="7.26573">
        <ele>603.08847</ele>
        <time>2018-05-04T12:52:26Z</time>
      </trkpt>
      <trkpt lat="48.05094" lon="7.26571">
        <ele>602.44552</ele>
        <time>2018-05-04T12:52:28Z</time>
      </trkpt>
      <trkpt lat="48.05095" lon="7.2657">
        <ele>603.3265</ele>
        <time>2018-05-04T12:52:29Z</time>
      </trkpt>
      <trkpt lat="48.05097" lon="7.26569">
        <ele>603.79745</ele>
        <time>2018-05-04T12:52:30Z</time>
      </trkpt>
      <trkpt lat="48.05097" lon="7.26569">
        <ele>603.73983</ele>
        <time>2018-05-04T12:52:31Z</time>
      </trkpt>
      <trkpt lat="48.05098" lon="7.26568">
        <ele>603.60482</ele>
        <time>2018-05-04T12:52:36Z</time>
      </trkpt>
      <trkpt lat="48.05099" lon="7.26567">
        <ele>603.40524</ele>
        <time>2018-05-04T12:52:37Z</time>
      </trkpt>
      <trkpt lat="48.05099" lon="7.26567">
        <ele>603.32431</ele>
        <time>2018-05-04T12:52:38Z</time>
      </trkpt>
      <trkpt lat="48.05099" lon="7.26566">
        <ele>603.27255</ele>
        <time>2018-05-04T12:52:39Z</time>
      </trkpt>
      <trkpt lat="48.05099" lon="7.26564">
        <ele>603.30478</ele>
        <time>2018-05-04T12:52:40Z</time>
      </trkpt>
      <trkpt lat="48.05099" lon="7.26563">
        <ele>603.46261</ele>
        <time>2018-05-04T12:52:41Z</time>
      </trkpt>
      <trkpt lat="48.05098" lon="7.26562">
        <ele>603.4039</ele>
        <time>2018-05-04T12:52:43Z</time>
      </trkpt>
      <trkpt lat="48.05098" lon="7.2656">
        <ele>603.48812</ele>
        <time>2018-05-04T12:52:45Z</time>
      </trkpt>
      <trkpt lat="48.05097" lon="7.26559">
        <ele>603.10678</ele>
        <time>2018-05-04T12:52:46Z</time>
      </trkpt>
      <trkpt lat="48.05097" lon="7.26558">
        <ele>603.15805</ele>
        <time>2018-05-04T12:52:47Z</time>
      </trkpt>
      <trkpt lat="48.05097" lon="7.26557">
        <ele>603.24484</ele>
        <time>2018-05-04T12:52:48Z</time>
      </trkpt>
      <trkpt lat="48.05097" lon="7.26555">
        <ele>602.7911</ele>
        <time>2018-05-04T12:52:49Z</time>
      </trkpt>
      <trkpt lat="48.05096" lon="7.26554">
        <ele>602.93222</ele>
        <time>2018-05-04T12:52:53Z</time>
      </trkpt>
      <trkpt lat="48.05093" lon="7.26552">
        <ele>603.5577</ele>
        <time>2018-05-04T12:52:58Z</time>
      </trkpt>
      <trkpt lat="48.05092" lon="7.26552">
        <ele>602.75192</ele>
        <time>2018-05-04T12:53:00Z</time>
      </trkpt>
      <trkpt lat="48.05089" lon="7.26553">
        <ele>602.55734</ele>
        <time>2018-05-04T12:53:12Z</time>
      </trkpt>
      <trkpt lat="48.05089" lon="7.26552">
        <ele>601.91757</ele>
        <time>2018-05-04T12:53:14Z</time>
      </trkpt>
      <trkpt lat="48.05089" lon="7.2655">
        <ele>601.72653</ele>
        <time>2018-05-04T12:53:19Z</time>
      </trkpt>
      <trkpt lat="48.0509" lon="7.26549">
        <ele>601.82162</ele>
        <time>2018-05-04T12:53:20Z</time>
      </trkpt>
      <trkpt lat="48.0509" lon="7.26548">
        <ele>602.50741</ele>
        <time>2018-05-04T12:53:21Z</time>
      </trkpt>
      <trkpt lat="48.0509" lon="7.26548">
        <ele>603.04733</ele>
        <time>2018-05-04T12:53:22Z</time>
      </trkpt>
      <trkpt lat="48.05091" lon="7.26547">
        <ele>604.60714</ele>
        <time>2018-05-04T12:53:24Z</time>
      </trkpt>
      <trkpt lat="48.05091" lon="7.26546">
        <ele>604.08163</ele>
        <time>2018-05-04T12:53:25Z</time>
      </trkpt>
      <trkpt lat="48.05091" lon="7.26545">
        <ele>603.61435</ele>
        <time>2018-05-04T12:53:26Z</time>
      </trkpt>
      <trkpt lat="48.05091" lon="7.26544">
        <ele>603.5455</ele>
        <time>2018-05-04T12:53:27Z</time>
      </trkpt>
      <trkpt lat="48.05091" lon="7.26542">
        <ele>603.64315</ele>
        <time>2018-05-04T12:53:28Z</time>
      </trkpt>
      <trkpt lat="48.05091" lon="7.26541">
        <ele>604.25741</ele>
        <time>2018-05-04T12:53:29Z</time>
      </trkpt>
      <trkpt lat="48.05092" lon="7.2654">
        <ele>603.51205</ele>
        <time>2018-05-04T12:53:30Z</time>
      </trkpt>
      <trkpt lat="48.05092" lon="7.26539">
        <ele>602.72592</ele>
        <time>2018-05-04T12:53:31Z</time>
      </trkpt>
      <trkpt lat="48.05093" lon="7.26537">
        <ele>602.97519</ele>
        <time>2018-05-04T12:53:33Z</time>
      </trkpt>
      <trkpt lat="48.05094" lon="7.26535">
        <ele>602.74008</ele>
        <time>2018-05-04T12:53:34Z</time>
      </trkpt>
      <trkpt lat="48.05094" lon="7.26533">
        <ele>600.24691</ele>
        <time>2018-05-04T12:53:35Z</time>
      </trkpt>
      <trkpt lat="48.05094" lon="7.26532">
        <ele>600.34091</ele>
        <time>2018-05-04T12:53:36Z</time>
      </trkpt>
      <trkpt lat="48.05093" lon="7.26529">
        <ele>599.86508</ele>
        <time>2018-05-04T12:53:38Z</time>
      </trkpt>
      <trkpt lat="48.05093" lon="7.26526">
        <ele>599.24655</ele>
        <time>2018-05-04T12:53:39Z</time>
      </trkpt>
      <trkpt lat="48.05093" lon="7.26523">
        <ele>599.54965</ele>
        <time>2018-05-04T12:53:40Z</time>
      </trkpt>
      <trkpt lat="48.05093" lon="7.26519">
        <ele>602.12802</ele>
        <time>2018-05-04T12:53:42Z</time>
      </trkpt>
      <trkpt lat="48.05093" lon="7.26518">
        <ele>602.40133</ele>
        <time>2018-05-04T12:53:44Z</time>
      </trkpt>
      <trkpt lat="48.05094" lon="7.26517">
        <ele>602.40695</ele>
        <time>2018-05-04T12:53:45Z</time>
      </trkpt>
      <trkpt lat="48.05095" lon="7.26516">
        <ele>603.70077</ele>
        <time>2018-05-04T12:53:46Z</time>
      </trkpt>
      <trkpt lat="48.05096" lon="7.26515">
        <ele>603.16024</ele>
        <time>2018-05-04T12:53:48Z</time>
      </trkpt>
      <trkpt lat="48.05098" lon="7.26514">
        <ele>604.35385</ele>
        <time>2018-05-04T12:53:53Z</time>
      </trkpt>
      <trkpt lat="48.05099" lon="7.26512">
        <ele>603.30575</ele>
        <time>2018-05-04T12:53:57Z</time>
      </trkpt>
      <trkpt lat="48.051" lon="7.26512">
        <ele>603.43002</ele>
        <time>2018-05-04T12:53:59Z</time>
      </trkpt>
      <trkpt lat="48.05101" lon="7.26512">
        <ele>603.00424</ele>
        <time>2018-05-04T12:54:01Z</time>
      </trkpt>
      <trkpt lat="48.05104" lon="7.26513">
        <ele>604.2684</ele>
        <time>2018-05-04T12:54:10Z</time>
      </trkpt>
      <trkpt lat="48.05104" lon="7.26514">
        <ele>604.50692</ele>
        <time>2018-05-04T12:54:12Z</time>
      </trkpt>
      <trkpt lat="48.05104" lon="7.26515">
        <ele>604.73764</ele>
        <time>2018-05-04T12:54:14Z</time>
      </trkpt>
      <trkpt lat="48.05103" lon="7.26515">
        <ele>604.77572</ele>
        <time>2018-05-04T12:54:15Z</time>
      </trkpt>
      <trkpt lat="48.05102" lon="7.26514">
        <ele>605.12875</ele>
        <time>2018-05-04T12:54:20Z</time>
      </trkpt>
      <trkpt lat="48.05101" lon="7.26514">
        <ele>605.29879</ele>
        <time>2018-05-04T12:54:21Z</time>
      </trkpt>
      <trkpt lat="48.051" lon="7.26514">
        <ele>605.24081</ele>
        <time>2018-05-04T12:54:22Z</time>
      </trkpt>
      <trkpt lat="48.05096" lon="7.2651">
        <ele>605.16903</ele>
        <time>2018-05-04T12:54:24Z</time>
      </trkpt>
      <trkpt lat="48.05093" lon="7.26509">
        <ele>605.03927</ele>
        <time>2018-05-04T12:54:26Z</time>
      </trkpt>
      <trkpt lat="48.05093" lon="7.26508">
        <ele>604.73117</ele>
        <time>2018-05-04T12:54:28Z</time>
      </trkpt>
      <trkpt lat="48.05093" lon="7.26508">
        <ele>605.08407</ele>
        <time>2018-05-04T12:54:29Z</time>
      </trkpt>
      <trkpt lat="48.05094" lon="7.26507">
        <ele>604.88046</ele>
        <time>2018-05-04T12:54:32Z</time>
      </trkpt>
      <trkpt lat="48.05094" lon="7.26507">
        <ele>604.72958</ele>
        <time>2018-05-04T12:54:33Z</time>
      </trkpt>
      <trkpt lat="48.05096" lon="7.26508">
        <ele>603.22958</ele>
        <time>2018-05-04T12:54:40Z</time>
      </trkpt>
      <trkpt lat="48.05097" lon="7.26508">
        <ele>602.72836</ele>
        <time>2018-05-04T12:54:44Z</time>
      </trkpt>
      <trkpt lat="48.05097" lon="7.26509">
        <ele>602.82711</ele>
        <time>2018-05-04T12:54:46Z</time>
      </trkpt>
      <trkpt lat="48.05097" lon="7.2651">
        <ele>602.66012</ele>
        <time>2018-05-04T12:54:47Z</time>
      </trkpt>
      <trkpt lat="48.05097" lon="7.26511">
        <ele>602.42074</ele>
        <time>2018-05-04T12:54:48Z</time>
      </trkpt>
      <trkpt lat="48.05096" lon="7.26512">
        <ele>602.49936</ele>
        <time>2018-05-04T12:54:49Z</time>
      </trkpt>
      <trkpt lat="48.05096" lon="7.26513">
        <ele>602.31063</ele>
        <time>2018-05-04T12:54:50Z</time>
      </trkpt>
      <trkpt lat="48.05096" lon="7.26515">
        <ele>602.40023</ele>
        <time>2018-05-04T12:54:51Z</time>
      </trkpt>
      <trkpt lat="48.05095" lon="7.26516">
        <ele>602.43197</ele>
        <time>2018-05-04T12:54:52Z</time>
      </trkpt>
      <trkpt lat="48.05094" lon="7.26518">
        <ele>602.33651</ele>
        <time>2018-05-04T12:54:53Z</time>
      </trkpt>
      <trkpt lat="48.05093" lon="7.2652">
        <ele>602.52353</ele>
        <time>2018-05-04T12:54:54Z</time>
      </trkpt>
      <trkpt lat="48.05093" lon="7.26523">
        <ele>602.88107</ele>
        <time>2018-05-04T12:54:56Z</time>
      </trkpt>
      <trkpt lat="48.05092" lon="7.26525">
        <ele>602.70102</ele>
        <time>2018-05-04T12:54:57Z</time>
      </trkpt>
      <trkpt lat="48.05092" lon="7.26526">
        <ele>603.05343</ele>
        <time>2018-05-04T12:54:58Z</time>
      </trkpt>
      <trkpt lat="48.05092" lon="7.26527">
        <ele>603.212</ele>
        <time>2018-05-04T12:54:59Z</time>
      </trkpt>
      <trkpt lat="48.05093" lon="7.26528">
        <ele>603.32797</ele>
        <time>2018-05-04T12:55:00Z</time>
      </trkpt>
      <trkpt lat="48.05093" lon="7.2653">
        <ele>602.94564</ele>
        <time>2018-05-04T12:55:01Z</time>
      </trkpt>
      <trkpt lat="48.05092" lon="7.26531">
        <ele>603.11557</ele>
        <time>2018-05-04T12:55:02Z</time>
      </trkpt>
      <trkpt lat="48.05091" lon="7.26532">
        <ele>602.95565</ele>
        <time>2018-05-04T12:55:03Z</time>
      </trkpt>
      <trkpt lat="48.05089" lon="7.26534">
        <ele>603.07724</ele>
        <time>2018-05-04T12:55:05Z</time>
      </trkpt>
      <trkpt lat="48.05088" lon="7.26535">
        <ele>603.00229</ele>
        <time>2018-05-04T12:55:06Z</time>
      </trkpt>
      <trkpt lat="48.05088" lon="7.26536">
        <ele>603.25937</ele>
        <time>2018-05-04T12:55:07Z</time>
      </trkpt>
      <trkpt lat="48.05085" lon="7.26541">
        <ele>603.44247</ele>
        <time>2018-05-04T12:55:10Z</time>
      </trkpt>
      <trkpt lat="48.05084" lon="7.26542">
        <ele>603.30551</ele>
        <time>2018-05-04T12:55:11Z</time>
      </trkpt>
      <trkpt lat="48.05082" lon="7.26544">
        <ele>603.58212</ele>
        <time>2018-05-04T12:55:12Z</time>
      </trkpt>
      <trkpt lat="48.05081" lon="7.26544">
        <ele>604.01742</ele>
        <time>2018-05-04T12:55:13Z</time>
      </trkpt>
      <trkpt lat="48.0508" lon="7.26544">
        <ele>603.76449</ele>
        <time>2018-05-04T12:55:14Z</time>
      </trkpt>
      <trkpt lat="48.05078" lon="7.26544">
        <ele>603.95834</ele>
        <time>2018-05-04T12:55:15Z</time>
      </trkpt>
      <trkpt lat="48.05077" lon="7.26543">
        <ele>603.88607</ele>
        <time>2018-05-04T12:55:16Z</time>
      </trkpt>
      <trkpt lat="48.05074" lon="7.26542">
        <ele>603.98031</ele>
        <time>2018-05-04T12:55:18Z</time>
      </trkpt>
      <trkpt lat="48.05072" lon="7.26541">
        <ele>603.55636</ele>
        <time>2018-05-04T12:55:19Z</time>
      </trkpt>
      <trkpt lat="48.05071" lon="7.2654">
        <ele>604.12924</ele>
        <time>2018-05-04T12:55:20Z</time>
      </trkpt>
      <trkpt lat="48.0507" lon="7.26539">
        <ele>604.03183</ele>
        <time>2018-05-04T12:55:21Z</time>
      </trkpt>
      <trkpt lat="48.0507" lon="7.26537">
        <ele>604.01547</ele>
        <time>2018-05-04T12:55:22Z</time>
      </trkpt>
      <trkpt lat="48.0507" lon="7.26535">
        <ele>603.94101</ele>
        <time>2018-05-04T12:55:23Z</time>
      </trkpt>
      <trkpt lat="48.05067" lon="7.26532">
        <ele>604.11703</ele>
        <time>2018-05-04T12:55:25Z</time>
      </trkpt>
      <trkpt lat="48.05067" lon="7.26531">
        <ele>604.28061</ele>
        <time>2018-05-04T12:55:26Z</time>
      </trkpt>
      <trkpt lat="48.05066" lon="7.2653">
        <ele>604.50741</ele>
        <time>2018-05-04T12:55:27Z</time>
      </trkpt>
      <trkpt lat="48.05064" lon="7.26526">
        <ele>605.30722</ele>
        <time>2018-05-04T12:55:29Z</time>
      </trkpt>
      <trkpt lat="48.05064" lon="7.26525">
        <ele>605.85348</ele>
        <time>2018-05-04T12:55:30Z</time>
      </trkpt>
      <trkpt lat="48.05062" lon="7.26524">
        <ele>606.16171</ele>
        <time>2018-05-04T12:55:32Z</time>
      </trkpt>
      <trkpt lat="48.05058" lon="7.26519">
        <ele>606.34005</ele>
        <time>2018-05-04T12:55:35Z</time>
      </trkpt>
      <trkpt lat="48.05057" lon="7.26517">
        <ele>606.38449</ele>
        <time>2018-05-04T12:55:36Z</time>
      </trkpt>
      <trkpt lat="48.05057" lon="7.26515">
        <ele>606.28939</ele>
        <time>2018-05-04T12:55:37Z</time>
      </trkpt>
      <trkpt lat="48.05056" lon="7.26514">
        <ele>606.33187</ele>
        <time>2018-05-04T12:55:38Z</time>
      </trkpt>
      <trkpt lat="48.05056" lon="7.26513">
        <ele>606.29745</ele>
        <time>2018-05-04T12:55:39Z</time>
      </trkpt>
      <trkpt lat="48.05055" lon="7.26511">
        <ele>606.26327</ele>
        <time>2018-05-04T12:55:40Z</time>
      </trkpt>
      <trkpt lat="48.05055" lon="7.2651">
        <ele>606.04013</ele>
        <time>2018-05-04T12:55:41Z</time>
      </trkpt>
      <trkpt lat="48.05054" lon="7.26508">
        <ele>606.20102</ele>
        <time>2018-05-04T12:55:42Z</time>
      </trkpt>
      <trkpt lat="48.05054" lon="7.26506">
        <ele>605.92538</ele>
        <time>2018-05-04T12:55:43Z</time>
      </trkpt>
      <trkpt lat="48.05052" lon="7.26504">
        <ele>605.91818</ele>
        <time>2018-05-04T12:55:44Z</time>
      </trkpt>
      <trkpt lat="48.05051" lon="7.26503">
        <ele>605.68356</ele>
        <time>2018-05-04T12:55:45Z</time>
      </trkpt>
      <trkpt lat="48.0505" lon="7.26501">
        <ele>606.16403</ele>
        <time>2018-05-04T12:55:46Z</time>
      </trkpt>
      <trkpt lat="48.05049" lon="7.26494">
        <ele>606.31234</ele>
        <time>2018-05-04T12:55:49Z</time>
      </trkpt>
      <trkpt lat="48.05049" lon="7.26492">
        <ele>606.58859</ele>
        <time>2018-05-04T12:55:50Z</time>
      </trkpt>
      <trkpt lat="48.05048" lon="7.26486">
        <ele>606.67758</ele>
        <time>2018-05-04T12:55:52Z</time>
      </trkpt>
      <trkpt lat="48.05047" lon="7.2648">
        <ele>606.86935</ele>
        <time>2018-05-04T12:55:54Z</time>
      </trkpt>
      <trkpt lat="48.05046" lon="7.26475">
        <ele>606.81527</ele>
        <time>2018-05-04T12:55:56Z</time>
      </trkpt>
      <trkpt lat="48.05046" lon="7.26472">
        <ele>606.5477</ele>
        <time>2018-05-04T12:55:57Z</time>
      </trkpt>
      <trkpt lat="48.05046" lon="7.26469">
        <ele>606.5997</ele>
        <time>2018-05-04T12:55:58Z</time>
      </trkpt>
      <trkpt lat="48.05045" lon="7.26467">
        <ele>606.42892</ele>
        <time>2018-05-04T12:55:59Z</time>
      </trkpt>
      <trkpt lat="48.05045" lon="7.26465">
        <ele>606.41537</ele>
        <time>2018-05-04T12:56:00Z</time>
      </trkpt>
      <trkpt lat="48.05044" lon="7.26463">
        <ele>606.08871</ele>
        <time>2018-05-04T12:56:01Z</time>
      </trkpt>
      <trkpt lat="48.05043" lon="7.2646">
        <ele>606.11154</ele>
        <time>2018-05-04T12:56:02Z</time>
      </trkpt>
      <trkpt lat="48.05037" lon="7.26452">
        <ele>605.68942</ele>
        <time>2018-05-04T12:56:06Z</time>
      </trkpt>
      <trkpt lat="48.05036" lon="7.26449">
        <ele>605.6484</ele>
        <time>2018-05-04T12:56:07Z</time>
      </trkpt>
      <trkpt lat="48.05036" lon="7.26447">
        <ele>605.71225</ele>
        <time>2018-05-04T12:56:08Z</time>
      </trkpt>
      <trkpt lat="48.05036" lon="7.26445">
        <ele>605.74716</ele>
        <time>2018-05-04T12:56:09Z</time>
      </trkpt>
      <trkpt lat="48.05036" lon="7.26443">
        <ele>605.79501</ele>
        <time>2018-05-04T12:56:10Z</time>
      </trkpt>
      <trkpt lat="48.05036" lon="7.26441">
        <ele>605.91256</ele>
        <time>2018-05-04T12:56:11Z</time>
      </trkpt>
      <trkpt lat="48.05036" lon="7.2644">
        <ele>606.19809</ele>
        <time>2018-05-04T12:56:12Z</time>
      </trkpt>
      <trkpt lat="48.05035" lon="7.2644">
        <ele>606.67306</ele>
        <time>2018-05-04T12:56:14Z</time>
      </trkpt>
      <trkpt lat="48.05034" lon="7.26439">
        <ele>607.03915</ele>
        <time>2018-05-04T12:56:15Z</time>
      </trkpt>
      <trkpt lat="48.05032" lon="7.26437">
        <ele>607.2413</ele>
        <time>2018-05-04T12:56:16Z</time>
      </trkpt>
      <trkpt lat="48.0503" lon="7.26435">
        <ele>607.48812</ele>
        <time>2018-05-04T12:56:17Z</time>
      </trkpt>
      <trkpt lat="48.05027" lon="7.26428">
        <ele>607.2872</ele>
        <time>2018-05-04T12:56:19Z</time>
      </trkpt>
      <trkpt lat="48.05026" lon="7.26423">
        <ele>607.75741</ele>
        <time>2018-05-04T12:56:21Z</time>
      </trkpt>
      <trkpt lat="48.05025" lon="7.26421">
        <ele>607.77645</ele>
        <time>2018-05-04T12:56:22Z</time>
      </trkpt>
      <trkpt lat="48.05024" lon="7.2642">
        <ele>607.74594</ele>
        <time>2018-05-04T12:56:23Z</time>
      </trkpt>
      <trkpt lat="48.05021" lon="7.26419">
        <ele>607.8287</ele>
        <time>2018-05-04T12:56:24Z</time>
      </trkpt>
      <trkpt lat="48.05019" lon="7.26419">
        <ele>607.78451</ele>
        <time>2018-05-04T12:56:25Z</time>
      </trkpt>
      <trkpt lat="48.05019" lon="7.2642">
        <ele>607.72372</ele>
        <time>2018-05-04T12:56:26Z</time>
      </trkpt>
      <trkpt lat="48.05018" lon="7.26421">
        <ele>607.7048</ele>
        <time>2018-05-04T12:56:27Z</time>
      </trkpt>
      <trkpt lat="48.05018" lon="7.26431">
        <ele>607.41916</ele>
        <time>2018-05-04T12:56:31Z</time>
      </trkpt>
      <trkpt lat="48.05017" lon="7.26433">
        <ele>607.45639</ele>
        <time>2018-05-04T12:56:32Z</time>
      </trkpt>
      <trkpt lat="48.05015" lon="7.26435">
        <ele>607.22738</ele>
        <time>2018-05-04T12:56:33Z</time>
      </trkpt>
      <trkpt lat="48.05014" lon="7.26436">
        <ele>607.37558</ele>
        <time>2018-05-04T12:56:34Z</time>
      </trkpt>
      <trkpt lat="48.05008" lon="7.26433">
        <ele>607.0411</ele>
        <time>2018-05-04T12:56:37Z</time>
      </trkpt>
      <trkpt lat="48.05007" lon="7.26432">
        <ele>607.17538</ele>
        <time>2018-05-04T12:56:38Z</time>
      </trkpt>
      <trkpt lat="48.05006" lon="7.26432">
        <ele>607.56686</ele>
        <time>2018-05-04T12:56:39Z</time>
      </trkpt>
      <trkpt lat="48.05001" lon="7.26432">
        <ele>607.71151</ele>
        <time>2018-05-04T12:56:42Z</time>
      </trkpt>
      <trkpt lat="48.04999" lon="7.26431">
        <ele>607.71139</ele>
        <time>2018-05-04T12:56:43Z</time>
      </trkpt>
      <trkpt lat="48.04998" lon="7.26431">
        <ele>607.54867</ele>
        <time>2018-05-04T12:56:44Z</time>
      </trkpt>
      <trkpt lat="48.04996" lon="7.2643">
        <ele>607.35922</ele>
        <time>2018-05-04T12:56:45Z</time>
      </trkpt>
      <trkpt lat="48.04995" lon="7.26431">
        <ele>607.16684</ele>
        <time>2018-05-04T12:56:46Z</time>
      </trkpt>
      <trkpt lat="48.04993" lon="7.26434">
        <ele>606.86532</ele>
        <time>2018-05-04T12:56:47Z</time>
      </trkpt>
      <trkpt lat="48.04993" lon="7.26438">
        <ele>606.5444</ele>
        <time>2018-05-04T12:56:48Z</time>
      </trkpt>
      <trkpt lat="48.04992" lon="7.26443">
        <ele>606.61361</ele>
        <time>2018-05-04T12:56:49Z</time>
      </trkpt>
      <trkpt lat="48.04991" lon="7.26449">
        <ele>606.10971</ele>
        <time>2018-05-04T12:56:50Z</time>
      </trkpt>
      <trkpt lat="48.04988" lon="7.26458">
        <ele>605.60409</ele>
        <time>2018-05-04T12:56:52Z</time>
      </trkpt>
      <trkpt lat="48.04986" lon="7.26463">
        <ele>605.56747</ele>
        <time>2018-05-04T12:56:53Z</time>
      </trkpt>
      <trkpt lat="48.04983" lon="7.26482">
        <ele>605.20883</ele>
        <time>2018-05-04T12:56:57Z</time>
      </trkpt>
      <trkpt lat="48.04982" lon="7.26486">
        <ele>605.19052</ele>
        <time>2018-05-04T12:56:58Z</time>
      </trkpt>
      <trkpt lat="48.04979" lon="7.26506">
        <ele>604.1141</ele>
        <time>2018-05-04T12:57:04Z</time>
      </trkpt>
      <trkpt lat="48.04978" lon="7.2651">
        <ele>603.54135</ele>
        <time>2018-05-04T12:57:05Z</time>
      </trkpt>
      <trkpt lat="48.04979" lon="7.26516">
        <ele>603.10202</ele>
        <time>2018-05-04T12:57:07Z</time>
      </trkpt>
      <trkpt lat="48.0498" lon="7.26519">
        <ele>603.27426</ele>
        <time>2018-05-04T12:57:08Z</time>
      </trkpt>
      <trkpt lat="48.0498" lon="7.26521">
        <ele>603.15365</ele>
        <time>2018-05-04T12:57:09Z</time>
      </trkpt>
      <trkpt lat="48.0498" lon="7.26524">
        <ele>602.94467</ele>
        <time>2018-05-04T12:57:10Z</time>
      </trkpt>
      <trkpt lat="48.04981" lon="7.26526">
        <ele>602.69052</ele>
        <time>2018-05-04T12:57:11Z</time>
      </trkpt>
      <trkpt lat="48.04982" lon="7.26528">
        <ele>602.7474</ele>
        <time>2018-05-04T12:57:12Z</time>
      </trkpt>
      <trkpt lat="48.04983" lon="7.26531">
        <ele>602.67733</ele>
        <time>2018-05-04T12:57:13Z</time>
      </trkpt>
      <trkpt lat="48.04983" lon="7.26532">
        <ele>602.7109</ele>
        <time>2018-05-04T12:57:14Z</time>
      </trkpt>
      <trkpt lat="48.04982" lon="7.26533">
        <ele>602.64669</ele>
        <time>2018-05-04T12:57:15Z</time>
      </trkpt>
      <trkpt lat="48.04981" lon="7.26536">
        <ele>602.34823</ele>
        <time>2018-05-04T12:57:17Z</time>
      </trkpt>
      <trkpt lat="48.0498" lon="7.26538">
        <ele>602.24411</ele>
        <time>2018-05-04T12:57:18Z</time>
      </trkpt>
      <trkpt lat="48.0498" lon="7.26539">
        <ele>602.34408</ele>
        <time>2018-05-04T12:57:19Z</time>
      </trkpt>
      <trkpt lat="48.04978" lon="7.26539">
        <ele>601.66598</ele>
        <time>2018-05-04T12:57:20Z</time>
      </trkpt>
      <trkpt lat="48.04976" lon="7.26539">
        <ele>601.61471</ele>
        <time>2018-05-04T12:57:21Z</time>
      </trkpt>
      <trkpt lat="48.04975" lon="7.26537">
        <ele>601.0903</ele>
        <time>2018-05-04T12:57:22Z</time>
      </trkpt>
      <trkpt lat="48.04975" lon="7.26535">
        <ele>600.85434</ele>
        <time>2018-05-04T12:57:23Z</time>
      </trkpt>
      <trkpt lat="48.04975" lon="7.26532">
        <ele>600.57919</ele>
        <time>2018-05-04T12:57:30Z</time>
      </trkpt>
      <trkpt lat="48.04975" lon="7.26531">
        <ele>599.97934</ele>
        <time>2018-05-04T12:57:35Z</time>
      </trkpt>
      <trkpt lat="48.04974" lon="7.26529">
        <ele>599.31161</ele>
        <time>2018-05-04T12:57:39Z</time>
      </trkpt>
      <trkpt lat="48.04972" lon="7.26526">
        <ele>599.28976</ele>
        <time>2018-05-04T12:58:17Z</time>
      </trkpt>
      <trkpt lat="48.04972" lon="7.26525">
        <ele>598.50631</ele>
        <time>2018-05-04T12:58:18Z</time>
      </trkpt>
      <trkpt lat="48.04972" lon="7.26524">
        <ele>598.00534</ele>
        <time>2018-05-04T12:58:19Z</time>
      </trkpt>
      <trkpt lat="48.04973" lon="7.26522">
        <ele>598.45187</ele>
        <time>2018-05-04T12:58:20Z</time>
      </trkpt>
      <trkpt lat="48.04973" lon="7.2652">
        <ele>597.91049</ele>
        <time>2018-05-04T12:58:21Z</time>
      </trkpt>
      <trkpt lat="48.04973" lon="7.26519">
        <ele>597.59945</ele>
        <time>2018-05-04T12:58:22Z</time>
      </trkpt>
      <trkpt lat="48.04972" lon="7.26518">
        <ele>596.60202</ele>
        <time>2018-05-04T12:58:24Z</time>
      </trkpt>
      <trkpt lat="48.04971" lon="7.26516">
        <ele>596.5621</ele>
        <time>2018-05-04T12:58:26Z</time>
      </trkpt>
      <trkpt lat="48.0497" lon="7.26514">
        <ele>596.66781</ele>
        <time>2018-05-04T12:58:27Z</time>
      </trkpt>
      <trkpt lat="48.0497" lon="7.26511">
        <ele>596.82272</ele>
        <time>2018-05-04T12:58:29Z</time>
      </trkpt>
      <trkpt lat="48.04969" lon="7.26509">
        <ele>597.10629</ele>
        <time>2018-05-04T12:58:30Z</time>
      </trkpt>
      <trkpt lat="48.04969" lon="7.26502">
        <ele>597.23739</ele>
        <time>2018-05-04T12:58:33Z</time>
      </trkpt>
      <trkpt lat="48.04969" lon="7.26502">
        <ele>597.17282</ele>
        <time>2018-05-04T12:58:34Z</time>
      </trkpt>
      <trkpt lat="48.04969" lon="7.265">
        <ele>596.83432</ele>
        <time>2018-05-04T12:58:36Z</time>
      </trkpt>
      <trkpt lat="48.04968" lon="7.26498">
        <ele>597.00985</ele>
        <time>2018-05-04T12:58:37Z</time>
      </trkpt>
      <trkpt lat="48.04966" lon="7.26493">
        <ele>596.91867</ele>
        <time>2018-05-04T12:58:39Z</time>
      </trkpt>
      <trkpt lat="48.04965" lon="7.26491">
        <ele>596.87655</ele>
        <time>2018-05-04T12:58:40Z</time>
      </trkpt>
      <trkpt lat="48.04964" lon="7.26489">
        <ele>596.49618</ele>
        <time>2018-05-04T12:58:41Z</time>
      </trkpt>
      <trkpt lat="48.04962" lon="7.26488">
        <ele>596.09274</ele>
        <time>2018-05-04T12:58:42Z</time>
      </trkpt>
      <trkpt lat="48.0496" lon="7.26487">
        <ele>596.17965</ele>
        <time>2018-05-04T12:58:43Z</time>
      </trkpt>
      <trkpt lat="48.04957" lon="7.26486">
        <ele>596.18783</ele>
        <time>2018-05-04T12:58:44Z</time>
      </trkpt>
      <trkpt lat="48.04954" lon="7.26486">
        <ele>596.1705</ele>
        <time>2018-05-04T12:58:45Z</time>
      </trkpt>
      <trkpt lat="48.04947" lon="7.26487">
        <ele>596.73678</ele>
        <time>2018-05-04T12:58:48Z</time>
      </trkpt>
      <trkpt lat="48.04945" lon="7.26487">
        <ele>596.86508</ele>
        <time>2018-05-04T12:58:49Z</time>
      </trkpt>
      <trkpt lat="48.04943" lon="7.26486">
        <ele>597.25204</ele>
        <time>2018-05-04T12:58:50Z</time>
      </trkpt>
      <trkpt lat="48.04936" lon="7.26483">
        <ele>597.59408</ele>
        <time>2018-05-04T12:58:53Z</time>
      </trkpt>
      <trkpt lat="48.04934" lon="7.26481">
        <ele>597.35238</ele>
        <time>2018-05-04T12:58:54Z</time>
      </trkpt>
      <trkpt lat="48.04932" lon="7.26479">
        <ele>597.25399</ele>
        <time>2018-05-04T12:58:55Z</time>
      </trkpt>
      <trkpt lat="48.04929" lon="7.26474">
        <ele>597.1932</ele>
        <time>2018-05-04T12:58:57Z</time>
      </trkpt>
      <trkpt lat="48.04923" lon="7.26468">
        <ele>597.62106</ele>
        <time>2018-05-04T12:58:59Z</time>
      </trkpt>
      <trkpt lat="48.04916" lon="7.26463">
        <ele>597.64242</ele>
        <time>2018-05-04T12:59:01Z</time>
      </trkpt>
      <trkpt lat="48.04913" lon="7.26461">
        <ele>597.67306</ele>
        <time>2018-05-04T12:59:02Z</time>
      </trkpt>
      <trkpt lat="48.04908" lon="7.2646">
        <ele>597.9227</ele>
        <time>2018-05-04T12:59:04Z</time>
      </trkpt>
      <trkpt lat="48.04905" lon="7.2646">
        <ele>598.37155</ele>
        <time>2018-05-04T12:59:05Z</time>
      </trkpt>
      <trkpt lat="48.04902" lon="7.26459">
        <ele>598.56283</ele>
        <time>2018-05-04T12:59:06Z</time>
      </trkpt>
      <trkpt lat="48.04899" lon="7.26458">
        <ele>598.57357</ele>
        <time>2018-05-04T12:59:07Z</time>
      </trkpt>
      <trkpt lat="48.04897" lon="7.26456">
        <ele>598.55062</ele>
        <time>2018-05-04T12:59:08Z</time>
      </trkpt>
      <trkpt lat="48.04895" lon="7.26453">
        <ele>598.81649</ele>
        <time>2018-05-04T12:59:09Z</time>
      </trkpt>
      <trkpt lat="48.04891" lon="7.26445">
        <ele>599.0809</ele>
        <time>2018-05-04T12:59:11Z</time>
      </trkpt>
      <trkpt lat="48.04889" lon="7.26443">
        <ele>599.30331</ele>
        <time>2018-05-04T12:59:12Z</time>
      </trkpt>
      <trkpt lat="48.04887" lon="7.26441">
        <ele>599.31723</ele>
        <time>2018-05-04T12:59:13Z</time>
      </trkpt>
      <trkpt lat="48.04885" lon="7.2644">
        <ele>599.40756</ele>
        <time>2018-05-04T12:59:14Z</time>
      </trkpt>
      <trkpt lat="48.04878" lon="7.2644">
        <ele>599.53451</ele>
        <time>2018-05-04T12:59:17Z</time>
      </trkpt>
      <trkpt lat="48.04875" lon="7.26439">
        <ele>599.4454</ele>
        <time>2018-05-04T12:59:18Z</time>
      </trkpt>
      <trkpt lat="48.04872" lon="7.26438">
        <ele>599.17282</ele>
        <time>2018-05-04T12:59:19Z</time>
      </trkpt>
      <trkpt lat="48.04869" lon="7.26437">
        <ele>598.68319</ele>
        <time>2018-05-04T12:59:20Z</time>
      </trkpt>
      <trkpt lat="48.04864" lon="7.26432">
        <ele>599.41391</ele>
        <time>2018-05-04T12:59:23Z</time>
      </trkpt>
      <trkpt lat="48.04863" lon="7.26431">
        <ele>599.81112</ele>
        <time>2018-05-04T12:59:24Z</time>
      </trkpt>
      <trkpt lat="48.04859" lon="7.26421">
        <ele>599.55087</ele>
        <time>2018-05-04T12:59:30Z</time>
      </trkpt>
      <trkpt lat="48.04859" lon="7.2642">
        <ele>599.45639</ele>
        <time>2018-05-04T12:59:31Z</time>
      </trkpt>
      <trkpt lat="48.04859" lon="7.26418">
        <ele>599.63034</ele>
        <time>2018-05-04T12:59:32Z</time>
      </trkpt>
      <trkpt lat="48.04858" lon="7.26417">
        <ele>599.2955</ele>
        <time>2018-05-04T12:59:33Z</time>
      </trkpt>
      <trkpt lat="48.04858" lon="7.26415">
        <ele>598.99301</ele>
        <time>2018-05-04T12:59:34Z</time>
      </trkpt>
      <trkpt lat="48.04857" lon="7.26413">
        <ele>599.53329</ele>
        <time>2018-05-04T12:59:35Z</time>
      </trkpt>
      <trkpt lat="48.04856" lon="7.26411">
        <ele>599.44735</ele>
        <time>2018-05-04T12:59:36Z</time>
      </trkpt>
      <trkpt lat="48.04854" lon="7.26404">
        <ele>599.78964</ele>
        <time>2018-05-04T12:59:39Z</time>
      </trkpt>
      <trkpt lat="48.04853" lon="7.26403">
        <ele>599.77841</ele>
        <time>2018-05-04T12:59:40Z</time>
      </trkpt>
      <trkpt lat="48.04852" lon="7.26401">
        <ele>600.21273</ele>
        <time>2018-05-04T12:59:41Z</time>
      </trkpt>
      <trkpt lat="48.04849" lon="7.264">
        <ele>599.98056</ele>
        <time>2018-05-04T12:59:43Z</time>
      </trkpt>
      <trkpt lat="48.04847" lon="7.26399">
        <ele>600.05185</ele>
        <time>2018-05-04T12:59:44Z</time>
      </trkpt>
      <trkpt lat="48.04846" lon="7.26397">
        <ele>599.70517</ele>
        <time>2018-05-04T12:59:45Z</time>
      </trkpt>
      <trkpt lat="48.04844" lon="7.26394">
        <ele>600.26791</ele>
        <time>2018-05-04T12:59:47Z</time>
      </trkpt>
      <trkpt lat="48.04843" lon="7.2639">
        <ele>599.77572</ele>
        <time>2018-05-04T12:59:49Z</time>
      </trkpt>
      <trkpt lat="48.04842" lon="7.26389">
        <ele>599.93344</ele>
        <time>2018-05-04T12:59:50Z</time>
      </trkpt>
      <trkpt lat="48.04842" lon="7.26386">
        <ele>599.9913</ele>
        <time>2018-05-04T12:59:51Z</time>
      </trkpt>
      <trkpt lat="48.04842" lon="7.26381">
        <ele>599.34799</ele>
        <time>2018-05-04T12:59:53Z</time>
      </trkpt>
      <trkpt lat="48.04842" lon="7.26379">
        <ele>599.40487</ele>
        <time>2018-05-04T12:59:54Z</time>
      </trkpt>
      <trkpt lat="48.04841" lon="7.26377">
        <ele>599.1434</ele>
        <time>2018-05-04T12:59:55Z</time>
      </trkpt>
      <trkpt lat="48.04841" lon="7.26376">
        <ele>599.31649</ele>
        <time>2018-05-04T12:59:56Z</time>
      </trkpt>
      <trkpt lat="48.0484" lon="7.26375">
        <ele>599.51583</ele>
        <time>2018-05-04T12:59:57Z</time>
      </trkpt>
      <trkpt lat="48.04839" lon="7.26375">
        <ele>599.17221</ele>
        <time>2018-05-04T12:59:58Z</time>
      </trkpt>
      <trkpt lat="48.04837" lon="7.26375">
        <ele>599.4913</ele>
        <time>2018-05-04T12:59:59Z</time>
      </trkpt>
      <trkpt lat="48.04837" lon="7.26375">
        <ele>599.17099</ele>
        <time>2018-05-04T13:00:00Z</time>
      </trkpt>
      <trkpt lat="48.04836" lon="7.26374">
        <ele>599.16781</ele>
        <time>2018-05-04T13:00:01Z</time>
      </trkpt>
      <trkpt lat="48.04835" lon="7.26373">
        <ele>599.34701</ele>
        <time>2018-05-04T13:00:02Z</time>
      </trkpt>
      <trkpt lat="48.04835" lon="7.26371">
        <ele>599.45712</ele>
        <time>2018-05-04T13:00:03Z</time>
      </trkpt>
      <trkpt lat="48.04835" lon="7.26369">
        <ele>599.0903</ele>
        <time>2018-05-04T13:00:04Z</time>
      </trkpt>
      <trkpt lat="48.04834" lon="7.26367">
        <ele>598.93832</ele>
        <time>2018-05-04T13:00:05Z</time>
      </trkpt>
      <trkpt lat="48.04833" lon="7.26364">
        <ele>599.23227</ele>
        <time>2018-05-04T13:00:06Z</time>
      </trkpt>
      <trkpt lat="48.04832" lon="7.26362">
        <ele>599.3099</ele>
        <time>2018-05-04T13:00:07Z</time>
      </trkpt>
      <trkpt lat="48.04832" lon="7.26359">
        <ele>599.17648</ele>
        <time>2018-05-04T13:00:08Z</time>
      </trkpt>
      <trkpt lat="48.04832" lon="7.26355">
        <ele>599.57113</ele>
        <time>2018-05-04T13:00:10Z</time>
      </trkpt>
      <trkpt lat="48.04832" lon="7.26353">
        <ele>599.77182</ele>
        <time>2018-05-04T13:00:11Z</time>
      </trkpt>
      <trkpt lat="48.04832" lon="7.26351">
        <ele>599.80441</ele>
        <time>2018-05-04T13:00:12Z</time>
      </trkpt>
      <trkpt lat="48.04831" lon="7.2635">
        <ele>599.98764</ele>
        <time>2018-05-04T13:00:13Z</time>
      </trkpt>
      <trkpt lat="48.0483" lon="7.26348">
        <ele>599.90512</ele>
        <time>2018-05-04T13:00:14Z</time>
      </trkpt>
      <trkpt lat="48.04823" lon="7.26344">
        <ele>599.89608</ele>
        <time>2018-05-04T13:00:18Z</time>
      </trkpt>
      <trkpt lat="48.04822" lon="7.26343">
        <ele>600.28183</ele>
        <time>2018-05-04T13:00:19Z</time>
      </trkpt>
      <trkpt lat="48.0482" lon="7.26342">
        <ele>600.15536</ele>
        <time>2018-05-04T13:00:20Z</time>
      </trkpt>
      <trkpt lat="48.04819" lon="7.26341">
        <ele>600.20663</ele>
        <time>2018-05-04T13:00:21Z</time>
      </trkpt>
      <trkpt lat="48.04817" lon="7.2634">
        <ele>600.0809</ele>
        <time>2018-05-04T13:00:22Z</time>
      </trkpt>
      <trkpt lat="48.04816" lon="7.26339">
        <ele>600.17538</ele>
        <time>2018-05-04T13:00:23Z</time>
      </trkpt>
      <trkpt lat="48.04813" lon="7.26334">
        <ele>600.00229</ele>
        <time>2018-05-04T13:00:26Z</time>
      </trkpt>
      <trkpt lat="48.04812" lon="7.26332">
        <ele>600.28415</ele>
        <time>2018-05-04T13:00:27Z</time>
      </trkpt>
      <trkpt lat="48.04812" lon="7.26331">
        <ele>600.02218</ele>
        <time>2018-05-04T13:00:28Z</time>
      </trkpt>
      <trkpt lat="48.04811" lon="7.26329">
        <ele>599.92599</ele>
        <time>2018-05-04T13:00:29Z</time>
      </trkpt>
      <trkpt lat="48.0481" lon="7.26328">
        <ele>600.03769</ele>
        <time>2018-05-04T13:00:30Z</time>
      </trkpt>
      <trkpt lat="48.04809" lon="7.26327">
        <ele>600.01498</ele>
        <time>2018-05-04T13:00:31Z</time>
      </trkpt>
      <trkpt lat="48.04806" lon="7.26326">
        <ele>600.3204</ele>
        <time>2018-05-04T13:00:33Z</time>
      </trkpt>
      <trkpt lat="48.04804" lon="7.26325">
        <ele>600.3016</ele>
        <time>2018-05-04T13:00:34Z</time>
      </trkpt>
      <trkpt lat="48.04801" lon="7.26324">
        <ele>600.50937</ele>
        <time>2018-05-04T13:00:36Z</time>
      </trkpt>
      <trkpt lat="48.04799" lon="7.26323">
        <ele>600.52963</ele>
        <time>2018-05-04T13:00:38Z</time>
      </trkpt>
      <trkpt lat="48.04797" lon="7.26322">
        <ele>600.9227</ele>
        <time>2018-05-04T13:00:39Z</time>
      </trkpt>
      <trkpt lat="48.04796" lon="7.26321">
        <ele>600.92709</ele>
        <time>2018-05-04T13:00:40Z</time>
      </trkpt>
      <trkpt lat="48.04794" lon="7.2632">
        <ele>600.76986</ele>
        <time>2018-05-04T13:00:41Z</time>
      </trkpt>
      <trkpt lat="48.04793" lon="7.26319">
        <ele>600.75216</ele>
        <time>2018-05-04T13:00:42Z</time>
      </trkpt>
      <trkpt lat="48.04786" lon="7.26318">
        <ele>600.74911</ele>
        <time>2018-05-04T13:00:46Z</time>
      </trkpt>
      <trkpt lat="48.04784" lon="7.26318">
        <ele>600.77328</ele>
        <time>2018-05-04T13:00:47Z</time>
      </trkpt>
      <trkpt lat="48.04782" lon="7.26319">
        <ele>600.64169</ele>
        <time>2018-05-04T13:00:48Z</time>
      </trkpt>
      <trkpt lat="48.04781" lon="7.26318">
        <ele>600.63119</ele>
        <time>2018-05-04T13:00:49Z</time>
      </trkpt>
      <trkpt lat="48.04779" lon="7.26317">
        <ele>600.68539</ele>
        <time>2018-05-04T13:00:50Z</time>
      </trkpt>
      <trkpt lat="48.04778" lon="7.26316">
        <ele>600.83126</ele>
        <time>2018-05-04T13:00:51Z</time>
      </trkpt>
      <trkpt lat="48.04777" lon="7.26315">
        <ele>601.18393</ele>
        <time>2018-05-04T13:00:52Z</time>
      </trkpt>
      <trkpt lat="48.04775" lon="7.26314">
        <ele>601.71103</ele>
        <time>2018-05-04T13:00:53Z</time>
      </trkpt>
      <trkpt lat="48.04772" lon="7.26314">
        <ele>601.82895</ele>
        <time>2018-05-04T13:00:55Z</time>
      </trkpt>
      <trkpt lat="48.0477" lon="7.26313">
        <ele>602.04306</ele>
        <time>2018-05-04T13:00:57Z</time>
      </trkpt>
      <trkpt lat="48.04769" lon="7.26312">
        <ele>602.30734</ele>
        <time>2018-05-04T13:00:58Z</time>
      </trkpt>
      <trkpt lat="48.04768" lon="7.26311">
        <ele>602.1495</ele>
        <time>2018-05-04T13:00:59Z</time>
      </trkpt>
      <trkpt lat="48.04767" lon="7.26309">
        <ele>602.13534</ele>
        <time>2018-05-04T13:01:00Z</time>
      </trkpt>
      <trkpt lat="48.04766" lon="7.26308">
        <ele>602.51669</ele>
        <time>2018-05-04T13:01:01Z</time>
      </trkpt>
      <trkpt lat="48.04766" lon="7.26306">
        <ele>602.65426</ele>
        <time>2018-05-04T13:01:02Z</time>
      </trkpt>
      <trkpt lat="48.04765" lon="7.26305">
        <ele>602.43295</ele>
        <time>2018-05-04T13:01:03Z</time>
      </trkpt>
      <trkpt lat="48.04764" lon="7.26301">
        <ele>601.76901</ele>
        <time>2018-05-04T13:01:05Z</time>
      </trkpt>
      <trkpt lat="48.04763" lon="7.26299">
        <ele>601.58834</ele>
        <time>2018-05-04T13:01:06Z</time>
      </trkpt>
      <trkpt lat="48.04762" lon="7.26299">
        <ele>601.46688</ele>
        <time>2018-05-04T13:01:07Z</time>
      </trkpt>
      <trkpt lat="48.04762" lon="7.26298">
        <ele>601.39828</ele>
        <time>2018-05-04T13:01:08Z</time>
      </trkpt>
      <trkpt lat="48.04761" lon="7.26297">
        <ele>601.84604</ele>
        <time>2018-05-04T13:01:09Z</time>
      </trkpt>
      <trkpt lat="48.0476" lon="7.26295">
        <ele>602.19137</ele>
        <time>2018-05-04T13:01:10Z</time>
      </trkpt>
      <trkpt lat="48.04758" lon="7.26294">
        <ele>602.16952</ele>
        <time>2018-05-04T13:01:11Z</time>
      </trkpt>
      <trkpt lat="48.04756" lon="7.26293">
        <ele>602.09213</ele>
        <time>2018-05-04T13:01:12Z</time>
      </trkpt>
      <trkpt lat="48.04755" lon="7.26292">
        <ele>602.12069</ele>
        <time>2018-05-04T13:01:13Z</time>
      </trkpt>
      <trkpt lat="48.04754" lon="7.26291">
        <ele>602.08895</ele>
        <time>2018-05-04T13:01:14Z</time>
      </trkpt>
      <trkpt lat="48.04751" lon="7.26289">
        <ele>601.9891</ele>
        <time>2018-05-04T13:01:16Z</time>
      </trkpt>
      <trkpt lat="48.04746" lon="7.26286">
        <ele>601.44027</ele>
        <time>2018-05-04T13:01:19Z</time>
      </trkpt>
      <trkpt lat="48.04742" lon="7.26285">
        <ele>601.37606</ele>
        <time>2018-05-04T13:01:21Z</time>
      </trkpt>
      <trkpt lat="48.0474" lon="7.26284">
        <ele>601.62851</ele>
        <time>2018-05-04T13:01:22Z</time>
      </trkpt>
      <trkpt lat="48.04738" lon="7.26283">
        <ele>601.54379</ele>
        <time>2018-05-04T13:01:23Z</time>
      </trkpt>
      <trkpt lat="48.04733" lon="7.26278">
        <ele>601.4747</ele>
        <time>2018-05-04T13:01:25Z</time>
      </trkpt>
      <trkpt lat="48.04727" lon="7.26274">
        <ele>601.1954</ele>
        <time>2018-05-04T13:01:27Z</time>
      </trkpt>
      <trkpt lat="48.04723" lon="7.26272">
        <ele>600.95199</ele>
        <time>2018-05-04T13:01:28Z</time>
      </trkpt>
      <trkpt lat="48.0472" lon="7.2627">
        <ele>600.58371</ele>
        <time>2018-05-04T13:01:29Z</time>
      </trkpt>
      <trkpt lat="48.04711" lon="7.26263">
        <ele>600.89694</ele>
        <time>2018-05-04T13:01:32Z</time>
      </trkpt>
      <trkpt lat="48.0471" lon="7.26261">
        <ele>601.21627</ele>
        <time>2018-05-04T13:01:33Z</time>
      </trkpt>
      <trkpt lat="48.04705" lon="7.2626">
        <ele>601.37472</ele>
        <time>2018-05-04T13:01:35Z</time>
      </trkpt>
      <trkpt lat="48.04703" lon="7.26258">
        <ele>601.32846</ele>
        <time>2018-05-04T13:01:36Z</time>
      </trkpt>
      <trkpt lat="48.04701" lon="7.26257">
        <ele>601.32553</ele>
        <time>2018-05-04T13:01:37Z</time>
      </trkpt>
      <trkpt lat="48.04666" lon="7.26213">
        <ele>599.29525</ele>
        <time>2018-05-04T13:01:52Z</time>
      </trkpt>
      <trkpt lat="48.04659" lon="7.26208">
        <ele>599.3331</ele>
        <time>2018-05-04T13:01:55Z</time>
      </trkpt>
      <trkpt lat="48.04657" lon="7.26207">
        <ele>599.10678</ele>
        <time>2018-05-04T13:01:56Z</time>
      </trkpt>
      <trkpt lat="48.0465" lon="7.26203">
        <ele>598.89865</ele>
        <time>2018-05-04T13:01:59Z</time>
      </trkpt>
      <trkpt lat="48.04648" lon="7.26202">
        <ele>598.72897</ele>
        <time>2018-05-04T13:02:00Z</time>
      </trkpt>
      <trkpt lat="48.04644" lon="7.26199">
        <ele>598.82138</ele>
        <time>2018-05-04T13:02:02Z</time>
      </trkpt>
      <trkpt lat="48.04642" lon="7.26198">
        <ele>598.86605</ele>
        <time>2018-05-04T13:02:03Z</time>
      </trkpt>
      <trkpt lat="48.0464" lon="7.26196">
        <ele>598.88607</ele>
        <time>2018-05-04T13:02:04Z</time>
      </trkpt>
      <trkpt lat="48.04639" lon="7.26194">
        <ele>598.82724</ele>
        <time>2018-05-04T13:02:05Z</time>
      </trkpt>
      <trkpt lat="48.04635" lon="7.26185">
        <ele>598.16317</ele>
        <time>2018-05-04T13:02:08Z</time>
      </trkpt>
      <trkpt lat="48.04633" lon="7.26182">
        <ele>598.15805</ele>
        <time>2018-05-04T13:02:09Z</time>
      </trkpt>
      <trkpt lat="48.04626" lon="7.26173">
        <ele>597.5903</ele>
        <time>2018-05-04T13:02:12Z</time>
      </trkpt>
      <trkpt lat="48.04617" lon="7.26159">
        <ele>596.72958</ele>
        <time>2018-05-04T13:02:16Z</time>
      </trkpt>
      <trkpt lat="48.04614" lon="7.26156">
        <ele>595.91134</ele>
        <time>2018-05-04T13:02:17Z</time>
      </trkpt>
      <trkpt lat="48.04611" lon="7.26153">
        <ele>595.82675</ele>
        <time>2018-05-04T13:02:18Z</time>
      </trkpt>
      <trkpt lat="48.04608" lon="7.26151">
        <ele>595.69711</ele>
        <time>2018-05-04T13:02:19Z</time>
      </trkpt>
      <trkpt lat="48.04603" lon="7.26151">
        <ele>595.00985</ele>
        <time>2018-05-04T13:02:20Z</time>
      </trkpt>
      <trkpt lat="48.04594" lon="7.26152">
        <ele>594.85019</ele>
        <time>2018-05-04T13:02:22Z</time>
      </trkpt>
      <trkpt lat="48.04592" lon="7.26152">
        <ele>594.73068</ele>
        <time>2018-05-04T13:02:23Z</time>
      </trkpt>
      <trkpt lat="48.04589" lon="7.2615">
        <ele>594.83114</ele>
        <time>2018-05-04T13:02:24Z</time>
      </trkpt>
      <trkpt lat="48.04579" lon="7.26139">
        <ele>595.04525</ele>
        <time>2018-05-04T13:02:29Z</time>
      </trkpt>
      <trkpt lat="48.04575" lon="7.26135">
        <ele>594.92123</ele>
        <time>2018-05-04T13:02:31Z</time>
      </trkpt>
      <trkpt lat="48.04572" lon="7.26133">
        <ele>594.84506</ele>
        <time>2018-05-04T13:02:32Z</time>
      </trkpt>
      <trkpt lat="48.0457" lon="7.26132">
        <ele>594.78866</ele>
        <time>2018-05-04T13:02:33Z</time>
      </trkpt>
      <trkpt lat="48.04567" lon="7.26131">
        <ele>594.78109</ele>
        <time>2018-05-04T13:02:34Z</time>
      </trkpt>
      <trkpt lat="48.04559" lon="7.26129">
        <ele>594.1185</ele>
        <time>2018-05-04T13:02:37Z</time>
      </trkpt>
      <trkpt lat="48.04556" lon="7.26129">
        <ele>593.97042</ele>
        <time>2018-05-04T13:02:38Z</time>
      </trkpt>
      <trkpt lat="48.04553" lon="7.2613">
        <ele>593.48471</ele>
        <time>2018-05-04T13:02:39Z</time>
      </trkpt>
      <trkpt lat="48.0455" lon="7.2613">
        <ele>593.28671</ele>
        <time>2018-05-04T13:02:40Z</time>
      </trkpt>
      <trkpt lat="48.04538" lon="7.2613">
        <ele>592.52194</ele>
        <time>2018-05-04T13:02:44Z</time>
      </trkpt>
      <trkpt lat="48.04529" lon="7.2613">
        <ele>592.61166</ele>
        <time>2018-05-04T13:02:48Z</time>
      </trkpt>
      <trkpt lat="48.04527" lon="7.2613">
        <ele>592.74691</ele>
        <time>2018-05-04T13:02:49Z</time>
      </trkpt>
      <trkpt lat="48.04511" lon="7.26119">
        <ele>590.92929</ele>
        <time>2018-05-04T13:02:57Z</time>
      </trkpt>
      <trkpt lat="48.04498" lon="7.26112">
        <ele>589.38095</ele>
        <time>2018-05-04T13:03:01Z</time>
      </trkpt>
      <trkpt lat="48.04491" lon="7.26109">
        <ele>588.65536</ele>
        <time>2018-05-04T13:03:03Z</time>
      </trkpt>
      <trkpt lat="48.04484" lon="7.26108">
        <ele>588.57968</ele>
        <time>2018-05-04T13:03:06Z</time>
      </trkpt>
      <trkpt lat="48.04483" lon="7.26108">
        <ele>588.42172</ele>
        <time>2018-05-04T13:03:07Z</time>
      </trkpt>
      <trkpt lat="48.04482" lon="7.26109">
        <ele>588.33529</ele>
        <time>2018-05-04T13:03:08Z</time>
      </trkpt>
      <trkpt lat="48.04481" lon="7.2611">
        <ele>588.22665</ele>
        <time>2018-05-04T13:03:09Z</time>
      </trkpt>
      <trkpt lat="48.0448" lon="7.26112">
        <ele>588.13009</ele>
        <time>2018-05-04T13:03:10Z</time>
      </trkpt>
      <trkpt lat="48.04478" lon="7.26112">
        <ele>587.73019</ele>
        <time>2018-05-04T13:03:11Z</time>
      </trkpt>
      <trkpt lat="48.04476" lon="7.26112">
        <ele>587.52328</ele>
        <time>2018-05-04T13:03:12Z</time>
      </trkpt>
      <trkpt lat="48.04473" lon="7.26112">
        <ele>587.48898</ele>
        <time>2018-05-04T13:03:13Z</time>
      </trkpt>
      <trkpt lat="48.0447" lon="7.26112">
        <ele>587.37606</ele>
        <time>2018-05-04T13:03:14Z</time>
      </trkpt>
      <trkpt lat="48.04465" lon="7.26112">
        <ele>587.03939</ele>
        <time>2018-05-04T13:03:16Z</time>
      </trkpt>
      <trkpt lat="48.04462" lon="7.26111">
        <ele>587.02353</ele>
        <time>2018-05-04T13:03:17Z</time>
      </trkpt>
      <trkpt lat="48.04456" lon="7.26108">
        <ele>586.39169</ele>
        <time>2018-05-04T13:03:19Z</time>
      </trkpt>
      <trkpt lat="48.04454" lon="7.26107">
        <ele>585.38339</ele>
        <time>2018-05-04T13:03:20Z</time>
      </trkpt>
      <trkpt lat="48.04452" lon="7.26106">
        <ele>585.28305</ele>
        <time>2018-05-04T13:03:21Z</time>
      </trkpt>
      <trkpt lat="48.04451" lon="7.26105">
        <ele>584.5433</ele>
        <time>2018-05-04T13:03:22Z</time>
      </trkpt>
      <trkpt lat="48.04448" lon="7.26102">
        <ele>584.5206</ele>
        <time>2018-05-04T13:03:24Z</time>
      </trkpt>
      <trkpt lat="48.04445" lon="7.261">
        <ele>583.93148</ele>
        <time>2018-05-04T13:03:26Z</time>
      </trkpt>
      <trkpt lat="48.04444" lon="7.261">
        <ele>583.98275</ele>
        <time>2018-05-04T13:03:27Z</time>
      </trkpt>
      <trkpt lat="48.04444" lon="7.26099">
        <ele>584.08346</ele>
        <time>2018-05-04T13:03:28Z</time>
      </trkpt>
      <trkpt lat="48.04443" lon="7.26099">
        <ele>584.35971</ele>
        <time>2018-05-04T13:03:29Z</time>
      </trkpt>
      <trkpt lat="48.04442" lon="7.26098">
        <ele>584.24923</ele>
        <time>2018-05-04T13:03:30Z</time>
      </trkpt>
      <trkpt lat="48.04437" lon="7.26096">
        <ele>583.66537</ele>
        <time>2018-05-04T13:03:33Z</time>
      </trkpt>
      <trkpt lat="48.04421" lon="7.26087">
        <ele>584.56955</ele>
        <time>2018-05-04T13:03:42Z</time>
      </trkpt>
      <trkpt lat="48.04419" lon="7.26086">
        <ele>584.61862</ele>
        <time>2018-05-04T13:03:43Z</time>
      </trkpt>
      <trkpt lat="48.04416" lon="7.26084">
        <ele>584.56039</ele>
        <time>2018-05-04T13:03:44Z</time>
      </trkpt>
      <trkpt lat="48.04413" lon="7.26084">
        <ele>584.60165</ele>
        <time>2018-05-04T13:03:45Z</time>
      </trkpt>
      <trkpt lat="48.04411" lon="7.26083">
        <ele>584.82431</ele>
        <time>2018-05-04T13:03:46Z</time>
      </trkpt>
      <trkpt lat="48.04408" lon="7.26082">
        <ele>584.7933</ele>
        <time>2018-05-04T13:03:47Z</time>
      </trkpt>
      <trkpt lat="48.04405" lon="7.2608">
        <ele>584.78671</ele>
        <time>2018-05-04T13:03:48Z</time>
      </trkpt>
      <trkpt lat="48.04402" lon="7.26078">
        <ele>584.95309</ele>
        <time>2018-05-04T13:03:49Z</time>
      </trkpt>
      <trkpt lat="48.04395" lon="7.26069">
        <ele>584.32516</ele>
        <time>2018-05-04T13:03:51Z</time>
      </trkpt>
      <trkpt lat="48.04391" lon="7.26062">
        <ele>583.83773</ele>
        <time>2018-05-04T13:03:53Z</time>
      </trkpt>
      <trkpt lat="48.04386" lon="7.26056">
        <ele>581.96322</ele>
        <time>2018-05-04T13:03:55Z</time>
      </trkpt>
      <trkpt lat="48.04384" lon="7.26053">
        <ele>581.38314</ele>
        <time>2018-05-04T13:03:56Z</time>
      </trkpt>
      <trkpt lat="48.04381" lon="7.26051">
        <ele>581.32382</ele>
        <time>2018-05-04T13:03:57Z</time>
      </trkpt>
      <trkpt lat="48.04378" lon="7.2605">
        <ele>580.75595</ele>
        <time>2018-05-04T13:03:58Z</time>
      </trkpt>
      <trkpt lat="48.04375" lon="7.26049">
        <ele>580.23031</ele>
        <time>2018-05-04T13:03:59Z</time>
      </trkpt>
      <trkpt lat="48.04373" lon="7.26047">
        <ele>579.72946</ele>
        <time>2018-05-04T13:04:00Z</time>
      </trkpt>
      <trkpt lat="48.04372" lon="7.26045">
        <ele>579.85031</ele>
        <time>2018-05-04T13:04:01Z</time>
      </trkpt>
      <trkpt lat="48.04372" lon="7.26043">
        <ele>579.8215</ele>
        <time>2018-05-04T13:04:02Z</time>
      </trkpt>
      <trkpt lat="48.04371" lon="7.26041">
        <ele>580.18441</ele>
        <time>2018-05-04T13:04:03Z</time>
      </trkpt>
      <trkpt lat="48.04369" lon="7.26039">
        <ele>580.46762</ele>
        <time>2018-05-04T13:04:04Z</time>
      </trkpt>
      <trkpt lat="48.04368" lon="7.26038">
        <ele>580.64279</ele>
        <time>2018-05-04T13:04:05Z</time>
      </trkpt>
      <trkpt lat="48.04365" lon="7.26036">
        <ele>580.55746</ele>
        <time>2018-05-04T13:04:06Z</time>
      </trkpt>
      <trkpt lat="48.04343" lon="7.26031">
        <ele>580.49252</ele>
        <time>2018-05-04T13:04:12Z</time>
      </trkpt>
      <trkpt lat="48.04341" lon="7.2603">
        <ele>580.35666</ele>
        <time>2018-05-04T13:04:13Z</time>
      </trkpt>
      <trkpt lat="48.04339" lon="7.26028">
        <ele>580.53976</ele>
        <time>2018-05-04T13:04:14Z</time>
      </trkpt>
      <trkpt lat="48.04338" lon="7.26025">
        <ele>580.48349</ele>
        <time>2018-05-04T13:04:15Z</time>
      </trkpt>
      <trkpt lat="48.04334" lon="7.2602">
        <ele>580.09848</ele>
        <time>2018-05-04T13:04:17Z</time>
      </trkpt>
      <trkpt lat="48.04332" lon="7.26017">
        <ele>579.96774</ele>
        <time>2018-05-04T13:04:18Z</time>
      </trkpt>
      <trkpt lat="48.0433" lon="7.26016">
        <ele>579.82089</ele>
        <time>2018-05-04T13:04:19Z</time>
      </trkpt>
      <trkpt lat="48.04324" lon="7.26012">
        <ele>579.44711</ele>
        <time>2018-05-04T13:04:21Z</time>
      </trkpt>
      <trkpt lat="48.04323" lon="7.2601">
        <ele>579.64315</ele>
        <time>2018-05-04T13:04:22Z</time>
      </trkpt>
      <trkpt lat="48.04322" lon="7.26007">
        <ele>579.8536</ele>
        <time>2018-05-04T13:04:24Z</time>
      </trkpt>
      <trkpt lat="48.04321" lon="7.26005">
        <ele>579.88742</ele>
        <time>2018-05-04T13:04:25Z</time>
      </trkpt>
      <trkpt lat="48.0432" lon="7.26003">
        <ele>579.70858</ele>
        <time>2018-05-04T13:04:26Z</time>
      </trkpt>
      <trkpt lat="48.04317" lon="7.26001">
        <ele>579.47177</ele>
        <time>2018-05-04T13:04:28Z</time>
      </trkpt>
      <trkpt lat="48.04316" lon="7.26">
        <ele>579.55258</ele>
        <time>2018-05-04T13:04:29Z</time>
      </trkpt>
      <trkpt lat="48.04315" lon="7.25998">
        <ele>579.37509</ele>
        <time>2018-05-04T13:04:30Z</time>
      </trkpt>
      <trkpt lat="48.04313" lon="7.25998">
        <ele>579.16757</ele>
        <time>2018-05-04T13:04:31Z</time>
      </trkpt>
      <trkpt lat="48.04311" lon="7.25998">
        <ele>578.99179</ele>
        <time>2018-05-04T13:04:32Z</time>
      </trkpt>
      <trkpt lat="48.04307" lon="7.25996">
        <ele>578.61215</ele>
        <time>2018-05-04T13:04:34Z</time>
      </trkpt>
      <trkpt lat="48.04305" lon="7.25995">
        <ele>578.26767</ele>
        <time>2018-05-04T13:04:36Z</time>
      </trkpt>
      <trkpt lat="48.04304" lon="7.25994">
        <ele>578.44394</ele>
        <time>2018-05-04T13:04:37Z</time>
      </trkpt>
      <trkpt lat="48.04303" lon="7.25994">
        <ele>578.29367</ele>
        <time>2018-05-04T13:04:38Z</time>
      </trkpt>
      <trkpt lat="48.04303" lon="7.25993">
        <ele>578.16024</ele>
        <time>2018-05-04T13:04:39Z</time>
      </trkpt>
      <trkpt lat="48.04302" lon="7.25992">
        <ele>578.3475</ele>
        <time>2018-05-04T13:04:40Z</time>
      </trkpt>
      <trkpt lat="48.04301" lon="7.25991">
        <ele>578.17001</ele>
        <time>2018-05-04T13:04:41Z</time>
      </trkpt>
      <trkpt lat="48.043" lon="7.25991">
        <ele>578.28915</ele>
        <time>2018-05-04T13:04:42Z</time>
      </trkpt>
      <trkpt lat="48.04299" lon="7.2599">
        <ele>578.25741</ele>
        <time>2018-05-04T13:04:43Z</time>
      </trkpt>
      <trkpt lat="48.04298" lon="7.25989">
        <ele>578.2662</ele>
        <time>2018-05-04T13:04:44Z</time>
      </trkpt>
      <trkpt lat="48.04298" lon="7.25988">
        <ele>577.94015</ele>
        <time>2018-05-04T13:04:46Z</time>
      </trkpt>
      <trkpt lat="48.04293" lon="7.25985">
        <ele>578.36068</ele>
        <time>2018-05-04T13:04:50Z</time>
      </trkpt>
      <trkpt lat="48.04291" lon="7.25985">
        <ele>578.63632</ele>
        <time>2018-05-04T13:04:51Z</time>
      </trkpt>
      <trkpt lat="48.04288" lon="7.25983">
        <ele>578.7435</ele>
        <time>2018-05-04T13:04:53Z</time>
      </trkpt>
      <trkpt lat="48.04287" lon="7.25982">
        <ele>578.96725</ele>
        <time>2018-05-04T13:04:54Z</time>
      </trkpt>
      <trkpt lat="48.04284" lon="7.25983">
        <ele>579.33371</ele>
        <time>2018-05-04T13:04:56Z</time>
      </trkpt>
      <trkpt lat="48.04281" lon="7.25984">
        <ele>579.21017</ele>
        <time>2018-05-04T13:04:57Z</time>
      </trkpt>
      <trkpt lat="48.04279" lon="7.25985">
        <ele>579.1091</ele>
        <time>2018-05-04T13:04:58Z</time>
      </trkpt>
      <trkpt lat="48.04277" lon="7.25986">
        <ele>579.81405</ele>
        <time>2018-05-04T13:04:59Z</time>
      </trkpt>
      <trkpt lat="48.04275" lon="7.25986">
        <ele>580.05954</ele>
        <time>2018-05-04T13:05:00Z</time>
      </trkpt>
      <trkpt lat="48.04274" lon="7.25986">
        <ele>579.91317</ele>
        <time>2018-05-04T13:05:01Z</time>
      </trkpt>
      <trkpt lat="48.04273" lon="7.25985">
        <ele>579.60641</ele>
        <time>2018-05-04T13:05:03Z</time>
      </trkpt>
      <trkpt lat="48.04272" lon="7.25984">
        <ele>579.49691</ele>
        <time>2018-05-04T13:05:04Z</time>
      </trkpt>
      <trkpt lat="48.04271" lon="7.25985">
        <ele>579.3934</ele>
        <time>2018-05-04T13:05:05Z</time>
      </trkpt>
      <trkpt lat="48.0427" lon="7.25984">
        <ele>579.43124</ele>
        <time>2018-05-04T13:05:06Z</time>
      </trkpt>
      <trkpt lat="48.0427" lon="7.25983">
        <ele>579.56454</ele>
        <time>2018-05-04T13:05:07Z</time>
      </trkpt>
      <trkpt lat="48.04268" lon="7.25983">
        <ele>579.51205</ele>
        <time>2018-05-04T13:05:08Z</time>
      </trkpt>
      <trkpt lat="48.04268" lon="7.25982">
        <ele>579.50558</ele>
        <time>2018-05-04T13:05:09Z</time>
      </trkpt>
      <trkpt lat="48.04267" lon="7.25981">
        <ele>579.51413</ele>
        <time>2018-05-04T13:05:10Z</time>
      </trkpt>
      <trkpt lat="48.04267" lon="7.25981">
        <ele>579.50302</ele>
        <time>2018-05-04T13:05:12Z</time>
      </trkpt>
      <trkpt lat="48.04266" lon="7.25982">
        <ele>579.11557</ele>
        <time>2018-05-04T13:05:13Z</time>
      </trkpt>
      <trkpt lat="48.04265" lon="7.25985">
        <ele>578.94699</ele>
        <time>2018-05-04T13:05:15Z</time>
      </trkpt>
      <trkpt lat="48.04265" lon="7.25987">
        <ele>578.50143</ele>
        <time>2018-05-04T13:05:16Z</time>
      </trkpt>
      <trkpt lat="48.04264" lon="7.25988">
        <ele>578.26645</ele>
        <time>2018-05-04T13:05:17Z</time>
      </trkpt>
      <trkpt lat="48.04265" lon="7.25989">
        <ele>578.10214</ele>
        <time>2018-05-04T13:05:18Z</time>
      </trkpt>
      <trkpt lat="48.04264" lon="7.25991">
        <ele>577.92855</ele>
        <time>2018-05-04T13:05:19Z</time>
      </trkpt>
      <trkpt lat="48.04264" lon="7.25992">
        <ele>577.71994</ele>
        <time>2018-05-04T13:05:20Z</time>
      </trkpt>
      <trkpt lat="48.04262" lon="7.25997">
        <ele>577.36483</ele>
        <time>2018-05-04T13:05:22Z</time>
      </trkpt>
      <trkpt lat="48.04262" lon="7.26">
        <ele>577.11508</ele>
        <time>2018-05-04T13:05:23Z</time>
      </trkpt>
      <trkpt lat="48.04262" lon="7.26002">
        <ele>577.11483</ele>
        <time>2018-05-04T13:05:24Z</time>
      </trkpt>
      <trkpt lat="48.04261" lon="7.26005">
        <ele>577.09652</ele>
        <time>2018-05-04T13:05:25Z</time>
      </trkpt>
      <trkpt lat="48.04261" lon="7.26009">
        <ele>576.83249</ele>
        <time>2018-05-04T13:05:27Z</time>
      </trkpt>
      <trkpt lat="48.04261" lon="7.26011">
        <ele>576.67599</ele>
        <time>2018-05-04T13:05:28Z</time>
      </trkpt>
      <trkpt lat="48.04261" lon="7.26013">
        <ele>576.38668</ele>
        <time>2018-05-04T13:05:29Z</time>
      </trkpt>
      <trkpt lat="48.04261" lon="7.26016">
        <ele>576.43979</ele>
        <time>2018-05-04T13:05:31Z</time>
      </trkpt>
      <trkpt lat="48.0426" lon="7.26023">
        <ele>575.95785</ele>
        <time>2018-05-04T13:05:34Z</time>
      </trkpt>
      <trkpt lat="48.0426" lon="7.26025">
        <ele>576.04647</ele>
        <time>2018-05-04T13:05:35Z</time>
      </trkpt>
      <trkpt lat="48.04261" lon="7.2603">
        <ele>575.2081</ele>
        <time>2018-05-04T13:05:37Z</time>
      </trkpt>
      <trkpt lat="48.04262" lon="7.26036">
        <ele>574.32406</ele>
        <time>2018-05-04T13:05:40Z</time>
      </trkpt>
      <trkpt lat="48.04263" lon="7.26038">
        <ele>574.42416</ele>
        <time>2018-05-04T13:05:41Z</time>
      </trkpt>
      <trkpt lat="48.04264" lon="7.2604">
        <ele>573.70883</ele>
        <time>2018-05-04T13:05:42Z</time>
      </trkpt>
      <trkpt lat="48.04265" lon="7.2604">
        <ele>573.36898</ele>
        <time>2018-05-04T13:05:43Z</time>
      </trkpt>
      <trkpt lat="48.04261" lon="7.26036">
        <ele>570.00546</ele>
        <time>2018-05-04T13:05:56Z</time>
      </trkpt>
      <trkpt lat="48.0426" lon="7.26036">
        <ele>570.07406</ele>
        <time>2018-05-04T13:05:57Z</time>
      </trkpt>
      <trkpt lat="48.0426" lon="7.26037">
        <ele>569.80246</ele>
        <time>2018-05-04T13:05:58Z</time>
      </trkpt>
      <trkpt lat="48.04259" lon="7.26038">
        <ele>569.57211</ele>
        <time>2018-05-04T13:05:59Z</time>
      </trkpt>
      <trkpt lat="48.04259" lon="7.26039">
        <ele>569.51254</ele>
        <time>2018-05-04T13:06:00Z</time>
      </trkpt>
      <trkpt lat="48.04261" lon="7.26041">
        <ele>569.24862</ele>
        <time>2018-05-04T13:06:01Z</time>
      </trkpt>
      <trkpt lat="48.04264" lon="7.26045">
        <ele>568.63839</ele>
        <time>2018-05-04T13:06:03Z</time>
      </trkpt>
      <trkpt lat="48.04265" lon="7.26047">
        <ele>568.47641</ele>
        <time>2018-05-04T13:06:04Z</time>
      </trkpt>
      <trkpt lat="48.04267" lon="7.26049">
        <ele>568.51156</ele>
        <time>2018-05-04T13:06:05Z</time>
      </trkpt>
      <trkpt lat="48.04268" lon="7.26051">
        <ele>568.0914</ele>
        <time>2018-05-04T13:06:06Z</time>
      </trkpt>
      <trkpt lat="48.04268" lon="7.26053">
        <ele>567.81662</ele>
        <time>2018-05-04T13:06:07Z</time>
      </trkpt>
      <trkpt lat="48.04271" lon="7.26062">
        <ele>567.01828</ele>
        <time>2018-05-04T13:06:10Z</time>
      </trkpt>
      <trkpt lat="48.04273" lon="7.26065">
        <ele>566.96395</ele>
        <time>2018-05-04T13:06:11Z</time>
      </trkpt>
      <trkpt lat="48.04273" lon="7.26066">
        <ele>565.81259</ele>
        <time>2018-05-04T13:06:12Z</time>
      </trkpt>
      <trkpt lat="48.04272" lon="7.26066">
        <ele>565.5787</ele>
        <time>2018-05-04T13:06:13Z</time>
      </trkpt>
      <trkpt lat="48.04271" lon="7.26066">
        <ele>565.15475</ele>
        <time>2018-05-04T13:06:14Z</time>
      </trkpt>
      <trkpt lat="48.04267" lon="7.26063">
        <ele>565.07492</ele>
        <time>2018-05-04T13:06:31Z</time>
      </trkpt>
      <trkpt lat="48.04267" lon="7.26064">
        <ele>564.26254</ele>
        <time>2018-05-04T13:06:33Z</time>
      </trkpt>
      <trkpt lat="48.04267" lon="7.26064">
        <ele>563.51449</ele>
        <time>2018-05-04T13:06:34Z</time>
      </trkpt>
      <trkpt lat="48.04266" lon="7.26065">
        <ele>563.514</ele>
        <time>2018-05-04T13:06:36Z</time>
      </trkpt>
      <trkpt lat="48.04266" lon="7.26066">
        <ele>562.37374</ele>
        <time>2018-05-04T13:06:37Z</time>
      </trkpt>
      <trkpt lat="48.04265" lon="7.2607">
        <ele>562.32187</ele>
        <time>2018-05-04T13:06:39Z</time>
      </trkpt>
      <trkpt lat="48.04265" lon="7.26072">
        <ele>562.38021</ele>
        <time>2018-05-04T13:06:40Z</time>
      </trkpt>
      <trkpt lat="48.04265" lon="7.26074">
        <ele>562.22909</ele>
        <time>2018-05-04T13:06:41Z</time>
      </trkpt>
      <trkpt lat="48.04267" lon="7.26088">
        <ele>562.16549</ele>
        <time>2018-05-04T13:06:47Z</time>
      </trkpt>
      <trkpt lat="48.04267" lon="7.2609">
        <ele>561.73129</ele>
        <time>2018-05-04T13:06:48Z</time>
      </trkpt>
      <trkpt lat="48.04267" lon="7.26092">
        <ele>561.3702</ele>
        <time>2018-05-04T13:06:49Z</time>
      </trkpt>
      <trkpt lat="48.04266" lon="7.26094">
        <ele>561.83773</ele>
        <time>2018-05-04T13:06:50Z</time>
      </trkpt>
      <trkpt lat="48.04266" lon="7.26096">
        <ele>561.58798</ele>
        <time>2018-05-04T13:06:51Z</time>
      </trkpt>
      <trkpt lat="48.04266" lon="7.26098">
        <ele>562.16537</ele>
        <time>2018-05-04T13:06:52Z</time>
      </trkpt>
      <trkpt lat="48.04267" lon="7.26103">
        <ele>561.56723</ele>
        <time>2018-05-04T13:06:55Z</time>
      </trkpt>
      <trkpt lat="48.04267" lon="7.26104">
        <ele>561.36044</ele>
        <time>2018-05-04T13:06:56Z</time>
      </trkpt>
      <trkpt lat="48.04265" lon="7.26107">
        <ele>561.22055</ele>
        <time>2018-05-04T13:06:59Z</time>
      </trkpt>
      <trkpt lat="48.04264" lon="7.26109">
        <ele>560.97372</ele>
        <time>2018-05-04T13:07:00Z</time>
      </trkpt>
      <trkpt lat="48.04264" lon="7.26111">
        <ele>560.96322</ele>
        <time>2018-05-04T13:07:01Z</time>
      </trkpt>
      <trkpt lat="48.04264" lon="7.26113">
        <ele>560.99533</ele>
        <time>2018-05-04T13:07:02Z</time>
      </trkpt>
      <trkpt lat="48.04265" lon="7.26116">
        <ele>560.92526</ele>
        <time>2018-05-04T13:07:03Z</time>
      </trkpt>
      <trkpt lat="48.04265" lon="7.26118">
        <ele>561.23117</ele>
        <time>2018-05-04T13:07:04Z</time>
      </trkpt>
      <trkpt lat="48.04265" lon="7.26122">
        <ele>561.19418</ele>
        <time>2018-05-04T13:07:06Z</time>
      </trkpt>
      <trkpt lat="48.04265" lon="7.26124">
        <ele>561.28354</ele>
        <time>2018-05-04T13:07:07Z</time>
      </trkpt>
      <trkpt lat="48.04265" lon="7.26127">
        <ele>561.32089</ele>
        <time>2018-05-04T13:07:08Z</time>
      </trkpt>
      <trkpt lat="48.04266" lon="7.26129">
        <ele>561.22665</ele>
        <time>2018-05-04T13:07:09Z</time>
      </trkpt>
      <trkpt lat="48.04266" lon="7.26132">
        <ele>561.30233</ele>
        <time>2018-05-04T13:07:10Z</time>
      </trkpt>
      <trkpt lat="48.04266" lon="7.26134">
        <ele>561.13461</ele>
        <time>2018-05-04T13:07:11Z</time>
      </trkpt>
      <trkpt lat="48.04266" lon="7.26136">
        <ele>560.9559</ele>
        <time>2018-05-04T13:07:12Z</time>
      </trkpt>
      <trkpt lat="48.04268" lon="7.26141">
        <ele>561.01266</ele>
        <time>2018-05-04T13:07:14Z</time>
      </trkpt>
      <trkpt lat="48.04269" lon="7.26142">
        <ele>561.04428</ele>
        <time>2018-05-04T13:07:15Z</time>
      </trkpt>
      <trkpt lat="48.0427" lon="7.26143">
        <ele>561.12484</ele>
        <time>2018-05-04T13:07:16Z</time>
      </trkpt>
      <trkpt lat="48.04271" lon="7.26144">
        <ele>561.40585</ele>
        <time>2018-05-04T13:07:17Z</time>
      </trkpt>
      <trkpt lat="48.04272" lon="7.26145">
        <ele>561.38485</ele>
        <time>2018-05-04T13:07:18Z</time>
      </trkpt>
      <trkpt lat="48.04273" lon="7.26147">
        <ele>561.38058</ele>
        <time>2018-05-04T13:07:19Z</time>
      </trkpt>
      <trkpt lat="48.04273" lon="7.26148">
        <ele>561.07809</ele>
        <time>2018-05-04T13:07:20Z</time>
      </trkpt>
      <trkpt lat="48.04273" lon="7.26151">
        <ele>561.36898</ele>
        <time>2018-05-04T13:07:21Z</time>
      </trkpt>
      <trkpt lat="48.04273" lon="7.26159">
        <ele>560.87094</ele>
        <time>2018-05-04T13:07:25Z</time>
      </trkpt>
      <trkpt lat="48.04274" lon="7.26161">
        <ele>560.6351</ele>
        <time>2018-05-04T13:07:26Z</time>
      </trkpt>
      <trkpt lat="48.04275" lon="7.26164">
        <ele>560.75436</ele>
        <time>2018-05-04T13:07:27Z</time>
      </trkpt>
      <trkpt lat="48.04276" lon="7.26166">
        <ele>560.64608</ele>
        <time>2018-05-04T13:07:28Z</time>
      </trkpt>
      <trkpt lat="48.04277" lon="7.26167">
        <ele>560.62216</ele>
        <time>2018-05-04T13:07:29Z</time>
      </trkpt>
      <trkpt lat="48.04282" lon="7.2617">
        <ele>559.83944</ele>
        <time>2018-05-04T13:07:32Z</time>
      </trkpt>
      <trkpt lat="48.04283" lon="7.26172">
        <ele>559.37973</ele>
        <time>2018-05-04T13:07:33Z</time>
      </trkpt>
      <trkpt lat="48.04285" lon="7.26174">
        <ele>559.10727</ele>
        <time>2018-05-04T13:07:34Z</time>
      </trkpt>
      <trkpt lat="48.04285" lon="7.26176">
        <ele>559.11825</ele>
        <time>2018-05-04T13:07:35Z</time>
      </trkpt>
      <trkpt lat="48.04285" lon="7.26178">
        <ele>559.37924</ele>
        <time>2018-05-04T13:07:36Z</time>
      </trkpt>
      <trkpt lat="48.04284" lon="7.2618">
        <ele>559.23202</ele>
        <time>2018-05-04T13:07:37Z</time>
      </trkpt>
      <trkpt lat="48.04283" lon="7.26182">
        <ele>559.01791</ele>
        <time>2018-05-04T13:07:38Z</time>
      </trkpt>
      <trkpt lat="48.04283" lon="7.26185">
        <ele>559.28476</ele>
        <time>2018-05-04T13:07:39Z</time>
      </trkpt>
      <trkpt lat="48.04284" lon="7.26193">
        <ele>558.75619</ele>
        <time>2018-05-04T13:07:42Z</time>
      </trkpt>
      <trkpt lat="48.04284" lon="7.26196">
        <ele>558.35849</ele>
        <time>2018-05-04T13:07:43Z</time>
      </trkpt>
      <trkpt lat="48.04279" lon="7.26204">
        <ele>558.46591</ele>
        <time>2018-05-04T13:07:46Z</time>
      </trkpt>
      <trkpt lat="48.04279" lon="7.26207">
        <ele>558.39633</ele>
        <time>2018-05-04T13:07:47Z</time>
      </trkpt>
      <trkpt lat="48.04278" lon="7.2621">
        <ele>558.49911</ele>
        <time>2018-05-04T13:07:48Z</time>
      </trkpt>
      <trkpt lat="48.04277" lon="7.26211">
        <ele>558.60458</ele>
        <time>2018-05-04T13:07:49Z</time>
      </trkpt>
      <trkpt lat="48.04277" lon="7.26212">
        <ele>558.51974</ele>
        <time>2018-05-04T13:07:50Z</time>
      </trkpt>
      <trkpt lat="48.04277" lon="7.26215">
        <ele>558.78036</ele>
        <time>2018-05-04T13:07:52Z</time>
      </trkpt>
      <trkpt lat="48.04277" lon="7.26218">
        <ele>558.6102</ele>
        <time>2018-05-04T13:07:53Z</time>
      </trkpt>
      <trkpt lat="48.04276" lon="7.26219">
        <ele>558.45797</ele>
        <time>2018-05-04T13:07:54Z</time>
      </trkpt>
      <trkpt lat="48.04276" lon="7.26221">
        <ele>558.53134</ele>
        <time>2018-05-04T13:07:55Z</time>
      </trkpt>
      <trkpt lat="48.04275" lon="7.26224">
        <ele>558.4227</ele>
        <time>2018-05-04T13:07:56Z</time>
      </trkpt>
      <trkpt lat="48.04275" lon="7.26227">
        <ele>558.29916</ele>
        <time>2018-05-04T13:07:57Z</time>
      </trkpt>
      <trkpt lat="48.04276" lon="7.2623">
        <ele>558.29477</ele>
        <time>2018-05-04T13:07:58Z</time>
      </trkpt>
      <trkpt lat="48.04279" lon="7.26235">
        <ele>558.53427</ele>
        <time>2018-05-04T13:08:00Z</time>
      </trkpt>
      <trkpt lat="48.0428" lon="7.26237">
        <ele>558.5765</ele>
        <time>2018-05-04T13:08:01Z</time>
      </trkpt>
      <trkpt lat="48.04282" lon="7.2624">
        <ele>558.32394</ele>
        <time>2018-05-04T13:08:02Z</time>
      </trkpt>
      <trkpt lat="48.04283" lon="7.26244">
        <ele>558.66769</ele>
        <time>2018-05-04T13:08:04Z</time>
      </trkpt>
      <trkpt lat="48.04283" lon="7.26246">
        <ele>558.64218</ele>
        <time>2018-05-04T13:08:05Z</time>
      </trkpt>
      <trkpt lat="48.04283" lon="7.26248">
        <ele>558.45248</ele>
        <time>2018-05-04T13:08:06Z</time>
      </trkpt>
      <trkpt lat="48.04284" lon="7.2625">
        <ele>558.31991</ele>
        <time>2018-05-04T13:08:07Z</time>
      </trkpt>
      <trkpt lat="48.04286" lon="7.26253">
        <ele>558.48739</ele>
        <time>2018-05-04T13:08:09Z</time>
      </trkpt>
      <trkpt lat="48.04286" lon="7.26255">
        <ele>558.56613</ele>
        <time>2018-05-04T13:08:10Z</time>
      </trkpt>
      <trkpt lat="48.04287" lon="7.26259">
        <ele>558.22299</ele>
        <time>2018-05-04T13:08:12Z</time>
      </trkpt>
      <trkpt lat="48.04287" lon="7.26261">
        <ele>558.34433</ele>
        <time>2018-05-04T13:08:13Z</time>
      </trkpt>
      <trkpt lat="48.04288" lon="7.26263">
        <ele>557.93234</ele>
        <time>2018-05-04T13:08:14Z</time>
      </trkpt>
      <trkpt lat="48.0429" lon="7.26267">
        <ele>557.75814</ele>
        <time>2018-05-04T13:08:16Z</time>
      </trkpt>
      <trkpt lat="48.04291" lon="7.26269">
        <ele>557.79818</ele>
        <time>2018-05-04T13:08:17Z</time>
      </trkpt>
      <trkpt lat="48.04292" lon="7.26271">
        <ele>557.78402</ele>
        <time>2018-05-04T13:08:18Z</time>
      </trkpt>
      <trkpt lat="48.04293" lon="7.26274">
        <ele>557.4852</ele>
        <time>2018-05-04T13:08:19Z</time>
      </trkpt>
      <trkpt lat="48.04294" lon="7.26278">
        <ele>557.09384</ele>
        <time>2018-05-04T13:08:20Z</time>
      </trkpt>
      <trkpt lat="48.04296" lon="7.26283">
        <ele>556.84616</ele>
        <time>2018-05-04T13:08:22Z</time>
      </trkpt>
      <trkpt lat="48.04297" lon="7.26284">
        <ele>556.74765</ele>
        <time>2018-05-04T13:08:23Z</time>
      </trkpt>
      <trkpt lat="48.04298" lon="7.26285">
        <ele>556.66586</ele>
        <time>2018-05-04T13:08:24Z</time>
      </trkpt>
      <trkpt lat="48.04298" lon="7.26286">
        <ele>556.44577</ele>
        <time>2018-05-04T13:08:25Z</time>
      </trkpt>
      <trkpt lat="48.043" lon="7.26292">
        <ele>556.44357</ele>
        <time>2018-05-04T13:08:28Z</time>
      </trkpt>
      <trkpt lat="48.04301" lon="7.26296">
        <ele>556.88302</ele>
        <time>2018-05-04T13:08:30Z</time>
      </trkpt>
      <trkpt lat="48.04302" lon="7.26298">
        <ele>556.71994</ele>
        <time>2018-05-04T13:08:31Z</time>
      </trkpt>
      <trkpt lat="48.04302" lon="7.26305">
        <ele>556.55416</ele>
        <time>2018-05-04T13:08:34Z</time>
      </trkpt>
      <trkpt lat="48.04302" lon="7.2631">
        <ele>556.34103</ele>
        <time>2018-05-04T13:08:36Z</time>
      </trkpt>
      <trkpt lat="48.04302" lon="7.26313">
        <ele>556.25937</ele>
        <time>2018-05-04T13:08:37Z</time>
      </trkpt>
      <trkpt lat="48.04302" lon="7.26315">
        <ele>556.15158</ele>
        <time>2018-05-04T13:08:38Z</time>
      </trkpt>
      <trkpt lat="48.04302" lon="7.26318">
        <ele>556.18563</ele>
        <time>2018-05-04T13:08:39Z</time>
      </trkpt>
      <trkpt lat="48.04302" lon="7.2632">
        <ele>556.49838</ele>
        <time>2018-05-04T13:08:40Z</time>
      </trkpt>
      <trkpt lat="48.04302" lon="7.26326">
        <ele>556.36361</ele>
        <time>2018-05-04T13:08:42Z</time>
      </trkpt>
      <trkpt lat="48.04303" lon="7.26329">
        <ele>555.84872</ele>
        <time>2018-05-04T13:08:44Z</time>
      </trkpt>
      <trkpt lat="48.04304" lon="7.26333">
        <ele>555.92904</ele>
        <time>2018-05-04T13:08:46Z</time>
      </trkpt>
      <trkpt lat="48.04304" lon="7.26336">
        <ele>555.54403</ele>
        <time>2018-05-04T13:08:47Z</time>
      </trkpt>
      <trkpt lat="48.04304" lon="7.26339">
        <ele>555.52792</ele>
        <time>2018-05-04T13:08:48Z</time>
      </trkpt>
      <trkpt lat="48.04303" lon="7.26346">
        <ele>555.35446</ele>
        <time>2018-05-04T13:08:51Z</time>
      </trkpt>
      <trkpt lat="48.04303" lon="7.26348">
        <ele>555.57309</ele>
        <time>2018-05-04T13:08:52Z</time>
      </trkpt>
      <trkpt lat="48.04304" lon="7.2635">
        <ele>555.82272</ele>
        <time>2018-05-04T13:08:53Z</time>
      </trkpt>
      <trkpt lat="48.04307" lon="7.26355">
        <ele>556.10116</ele>
        <time>2018-05-04T13:08:55Z</time>
      </trkpt>
      <trkpt lat="48.0431" lon="7.26361">
        <ele>556.2745</ele>
        <time>2018-05-04T13:08:58Z</time>
      </trkpt>
      <trkpt lat="48.04311" lon="7.26364">
        <ele>556.32602</ele>
        <time>2018-05-04T13:08:59Z</time>
      </trkpt>
      <trkpt lat="48.04312" lon="7.26366">
        <ele>556.18039</ele>
        <time>2018-05-04T13:09:00Z</time>
      </trkpt>
      <trkpt lat="48.04313" lon="7.26368">
        <ele>556.55478</ele>
        <time>2018-05-04T13:09:01Z</time>
      </trkpt>
      <trkpt lat="48.04312" lon="7.26371">
        <ele>556.57699</ele>
        <time>2018-05-04T13:09:02Z</time>
      </trkpt>
      <trkpt lat="48.04311" lon="7.26374">
        <ele>556.41879</ele>
        <time>2018-05-04T13:09:04Z</time>
      </trkpt>
      <trkpt lat="48.0431" lon="7.26377">
        <ele>555.98397</ele>
        <time>2018-05-04T13:09:06Z</time>
      </trkpt>
      <trkpt lat="48.04309" lon="7.26381">
        <ele>555.4537</ele>
        <time>2018-05-04T13:09:08Z</time>
      </trkpt>
      <trkpt lat="48.04309" lon="7.26384">
        <ele>555.49728</ele>
        <time>2018-05-04T13:09:09Z</time>
      </trkpt>
      <trkpt lat="48.04308" lon="7.26387">
        <ele>555.55624</ele>
        <time>2018-05-04T13:09:10Z</time>
      </trkpt>
      <trkpt lat="48.04307" lon="7.2639">
        <ele>555.34188</ele>
        <time>2018-05-04T13:09:11Z</time>
      </trkpt>
      <trkpt lat="48.04307" lon="7.26392">
        <ele>555.46859</ele>
        <time>2018-05-04T13:09:12Z</time>
      </trkpt>
      <trkpt lat="48.04306" lon="7.26394">
        <ele>555.51437</ele>
        <time>2018-05-04T13:09:13Z</time>
      </trkpt>
      <trkpt lat="48.04305" lon="7.26396">
        <ele>555.48739</ele>
        <time>2018-05-04T13:09:14Z</time>
      </trkpt>
      <trkpt lat="48.04304" lon="7.264">
        <ele>555.38266</ele>
        <time>2018-05-04T13:09:16Z</time>
      </trkpt>
      <trkpt lat="48.04302" lon="7.26404">
        <ele>556.10751</ele>
        <time>2018-05-04T13:09:18Z</time>
      </trkpt>
      <trkpt lat="48.04297" lon="7.26413">
        <ele>555.60092</ele>
        <time>2018-05-04T13:09:23Z</time>
      </trkpt>
      <trkpt lat="48.04297" lon="7.26416">
        <ele>555.90365</ele>
        <time>2018-05-04T13:09:24Z</time>
      </trkpt>
      <trkpt lat="48.04296" lon="7.26418">
        <ele>555.53708</ele>
        <time>2018-05-04T13:09:25Z</time>
      </trkpt>
      <trkpt lat="48.04296" lon="7.26421">
        <ele>555.52597</ele>
        <time>2018-05-04T13:09:26Z</time>
      </trkpt>
      <trkpt lat="48.04296" lon="7.26422">
        <ele>555.7247</ele>
        <time>2018-05-04T13:09:27Z</time>
      </trkpt>
      <trkpt lat="48.04292" lon="7.26431">
        <ele>554.68393</ele>
        <time>2018-05-04T13:09:31Z</time>
      </trkpt>
      <trkpt lat="48.04291" lon="7.26433">
        <ele>554.7546</ele>
        <time>2018-05-04T13:09:32Z</time>
      </trkpt>
      <trkpt lat="48.04288" lon="7.26438">
        <ele>554.47555</ele>
        <time>2018-05-04T13:09:34Z</time>
      </trkpt>
      <trkpt lat="48.04287" lon="7.26441">
        <ele>554.87545</ele>
        <time>2018-05-04T13:09:35Z</time>
      </trkpt>
      <trkpt lat="48.04286" lon="7.26443">
        <ele>555.27169</ele>
        <time>2018-05-04T13:09:36Z</time>
      </trkpt>
      <trkpt lat="48.04285" lon="7.26449">
        <ele>554.8536</ele>
        <time>2018-05-04T13:09:38Z</time>
      </trkpt>
      <trkpt lat="48.04284" lon="7.26452">
        <ele>555.20541</ele>
        <time>2018-05-04T13:09:39Z</time>
      </trkpt>
      <trkpt lat="48.04284" lon="7.26455">
        <ele>555.30941</ele>
        <time>2018-05-04T13:09:40Z</time>
      </trkpt>
      <trkpt lat="48.04283" lon="7.26457">
        <ele>555.30917</ele>
        <time>2018-05-04T13:09:41Z</time>
      </trkpt>
      <trkpt lat="48.04282" lon="7.26459">
        <ele>555.57528</ele>
        <time>2018-05-04T13:09:42Z</time>
      </trkpt>
      <trkpt lat="48.04279" lon="7.26461">
        <ele>555.40683</ele>
        <time>2018-05-04T13:09:44Z</time>
      </trkpt>
      <trkpt lat="48.04278" lon="7.26463">
        <ele>555.32382</ele>
        <time>2018-05-04T13:09:45Z</time>
      </trkpt>
      <trkpt lat="48.04276" lon="7.26467">
        <ele>554.6539</ele>
        <time>2018-05-04T13:09:47Z</time>
      </trkpt>
      <trkpt lat="48.04275" lon="7.26469">
        <ele>554.44369</ele>
        <time>2018-05-04T13:09:48Z</time>
      </trkpt>
      <trkpt lat="48.04273" lon="7.26471">
        <ele>554.78939</ele>
        <time>2018-05-04T13:09:49Z</time>
      </trkpt>
      <trkpt lat="48.0427" lon="7.26475">
        <ele>555.22543</ele>
        <time>2018-05-04T13:09:51Z</time>
      </trkpt>
      <trkpt lat="48.0427" lon="7.26476">
        <ele>554.8796</ele>
        <time>2018-05-04T13:09:52Z</time>
      </trkpt>
      <trkpt lat="48.0427" lon="7.26477">
        <ele>555.04086</ele>
        <time>2018-05-04T13:09:53Z</time>
      </trkpt>
      <trkpt lat="48.04268" lon="7.2648">
        <ele>555.01999</ele>
        <time>2018-05-04T13:09:56Z</time>
      </trkpt>
      <trkpt lat="48.04267" lon="7.26481">
        <ele>554.97482</ele>
        <time>2018-05-04T13:09:57Z</time>
      </trkpt>
      <trkpt lat="48.04267" lon="7.26483">
        <ele>554.72519</ele>
        <time>2018-05-04T13:09:58Z</time>
      </trkpt>
      <trkpt lat="48.04265" lon="7.26489">
        <ele>554.42428</ele>
        <time>2018-05-04T13:10:01Z</time>
      </trkpt>
      <trkpt lat="48.04259" lon="7.26496">
        <ele>554.7369</ele>
        <time>2018-05-04T13:10:05Z</time>
      </trkpt>
      <trkpt lat="48.04258" lon="7.26498">
        <ele>554.71518</ele>
        <time>2018-05-04T13:10:06Z</time>
      </trkpt>
      <trkpt lat="48.04258" lon="7.26501">
        <ele>554.53207</ele>
        <time>2018-05-04T13:10:08Z</time>
      </trkpt>
      <trkpt lat="48.04257" lon="7.26502">
        <ele>554.23593</ele>
        <time>2018-05-04T13:10:09Z</time>
      </trkpt>
      <trkpt lat="48.04257" lon="7.26504">
        <ele>554.42208</ele>
        <time>2018-05-04T13:10:10Z</time>
      </trkpt>
      <trkpt lat="48.04256" lon="7.26505">
        <ele>554.30697</ele>
        <time>2018-05-04T13:10:11Z</time>
      </trkpt>
      <trkpt lat="48.04256" lon="7.26506">
        <ele>553.80636</ele>
        <time>2018-05-04T13:10:12Z</time>
      </trkpt>
      <trkpt lat="48.04255" lon="7.2651">
        <ele>553.98129</ele>
        <time>2018-05-04T13:10:14Z</time>
      </trkpt>
      <trkpt lat="48.04255" lon="7.26512">
        <ele>553.57895</ele>
        <time>2018-05-04T13:10:15Z</time>
      </trkpt>
      <trkpt lat="48.04253" lon="7.26514">
        <ele>553.00277</ele>
        <time>2018-05-04T13:10:16Z</time>
      </trkpt>
      <trkpt lat="48.04252" lon="7.26515">
        <ele>552.97616</ele>
        <time>2018-05-04T13:10:17Z</time>
      </trkpt>
      <trkpt lat="48.04251" lon="7.26516">
        <ele>553.17929</ele>
        <time>2018-05-04T13:10:18Z</time>
      </trkpt>
      <trkpt lat="48.04249" lon="7.26517">
        <ele>553.24301</ele>
        <time>2018-05-04T13:10:19Z</time>
      </trkpt>
      <trkpt lat="48.04249" lon="7.26519">
        <ele>553.24411</ele>
        <time>2018-05-04T13:10:20Z</time>
      </trkpt>
      <trkpt lat="48.04248" lon="7.26522">
        <ele>553.39157</ele>
        <time>2018-05-04T13:10:22Z</time>
      </trkpt>
      <trkpt lat="48.04245" lon="7.26527">
        <ele>553.39608</ele>
        <time>2018-05-04T13:10:24Z</time>
      </trkpt>
      <trkpt lat="48.04244" lon="7.26531">
        <ele>553.54721</ele>
        <time>2018-05-04T13:10:26Z</time>
      </trkpt>
      <trkpt lat="48.04243" lon="7.26534">
        <ele>553.66659</ele>
        <time>2018-05-04T13:10:27Z</time>
      </trkpt>
      <trkpt lat="48.04241" lon="7.26539">
        <ele>553.66659</ele>
        <time>2018-05-04T13:10:29Z</time>
      </trkpt>
      <trkpt lat="48.04241" lon="7.26541">
        <ele>553.83798</ele>
        <time>2018-05-04T13:10:30Z</time>
      </trkpt>
      <trkpt lat="48.04241" lon="7.26543">
        <ele>553.72128</ele>
        <time>2018-05-04T13:10:31Z</time>
      </trkpt>
      <trkpt lat="48.04239" lon="7.26546">
        <ele>553.64437</ele>
        <time>2018-05-04T13:10:33Z</time>
      </trkpt>
      <trkpt lat="48.04235" lon="7.26551">
        <ele>553.7352</ele>
        <time>2018-05-04T13:10:35Z</time>
      </trkpt>
      <trkpt lat="48.0423" lon="7.26557">
        <ele>553.62191</ele>
        <time>2018-05-04T13:10:38Z</time>
      </trkpt>
      <trkpt lat="48.04228" lon="7.26559">
        <ele>553.55075</ele>
        <time>2018-05-04T13:10:39Z</time>
      </trkpt>
      <trkpt lat="48.04226" lon="7.26563">
        <ele>553.62289</ele>
        <time>2018-05-04T13:10:42Z</time>
      </trkpt>
      <trkpt lat="48.04226" lon="7.26565">
        <ele>553.561</ele>
        <time>2018-05-04T13:10:43Z</time>
      </trkpt>
      <trkpt lat="48.04225" lon="7.26567">
        <ele>553.509</ele>
        <time>2018-05-04T13:10:44Z</time>
      </trkpt>
      <trkpt lat="48.04224" lon="7.26569">
        <ele>553.50607</ele>
        <time>2018-05-04T13:10:46Z</time>
      </trkpt>
      <trkpt lat="48.04223" lon="7.26571">
        <ele>553.43087</ele>
        <time>2018-05-04T13:10:52Z</time>
      </trkpt>
      <trkpt lat="48.04223" lon="7.26572">
        <ele>553.75045</ele>
        <time>2018-05-04T13:10:54Z</time>
      </trkpt>
      <trkpt lat="48.04222" lon="7.26573">
        <ele>553.94186</ele>
        <time>2018-05-04T13:10:55Z</time>
      </trkpt>
      <trkpt lat="48.0422" lon="7.26575">
        <ele>555.02072</ele>
        <time>2018-05-04T13:10:56Z</time>
      </trkpt>
      <trkpt lat="48.04219" lon="7.26577">
        <ele>554.47689</ele>
        <time>2018-05-04T13:10:57Z</time>
      </trkpt>
      <trkpt lat="48.04218" lon="7.26578">
        <ele>554.43612</ele>
        <time>2018-05-04T13:10:58Z</time>
      </trkpt>
      <trkpt lat="48.04218" lon="7.26579">
        <ele>554.25985</ele>
        <time>2018-05-04T13:10:59Z</time>
      </trkpt>
      <trkpt lat="48.04217" lon="7.2658">
        <ele>554.42111</ele>
        <time>2018-05-04T13:11:00Z</time>
      </trkpt>
      <trkpt lat="48.04217" lon="7.26584">
        <ele>554.96859</ele>
        <time>2018-05-04T13:11:02Z</time>
      </trkpt>
      <trkpt lat="48.04216" lon="7.26586">
        <ele>555.10067</ele>
        <time>2018-05-04T13:11:03Z</time>
      </trkpt>
      <trkpt lat="48.04215" lon="7.26587">
        <ele>554.92733</ele>
        <time>2018-05-04T13:11:04Z</time>
      </trkpt>
      <trkpt lat="48.04215" lon="7.26589">
        <ele>554.97848</ele>
        <time>2018-05-04T13:11:05Z</time>
      </trkpt>
      <trkpt lat="48.04214" lon="7.26591">
        <ele>555.04477</ele>
        <time>2018-05-04T13:11:06Z</time>
      </trkpt>
      <trkpt lat="48.04213" lon="7.26593">
        <ele>555.06991</ele>
        <time>2018-05-04T13:11:07Z</time>
      </trkpt>
      <trkpt lat="48.04213" lon="7.26594">
        <ele>554.80673</ele>
        <time>2018-05-04T13:11:08Z</time>
      </trkpt>
      <trkpt lat="48.04212" lon="7.26597">
        <ele>554.99618</ele>
        <time>2018-05-04T13:11:10Z</time>
      </trkpt>
      <trkpt lat="48.04212" lon="7.26599">
        <ele>554.84579</ele>
        <time>2018-05-04T13:11:11Z</time>
      </trkpt>
      <trkpt lat="48.04212" lon="7.266">
        <ele>554.80307</ele>
        <time>2018-05-04T13:11:12Z</time>
      </trkpt>
      <trkpt lat="48.0421" lon="7.26604">
        <ele>554.64901</ele>
        <time>2018-05-04T13:11:15Z</time>
      </trkpt>
      <trkpt lat="48.04209" lon="7.26605">
        <ele>554.59091</ele>
        <time>2018-05-04T13:11:16Z</time>
      </trkpt>
      <trkpt lat="48.04208" lon="7.26605">
        <ele>555.31894</ele>
        <time>2018-05-04T13:11:18Z</time>
      </trkpt>
      <trkpt lat="48.04207" lon="7.26606">
        <ele>555.0809</ele>
        <time>2018-05-04T13:11:20Z</time>
      </trkpt>
      <trkpt lat="48.04206" lon="7.26606">
        <ele>554.4349</ele>
        <time>2018-05-04T13:11:22Z</time>
      </trkpt>
      <trkpt lat="48.04205" lon="7.26606">
        <ele>554.51498</ele>
        <time>2018-05-04T13:11:23Z</time>
      </trkpt>
      <trkpt lat="48.04205" lon="7.26607">
        <ele>554.22445</ele>
        <time>2018-05-04T13:11:26Z</time>
      </trkpt>
      <trkpt lat="48.04205" lon="7.26608">
        <ele>554.2435</ele>
        <time>2018-05-04T13:11:27Z</time>
      </trkpt>
      <trkpt lat="48.04204" lon="7.2661">
        <ele>554.24081</ele>
        <time>2018-05-04T13:11:28Z</time>
      </trkpt>
      <trkpt lat="48.04202" lon="7.26611">
        <ele>553.95651</ele>
        <time>2018-05-04T13:11:30Z</time>
      </trkpt>
      <trkpt lat="48.04201" lon="7.26612">
        <ele>554.332</ele>
        <time>2018-05-04T13:11:31Z</time>
      </trkpt>
      <trkpt lat="48.042" lon="7.26615">
        <ele>554.95834</ele>
        <time>2018-05-04T13:11:33Z</time>
      </trkpt>
      <trkpt lat="48.04199" lon="7.26616">
        <ele>554.61142</ele>
        <time>2018-05-04T13:11:34Z</time>
      </trkpt>
      <trkpt lat="48.04196" lon="7.26621">
        <ele>554.61483</ele>
        <time>2018-05-04T13:11:37Z</time>
      </trkpt>
      <trkpt lat="48.04195" lon="7.26623">
        <ele>555.11972</ele>
        <time>2018-05-04T13:11:38Z</time>
      </trkpt>
      <trkpt lat="48.04195" lon="7.26624">
        <ele>555.00692</ele>
        <time>2018-05-04T13:11:39Z</time>
      </trkpt>
      <trkpt lat="48.04195" lon="7.26633">
        <ele>555.12179</ele>
        <time>2018-05-04T13:11:42Z</time>
      </trkpt>
      <trkpt lat="48.04195" lon="7.26634">
        <ele>555.3226</ele>
        <time>2018-05-04T13:11:43Z</time>
      </trkpt>
      <trkpt lat="48.04194" lon="7.26636">
        <ele>554.70565</ele>
        <time>2018-05-04T13:11:44Z</time>
      </trkpt>
      <trkpt lat="48.04192" lon="7.26639">
        <ele>554.57895</ele>
        <time>2018-05-04T13:11:45Z</time>
      </trkpt>
      <trkpt lat="48.04188" lon="7.26644">
        <ele>554.26535</ele>
        <time>2018-05-04T13:11:49Z</time>
      </trkpt>
      <trkpt lat="48.04187" lon="7.26645">
        <ele>554.5538</ele>
        <time>2018-05-04T13:11:50Z</time>
      </trkpt>
      <trkpt lat="48.04185" lon="7.26646">
        <ele>554.3702</ele>
        <time>2018-05-04T13:11:52Z</time>
      </trkpt>
      <trkpt lat="48.04183" lon="7.26647">
        <ele>554.0953</ele>
        <time>2018-05-04T13:11:53Z</time>
      </trkpt>
      <trkpt lat="48.04182" lon="7.26649">
        <ele>553.88644</ele>
        <time>2018-05-04T13:11:54Z</time>
      </trkpt>
      <trkpt lat="48.04181" lon="7.26651">
        <ele>553.76181</ele>
        <time>2018-05-04T13:11:55Z</time>
      </trkpt>
      <trkpt lat="48.04181" lon="7.26652">
        <ele>554.21469</ele>
        <time>2018-05-04T13:11:56Z</time>
      </trkpt>
      <trkpt lat="48.04181" lon="7.26653">
        <ele>554.26547</ele>
        <time>2018-05-04T13:11:57Z</time>
      </trkpt>
      <trkpt lat="48.0418" lon="7.26655">
        <ele>554.36898</ele>
        <time>2018-05-04T13:11:58Z</time>
      </trkpt>
      <trkpt lat="48.04178" lon="7.2666">
        <ele>555.01388</ele>
        <time>2018-05-04T13:12:00Z</time>
      </trkpt>
      <trkpt lat="48.04176" lon="7.26662">
        <ele>554.69699</ele>
        <time>2018-05-04T13:12:01Z</time>
      </trkpt>
      <trkpt lat="48.0417" lon="7.2667">
        <ele>554.3287</ele>
        <time>2018-05-04T13:12:05Z</time>
      </trkpt>
      <trkpt lat="48.04169" lon="7.26672">
        <ele>554.19296</ele>
        <time>2018-05-04T13:12:06Z</time>
      </trkpt>
      <trkpt lat="48.04169" lon="7.26673">
        <ele>554.23764</ele>
        <time>2018-05-04T13:12:07Z</time>
      </trkpt>
      <trkpt lat="48.04167" lon="7.26677">
        <ele>554.11679</ele>
        <time>2018-05-04T13:12:09Z</time>
      </trkpt>
      <trkpt lat="48.04167" lon="7.26679">
        <ele>554.3619</ele>
        <time>2018-05-04T13:12:10Z</time>
      </trkpt>
      <trkpt lat="48.04167" lon="7.2668">
        <ele>554.70431</ele>
        <time>2018-05-04T13:12:11Z</time>
      </trkpt>
      <trkpt lat="48.04167" lon="7.26682">
        <ele>554.76767</ele>
        <time>2018-05-04T13:12:12Z</time>
      </trkpt>
      <trkpt lat="48.04169" lon="7.26689">
        <ele>555.17196</ele>
        <time>2018-05-04T13:12:16Z</time>
      </trkpt>
      <trkpt lat="48.04169" lon="7.26691">
        <ele>555.19711</ele>
        <time>2018-05-04T13:12:17Z</time>
      </trkpt>
      <trkpt lat="48.04169" lon="7.26693">
        <ele>555.40609</ele>
        <time>2018-05-04T13:12:18Z</time>
      </trkpt>
      <trkpt lat="48.04169" lon="7.26696">
        <ele>555.41391</ele>
        <time>2018-05-04T13:12:19Z</time>
      </trkpt>
      <trkpt lat="48.04169" lon="7.26698">
        <ele>555.51889</ele>
        <time>2018-05-04T13:12:20Z</time>
      </trkpt>
      <trkpt lat="48.04164" lon="7.26715">
        <ele>554.60775</ele>
        <time>2018-05-04T13:12:28Z</time>
      </trkpt>
      <trkpt lat="48.04163" lon="7.26717">
        <ele>554.34481</ele>
        <time>2018-05-04T13:12:29Z</time>
      </trkpt>
      <trkpt lat="48.0416" lon="7.26722">
        <ele>553.79892</ele>
        <time>2018-05-04T13:12:31Z</time>
      </trkpt>
      <trkpt lat="48.04159" lon="7.26724">
        <ele>553.67624</ele>
        <time>2018-05-04T13:12:32Z</time>
      </trkpt>
      <trkpt lat="48.04159" lon="7.26726">
        <ele>553.45565</ele>
        <time>2018-05-04T13:12:33Z</time>
      </trkpt>
      <trkpt lat="48.0416" lon="7.26729">
        <ele>553.53842</ele>
        <time>2018-05-04T13:12:34Z</time>
      </trkpt>
      <trkpt lat="48.04161" lon="7.26732">
        <ele>553.43368</ele>
        <time>2018-05-04T13:12:35Z</time>
      </trkpt>
      <trkpt lat="48.04162" lon="7.26735">
        <ele>553.01742</ele>
        <time>2018-05-04T13:12:36Z</time>
      </trkpt>
      <trkpt lat="48.04162" lon="7.26738">
        <ele>552.9537</ele>
        <time>2018-05-04T13:12:37Z</time>
      </trkpt>
      <trkpt lat="48.04162" lon="7.26741">
        <ele>553.31625</ele>
        <time>2018-05-04T13:12:38Z</time>
      </trkpt>
      <trkpt lat="48.04161" lon="7.26747">
        <ele>553.93515</ele>
        <time>2018-05-04T13:12:40Z</time>
      </trkpt>
      <trkpt lat="48.04161" lon="7.26751">
        <ele>554.41671</ele>
        <time>2018-05-04T13:12:42Z</time>
      </trkpt>
      <trkpt lat="48.0416" lon="7.26753">
        <ele>554.6484</ele>
        <time>2018-05-04T13:12:43Z</time>
      </trkpt>
      <trkpt lat="48.0416" lon="7.26755">
        <ele>554.67807</ele>
        <time>2018-05-04T13:12:44Z</time>
      </trkpt>
      <trkpt lat="48.04158" lon="7.26759">
        <ele>554.67318</ele>
        <time>2018-05-04T13:12:46Z</time>
      </trkpt>
      <trkpt lat="48.04158" lon="7.26761">
        <ele>554.60531</ele>
        <time>2018-05-04T13:12:47Z</time>
      </trkpt>
      <trkpt lat="48.04158" lon="7.26766">
        <ele>554.80978</ele>
        <time>2018-05-04T13:12:50Z</time>
      </trkpt>
      <trkpt lat="48.04157" lon="7.2677">
        <ele>554.90963</ele>
        <time>2018-05-04T13:12:52Z</time>
      </trkpt>
      <trkpt lat="48.04157" lon="7.26772">
        <ele>554.94589</ele>
        <time>2018-05-04T13:12:53Z</time>
      </trkpt>
      <trkpt lat="48.04155" lon="7.26778">
        <ele>555.28744</ele>
        <time>2018-05-04T13:12:56Z</time>
      </trkpt>
      <trkpt lat="48.04154" lon="7.2678">
        <ele>555.30917</ele>
        <time>2018-05-04T13:12:57Z</time>
      </trkpt>
      <trkpt lat="48.04154" lon="7.26782">
        <ele>555.36325</ele>
        <time>2018-05-04T13:12:58Z</time>
      </trkpt>
      <trkpt lat="48.04153" lon="7.26784">
        <ele>555.5029</ele>
        <time>2018-05-04T13:12:59Z</time>
      </trkpt>
      <trkpt lat="48.04152" lon="7.26786">
        <ele>555.56308</ele>
        <time>2018-05-04T13:13:00Z</time>
      </trkpt>
      <trkpt lat="48.04152" lon="7.26788">
        <ele>556.03524</ele>
        <time>2018-05-04T13:13:01Z</time>
      </trkpt>
      <trkpt lat="48.04152" lon="7.2679">
        <ele>555.81869</ele>
        <time>2018-05-04T13:13:02Z</time>
      </trkpt>
      <trkpt lat="48.04152" lon="7.26792">
        <ele>556.06576</ele>
        <time>2018-05-04T13:13:03Z</time>
      </trkpt>
      <trkpt lat="48.0415" lon="7.26799">
        <ele>555.8486</ele>
        <time>2018-05-04T13:13:06Z</time>
      </trkpt>
      <trkpt lat="48.04147" lon="7.26806">
        <ele>555.93002</ele>
        <time>2018-05-04T13:13:09Z</time>
      </trkpt>
      <trkpt lat="48.04143" lon="7.2682">
        <ele>556.24533</ele>
        <time>2018-05-04T13:13:15Z</time>
      </trkpt>
      <trkpt lat="48.04142" lon="7.26823">
        <ele>556.23104</ele>
        <time>2018-05-04T13:13:17Z</time>
      </trkpt>
      <trkpt lat="48.04142" lon="7.26826">
        <ele>556.13192</ele>
        <time>2018-05-04T13:13:19Z</time>
      </trkpt>
      <trkpt lat="48.04142" lon="7.26828">
        <ele>556.5256</ele>
        <time>2018-05-04T13:13:20Z</time>
      </trkpt>
      <trkpt lat="48.04142" lon="7.2683">
        <ele>556.27084</ele>
        <time>2018-05-04T13:13:21Z</time>
      </trkpt>
      <trkpt lat="48.04143" lon="7.26833">
        <ele>556.28036</ele>
        <time>2018-05-04T13:13:22Z</time>
      </trkpt>
      <trkpt lat="48.04143" lon="7.26835">
        <ele>556.35873</ele>
        <time>2018-05-04T13:13:23Z</time>
      </trkpt>
      <trkpt lat="48.04142" lon="7.26837">
        <ele>556.56649</ele>
        <time>2018-05-04T13:13:24Z</time>
      </trkpt>
      <trkpt lat="48.04142" lon="7.26839">
        <ele>556.36947</ele>
        <time>2018-05-04T13:13:25Z</time>
      </trkpt>
      <trkpt lat="48.04142" lon="7.2684">
        <ele>556.44687</ele>
        <time>2018-05-04T13:13:26Z</time>
      </trkpt>
      <trkpt lat="48.04141" lon="7.26842">
        <ele>556.32931</ele>
        <time>2018-05-04T13:13:27Z</time>
      </trkpt>
      <trkpt lat="48.04136" lon="7.26851">
        <ele>556.14706</ele>
        <time>2018-05-04T13:13:31Z</time>
      </trkpt>
      <trkpt lat="48.04136" lon="7.26853">
        <ele>556.11508</ele>
        <time>2018-05-04T13:13:32Z</time>
      </trkpt>
      <trkpt lat="48.04134" lon="7.26859">
        <ele>555.91</ele>
        <time>2018-05-04T13:13:34Z</time>
      </trkpt>
      <trkpt lat="48.04133" lon="7.26863">
        <ele>556.24569</ele>
        <time>2018-05-04T13:13:36Z</time>
      </trkpt>
      <trkpt lat="48.0413" lon="7.26871">
        <ele>556.10727</ele>
        <time>2018-05-04T13:13:39Z</time>
      </trkpt>
      <trkpt lat="48.04129" lon="7.26872">
        <ele>556.19174</ele>
        <time>2018-05-04T13:13:40Z</time>
      </trkpt>
      <trkpt lat="48.04129" lon="7.26873">
        <ele>556.03952</ele>
        <time>2018-05-04T13:13:41Z</time>
      </trkpt>
      <trkpt lat="48.04129" lon="7.26875">
        <ele>555.88925</ele>
        <time>2018-05-04T13:13:42Z</time>
      </trkpt>
      <trkpt lat="48.04129" lon="7.26876">
        <ele>556.04452</ele>
        <time>2018-05-04T13:13:43Z</time>
      </trkpt>
      <trkpt lat="48.04129" lon="7.26879">
        <ele>555.82211</ele>
        <time>2018-05-04T13:13:44Z</time>
      </trkpt>
      <trkpt lat="48.04129" lon="7.26881">
        <ele>555.79086</ele>
        <time>2018-05-04T13:13:45Z</time>
      </trkpt>
      <trkpt lat="48.04126" lon="7.26892">
        <ele>555.61483</ele>
        <time>2018-05-04T13:13:50Z</time>
      </trkpt>
      <trkpt lat="48.04124" lon="7.26899">
        <ele>555.2977</ele>
        <time>2018-05-04T13:13:53Z</time>
      </trkpt>
      <trkpt lat="48.04123" lon="7.26902">
        <ele>555.18405</ele>
        <time>2018-05-04T13:13:54Z</time>
      </trkpt>
      <trkpt lat="48.04122" lon="7.26905">
        <ele>555.16659</ele>
        <time>2018-05-04T13:13:55Z</time>
      </trkpt>
      <trkpt lat="48.04122" lon="7.26908">
        <ele>555.00204</ele>
        <time>2018-05-04T13:13:56Z</time>
      </trkpt>
      <trkpt lat="48.04121" lon="7.26911">
        <ele>555.22836</ele>
        <time>2018-05-04T13:13:57Z</time>
      </trkpt>
      <trkpt lat="48.04121" lon="7.26914">
        <ele>555.22116</ele>
        <time>2018-05-04T13:13:58Z</time>
      </trkpt>
      <trkpt lat="48.04121" lon="7.26916">
        <ele>555.14511</ele>
        <time>2018-05-04T13:13:59Z</time>
      </trkpt>
      <trkpt lat="48.0412" lon="7.2692">
        <ele>555.07003</ele>
        <time>2018-05-04T13:14:00Z</time>
      </trkpt>
      <trkpt lat="48.0412" lon="7.26926">
        <ele>555.3287</ele>
        <time>2018-05-04T13:14:02Z</time>
      </trkpt>
      <trkpt lat="48.0412" lon="7.26929">
        <ele>555.22494</ele>
        <time>2018-05-04T13:14:03Z</time>
      </trkpt>
      <trkpt lat="48.04119" lon="7.26932">
        <ele>554.94699</ele>
        <time>2018-05-04T13:14:04Z</time>
      </trkpt>
      <trkpt lat="48.04117" lon="7.26934">
        <ele>554.74887</ele>
        <time>2018-05-04T13:14:05Z</time>
      </trkpt>
      <trkpt lat="48.04115" lon="7.26936">
        <ele>554.81771</ele>
        <time>2018-05-04T13:14:07Z</time>
      </trkpt>
      <trkpt lat="48.04114" lon="7.26938">
        <ele>555.03524</ele>
        <time>2018-05-04T13:14:08Z</time>
      </trkpt>
      <trkpt lat="48.04114" lon="7.2694">
        <ele>555.10116</ele>
        <time>2018-05-04T13:14:09Z</time>
      </trkpt>
      <trkpt lat="48.04114" lon="7.26941">
        <ele>555.56088</ele>
        <time>2018-05-04T13:14:10Z</time>
      </trkpt>
      <trkpt lat="48.04114" lon="7.26943">
        <ele>555.4161</ele>
        <time>2018-05-04T13:14:11Z</time>
      </trkpt>
      <trkpt lat="48.04112" lon="7.26948">
        <ele>555.40768</ele>
        <time>2018-05-04T13:14:14Z</time>
      </trkpt>
      <trkpt lat="48.04112" lon="7.26951">
        <ele>555.23861</ele>
        <time>2018-05-04T13:14:15Z</time>
      </trkpt>
      <trkpt lat="48.04111" lon="7.26958">
        <ele>555.23605</ele>
        <time>2018-05-04T13:14:18Z</time>
      </trkpt>
      <trkpt lat="48.04111" lon="7.2696">
        <ele>555.05514</ele>
        <time>2018-05-04T13:14:19Z</time>
      </trkpt>
      <trkpt lat="48.0411" lon="7.26962">
        <ele>555.12777</ele>
        <time>2018-05-04T13:14:20Z</time>
      </trkpt>
      <trkpt lat="48.04106" lon="7.26972">
        <ele>554.38327</ele>
        <time>2018-05-04T13:14:24Z</time>
      </trkpt>
      <trkpt lat="48.04105" lon="7.26974">
        <ele>554.34506</ele>
        <time>2018-05-04T13:14:25Z</time>
      </trkpt>
      <trkpt lat="48.04104" lon="7.26977">
        <ele>554.1932</ele>
        <time>2018-05-04T13:14:26Z</time>
      </trkpt>
      <trkpt lat="48.04102" lon="7.26979">
        <ele>554.29586</ele>
        <time>2018-05-04T13:14:27Z</time>
      </trkpt>
      <trkpt lat="48.04102" lon="7.26982">
        <ele>554.26156</ele>
        <time>2018-05-04T13:14:28Z</time>
      </trkpt>
      <trkpt lat="48.04101" lon="7.26984">
        <ele>554.22885</ele>
        <time>2018-05-04T13:14:29Z</time>
      </trkpt>
      <trkpt lat="48.04101" lon="7.26989">
        <ele>554.13388</ele>
        <time>2018-05-04T13:14:31Z</time>
      </trkpt>
      <trkpt lat="48.041" lon="7.26992">
        <ele>554.54354</ele>
        <time>2018-05-04T13:14:32Z</time>
      </trkpt>
      <trkpt lat="48.041" lon="7.26998">
        <ele>554.1069</ele>
        <time>2018-05-04T13:14:35Z</time>
      </trkpt>
      <trkpt lat="48.04099" lon="7.27">
        <ele>554.05307</ele>
        <time>2018-05-04T13:14:36Z</time>
      </trkpt>
      <trkpt lat="48.04097" lon="7.27004">
        <ele>553.70443</ele>
        <time>2018-05-04T13:14:38Z</time>
      </trkpt>
      <trkpt lat="48.04095" lon="7.27008">
        <ele>553.74765</ele>
        <time>2018-05-04T13:14:40Z</time>
      </trkpt>
      <trkpt lat="48.04095" lon="7.27009">
        <ele>553.81674</ele>
        <time>2018-05-04T13:14:41Z</time>
      </trkpt>
      <trkpt lat="48.04094" lon="7.2701">
        <ele>553.75082</ele>
        <time>2018-05-04T13:14:42Z</time>
      </trkpt>
      <trkpt lat="48.04094" lon="7.27013">
        <ele>553.72653</ele>
        <time>2018-05-04T13:14:44Z</time>
      </trkpt>
      <trkpt lat="48.04093" lon="7.27015">
        <ele>553.59811</ele>
        <time>2018-05-04T13:14:45Z</time>
      </trkpt>
      <trkpt lat="48.04092" lon="7.27017">
        <ele>553.49496</ele>
        <time>2018-05-04T13:14:46Z</time>
      </trkpt>
      <trkpt lat="48.04092" lon="7.27019">
        <ele>553.43917</ele>
        <time>2018-05-04T13:14:47Z</time>
      </trkpt>
      <trkpt lat="48.04088" lon="7.27026">
        <ele>553.45395</ele>
        <time>2018-05-04T13:14:51Z</time>
      </trkpt>
      <trkpt lat="48.04086" lon="7.27029">
        <ele>553.79342</ele>
        <time>2018-05-04T13:14:53Z</time>
      </trkpt>
      <trkpt lat="48.04084" lon="7.27034">
        <ele>553.92359</ele>
        <time>2018-05-04T13:14:57Z</time>
      </trkpt>
      <trkpt lat="48.04084" lon="7.27035">
        <ele>553.82781</ele>
        <time>2018-05-04T13:14:58Z</time>
      </trkpt>
      <trkpt lat="48.04083" lon="7.27036">
        <ele>553.95846</ele>
        <time>2018-05-04T13:14:59Z</time>
      </trkpt>
      <trkpt lat="48.04083" lon="7.27037">
        <ele>554.11859</ele>
        <time>2018-05-04T13:15:00Z</time>
      </trkpt>
      <trkpt lat="48.04081" lon="7.27039">
        <ele>554.15219</ele>
        <time>2018-05-04T13:15:02Z</time>
      </trkpt>
      <trkpt lat="48.0408" lon="7.27041">
        <ele>554.34708</ele>
        <time>2018-05-04T13:15:03Z</time>
      </trkpt>
      <trkpt lat="48.04079" lon="7.27042">
        <ele>554.16976</ele>
        <time>2018-05-04T13:15:04Z</time>
      </trkpt>
      <trkpt lat="48.04076" lon="7.27044">
        <ele>554.29572</ele>
        <time>2018-05-04T13:15:06Z</time>
      </trkpt>
      <trkpt lat="48.04071" lon="7.27048">
        <ele>553.91649</ele>
        <time>2018-05-04T13:15:11Z</time>
      </trkpt>
      <trkpt lat="48.0407" lon="7.2705">
        <ele>553.28075</ele>
        <time>2018-05-04T13:15:18Z</time>
      </trkpt>
      <trkpt lat="48.04069" lon="7.2705">
        <ele>553.28944</ele>
        <time>2018-05-04T13:15:19Z</time>
      </trkpt>
      <trkpt lat="48.04064" lon="7.27051">
        <ele>553.05306</ele>
        <time>2018-05-04T13:15:24Z</time>
      </trkpt>
      <trkpt lat="48.04062" lon="7.27051">
        <ele>553.13509</ele>
        <time>2018-05-04T13:15:26Z</time>
      </trkpt>
      <trkpt lat="48.04058" lon="7.27052">
        <ele>553.22105</ele>
        <time>2018-05-04T13:15:29Z</time>
      </trkpt>
      <trkpt lat="48.04054" lon="7.27052">
        <ele>553.21928</ele>
        <time>2018-05-04T13:15:31Z</time>
      </trkpt>
      <trkpt lat="48.04051" lon="7.27051">
        <ele>553.69233</ele>
        <time>2018-05-04T13:15:33Z</time>
      </trkpt>
      <trkpt lat="48.04048" lon="7.27051">
        <ele>553.41838</ele>
        <time>2018-05-04T13:15:36Z</time>
      </trkpt>
      <trkpt lat="48.04045" lon="7.2705">
        <ele>553.21527</ele>
        <time>2018-05-04T13:15:38Z</time>
      </trkpt>
      <trkpt lat="48.04043" lon="7.27049">
        <ele>553.56976</ele>
        <time>2018-05-04T13:15:39Z</time>
      </trkpt>
      <trkpt lat="48.04041" lon="7.27049">
        <ele>553.45851</ele>
        <time>2018-05-04T13:15:40Z</time>
      </trkpt>
      <trkpt lat="48.04039" lon="7.27049">
        <ele>553.66166</ele>
        <time>2018-05-04T13:15:41Z</time>
      </trkpt>
      <trkpt lat="48.04037" lon="7.27049">
        <ele>553.39947</ele>
        <time>2018-05-04T13:15:42Z</time>
      </trkpt>
      <trkpt lat="48.04033" lon="7.2705">
        <ele>553.55653</ele>
        <time>2018-05-04T13:15:44Z</time>
      </trkpt>
      <trkpt lat="48.04031" lon="7.2705">
        <ele>553.50443</ele>
        <time>2018-05-04T13:15:45Z</time>
      </trkpt>
      <trkpt lat="48.04026" lon="7.27049">
        <ele>553.60559</ele>
        <time>2018-05-04T13:15:48Z</time>
      </trkpt>
      <trkpt lat="48.0402" lon="7.27048">
        <ele>553.91064</ele>
        <time>2018-05-04T13:15:51Z</time>
      </trkpt>
      <trkpt lat="48.04017" lon="7.27048">
        <ele>554.25415</ele>
        <time>2018-05-04T13:15:52Z</time>
      </trkpt>
      <trkpt lat="48.04015" lon="7.27049">
        <ele>554.21096</ele>
        <time>2018-05-04T13:15:53Z</time>
      </trkpt>
      <trkpt lat="48.04012" lon="7.2705">
        <ele>554.4023</ele>
        <time>2018-05-04T13:15:55Z</time>
      </trkpt>
      <trkpt lat="48.03999" lon="7.27052">
        <ele>554.09465</ele>
        <time>2018-05-04T13:16:03Z</time>
      </trkpt>
      <trkpt lat="48.0399" lon="7.27055">
        <ele>554.11985</ele>
        <time>2018-05-04T13:16:09Z</time>
      </trkpt>
      <trkpt lat="48.03987" lon="7.27058">
        <ele>554.0842</ele>
        <time>2018-05-04T13:16:12Z</time>
      </trkpt>
      <trkpt lat="48.03983" lon="7.27059">
        <ele>553.91457</ele>
        <time>2018-05-04T13:16:15Z</time>
      </trkpt>
      <trkpt lat="48.03979" lon="7.27061">
        <ele>554.01882</ele>
        <time>2018-05-04T13:16:17Z</time>
      </trkpt>
      <trkpt lat="48.03978" lon="7.27062">
        <ele>554.01305</ele>
        <time>2018-05-04T13:16:18Z</time>
      </trkpt>
      <trkpt lat="48.03975" lon="7.27062">
        <ele>553.83114</ele>
        <time>2018-05-04T13:16:20Z</time>
      </trkpt>
      <trkpt lat="48.03974" lon="7.27062">
        <ele>554.02088</ele>
        <time>2018-05-04T13:16:21Z</time>
      </trkpt>
      <trkpt lat="48.03971" lon="7.27066">
        <ele>554.05849</ele>
        <time>2018-05-04T13:16:24Z</time>
      </trkpt>
      <trkpt lat="48.03969" lon="7.27067">
        <ele>554.22157</ele>
        <time>2018-05-04T13:16:26Z</time>
      </trkpt>
      <trkpt lat="48.03968" lon="7.27068">
        <ele>554.45941</ele>
        <time>2018-05-04T13:16:27Z</time>
      </trkpt>
      <trkpt lat="48.03968" lon="7.27068">
        <ele>554.37481</ele>
        <time>2018-05-04T13:16:28Z</time>
      </trkpt>
      <trkpt lat="48.03967" lon="7.27069">
        <ele>555.13876</ele>
        <time>2018-05-04T13:16:29Z</time>
      </trkpt>
      <trkpt lat="48.03967" lon="7.2707">
        <ele>555.58874</ele>
        <time>2018-05-04T13:16:30Z</time>
      </trkpt>
      <trkpt lat="48.03967" lon="7.27072">
        <ele>556.00245</ele>
        <time>2018-05-04T13:16:31Z</time>
      </trkpt>
      <trkpt lat="48.03967" lon="7.27075">
        <ele>556.10359</ele>
        <time>2018-05-04T13:16:32Z</time>
      </trkpt>
      <trkpt lat="48.03967" lon="7.27078">
        <ele>556.55532</ele>
        <time>2018-05-04T13:16:33Z</time>
      </trkpt>
      <trkpt lat="48.03966" lon="7.27081">
        <ele>557.05796</ele>
        <time>2018-05-04T13:16:34Z</time>
      </trkpt>
      <trkpt lat="48.03965" lon="7.27083">
        <ele>557.72993</ele>
        <time>2018-05-04T13:16:35Z</time>
      </trkpt>
      <trkpt lat="48.03963" lon="7.27088">
        <ele>558.0419</ele>
        <time>2018-05-04T13:16:37Z</time>
      </trkpt>
      <trkpt lat="48.03961" lon="7.27095">
        <ele>558.56594</ele>
        <time>2018-05-04T13:16:39Z</time>
      </trkpt>
      <trkpt lat="48.03959" lon="7.27097">
        <ele>558.49031</ele>
        <time>2018-05-04T13:16:40Z</time>
      </trkpt>
      <trkpt lat="48.03957" lon="7.27099">
        <ele>558.5996</ele>
        <time>2018-05-04T13:16:41Z</time>
      </trkpt>
      <trkpt lat="48.03954" lon="7.27104">
        <ele>559.18918</ele>
        <time>2018-05-04T13:16:45Z</time>
      </trkpt>
      <trkpt lat="48.03954" lon="7.27106">
        <ele>559.49386</ele>
        <time>2018-05-04T13:16:46Z</time>
      </trkpt>
      <trkpt lat="48.03954" lon="7.27108">
        <ele>559.82957</ele>
        <time>2018-05-04T13:16:47Z</time>
      </trkpt>
      <trkpt lat="48.03953" lon="7.27109">
        <ele>560.11887</ele>
        <time>2018-05-04T13:16:48Z</time>
      </trkpt>
      <trkpt lat="48.03954" lon="7.2711">
        <ele>560.36918</ele>
        <time>2018-05-04T13:16:49Z</time>
      </trkpt>
      <trkpt lat="48.03954" lon="7.27111">
        <ele>560.25976</ele>
        <time>2018-05-04T13:16:50Z</time>
      </trkpt>
      <trkpt lat="48.03958" lon="7.27111">
        <ele>560.05625</ele>
        <time>2018-05-04T13:16:59Z</time>
      </trkpt>
      <trkpt lat="48.03959" lon="7.27111">
        <ele>560.14343</ele>
        <time>2018-05-04T13:17:01Z</time>
      </trkpt>
      <trkpt lat="48.03959" lon="7.27111">
        <ele>560.12122</ele>
        <time>2018-05-04T13:17:18Z</time>
      </trkpt>
      <trkpt lat="48.03959" lon="7.27113">
        <ele>560.25563</ele>
        <time>2018-05-04T13:17:22Z</time>
      </trkpt>
      <trkpt lat="48.03958" lon="7.27114">
        <ele>559.89762</ele>
        <time>2018-05-04T13:17:44Z</time>
      </trkpt>
      <trkpt lat="48.03957" lon="7.27114">
        <ele>560.0831</ele>
        <time>2018-05-04T13:17:45Z</time>
      </trkpt>
      <trkpt lat="48.03956" lon="7.27115">
        <ele>560.06937</ele>
        <time>2018-05-04T13:17:46Z</time>
      </trkpt>
      <trkpt lat="48.03954" lon="7.27117">
        <ele>560.48146</ele>
        <time>2018-05-04T13:17:48Z</time>
      </trkpt>
      <trkpt lat="48.03953" lon="7.27118">
        <ele>560.72875</ele>
        <time>2018-05-04T13:17:49Z</time>
      </trkpt>
      <trkpt lat="48.03952" lon="7.2712">
        <ele>561.74728</ele>
        <time>2018-05-04T13:17:53Z</time>
      </trkpt>
      <trkpt lat="48.03951" lon="7.27121">
        <ele>561.66683</ele>
        <time>2018-05-04T13:17:55Z</time>
      </trkpt>
      <trkpt lat="48.03951" lon="7.27122">
        <ele>561.4278</ele>
        <time>2018-05-04T13:17:57Z</time>
      </trkpt>
      <trkpt lat="48.0395" lon="7.27123">
        <ele>561.54648</ele>
        <time>2018-05-04T13:17:58Z</time>
      </trkpt>
      <trkpt lat="48.0395" lon="7.27125">
        <ele>562.25961</ele>
        <time>2018-05-04T13:17:59Z</time>
      </trkpt>
      <trkpt lat="48.03948" lon="7.27128">
        <ele>562.30635</ele>
        <time>2018-05-04T13:18:01Z</time>
      </trkpt>
      <trkpt lat="48.03946" lon="7.27132">
        <ele>563.2718</ele>
        <time>2018-05-04T13:18:03Z</time>
      </trkpt>
      <trkpt lat="48.03946" lon="7.27135">
        <ele>563.76026</ele>
        <time>2018-05-04T13:18:04Z</time>
      </trkpt>
      <trkpt lat="48.03946" lon="7.27138">
        <ele>563.90282</ele>
        <time>2018-05-04T13:18:05Z</time>
      </trkpt>
      <trkpt lat="48.03945" lon="7.27141">
        <ele>564.41821</ele>
        <time>2018-05-04T13:18:06Z</time>
      </trkpt>
      <trkpt lat="48.03944" lon="7.27144">
        <ele>564.58389</ele>
        <time>2018-05-04T13:18:07Z</time>
      </trkpt>
      <trkpt lat="48.03939" lon="7.27151">
        <ele>566.59888</ele>
        <time>2018-05-04T13:18:12Z</time>
      </trkpt>
      <trkpt lat="48.03937" lon="7.27153">
        <ele>566.62238</ele>
        <time>2018-05-04T13:18:14Z</time>
      </trkpt>
      <trkpt lat="48.03937" lon="7.27153">
        <ele>567.28778</ele>
        <time>2018-05-04T13:18:15Z</time>
      </trkpt>
      <trkpt lat="48.03936" lon="7.27154">
        <ele>567.50269</ele>
        <time>2018-05-04T13:18:17Z</time>
      </trkpt>
      <trkpt lat="48.03932" lon="7.27157">
        <ele>568.17768</ele>
        <time>2018-05-04T13:18:19Z</time>
      </trkpt>
      <trkpt lat="48.0393" lon="7.27159">
        <ele>568.47094</ele>
        <time>2018-05-04T13:18:20Z</time>
      </trkpt>
      <trkpt lat="48.03928" lon="7.2716">
        <ele>568.4556</ele>
        <time>2018-05-04T13:18:21Z</time>
      </trkpt>
      <trkpt lat="48.03924" lon="7.27164">
        <ele>569.07535</ele>
        <time>2018-05-04T13:18:23Z</time>
      </trkpt>
      <trkpt lat="48.03921" lon="7.27166">
        <ele>569.02423</ele>
        <time>2018-05-04T13:18:25Z</time>
      </trkpt>
      <trkpt lat="48.03919" lon="7.27171">
        <ele>569.87957</ele>
        <time>2018-05-04T13:18:29Z</time>
      </trkpt>
      <trkpt lat="48.03918" lon="7.27171">
        <ele>569.87957</ele>
        <time>2018-05-04T13:18:30Z</time>
      </trkpt>
      <trkpt lat="48.03917" lon="7.27173">
        <ele>570.08701</ele>
        <time>2018-05-04T13:18:31Z</time>
      </trkpt>
      <trkpt lat="48.03916" lon="7.27174">
        <ele>570.05384</ele>
        <time>2018-05-04T13:18:32Z</time>
      </trkpt>
      <trkpt lat="48.03916" lon="7.27175">
        <ele>570.13674</ele>
        <time>2018-05-04T13:18:33Z</time>
      </trkpt>
      <trkpt lat="48.03915" lon="7.27176">
        <ele>570.36989</ele>
        <time>2018-05-04T13:18:34Z</time>
      </trkpt>
      <trkpt lat="48.03913" lon="7.27177">
        <ele>570.50281</ele>
        <time>2018-05-04T13:18:36Z</time>
      </trkpt>
      <trkpt lat="48.03909" lon="7.27181">
        <ele>571.23557</ele>
        <time>2018-05-04T13:18:39Z</time>
      </trkpt>
      <trkpt lat="48.03908" lon="7.27182">
        <ele>571.56497</ele>
        <time>2018-05-04T13:18:40Z</time>
      </trkpt>
      <trkpt lat="48.03907" lon="7.27183">
        <ele>571.7593</ele>
        <time>2018-05-04T13:18:41Z</time>
      </trkpt>
      <trkpt lat="48.03905" lon="7.27186">
        <ele>572.3086</ele>
        <time>2018-05-04T13:18:43Z</time>
      </trkpt>
      <trkpt lat="48.03903" lon="7.27189">
        <ele>572.45016</ele>
        <time>2018-05-04T13:18:45Z</time>
      </trkpt>
      <trkpt lat="48.03901" lon="7.27191">
        <ele>572.70373</ele>
        <time>2018-05-04T13:18:47Z</time>
      </trkpt>
      <trkpt lat="48.03899" lon="7.27193">
        <ele>572.95122</ele>
        <time>2018-05-04T13:18:48Z</time>
      </trkpt>
      <trkpt lat="48.03895" lon="7.27198">
        <ele>573.22714</ele>
        <time>2018-05-04T13:18:51Z</time>
      </trkpt>
      <trkpt lat="48.03894" lon="7.272">
        <ele>573.50765</ele>
        <time>2018-05-04T13:18:53Z</time>
      </trkpt>
      <trkpt lat="48.03894" lon="7.27201">
        <ele>573.29557</ele>
        <time>2018-05-04T13:18:54Z</time>
      </trkpt>
      <trkpt lat="48.03893" lon="7.27202">
        <ele>573.63467</ele>
        <time>2018-05-04T13:18:55Z</time>
      </trkpt>
      <trkpt lat="48.03892" lon="7.27203">
        <ele>573.63336</ele>
        <time>2018-05-04T13:18:56Z</time>
      </trkpt>
      <trkpt lat="48.03891" lon="7.27204">
        <ele>573.90573</ele>
        <time>2018-05-04T13:18:57Z</time>
      </trkpt>
      <trkpt lat="48.03889" lon="7.27205">
        <ele>573.72607</ele>
        <time>2018-05-04T13:18:58Z</time>
      </trkpt>
      <trkpt lat="48.03886" lon="7.2721">
        <ele>574.16658</ele>
        <time>2018-05-04T13:19:00Z</time>
      </trkpt>
      <trkpt lat="48.03882" lon="7.27217">
        <ele>574.62202</ele>
        <time>2018-05-04T13:19:03Z</time>
      </trkpt>
      <trkpt lat="48.03879" lon="7.2722">
        <ele>575.11518</ele>
        <time>2018-05-04T13:19:05Z</time>
      </trkpt>
      <trkpt lat="48.03878" lon="7.27221">
        <ele>574.8132</ele>
        <time>2018-05-04T13:19:06Z</time>
      </trkpt>
      <trkpt lat="48.03877" lon="7.27223">
        <ele>574.95136</ele>
        <time>2018-05-04T13:19:07Z</time>
      </trkpt>
      <trkpt lat="48.03875" lon="7.27229">
        <ele>575.63994</ele>
        <time>2018-05-04T13:19:10Z</time>
      </trkpt>
      <trkpt lat="48.03873" lon="7.27231">
        <ele>575.9695</ele>
        <time>2018-05-04T13:19:11Z</time>
      </trkpt>
      <trkpt lat="48.03871" lon="7.27233">
        <ele>576.18494</ele>
        <time>2018-05-04T13:19:12Z</time>
      </trkpt>
      <trkpt lat="48.03868" lon="7.27236">
        <ele>576.20536</ele>
        <time>2018-05-04T13:19:14Z</time>
      </trkpt>
      <trkpt lat="48.03866" lon="7.27238">
        <ele>576.61176</ele>
        <time>2018-05-04T13:19:15Z</time>
      </trkpt>
      <trkpt lat="48.03866" lon="7.27239">
        <ele>576.47907</ele>
        <time>2018-05-04T13:19:16Z</time>
      </trkpt>
      <trkpt lat="48.0386" lon="7.27248">
        <ele>577.79164</ele>
        <time>2018-05-04T13:19:21Z</time>
      </trkpt>
      <trkpt lat="48.03855" lon="7.27252">
        <ele>577.94987</ele>
        <time>2018-05-04T13:19:24Z</time>
      </trkpt>
      <trkpt lat="48.03854" lon="7.27254">
        <ele>578.0888</ele>
        <time>2018-05-04T13:19:25Z</time>
      </trkpt>
      <trkpt lat="48.03853" lon="7.27255">
        <ele>578.55319</ele>
        <time>2018-05-04T13:19:26Z</time>
      </trkpt>
      <trkpt lat="48.03852" lon="7.27257">
        <ele>578.59772</ele>
        <time>2018-05-04T13:19:27Z</time>
      </trkpt>
      <trkpt lat="48.03852" lon="7.2726">
        <ele>578.73413</ele>
        <time>2018-05-04T13:19:28Z</time>
      </trkpt>
      <trkpt lat="48.03852" lon="7.27263">
        <ele>579.00569</ele>
        <time>2018-05-04T13:19:29Z</time>
      </trkpt>
      <trkpt lat="48.03851" lon="7.27266">
        <ele>579.14776</ele>
        <time>2018-05-04T13:19:30Z</time>
      </trkpt>
      <trkpt lat="48.0385" lon="7.27269">
        <ele>579.0229</ele>
        <time>2018-05-04T13:19:31Z</time>
      </trkpt>
      <trkpt lat="48.0385" lon="7.27271">
        <ele>579.69312</ele>
        <time>2018-05-04T13:19:32Z</time>
      </trkpt>
      <trkpt lat="48.0385" lon="7.27272">
        <ele>579.77498</ele>
        <time>2018-05-04T13:19:33Z</time>
      </trkpt>
      <trkpt lat="48.03849" lon="7.27274">
        <ele>580.28279</ele>
        <time>2018-05-04T13:19:34Z</time>
      </trkpt>
      <trkpt lat="48.03849" lon="7.27276">
        <ele>580.63455</ele>
        <time>2018-05-04T13:19:35Z</time>
      </trkpt>
      <trkpt lat="48.03849" lon="7.27278">
        <ele>580.6107</ele>
        <time>2018-05-04T13:19:36Z</time>
      </trkpt>
      <trkpt lat="48.03849" lon="7.2728">
        <ele>580.73465</ele>
        <time>2018-05-04T13:19:37Z</time>
      </trkpt>
      <trkpt lat="48.0385" lon="7.27283">
        <ele>581.08837</ele>
        <time>2018-05-04T13:19:39Z</time>
      </trkpt>
      <trkpt lat="48.0385" lon="7.27285">
        <ele>581.25219</ele>
        <time>2018-05-04T13:19:40Z</time>
      </trkpt>
      <trkpt lat="48.0385" lon="7.27287">
        <ele>581.75397</ele>
        <time>2018-05-04T13:19:41Z</time>
      </trkpt>
      <trkpt lat="48.0385" lon="7.27289">
        <ele>581.87876</ele>
        <time>2018-05-04T13:19:42Z</time>
      </trkpt>
      <trkpt lat="48.0385" lon="7.27291">
        <ele>582.06622</ele>
        <time>2018-05-04T13:19:43Z</time>
      </trkpt>
      <trkpt lat="48.03851" lon="7.27292">
        <ele>581.88645</ele>
        <time>2018-05-04T13:19:44Z</time>
      </trkpt>
      <trkpt lat="48.03851" lon="7.27293">
        <ele>582.52683</ele>
        <time>2018-05-04T13:19:45Z</time>
      </trkpt>
      <trkpt lat="48.03852" lon="7.27295">
        <ele>582.41091</ele>
        <time>2018-05-04T13:19:46Z</time>
      </trkpt>
      <trkpt lat="48.03851" lon="7.27297">
        <ele>582.62032</ele>
        <time>2018-05-04T13:19:47Z</time>
      </trkpt>
      <trkpt lat="48.03851" lon="7.27301">
        <ele>583.10404</ele>
        <time>2018-05-04T13:19:49Z</time>
      </trkpt>
      <trkpt lat="48.0385" lon="7.27303">
        <ele>583.32953</ele>
        <time>2018-05-04T13:19:51Z</time>
      </trkpt>
      <trkpt lat="48.0385" lon="7.27305">
        <ele>583.59717</ele>
        <time>2018-05-04T13:19:52Z</time>
      </trkpt>
      <trkpt lat="48.03849" lon="7.27307">
        <ele>583.97643</ele>
        <time>2018-05-04T13:19:54Z</time>
      </trkpt>
      <trkpt lat="48.03849" lon="7.27308">
        <ele>583.97643</ele>
        <time>2018-05-04T13:19:55Z</time>
      </trkpt>
      <trkpt lat="48.03849" lon="7.27311">
        <ele>584.90388</ele>
        <time>2018-05-04T13:19:57Z</time>
      </trkpt>
      <trkpt lat="48.03849" lon="7.27313">
        <ele>585.12313</ele>
        <time>2018-05-04T13:19:58Z</time>
      </trkpt>
      <trkpt lat="48.03848" lon="7.27316">
        <ele>585.33701</ele>
        <time>2018-05-04T13:20:00Z</time>
      </trkpt>
      <trkpt lat="48.03848" lon="7.27318">
        <ele>585.15925</ele>
        <time>2018-05-04T13:20:01Z</time>
      </trkpt>
      <trkpt lat="48.03848" lon="7.27316">
        <ele>584.50724</ele>
        <time>2018-05-04T13:20:04Z</time>
      </trkpt>
      <trkpt lat="48.03848" lon="7.27317">
        <ele>584.47796</ele>
        <time>2018-05-04T13:20:08Z</time>
      </trkpt>
      <trkpt lat="48.03848" lon="7.27317">
        <ele>584.96965</ele>
        <time>2018-05-04T13:20:12Z</time>
      </trkpt>
      <trkpt lat="48.03849" lon="7.27317">
        <ele>585.48435</ele>
        <time>2018-05-04T13:20:16Z</time>
      </trkpt>
      <trkpt lat="48.03849" lon="7.27318">
        <ele>585.7538</ele>
        <time>2018-05-04T13:20:22Z</time>
      </trkpt>
      <trkpt lat="48.03849" lon="7.27319">
        <ele>585.75163</ele>
        <time>2018-05-04T13:20:23Z</time>
      </trkpt>
      <trkpt lat="48.03848" lon="7.27319">
        <ele>585.35304</ele>
        <time>2018-05-04T13:20:30Z</time>
      </trkpt>
      <trkpt lat="48.03848" lon="7.27319">
        <ele>585.34302</ele>
        <time>2018-05-04T13:20:31Z</time>
      </trkpt>
      <trkpt lat="48.03847" lon="7.27319">
        <ele>585.27048</ele>
        <time>2018-05-04T13:20:32Z</time>
      </trkpt>
      <trkpt lat="48.03846" lon="7.27319">
        <ele>585.29577</ele>
        <time>2018-05-04T13:20:36Z</time>
      </trkpt>
      <trkpt lat="48.03844" lon="7.27318">
        <ele>585.32666</ele>
        <time>2018-05-04T13:20:40Z</time>
      </trkpt>
      <trkpt lat="48.03845" lon="7.27319">
        <ele>585.14299</ele>
        <time>2018-05-04T13:20:43Z</time>
      </trkpt>
      <trkpt lat="48.03846" lon="7.2732">
        <ele>584.97694</ele>
        <time>2018-05-04T13:20:50Z</time>
      </trkpt>
      <trkpt lat="48.03846" lon="7.27321">
        <ele>584.31768</ele>
        <time>2018-05-04T13:20:55Z</time>
      </trkpt>
      <trkpt lat="48.03846" lon="7.27322">
        <ele>584.92563</ele>
        <time>2018-05-04T13:20:59Z</time>
      </trkpt>
      <trkpt lat="48.03846" lon="7.27322">
        <ele>585.22331</ele>
        <time>2018-05-04T13:21:01Z</time>
      </trkpt>
      <trkpt lat="48.0385" lon="7.27322">
        <ele>584.41717</ele>
        <time>2018-05-04T13:21:38Z</time>
      </trkpt>
      <trkpt lat="48.0385" lon="7.27323">
        <ele>584.57314</ele>
        <time>2018-05-04T13:21:39Z</time>
      </trkpt>
      <trkpt lat="48.0385" lon="7.27324">
        <ele>584.74787</ele>
        <time>2018-05-04T13:21:40Z</time>
      </trkpt>
      <trkpt lat="48.0385" lon="7.27325">
        <ele>584.86618</ele>
        <time>2018-05-04T13:21:41Z</time>
      </trkpt>
      <trkpt lat="48.03849" lon="7.27325">
        <ele>585.05149</ele>
        <time>2018-05-04T13:21:42Z</time>
      </trkpt>
      <trkpt lat="48.03848" lon="7.27325">
        <ele>585.0992</ele>
        <time>2018-05-04T13:21:43Z</time>
      </trkpt>
      <trkpt lat="48.03848" lon="7.27324">
        <ele>585.28534</ele>
        <time>2018-05-04T13:21:45Z</time>
      </trkpt>
      <trkpt lat="48.03848" lon="7.27323">
        <ele>584.99513</ele>
        <time>2018-05-04T13:21:47Z</time>
      </trkpt>
      <trkpt lat="48.03849" lon="7.27323">
        <ele>585.0881</ele>
        <time>2018-05-04T13:21:48Z</time>
      </trkpt>
      <trkpt lat="48.0385" lon="7.27324">
        <ele>585.16211</ele>
        <time>2018-05-04T13:21:49Z</time>
      </trkpt>
      <trkpt lat="48.03851" lon="7.27325">
        <ele>585.04504</ele>
        <time>2018-05-04T13:21:50Z</time>
      </trkpt>
      <trkpt lat="48.03851" lon="7.27325">
        <ele>584.75283</ele>
        <time>2018-05-04T13:21:51Z</time>
      </trkpt>
      <trkpt lat="48.03852" lon="7.27325">
        <ele>585.00467</ele>
        <time>2018-05-04T13:21:52Z</time>
      </trkpt>
      <trkpt lat="48.03852" lon="7.27325">
        <ele>585.48007</ele>
        <time>2018-05-04T13:21:53Z</time>
      </trkpt>
      <trkpt lat="48.03853" lon="7.27325">
        <ele>586.1308</ele>
        <time>2018-05-04T13:21:54Z</time>
      </trkpt>
      <trkpt lat="48.03854" lon="7.27325">
        <ele>586.27179</ele>
        <time>2018-05-04T13:21:56Z</time>
      </trkpt>
      <trkpt lat="48.03854" lon="7.27325">
        <ele>586.7068</ele>
        <time>2018-05-04T13:21:59Z</time>
      </trkpt>
      <trkpt lat="48.03859" lon="7.27327">
        <ele>588.54057</ele>
        <time>2018-05-04T13:22:04Z</time>
      </trkpt>
      <trkpt lat="48.03859" lon="7.27327">
        <ele>588.80122</ele>
        <time>2018-05-04T13:22:05Z</time>
      </trkpt>
      <trkpt lat="48.0386" lon="7.27326">
        <ele>589.32966</ele>
        <time>2018-05-04T13:22:06Z</time>
      </trkpt>
      <trkpt lat="48.0386" lon="7.27325">
        <ele>589.70682</ele>
        <time>2018-05-04T13:22:07Z</time>
      </trkpt>
      <trkpt lat="48.03861" lon="7.27324">
        <ele>589.78822</ele>
        <time>2018-05-04T13:22:08Z</time>
      </trkpt>
      <trkpt lat="48.03861" lon="7.27323">
        <ele>590.0925</ele>
        <time>2018-05-04T13:22:09Z</time>
      </trkpt>
      <trkpt lat="48.03862" lon="7.27323">
        <ele>590.18044</ele>
        <time>2018-05-04T13:22:10Z</time>
      </trkpt>
      <trkpt lat="48.03862" lon="7.27323">
        <ele>589.79106</ele>
        <time>2018-05-04T13:22:11Z</time>
      </trkpt>
      <trkpt lat="48.03863" lon="7.27324">
        <ele>590.17521</ele>
        <time>2018-05-04T13:22:12Z</time>
      </trkpt>
      <trkpt lat="48.03864" lon="7.27324">
        <ele>590.56157</ele>
        <time>2018-05-04T13:22:13Z</time>
      </trkpt>
      <trkpt lat="48.03864" lon="7.27324">
        <ele>590.85332</ele>
        <time>2018-05-04T13:22:14Z</time>
      </trkpt>
      <trkpt lat="48.03865" lon="7.27324">
        <ele>591.35488</ele>
        <time>2018-05-04T13:22:15Z</time>
      </trkpt>
      <trkpt lat="48.03866" lon="7.27325">
        <ele>591.50143</ele>
        <time>2018-05-04T13:22:16Z</time>
      </trkpt>
      <trkpt lat="48.03868" lon="7.27325">
        <ele>591.82775</ele>
        <time>2018-05-04T13:22:18Z</time>
      </trkpt>
      <trkpt lat="48.0387" lon="7.27326">
        <ele>592.68368</ele>
        <time>2018-05-04T13:22:20Z</time>
      </trkpt>
      <trkpt lat="48.0387" lon="7.27326">
        <ele>592.86903</ele>
        <time>2018-05-04T13:22:22Z</time>
      </trkpt>
      <trkpt lat="48.0387" lon="7.27327">
        <ele>592.51256</ele>
        <time>2018-05-04T13:22:31Z</time>
      </trkpt>
      <trkpt lat="48.03871" lon="7.27328">
        <ele>592.68195</ele>
        <time>2018-05-04T13:22:32Z</time>
      </trkpt>
      <trkpt lat="48.03871" lon="7.27328">
        <ele>592.50395</ele>
        <time>2018-05-04T13:22:33Z</time>
      </trkpt>
      <trkpt lat="48.03872" lon="7.27327">
        <ele>593.41757</ele>
        <time>2018-05-04T13:22:34Z</time>
      </trkpt>
      <trkpt lat="48.03872" lon="7.27326">
        <ele>593.41835</ele>
        <time>2018-05-04T13:22:35Z</time>
      </trkpt>
      <trkpt lat="48.0387" lon="7.27321">
        <ele>592.81588</ele>
        <time>2018-05-04T13:22:50Z</time>
      </trkpt>
      <trkpt lat="48.03869" lon="7.27321">
        <ele>593.02773</ele>
        <time>2018-05-04T13:22:51Z</time>
      </trkpt>
      <trkpt lat="48.03869" lon="7.27321">
        <ele>593.34648</ele>
        <time>2018-05-04T13:22:52Z</time>
      </trkpt>
      <trkpt lat="48.03869" lon="7.2732">
        <ele>594.68394</ele>
        <time>2018-05-04T13:22:54Z</time>
      </trkpt>
      <trkpt lat="48.03868" lon="7.2732">
        <ele>595.23153</ele>
        <time>2018-05-04T13:22:56Z</time>
      </trkpt>
      <trkpt lat="48.03868" lon="7.27321">
        <ele>589.67025</ele>
        <time>2018-05-04T13:23:39Z</time>
      </trkpt>
      <trkpt lat="48.03868" lon="7.2732">
        <ele>590.51054</ele>
        <time>2018-05-04T13:24:03Z</time>
      </trkpt>
      <trkpt lat="48.03869" lon="7.2732">
        <ele>590.44705</ele>
        <time>2018-05-04T13:24:21Z</time>
      </trkpt>
      <trkpt lat="48.0387" lon="7.27321">
        <ele>588.07986</ele>
        <time>2018-05-04T13:26:19Z</time>
      </trkpt>
      <trkpt lat="48.0387" lon="7.27319">
        <ele>586.93154</ele>
        <time>2018-05-04T13:27:47Z</time>
      </trkpt>
      <trkpt lat="48.03871" lon="7.27318">
        <ele>586.7529</ele>
        <time>2018-05-04T13:27:48Z</time>
      </trkpt>
      <trkpt lat="48.03871" lon="7.27318">
        <ele>586.81595</ele>
        <time>2018-05-04T13:27:49Z</time>
      </trkpt>
      <trkpt lat="48.03871" lon="7.27319">
        <ele>586.03126</ele>
        <time>2018-05-04T13:27:51Z</time>
      </trkpt>
      <trkpt lat="48.03871" lon="7.27319">
        <ele>585.91127</ele>
        <time>2018-05-04T13:27:53Z</time>
      </trkpt>
      <trkpt lat="48.03871" lon="7.2732">
        <ele>585.85795</ele>
        <time>2018-05-04T13:27:55Z</time>
      </trkpt>
      <trkpt lat="48.03871" lon="7.27319">
        <ele>587.04958</ele>
        <time>2018-05-04T13:28:01Z</time>
      </trkpt>
      <trkpt lat="48.03871" lon="7.27318">
        <ele>587.15269</ele>
        <time>2018-05-04T13:28:02Z</time>
      </trkpt>
      <trkpt lat="48.03871" lon="7.27317">
        <ele>586.64686</ele>
        <time>2018-05-04T13:28:04Z</time>
      </trkpt>
      <trkpt lat="48.03872" lon="7.27317">
        <ele>587.19413</ele>
        <time>2018-05-04T13:28:08Z</time>
      </trkpt>
      <trkpt lat="48.03871" lon="7.27317">
        <ele>586.92511</ele>
        <time>2018-05-04T13:28:11Z</time>
      </trkpt>
      <trkpt lat="48.03871" lon="7.27316">
        <ele>586.75651</ele>
        <time>2018-05-04T13:28:12Z</time>
      </trkpt>
      <trkpt lat="48.0387" lon="7.27317">
        <ele>586.86949</ele>
        <time>2018-05-04T13:28:13Z</time>
      </trkpt>
      <trkpt lat="48.03869" lon="7.27318">
        <ele>587.01416</ele>
        <time>2018-05-04T13:28:14Z</time>
      </trkpt>
      <trkpt lat="48.03869" lon="7.27319">
        <ele>587.43228</ele>
        <time>2018-05-04T13:28:15Z</time>
      </trkpt>
      <trkpt lat="48.03869" lon="7.27321">
        <ele>587.0276</ele>
        <time>2018-05-04T13:28:16Z</time>
      </trkpt>
      <trkpt lat="48.03868" lon="7.27323">
        <ele>587.24822</ele>
        <time>2018-05-04T13:28:17Z</time>
      </trkpt>
      <trkpt lat="48.03866" lon="7.27325">
        <ele>587.27681</ele>
        <time>2018-05-04T13:28:18Z</time>
      </trkpt>
      <trkpt lat="48.03865" lon="7.27326">
        <ele>588.38218</ele>
        <time>2018-05-04T13:28:19Z</time>
      </trkpt>
      <trkpt lat="48.03864" lon="7.27326">
        <ele>588.36124</ele>
        <time>2018-05-04T13:28:20Z</time>
      </trkpt>
      <trkpt lat="48.03866" lon="7.27324">
        <ele>587.83566</ele>
        <time>2018-05-04T13:28:25Z</time>
      </trkpt>
      <trkpt lat="48.03867" lon="7.27324">
        <ele>587.87569</ele>
        <time>2018-05-04T13:28:26Z</time>
      </trkpt>
      <trkpt lat="48.03869" lon="7.27323">
        <ele>587.31037</ele>
        <time>2018-05-04T13:28:52Z</time>
      </trkpt>
      <trkpt lat="48.03869" lon="7.27323">
        <ele>587.47504</ele>
        <time>2018-05-04T13:28:54Z</time>
      </trkpt>
      <trkpt lat="48.0387" lon="7.27322">
        <ele>587.32252</ele>
        <time>2018-05-04T13:28:56Z</time>
      </trkpt>
      <trkpt lat="48.03871" lon="7.2732">
        <ele>587.63206</ele>
        <time>2018-05-04T13:28:57Z</time>
      </trkpt>
      <trkpt lat="48.03872" lon="7.27319">
        <ele>587.68057</ele>
        <time>2018-05-04T13:28:58Z</time>
      </trkpt>
      <trkpt lat="48.03873" lon="7.27318">
        <ele>586.94693</ele>
        <time>2018-05-04T13:29:00Z</time>
      </trkpt>
      <trkpt lat="48.03874" lon="7.27318">
        <ele>586.59069</ele>
        <time>2018-05-04T13:29:01Z</time>
      </trkpt>
      <trkpt lat="48.03874" lon="7.27317">
        <ele>586.66642</ele>
        <time>2018-05-04T13:29:02Z</time>
      </trkpt>
      <trkpt lat="48.03875" lon="7.27316">
        <ele>586.81266</ele>
        <time>2018-05-04T13:29:03Z</time>
      </trkpt>
      <trkpt lat="48.03875" lon="7.27315">
        <ele>586.42457</ele>
        <time>2018-05-04T13:29:04Z</time>
      </trkpt>
      <trkpt lat="48.03874" lon="7.27314">
        <ele>586.46569</ele>
        <time>2018-05-04T13:29:06Z</time>
      </trkpt>
      <trkpt lat="48.03874" lon="7.27314">
        <ele>586.38807</ele>
        <time>2018-05-04T13:29:07Z</time>
      </trkpt>
      <trkpt lat="48.03875" lon="7.27317">
        <ele>586.25111</ele>
        <time>2018-05-04T13:29:19Z</time>
      </trkpt>
      <trkpt lat="48.03875" lon="7.27318">
        <ele>586.5632</ele>
        <time>2018-05-04T13:29:21Z</time>
      </trkpt>
      <trkpt lat="48.03875" lon="7.27319">
        <ele>586.43378</ele>
        <time>2018-05-04T13:29:22Z</time>
      </trkpt>
      <trkpt lat="48.03874" lon="7.2732">
        <ele>586.46644</ele>
        <time>2018-05-04T13:29:23Z</time>
      </trkpt>
      <trkpt lat="48.03874" lon="7.2732">
        <ele>586.45114</ele>
        <time>2018-05-04T13:29:24Z</time>
      </trkpt>
      <trkpt lat="48.03873" lon="7.27319">
        <ele>586.6191</ele>
        <time>2018-05-04T13:29:26Z</time>
      </trkpt>
      <trkpt lat="48.03872" lon="7.27318">
        <ele>586.74727</ele>
        <time>2018-05-04T13:29:27Z</time>
      </trkpt>
      <trkpt lat="48.03872" lon="7.27317">
        <ele>586.79607</ele>
        <time>2018-05-04T13:29:28Z</time>
      </trkpt>
      <trkpt lat="48.03871" lon="7.27316">
        <ele>586.64784</ele>
        <time>2018-05-04T13:29:29Z</time>
      </trkpt>
      <trkpt lat="48.0387" lon="7.27315">
        <ele>586.77416</ele>
        <time>2018-05-04T13:29:30Z</time>
      </trkpt>
      <trkpt lat="48.0387" lon="7.27315">
        <ele>587.27086</ele>
        <time>2018-05-04T13:29:31Z</time>
      </trkpt>
      <trkpt lat="48.03869" lon="7.27316">
        <ele>587.78093</ele>
        <time>2018-05-04T13:29:32Z</time>
      </trkpt>
      <trkpt lat="48.03868" lon="7.27317">
        <ele>588.26158</ele>
        <time>2018-05-04T13:29:33Z</time>
      </trkpt>
      <trkpt lat="48.03868" lon="7.27318">
        <ele>588.34419</ele>
        <time>2018-05-04T13:29:34Z</time>
      </trkpt>
      <trkpt lat="48.03868" lon="7.2732">
        <ele>588.39417</ele>
        <time>2018-05-04T13:29:35Z</time>
      </trkpt>
      <trkpt lat="48.03869" lon="7.27322">
        <ele>588.28882</ele>
        <time>2018-05-04T13:29:38Z</time>
      </trkpt>
      <trkpt lat="48.03869" lon="7.27323">
        <ele>588.1899</ele>
        <time>2018-05-04T13:29:39Z</time>
      </trkpt>
      <trkpt lat="48.03869" lon="7.27324">
        <ele>587.64391</ele>
        <time>2018-05-04T13:29:41Z</time>
      </trkpt>
      <trkpt lat="48.03869" lon="7.27323">
        <ele>587.39026</ele>
        <time>2018-05-04T13:29:46Z</time>
      </trkpt>
      <trkpt lat="48.03868" lon="7.27324">
        <ele>587.25468</ele>
        <time>2018-05-04T13:30:04Z</time>
      </trkpt>
      <trkpt lat="48.03867" lon="7.27327">
        <ele>587.3483</ele>
        <time>2018-05-04T13:30:09Z</time>
      </trkpt>
      <trkpt lat="48.03867" lon="7.27326">
        <ele>587.48568</ele>
        <time>2018-05-04T13:30:13Z</time>
      </trkpt>
      <trkpt lat="48.03867" lon="7.27325">
        <ele>587.12593</ele>
        <time>2018-05-04T13:30:41Z</time>
      </trkpt>
      <trkpt lat="48.03869" lon="7.27324">
        <ele>587.44274</ele>
        <time>2018-05-04T13:31:04Z</time>
      </trkpt>
      <trkpt lat="48.03869" lon="7.27323">
        <ele>587.16649</ele>
        <time>2018-05-04T13:31:06Z</time>
      </trkpt>
      <trkpt lat="48.0387" lon="7.27322">
        <ele>587.00767</ele>
        <time>2018-05-04T13:31:07Z</time>
      </trkpt>
      <trkpt lat="48.03871" lon="7.27321">
        <ele>586.7434</ele>
        <time>2018-05-04T13:31:08Z</time>
      </trkpt>
      <trkpt lat="48.03871" lon="7.27321">
        <ele>586.62101</ele>
        <time>2018-05-04T13:31:09Z</time>
      </trkpt>
      <trkpt lat="48.03872" lon="7.27322">
        <ele>587.3206</ele>
        <time>2018-05-04T13:31:10Z</time>
      </trkpt>
      <trkpt lat="48.03872" lon="7.27323">
        <ele>586.93814</ele>
        <time>2018-05-04T13:31:11Z</time>
      </trkpt>
      <trkpt lat="48.03872" lon="7.27324">
        <ele>586.58929</ele>
        <time>2018-05-04T13:31:12Z</time>
      </trkpt>
      <trkpt lat="48.03871" lon="7.27327">
        <ele>585.99463</ele>
        <time>2018-05-04T13:31:14Z</time>
      </trkpt>
      <trkpt lat="48.03871" lon="7.27329">
        <ele>585.8905</ele>
        <time>2018-05-04T13:31:15Z</time>
      </trkpt>
      <trkpt lat="48.0387" lon="7.2733">
        <ele>585.65623</ele>
        <time>2018-05-04T13:31:16Z</time>
      </trkpt>
      <trkpt lat="48.0387" lon="7.27331">
        <ele>585.50206</ele>
        <time>2018-05-04T13:31:17Z</time>
      </trkpt>
      <trkpt lat="48.03869" lon="7.27331">
        <ele>585.47457</ele>
        <time>2018-05-04T13:31:18Z</time>
      </trkpt>
      <trkpt lat="48.03868" lon="7.27331">
        <ele>585.09849</ele>
        <time>2018-05-04T13:31:19Z</time>
      </trkpt>
      <trkpt lat="48.03867" lon="7.2733">
        <ele>584.4961</ele>
        <time>2018-05-04T13:31:21Z</time>
      </trkpt>
      <trkpt lat="48.03866" lon="7.27329">
        <ele>583.97979</ele>
        <time>2018-05-04T13:31:23Z</time>
      </trkpt>
      <trkpt lat="48.03865" lon="7.27329">
        <ele>583.73881</ele>
        <time>2018-05-04T13:31:24Z</time>
      </trkpt>
      <trkpt lat="48.03864" lon="7.27328">
        <ele>583.82269</ele>
        <time>2018-05-04T13:31:29Z</time>
      </trkpt>
      <trkpt lat="48.03864" lon="7.27329">
        <ele>583.09159</ele>
        <time>2018-05-04T13:31:31Z</time>
      </trkpt>
      <trkpt lat="48.03862" lon="7.27331">
        <ele>582.44721</ele>
        <time>2018-05-04T13:31:34Z</time>
      </trkpt>
      <trkpt lat="48.03861" lon="7.27332">
        <ele>582.70149</ele>
        <time>2018-05-04T13:31:36Z</time>
      </trkpt>
      <trkpt lat="48.03861" lon="7.27333">
        <ele>582.93538</ele>
        <time>2018-05-04T13:31:37Z</time>
      </trkpt>
      <trkpt lat="48.0386" lon="7.27334">
        <ele>583.04405</ele>
        <time>2018-05-04T13:31:38Z</time>
      </trkpt>
      <trkpt lat="48.0386" lon="7.27334">
        <ele>582.79167</ele>
        <time>2018-05-04T13:31:39Z</time>
      </trkpt>
      <trkpt lat="48.0386" lon="7.27335">
        <ele>583.81026</ele>
        <time>2018-05-04T13:31:42Z</time>
      </trkpt>
      <trkpt lat="48.03859" lon="7.27336">
        <ele>583.59569</ele>
        <time>2018-05-04T13:31:43Z</time>
      </trkpt>
      <trkpt lat="48.03859" lon="7.27337">
        <ele>583.89093</ele>
        <time>2018-05-04T13:31:44Z</time>
      </trkpt>
      <trkpt lat="48.03858" lon="7.27337">
        <ele>583.68969</ele>
        <time>2018-05-04T13:31:45Z</time>
      </trkpt>
      <trkpt lat="48.03858" lon="7.27337">
        <ele>584.1622</ele>
        <time>2018-05-04T13:31:46Z</time>
      </trkpt>
      <trkpt lat="48.03857" lon="7.27336">
        <ele>583.94669</ele>
        <time>2018-05-04T13:31:47Z</time>
      </trkpt>
      <trkpt lat="48.03857" lon="7.27335">
        <ele>584.27889</ele>
        <time>2018-05-04T13:31:48Z</time>
      </trkpt>
      <trkpt lat="48.03856" lon="7.27333">
        <ele>584.12983</ele>
        <time>2018-05-04T13:31:49Z</time>
      </trkpt>
      <trkpt lat="48.03856" lon="7.27332">
        <ele>584.11854</ele>
        <time>2018-05-04T13:31:50Z</time>
      </trkpt>
      <trkpt lat="48.03856" lon="7.27332">
        <ele>584.02648</ele>
        <time>2018-05-04T13:31:51Z</time>
      </trkpt>
      <trkpt lat="48.03854" lon="7.27333">
        <ele>584.09163</ele>
        <time>2018-05-04T13:32:01Z</time>
      </trkpt>
      <trkpt lat="48.03854" lon="7.27336">
        <ele>583.79592</ele>
        <time>2018-05-04T13:32:03Z</time>
      </trkpt>
      <trkpt lat="48.03853" lon="7.27338">
        <ele>583.46167</ele>
        <time>2018-05-04T13:32:04Z</time>
      </trkpt>
      <trkpt lat="48.03853" lon="7.27339">
        <ele>583.66674</ele>
        <time>2018-05-04T13:32:05Z</time>
      </trkpt>
      <trkpt lat="48.03852" lon="7.2734">
        <ele>584.06534</ele>
        <time>2018-05-04T13:32:08Z</time>
      </trkpt>
      <trkpt lat="48.03852" lon="7.27341">
        <ele>584.34078</ele>
        <time>2018-05-04T13:32:10Z</time>
      </trkpt>
      <trkpt lat="48.03853" lon="7.27341">
        <ele>583.5717</ele>
        <time>2018-05-04T13:32:15Z</time>
      </trkpt>
      <trkpt lat="48.03854" lon="7.27345">
        <ele>583.56242</ele>
        <time>2018-05-04T13:32:27Z</time>
      </trkpt>
      <trkpt lat="48.03854" lon="7.27344">
        <ele>583.73862</ele>
        <time>2018-05-04T13:32:28Z</time>
      </trkpt>
      <trkpt lat="48.03854" lon="7.27342">
        <ele>583.60998</ele>
        <time>2018-05-04T13:32:29Z</time>
      </trkpt>
      <trkpt lat="48.03854" lon="7.2734">
        <ele>583.83424</ele>
        <time>2018-05-04T13:32:30Z</time>
      </trkpt>
      <trkpt lat="48.03855" lon="7.27338">
        <ele>584.30134</ele>
        <time>2018-05-04T13:32:31Z</time>
      </trkpt>
      <trkpt lat="48.03855" lon="7.27336">
        <ele>583.57918</ele>
        <time>2018-05-04T13:32:32Z</time>
      </trkpt>
      <trkpt lat="48.03855" lon="7.27335">
        <ele>583.58165</ele>
        <time>2018-05-04T13:32:33Z</time>
      </trkpt>
      <trkpt lat="48.03856" lon="7.27336">
        <ele>583.41422</ele>
        <time>2018-05-04T13:32:36Z</time>
      </trkpt>
      <trkpt lat="48.03856" lon="7.27336">
        <ele>583.38739</ele>
        <time>2018-05-04T13:32:38Z</time>
      </trkpt>
      <trkpt lat="48.03857" lon="7.27336">
        <ele>583.35282</ele>
        <time>2018-05-04T13:32:40Z</time>
      </trkpt>
      <trkpt lat="48.03858" lon="7.27335">
        <ele>583.51053</ele>
        <time>2018-05-04T13:32:42Z</time>
      </trkpt>
      <trkpt lat="48.03858" lon="7.27335">
        <ele>584.50886</ele>
        <time>2018-05-04T13:32:45Z</time>
      </trkpt>
      <trkpt lat="48.03858" lon="7.27335">
        <ele>583.83932</ele>
        <time>2018-05-04T13:32:49Z</time>
      </trkpt>
      <trkpt lat="48.03858" lon="7.27334">
        <ele>583.45012</ele>
        <time>2018-05-04T13:32:51Z</time>
      </trkpt>
      <trkpt lat="48.03858" lon="7.27333">
        <ele>583.20774</ele>
        <time>2018-05-04T13:32:52Z</time>
      </trkpt>
      <trkpt lat="48.03858" lon="7.2733">
        <ele>582.87205</ele>
        <time>2018-05-04T13:32:53Z</time>
      </trkpt>
      <trkpt lat="48.03859" lon="7.27328">
        <ele>582.75708</ele>
        <time>2018-05-04T13:32:54Z</time>
      </trkpt>
      <trkpt lat="48.03859" lon="7.27327">
        <ele>582.71751</ele>
        <time>2018-05-04T13:32:55Z</time>
      </trkpt>
      <trkpt lat="48.03859" lon="7.27326">
        <ele>582.59088</ele>
        <time>2018-05-04T13:32:56Z</time>
      </trkpt>
      <trkpt lat="48.0386" lon="7.27326">
        <ele>582.24522</ele>
        <time>2018-05-04T13:32:57Z</time>
      </trkpt>
      <trkpt lat="48.0386" lon="7.27325">
        <ele>582.36463</ele>
        <time>2018-05-04T13:32:59Z</time>
      </trkpt>
      <trkpt lat="48.03859" lon="7.27326">
        <ele>582.19445</ele>
        <time>2018-05-04T13:33:01Z</time>
      </trkpt>
      <trkpt lat="48.03859" lon="7.27327">
        <ele>582.00511</ele>
        <time>2018-05-04T13:33:02Z</time>
      </trkpt>
      <trkpt lat="48.03858" lon="7.27328">
        <ele>581.61234</ele>
        <time>2018-05-04T13:33:03Z</time>
      </trkpt>
      <trkpt lat="48.03858" lon="7.27329">
        <ele>581.12713</ele>
        <time>2018-05-04T13:33:04Z</time>
      </trkpt>
      <trkpt lat="48.03857" lon="7.2733">
        <ele>580.9494</ele>
        <time>2018-05-04T13:33:05Z</time>
      </trkpt>
      <trkpt lat="48.03856" lon="7.2733">
        <ele>580.53867</ele>
        <time>2018-05-04T13:33:06Z</time>
      </trkpt>
      <trkpt lat="48.03855" lon="7.27329">
        <ele>579.91825</ele>
        <time>2018-05-04T13:33:08Z</time>
      </trkpt>
      <trkpt lat="48.03853" lon="7.27328">
        <ele>579.08241</ele>
        <time>2018-05-04T13:33:10Z</time>
      </trkpt>
      <trkpt lat="48.03853" lon="7.27327">
        <ele>578.94326</ele>
        <time>2018-05-04T13:33:11Z</time>
      </trkpt>
      <trkpt lat="48.0385" lon="7.27325">
        <ele>577.90586</ele>
        <time>2018-05-04T13:33:14Z</time>
      </trkpt>
      <trkpt lat="48.03849" lon="7.27325">
        <ele>577.77611</ele>
        <time>2018-05-04T13:33:15Z</time>
      </trkpt>
      <trkpt lat="48.03848" lon="7.27324">
        <ele>577.56269</ele>
        <time>2018-05-04T13:33:16Z</time>
      </trkpt>
      <trkpt lat="48.03847" lon="7.27322">
        <ele>577.54999</ele>
        <time>2018-05-04T13:33:17Z</time>
      </trkpt>
      <trkpt lat="48.03846" lon="7.27321">
        <ele>577.54414</ele>
        <time>2018-05-04T13:33:18Z</time>
      </trkpt>
      <trkpt lat="48.03846" lon="7.27319">
        <ele>577.43207</ele>
        <time>2018-05-04T13:33:19Z</time>
      </trkpt>
      <trkpt lat="48.03846" lon="7.27319">
        <ele>577.43207</ele>
        <time>2018-05-04T13:33:20Z</time>
      </trkpt>
      <trkpt lat="48.03846" lon="7.2732">
        <ele>577.52003</ele>
        <time>2018-05-04T13:33:23Z</time>
      </trkpt>
      <trkpt lat="48.03846" lon="7.27321">
        <ele>577.41105</ele>
        <time>2018-05-04T13:33:24Z</time>
      </trkpt>
      <trkpt lat="48.03847" lon="7.27321">
        <ele>577.52773</ele>
        <time>2018-05-04T13:33:26Z</time>
      </trkpt>
      <trkpt lat="48.03848" lon="7.27321">
        <ele>577.54804</ele>
        <time>2018-05-04T13:33:27Z</time>
      </trkpt>
      <trkpt lat="48.03848" lon="7.2732">
        <ele>577.535</ele>
        <time>2018-05-04T13:33:28Z</time>
      </trkpt>
      <trkpt lat="48.03849" lon="7.2732">
        <ele>577.53232</ele>
        <time>2018-05-04T13:33:46Z</time>
      </trkpt>
      <trkpt lat="48.03849" lon="7.27321">
        <ele>577.31891</ele>
        <time>2018-05-04T13:33:49Z</time>
      </trkpt>
      <trkpt lat="48.0385" lon="7.27322">
        <ele>577.13293</ele>
        <time>2018-05-04T13:33:50Z</time>
      </trkpt>
      <trkpt lat="48.0385" lon="7.27322">
        <ele>577.21678</ele>
        <time>2018-05-04T13:33:54Z</time>
      </trkpt>
      <trkpt lat="48.03851" lon="7.27324">
        <ele>577.16866</ele>
        <time>2018-05-04T13:33:55Z</time>
      </trkpt>
      <trkpt lat="48.03851" lon="7.27324">
        <ele>577.24194</ele>
        <time>2018-05-04T13:33:56Z</time>
      </trkpt>
      <trkpt lat="48.0385" lon="7.27324">
        <ele>577.24933</ele>
        <time>2018-05-04T13:33:58Z</time>
      </trkpt>
      <trkpt lat="48.03849" lon="7.27321">
        <ele>577.25321</ele>
        <time>2018-05-04T13:34:00Z</time>
      </trkpt>
      <trkpt lat="48.03848" lon="7.2732">
        <ele>577.24744</ele>
        <time>2018-05-04T13:34:01Z</time>
      </trkpt>
      <trkpt lat="48.03847" lon="7.27318">
        <ele>577.39688</ele>
        <time>2018-05-04T13:34:03Z</time>
      </trkpt>
      <trkpt lat="48.03846" lon="7.27319">
        <ele>577.27239</ele>
        <time>2018-05-04T13:34:09Z</time>
      </trkpt>
      <trkpt lat="48.03847" lon="7.27319">
        <ele>577.17052</ele>
        <time>2018-05-04T13:34:13Z</time>
      </trkpt>
      <trkpt lat="48.03847" lon="7.27318">
        <ele>577.30599</ele>
        <time>2018-05-04T13:34:16Z</time>
      </trkpt>
      <trkpt lat="48.03847" lon="7.27317">
        <ele>576.9183</ele>
        <time>2018-05-04T13:34:24Z</time>
      </trkpt>
      <trkpt lat="48.03847" lon="7.27317">
        <ele>576.89485</ele>
        <time>2018-05-04T13:34:25Z</time>
      </trkpt>
      <trkpt lat="48.03848" lon="7.27319">
        <ele>577.11243</ele>
        <time>2018-05-04T13:34:27Z</time>
      </trkpt>
      <trkpt lat="48.03848" lon="7.27322">
        <ele>577.62516</ele>
        <time>2018-05-04T13:34:29Z</time>
      </trkpt>
      <trkpt lat="48.03848" lon="7.27323">
        <ele>577.56041</ele>
        <time>2018-05-04T13:34:30Z</time>
      </trkpt>
      <trkpt lat="48.03849" lon="7.27323">
        <ele>577.39154</ele>
        <time>2018-05-04T13:34:34Z</time>
      </trkpt>
      <trkpt lat="48.03849" lon="7.27322">
        <ele>577.33063</ele>
        <time>2018-05-04T13:34:36Z</time>
      </trkpt>
      <trkpt lat="48.03849" lon="7.27321">
        <ele>577.17346</ele>
        <time>2018-05-04T13:34:39Z</time>
      </trkpt>
      <trkpt lat="48.03848" lon="7.27321">
        <ele>577.0986</ele>
        <time>2018-05-04T13:34:40Z</time>
      </trkpt>
      <trkpt lat="48.03847" lon="7.27319">
        <ele>577.04144</ele>
        <time>2018-05-04T13:34:41Z</time>
      </trkpt>
      <trkpt lat="48.03848" lon="7.27316">
        <ele>577.06227</ele>
        <time>2018-05-04T13:34:43Z</time>
      </trkpt>
      <trkpt lat="48.03848" lon="7.27311">
        <ele>576.49885</ele>
        <time>2018-05-04T13:34:47Z</time>
      </trkpt>
      <trkpt lat="48.03848" lon="7.27308">
        <ele>576.16391</ele>
        <time>2018-05-04T13:34:49Z</time>
      </trkpt>
      <trkpt lat="48.03848" lon="7.27306">
        <ele>576.09717</ele>
        <time>2018-05-04T13:34:50Z</time>
      </trkpt>
      <trkpt lat="48.03849" lon="7.27304">
        <ele>575.49807</ele>
        <time>2018-05-04T13:34:51Z</time>
      </trkpt>
      <trkpt lat="48.03849" lon="7.27303">
        <ele>575.47263</ele>
        <time>2018-05-04T13:34:52Z</time>
      </trkpt>
      <trkpt lat="48.0385" lon="7.273">
        <ele>574.97182</ele>
        <time>2018-05-04T13:34:54Z</time>
      </trkpt>
      <trkpt lat="48.03851" lon="7.27299">
        <ele>574.83838</ele>
        <time>2018-05-04T13:34:55Z</time>
      </trkpt>
      <trkpt lat="48.03853" lon="7.27296">
        <ele>574.57546</ele>
        <time>2018-05-04T13:34:57Z</time>
      </trkpt>
      <trkpt lat="48.03853" lon="7.27295">
        <ele>574.19858</ele>
        <time>2018-05-04T13:34:58Z</time>
      </trkpt>
      <trkpt lat="48.03853" lon="7.27294">
        <ele>574.35934</ele>
        <time>2018-05-04T13:34:59Z</time>
      </trkpt>
      <trkpt lat="48.03853" lon="7.27293">
        <ele>573.85565</ele>
        <time>2018-05-04T13:35:00Z</time>
      </trkpt>
      <trkpt lat="48.03853" lon="7.27291">
        <ele>573.76634</ele>
        <time>2018-05-04T13:35:01Z</time>
      </trkpt>
      <trkpt lat="48.03854" lon="7.27283">
        <ele>572.60151</ele>
        <time>2018-05-04T13:35:05Z</time>
      </trkpt>
      <trkpt lat="48.03855" lon="7.27281">
        <ele>572.1393</ele>
        <time>2018-05-04T13:35:06Z</time>
      </trkpt>
      <trkpt lat="48.03858" lon="7.27268">
        <ele>570.78282</ele>
        <time>2018-05-04T13:35:10Z</time>
      </trkpt>
      <trkpt lat="48.03862" lon="7.27249">
        <ele>568.91658</ele>
        <time>2018-05-04T13:35:16Z</time>
      </trkpt>
      <trkpt lat="48.03863" lon="7.27246">
        <ele>568.51063</ele>
        <time>2018-05-04T13:35:17Z</time>
      </trkpt>
      <trkpt lat="48.03864" lon="7.27243">
        <ele>568.08112</ele>
        <time>2018-05-04T13:35:18Z</time>
      </trkpt>
      <trkpt lat="48.03865" lon="7.27241">
        <ele>568.04662</ele>
        <time>2018-05-04T13:35:19Z</time>
      </trkpt>
      <trkpt lat="48.03866" lon="7.27239">
        <ele>567.96664</ele>
        <time>2018-05-04T13:35:20Z</time>
      </trkpt>
      <trkpt lat="48.03868" lon="7.27236">
        <ele>567.80271</ele>
        <time>2018-05-04T13:35:21Z</time>
      </trkpt>
      <trkpt lat="48.0387" lon="7.27227">
        <ele>567.2681</ele>
        <time>2018-05-04T13:35:24Z</time>
      </trkpt>
      <trkpt lat="48.03875" lon="7.27214">
        <ele>566.36837</ele>
        <time>2018-05-04T13:35:29Z</time>
      </trkpt>
      <trkpt lat="48.03877" lon="7.27211">
        <ele>566.25433</ele>
        <time>2018-05-04T13:35:30Z</time>
      </trkpt>
      <trkpt lat="48.03878" lon="7.27209">
        <ele>566.12844</ele>
        <time>2018-05-04T13:35:31Z</time>
      </trkpt>
      <trkpt lat="48.0388" lon="7.27207">
        <ele>565.83552</ele>
        <time>2018-05-04T13:35:32Z</time>
      </trkpt>
      <trkpt lat="48.03882" lon="7.27206">
        <ele>565.7984</ele>
        <time>2018-05-04T13:35:33Z</time>
      </trkpt>
      <trkpt lat="48.03884" lon="7.27205">
        <ele>565.3266</ele>
        <time>2018-05-04T13:35:34Z</time>
      </trkpt>
      <trkpt lat="48.03886" lon="7.27204">
        <ele>564.97046</ele>
        <time>2018-05-04T13:35:35Z</time>
      </trkpt>
      <trkpt lat="48.03891" lon="7.27202">
        <ele>564.85216</ele>
        <time>2018-05-04T13:35:37Z</time>
      </trkpt>
      <trkpt lat="48.03893" lon="7.272">
        <ele>564.35339</ele>
        <time>2018-05-04T13:35:38Z</time>
      </trkpt>
      <trkpt lat="48.03895" lon="7.27198">
        <ele>563.97553</ele>
        <time>2018-05-04T13:35:39Z</time>
      </trkpt>
      <trkpt lat="48.03916" lon="7.27168">
        <ele>560.53074</ele>
        <time>2018-05-04T13:35:48Z</time>
      </trkpt>
      <trkpt lat="48.03917" lon="7.27165">
        <ele>560.50378</ele>
        <time>2018-05-04T13:35:49Z</time>
      </trkpt>
      <trkpt lat="48.0392" lon="7.27162">
        <ele>560.06417</ele>
        <time>2018-05-04T13:35:50Z</time>
      </trkpt>
      <trkpt lat="48.03923" lon="7.27159">
        <ele>559.65943</ele>
        <time>2018-05-04T13:35:51Z</time>
      </trkpt>
      <trkpt lat="48.03929" lon="7.27155">
        <ele>558.46518</ele>
        <time>2018-05-04T13:35:53Z</time>
      </trkpt>
      <trkpt lat="48.03932" lon="7.27152">
        <ele>557.72928</ele>
        <time>2018-05-04T13:35:54Z</time>
      </trkpt>
      <trkpt lat="48.03933" lon="7.2715">
        <ele>557.40615</ele>
        <time>2018-05-04T13:35:55Z</time>
      </trkpt>
      <trkpt lat="48.03935" lon="7.27147">
        <ele>556.75649</ele>
        <time>2018-05-04T13:35:56Z</time>
      </trkpt>
      <trkpt lat="48.03936" lon="7.27145">
        <ele>556.75584</ele>
        <time>2018-05-04T13:35:57Z</time>
      </trkpt>
      <trkpt lat="48.03937" lon="7.27141">
        <ele>556.22044</ele>
        <time>2018-05-04T13:35:58Z</time>
      </trkpt>
      <trkpt lat="48.03937" lon="7.27138">
        <ele>555.77505</ele>
        <time>2018-05-04T13:35:59Z</time>
      </trkpt>
      <trkpt lat="48.03937" lon="7.27133">
        <ele>555.31015</ele>
        <time>2018-05-04T13:36:01Z</time>
      </trkpt>
      <trkpt lat="48.03938" lon="7.27127">
        <ele>554.76836</ele>
        <time>2018-05-04T13:36:03Z</time>
      </trkpt>
      <trkpt lat="48.03939" lon="7.27123">
        <ele>554.34963</ele>
        <time>2018-05-04T13:36:04Z</time>
      </trkpt>
      <trkpt lat="48.03939" lon="7.27121">
        <ele>554.18908</ele>
        <time>2018-05-04T13:36:05Z</time>
      </trkpt>
      <trkpt lat="48.0394" lon="7.27118">
        <ele>554.18908</ele>
        <time>2018-05-04T13:36:06Z</time>
      </trkpt>
      <trkpt lat="48.03942" lon="7.27114">
        <ele>553.79471</ele>
        <time>2018-05-04T13:36:07Z</time>
      </trkpt>
      <trkpt lat="48.03943" lon="7.27111">
        <ele>553.67925</ele>
        <time>2018-05-04T13:36:08Z</time>
      </trkpt>
      <trkpt lat="48.03946" lon="7.27108">
        <ele>552.84989</ele>
        <time>2018-05-04T13:36:09Z</time>
      </trkpt>
      <trkpt lat="48.03948" lon="7.27106">
        <ele>552.42619</ele>
        <time>2018-05-04T13:36:10Z</time>
      </trkpt>
      <trkpt lat="48.0395" lon="7.27103">
        <ele>551.8329</ele>
        <time>2018-05-04T13:36:11Z</time>
      </trkpt>
      <trkpt lat="48.03951" lon="7.27101">
        <ele>551.72124</ele>
        <time>2018-05-04T13:36:12Z</time>
      </trkpt>
      <trkpt lat="48.03951" lon="7.27099">
        <ele>551.12753</ele>
        <time>2018-05-04T13:36:13Z</time>
      </trkpt>
      <trkpt lat="48.03952" lon="7.27097">
        <ele>551.00716</ele>
        <time>2018-05-04T13:36:14Z</time>
      </trkpt>
      <trkpt lat="48.03954" lon="7.27093">
        <ele>550.64301</ele>
        <time>2018-05-04T13:36:16Z</time>
      </trkpt>
      <trkpt lat="48.03955" lon="7.27092">
        <ele>550.40536</ele>
        <time>2018-05-04T13:36:17Z</time>
      </trkpt>
      <trkpt lat="48.03956" lon="7.27091">
        <ele>550.23194</ele>
        <time>2018-05-04T13:36:18Z</time>
      </trkpt>
      <trkpt lat="48.03956" lon="7.2709">
        <ele>550.23077</ele>
        <time>2018-05-04T13:36:19Z</time>
      </trkpt>
      <trkpt lat="48.03957" lon="7.27088">
        <ele>549.9435</ele>
        <time>2018-05-04T13:36:20Z</time>
      </trkpt>
      <trkpt lat="48.03959" lon="7.27082">
        <ele>549.73296</ele>
        <time>2018-05-04T13:36:22Z</time>
      </trkpt>
      <trkpt lat="48.03962" lon="7.27073">
        <ele>548.38119</ele>
        <time>2018-05-04T13:36:24Z</time>
      </trkpt>
      <trkpt lat="48.03964" lon="7.2706">
        <ele>546.71116</ele>
        <time>2018-05-04T13:36:27Z</time>
      </trkpt>
      <trkpt lat="48.03964" lon="7.27056">
        <ele>546.79043</ele>
        <time>2018-05-04T13:36:28Z</time>
      </trkpt>
      <trkpt lat="48.03966" lon="7.27052">
        <ele>546.63568</ele>
        <time>2018-05-04T13:36:30Z</time>
      </trkpt>
      <trkpt lat="48.0397" lon="7.27047">
        <ele>546.60962</ele>
        <time>2018-05-04T13:36:33Z</time>
      </trkpt>
      <trkpt lat="48.03972" lon="7.27045">
        <ele>546.61168</ele>
        <time>2018-05-04T13:36:34Z</time>
      </trkpt>
      <trkpt lat="48.03973" lon="7.27044">
        <ele>546.93169</ele>
        <time>2018-05-04T13:36:35Z</time>
      </trkpt>
      <trkpt lat="48.03976" lon="7.27043">
        <ele>546.91615</ele>
        <time>2018-05-04T13:36:36Z</time>
      </trkpt>
      <trkpt lat="48.03983" lon="7.27043">
        <ele>547.16388</ele>
        <time>2018-05-04T13:36:39Z</time>
      </trkpt>
      <trkpt lat="48.03986" lon="7.27043">
        <ele>547.33113</ele>
        <time>2018-05-04T13:36:40Z</time>
      </trkpt>
      <trkpt lat="48.03997" lon="7.27043">
        <ele>547.23514</ele>
        <time>2018-05-04T13:36:46Z</time>
      </trkpt>
      <trkpt lat="48.03999" lon="7.27042">
        <ele>547.2967</ele>
        <time>2018-05-04T13:36:47Z</time>
      </trkpt>
      <trkpt lat="48.04006" lon="7.2704">
        <ele>547.20052</ele>
        <time>2018-05-04T13:36:52Z</time>
      </trkpt>
      <trkpt lat="48.04017" lon="7.27037">
        <ele>547.34068</ele>
        <time>2018-05-04T13:37:00Z</time>
      </trkpt>
      <trkpt lat="48.04019" lon="7.27036">
        <ele>547.5237</ele>
        <time>2018-05-04T13:37:02Z</time>
      </trkpt>
      <trkpt lat="48.0402" lon="7.27035">
        <ele>547.55503</ele>
        <time>2018-05-04T13:37:03Z</time>
      </trkpt>
      <trkpt lat="48.0402" lon="7.27035">
        <ele>547.30759</ele>
        <time>2018-05-04T13:37:04Z</time>
      </trkpt>
      <trkpt lat="48.0402" lon="7.27034">
        <ele>547.05042</ele>
        <time>2018-05-04T13:37:06Z</time>
      </trkpt>
      <trkpt lat="48.04019" lon="7.27034">
        <ele>547.43171</ele>
        <time>2018-05-04T13:37:08Z</time>
      </trkpt>
      <trkpt lat="48.04019" lon="7.27033">
        <ele>547.15001</ele>
        <time>2018-05-04T13:37:10Z</time>
      </trkpt>
      <trkpt lat="48.04019" lon="7.27032">
        <ele>547.51009</ele>
        <time>2018-05-04T13:37:11Z</time>
      </trkpt>
      <trkpt lat="48.04019" lon="7.27031">
        <ele>547.19899</ele>
        <time>2018-05-04T13:37:12Z</time>
      </trkpt>
      <trkpt lat="48.0402" lon="7.2703">
        <ele>547.54469</ele>
        <time>2018-05-04T13:37:13Z</time>
      </trkpt>
      <trkpt lat="48.0402" lon="7.27028">
        <ele>547.88704</ele>
        <time>2018-05-04T13:37:14Z</time>
      </trkpt>
      <trkpt lat="48.04021" lon="7.27026">
        <ele>547.86353</ele>
        <time>2018-05-04T13:37:15Z</time>
      </trkpt>
      <trkpt lat="48.04021" lon="7.27025">
        <ele>548.01208</ele>
        <time>2018-05-04T13:37:16Z</time>
      </trkpt>
      <trkpt lat="48.04021" lon="7.27025">
        <ele>548.13629</ele>
        <time>2018-05-04T13:37:17Z</time>
      </trkpt>
      <trkpt lat="48.04022" lon="7.27024">
        <ele>548.05024</ele>
        <time>2018-05-04T13:37:18Z</time>
      </trkpt>
      <trkpt lat="48.04022" lon="7.27023">
        <ele>548.61372</ele>
        <time>2018-05-04T13:37:19Z</time>
      </trkpt>
      <trkpt lat="48.04022" lon="7.27021">
        <ele>548.37681</ele>
        <time>2018-05-04T13:37:20Z</time>
      </trkpt>
      <trkpt lat="48.04022" lon="7.2702">
        <ele>548.90526</ele>
        <time>2018-05-04T13:37:21Z</time>
      </trkpt>
      <trkpt lat="48.04023" lon="7.27018">
        <ele>548.9004</ele>
        <time>2018-05-04T13:37:22Z</time>
      </trkpt>
      <trkpt lat="48.04023" lon="7.27017">
        <ele>549.13689</ele>
        <time>2018-05-04T13:37:23Z</time>
      </trkpt>
      <trkpt lat="48.04023" lon="7.27015">
        <ele>549.50059</ele>
        <time>2018-05-04T13:37:24Z</time>
      </trkpt>
      <trkpt lat="48.04023" lon="7.27015">
        <ele>549.49202</ele>
        <time>2018-05-04T13:37:25Z</time>
      </trkpt>
      <trkpt lat="48.04023" lon="7.27013">
        <ele>549.49421</ele>
        <time>2018-05-04T13:37:27Z</time>
      </trkpt>
      <trkpt lat="48.04022" lon="7.27013">
        <ele>549.54588</ele>
        <time>2018-05-04T13:37:28Z</time>
      </trkpt>
      <trkpt lat="48.04022" lon="7.27013">
        <ele>549.48815</ele>
        <time>2018-05-04T13:37:30Z</time>
      </trkpt>
      <trkpt lat="48.04021" lon="7.27013">
        <ele>549.48815</ele>
        <time>2018-05-04T13:37:31Z</time>
      </trkpt>
      <trkpt lat="48.04021" lon="7.27012">
        <ele>550.1535</ele>
        <time>2018-05-04T13:37:32Z</time>
      </trkpt>
      <trkpt lat="48.0402" lon="7.27011">
        <ele>550.21329</ele>
        <time>2018-05-04T13:37:33Z</time>
      </trkpt>
      <trkpt lat="48.0402" lon="7.27011">
        <ele>550.52773</ele>
        <time>2018-05-04T13:37:34Z</time>
      </trkpt>
      <trkpt lat="48.04019" lon="7.27007">
        <ele>550.76745</ele>
        <time>2018-05-04T13:37:36Z</time>
      </trkpt>
      <trkpt lat="48.04019" lon="7.27003">
        <ele>551.2552</ele>
        <time>2018-05-04T13:37:38Z</time>
      </trkpt>
      <trkpt lat="48.04018" lon="7.27">
        <ele>551.18337</ele>
        <time>2018-05-04T13:37:39Z</time>
      </trkpt>
      <trkpt lat="48.04017" lon="7.26994">
        <ele>551.85736</ele>
        <time>2018-05-04T13:37:42Z</time>
      </trkpt>
      <trkpt lat="48.04017" lon="7.26993">
        <ele>551.78517</ele>
        <time>2018-05-04T13:37:43Z</time>
      </trkpt>
      <trkpt lat="48.04013" lon="7.26987">
        <ele>552.43211</ele>
        <time>2018-05-04T13:37:47Z</time>
      </trkpt>
      <trkpt lat="48.04013" lon="7.26985">
        <ele>552.59104</ele>
        <time>2018-05-04T13:37:48Z</time>
      </trkpt>
      <trkpt lat="48.04012" lon="7.26981">
        <ele>553.29021</ele>
        <time>2018-05-04T13:37:50Z</time>
      </trkpt>
      <trkpt lat="48.04011" lon="7.26979">
        <ele>553.7234</ele>
        <time>2018-05-04T13:37:51Z</time>
      </trkpt>
      <trkpt lat="48.04005" lon="7.26974">
        <ele>554.24537</ele>
        <time>2018-05-04T13:37:54Z</time>
      </trkpt>
      <trkpt lat="48.04005" lon="7.26973">
        <ele>554.23645</ele>
        <time>2018-05-04T13:37:55Z</time>
      </trkpt>
      <trkpt lat="48.04003" lon="7.26972">
        <ele>554.48095</ele>
        <time>2018-05-04T13:37:56Z</time>
      </trkpt>
      <trkpt lat="48.04002" lon="7.2697">
        <ele>554.56903</ele>
        <time>2018-05-04T13:37:57Z</time>
      </trkpt>
      <trkpt lat="48.04" lon="7.26966">
        <ele>554.66858</ele>
        <time>2018-05-04T13:37:59Z</time>
      </trkpt>
      <trkpt lat="48.04" lon="7.26964">
        <ele>554.89367</ele>
        <time>2018-05-04T13:38:00Z</time>
      </trkpt>
      <trkpt lat="48.03999" lon="7.26962">
        <ele>555.16555</ele>
        <time>2018-05-04T13:38:01Z</time>
      </trkpt>
      <trkpt lat="48.03999" lon="7.26961">
        <ele>555.3719</ele>
        <time>2018-05-04T13:38:02Z</time>
      </trkpt>
      <trkpt lat="48.03998" lon="7.2696">
        <ele>555.40988</ele>
        <time>2018-05-04T13:38:03Z</time>
      </trkpt>
      <trkpt lat="48.03995" lon="7.26957">
        <ele>555.50523</ele>
        <time>2018-05-04T13:38:05Z</time>
      </trkpt>
      <trkpt lat="48.03994" lon="7.26956">
        <ele>556.05524</ele>
        <time>2018-05-04T13:38:06Z</time>
      </trkpt>
      <trkpt lat="48.03992" lon="7.26955">
        <ele>556.23864</ele>
        <time>2018-05-04T13:38:07Z</time>
      </trkpt>
      <trkpt lat="48.03991" lon="7.26954">
        <ele>556.60651</ele>
        <time>2018-05-04T13:38:08Z</time>
      </trkpt>
      <trkpt lat="48.0399" lon="7.26952">
        <ele>556.6127</ele>
        <time>2018-05-04T13:38:09Z</time>
      </trkpt>
      <trkpt lat="48.0399" lon="7.26951">
        <ele>556.71413</ele>
        <time>2018-05-04T13:38:10Z</time>
      </trkpt>
      <trkpt lat="48.0399" lon="7.2695">
        <ele>556.66314</ele>
        <time>2018-05-04T13:38:11Z</time>
      </trkpt>
      <trkpt lat="48.03989" lon="7.26948">
        <ele>556.87953</ele>
        <time>2018-05-04T13:38:12Z</time>
      </trkpt>
      <trkpt lat="48.03989" lon="7.26947">
        <ele>557.10181</ele>
        <time>2018-05-04T13:38:13Z</time>
      </trkpt>
      <trkpt lat="48.03989" lon="7.26945">
        <ele>556.91002</ele>
        <time>2018-05-04T13:38:14Z</time>
      </trkpt>
      <trkpt lat="48.03989" lon="7.26943">
        <ele>557.18712</ele>
        <time>2018-05-04T13:38:15Z</time>
      </trkpt>
      <trkpt lat="48.0399" lon="7.26941">
        <ele>557.10225</ele>
        <time>2018-05-04T13:38:16Z</time>
      </trkpt>
      <trkpt lat="48.0399" lon="7.2694">
        <ele>557.33453</ele>
        <time>2018-05-04T13:38:17Z</time>
      </trkpt>
      <trkpt lat="48.03991" lon="7.26938">
        <ele>557.48723</ele>
        <time>2018-05-04T13:38:18Z</time>
      </trkpt>
      <trkpt lat="48.03993" lon="7.26937">
        <ele>557.42068</ele>
        <time>2018-05-04T13:38:20Z</time>
      </trkpt>
      <trkpt lat="48.03996" lon="7.26933">
        <ele>557.29812</ele>
        <time>2018-05-04T13:38:27Z</time>
      </trkpt>
      <trkpt lat="48.03997" lon="7.26927">
        <ele>557.74562</ele>
        <time>2018-05-04T13:38:30Z</time>
      </trkpt>
      <trkpt lat="48.03998" lon="7.26926">
        <ele>558.18359</ele>
        <time>2018-05-04T13:38:31Z</time>
      </trkpt>
      <trkpt lat="48.03999" lon="7.26924">
        <ele>558.26273</ele>
        <time>2018-05-04T13:38:32Z</time>
      </trkpt>
      <trkpt lat="48.04" lon="7.26924">
        <ele>558.41346</ele>
        <time>2018-05-04T13:38:33Z</time>
      </trkpt>
      <trkpt lat="48.04001" lon="7.26924">
        <ele>558.47288</ele>
        <time>2018-05-04T13:38:34Z</time>
      </trkpt>
      <trkpt lat="48.04002" lon="7.26923">
        <ele>558.71778</ele>
        <time>2018-05-04T13:38:35Z</time>
      </trkpt>
      <trkpt lat="48.04003" lon="7.26923">
        <ele>558.57243</ele>
        <time>2018-05-04T13:38:36Z</time>
      </trkpt>
      <trkpt lat="48.04005" lon="7.26922">
        <ele>559.43397</ele>
        <time>2018-05-04T13:38:38Z</time>
      </trkpt>
      <trkpt lat="48.04006" lon="7.26922">
        <ele>559.73949</ele>
        <time>2018-05-04T13:38:39Z</time>
      </trkpt>
      <trkpt lat="48.04006" lon="7.26921">
        <ele>559.82971</ele>
        <time>2018-05-04T13:38:40Z</time>
      </trkpt>
      <trkpt lat="48.04007" lon="7.26921">
        <ele>560.00288</ele>
        <time>2018-05-04T13:38:41Z</time>
      </trkpt>
      <trkpt lat="48.04008" lon="7.26921">
        <ele>559.92412</ele>
        <time>2018-05-04T13:38:42Z</time>
      </trkpt>
      <trkpt lat="48.0401" lon="7.2692">
        <ele>560.17687</ele>
        <time>2018-05-04T13:38:43Z</time>
      </trkpt>
      <trkpt lat="48.04013" lon="7.26919">
        <ele>560.22416</ele>
        <time>2018-05-04T13:38:44Z</time>
      </trkpt>
      <trkpt lat="48.04015" lon="7.26918">
        <ele>560.3795</ele>
        <time>2018-05-04T13:38:45Z</time>
      </trkpt>
      <trkpt lat="48.04016" lon="7.26916">
        <ele>560.52808</ele>
        <time>2018-05-04T13:38:46Z</time>
      </trkpt>
      <trkpt lat="48.04016" lon="7.26915">
        <ele>560.27957</ele>
        <time>2018-05-04T13:38:47Z</time>
      </trkpt>
      <trkpt lat="48.04017" lon="7.26914">
        <ele>560.64121</ele>
        <time>2018-05-04T13:38:48Z</time>
      </trkpt>
      <trkpt lat="48.04018" lon="7.26914">
        <ele>560.4875</ele>
        <time>2018-05-04T13:38:49Z</time>
      </trkpt>
      <trkpt lat="48.04027" lon="7.26912">
        <ele>561.56572</ele>
        <time>2018-05-04T13:38:54Z</time>
      </trkpt>
      <trkpt lat="48.0403" lon="7.26912">
        <ele>561.73305</ele>
        <time>2018-05-04T13:38:55Z</time>
      </trkpt>
      <trkpt lat="48.04031" lon="7.26913">
        <ele>561.66533</ele>
        <time>2018-05-04T13:38:56Z</time>
      </trkpt>
      <trkpt lat="48.04033" lon="7.26912">
        <ele>561.66102</ele>
        <time>2018-05-04T13:38:57Z</time>
      </trkpt>
      <trkpt lat="48.04038" lon="7.26911">
        <ele>562.31025</ele>
        <time>2018-05-04T13:39:00Z</time>
      </trkpt>
      <trkpt lat="48.04039" lon="7.2691">
        <ele>562.4881</ele>
        <time>2018-05-04T13:39:01Z</time>
      </trkpt>
      <trkpt lat="48.04041" lon="7.26909">
        <ele>562.93154</ele>
        <time>2018-05-04T13:39:02Z</time>
      </trkpt>
      <trkpt lat="48.04043" lon="7.26907">
        <ele>563.33137</ele>
        <time>2018-05-04T13:39:04Z</time>
      </trkpt>
      <trkpt lat="48.04043" lon="7.26905">
        <ele>563.38231</ele>
        <time>2018-05-04T13:39:06Z</time>
      </trkpt>
      <trkpt lat="48.04044" lon="7.26904">
        <ele>563.10805</ele>
        <time>2018-05-04T13:39:07Z</time>
      </trkpt>
      <trkpt lat="48.04045" lon="7.26902">
        <ele>563.21396</ele>
        <time>2018-05-04T13:39:08Z</time>
      </trkpt>
      <trkpt lat="48.04045" lon="7.26901">
        <ele>563.23676</ele>
        <time>2018-05-04T13:39:09Z</time>
      </trkpt>
      <trkpt lat="48.04045" lon="7.269">
        <ele>563.28544</ele>
        <time>2018-05-04T13:39:10Z</time>
      </trkpt>
      <trkpt lat="48.04045" lon="7.26899">
        <ele>563.39014</ele>
        <time>2018-05-04T13:39:11Z</time>
      </trkpt>
      <trkpt lat="48.04046" lon="7.26898">
        <ele>563.35525</ele>
        <time>2018-05-04T13:39:12Z</time>
      </trkpt>
      <trkpt lat="48.04047" lon="7.26897">
        <ele>563.48972</ele>
        <time>2018-05-04T13:39:13Z</time>
      </trkpt>
      <trkpt lat="48.04047" lon="7.26895">
        <ele>563.39128</ele>
        <time>2018-05-04T13:39:14Z</time>
      </trkpt>
      <trkpt lat="48.04048" lon="7.26894">
        <ele>563.51042</ele>
        <time>2018-05-04T13:39:15Z</time>
      </trkpt>
      <trkpt lat="48.04048" lon="7.26892">
        <ele>563.7687</ele>
        <time>2018-05-04T13:39:16Z</time>
      </trkpt>
      <trkpt lat="48.04049" lon="7.26891">
        <ele>564.07856</ele>
        <time>2018-05-04T13:39:17Z</time>
      </trkpt>
      <trkpt lat="48.0405" lon="7.26888">
        <ele>564.33248</ele>
        <time>2018-05-04T13:39:19Z</time>
      </trkpt>
      <trkpt lat="48.0405" lon="7.26886">
        <ele>564.03545</ele>
        <time>2018-05-04T13:39:20Z</time>
      </trkpt>
      <trkpt lat="48.04051" lon="7.26884">
        <ele>564.73818</ele>
        <time>2018-05-04T13:39:21Z</time>
      </trkpt>
      <trkpt lat="48.04052" lon="7.26883">
        <ele>564.84503</ele>
        <time>2018-05-04T13:39:22Z</time>
      </trkpt>
      <trkpt lat="48.04054" lon="7.26881">
        <ele>564.89433</ele>
        <time>2018-05-04T13:39:24Z</time>
      </trkpt>
      <trkpt lat="48.04055" lon="7.26881">
        <ele>565.08242</ele>
        <time>2018-05-04T13:39:25Z</time>
      </trkpt>
      <trkpt lat="48.04055" lon="7.2688">
        <ele>565.03726</ele>
        <time>2018-05-04T13:39:26Z</time>
      </trkpt>
      <trkpt lat="48.04056" lon="7.26879">
        <ele>565.00014</ele>
        <time>2018-05-04T13:39:27Z</time>
      </trkpt>
      <trkpt lat="48.04056" lon="7.26879">
        <ele>565.362</ele>
        <time>2018-05-04T13:39:28Z</time>
      </trkpt>
      <trkpt lat="48.04055" lon="7.26877">
        <ele>565.22153</ele>
        <time>2018-05-04T13:39:29Z</time>
      </trkpt>
      <trkpt lat="48.04055" lon="7.26875">
        <ele>565.38664</ele>
        <time>2018-05-04T13:39:30Z</time>
      </trkpt>
      <trkpt lat="48.04054" lon="7.26872">
        <ele>565.47361</ele>
        <time>2018-05-04T13:39:31Z</time>
      </trkpt>
      <trkpt lat="48.04054" lon="7.26869">
        <ele>565.86133</ele>
        <time>2018-05-04T13:39:33Z</time>
      </trkpt>
      <trkpt lat="48.04054" lon="7.26868">
        <ele>566.44979</ele>
        <time>2018-05-04T13:39:34Z</time>
      </trkpt>
      <trkpt lat="48.04052" lon="7.26866">
        <ele>566.49936</ele>
        <time>2018-05-04T13:39:36Z</time>
      </trkpt>
      <trkpt lat="48.0405" lon="7.26861">
        <ele>566.53208</ele>
        <time>2018-05-04T13:39:52Z</time>
      </trkpt>
      <trkpt lat="48.0405" lon="7.26861">
        <ele>566.63015</ele>
        <time>2018-05-04T13:39:53Z</time>
      </trkpt>
      <trkpt lat="48.0405" lon="7.26859">
        <ele>566.60945</ele>
        <time>2018-05-04T13:40:39Z</time>
      </trkpt>
      <trkpt lat="48.04049" lon="7.26858">
        <ele>566.78173</ele>
        <time>2018-05-04T13:40:40Z</time>
      </trkpt>
      <trkpt lat="48.0405" lon="7.26854">
        <ele>566.73045</ele>
        <time>2018-05-04T13:40:42Z</time>
      </trkpt>
      <trkpt lat="48.0405" lon="7.26853">
        <ele>566.99051</ele>
        <time>2018-05-04T13:40:43Z</time>
      </trkpt>
      <trkpt lat="48.04049" lon="7.26851">
        <ele>567.55201</ele>
        <time>2018-05-04T13:40:44Z</time>
      </trkpt>
      <trkpt lat="48.04049" lon="7.26849">
        <ele>567.94044</ele>
        <time>2018-05-04T13:40:46Z</time>
      </trkpt>
      <trkpt lat="48.04048" lon="7.26847">
        <ele>568.42468</ele>
        <time>2018-05-04T13:40:47Z</time>
      </trkpt>
      <trkpt lat="48.04049" lon="7.26845">
        <ele>568.56834</ele>
        <time>2018-05-04T13:40:48Z</time>
      </trkpt>
      <trkpt lat="48.04049" lon="7.26844">
        <ele>568.6422</ele>
        <time>2018-05-04T13:40:49Z</time>
      </trkpt>
      <trkpt lat="48.04049" lon="7.26843">
        <ele>568.65826</ele>
        <time>2018-05-04T13:40:50Z</time>
      </trkpt>
      <trkpt lat="48.04048" lon="7.26842">
        <ele>570.00947</ele>
        <time>2018-05-04T13:40:52Z</time>
      </trkpt>
      <trkpt lat="48.04048" lon="7.26839">
        <ele>570.36689</ele>
        <time>2018-05-04T13:40:54Z</time>
      </trkpt>
      <trkpt lat="48.04048" lon="7.26839">
        <ele>570.49278</ele>
        <time>2018-05-04T13:40:55Z</time>
      </trkpt>
      <trkpt lat="48.04048" lon="7.26837">
        <ele>570.71849</ele>
        <time>2018-05-04T13:40:56Z</time>
      </trkpt>
      <trkpt lat="48.04049" lon="7.26836">
        <ele>570.85497</ele>
        <time>2018-05-04T13:40:57Z</time>
      </trkpt>
      <trkpt lat="48.04049" lon="7.26834">
        <ele>570.99756</ele>
        <time>2018-05-04T13:40:58Z</time>
      </trkpt>
      <trkpt lat="48.04048" lon="7.26833">
        <ele>571.09625</ele>
        <time>2018-05-04T13:40:59Z</time>
      </trkpt>
      <trkpt lat="48.04048" lon="7.26832">
        <ele>571.45448</ele>
        <time>2018-05-04T13:41:00Z</time>
      </trkpt>
      <trkpt lat="48.04047" lon="7.26827">
        <ele>572.28372</ele>
        <time>2018-05-04T13:41:02Z</time>
      </trkpt>
      <trkpt lat="48.04046" lon="7.26824">
        <ele>572.41469</ele>
        <time>2018-05-04T13:41:03Z</time>
      </trkpt>
      <trkpt lat="48.04047" lon="7.26822">
        <ele>572.70634</ele>
        <time>2018-05-04T13:41:04Z</time>
      </trkpt>
      <trkpt lat="48.04048" lon="7.2682">
        <ele>572.82485</ele>
        <time>2018-05-04T13:41:05Z</time>
      </trkpt>
      <trkpt lat="48.0405" lon="7.26817">
        <ele>573.10085</ele>
        <time>2018-05-04T13:41:07Z</time>
      </trkpt>
      <trkpt lat="48.04052" lon="7.26814">
        <ele>573.03736</ele>
        <time>2018-05-04T13:41:09Z</time>
      </trkpt>
      <trkpt lat="48.04052" lon="7.26812">
        <ele>573.39321</ele>
        <time>2018-05-04T13:41:10Z</time>
      </trkpt>
      <trkpt lat="48.04054" lon="7.26805">
        <ele>574.28254</ele>
        <time>2018-05-04T13:41:13Z</time>
      </trkpt>
      <trkpt lat="48.04055" lon="7.26803">
        <ele>574.37973</ele>
        <time>2018-05-04T13:41:14Z</time>
      </trkpt>
      <trkpt lat="48.04056" lon="7.26801">
        <ele>574.51974</ele>
        <time>2018-05-04T13:41:15Z</time>
      </trkpt>
      <trkpt lat="48.04057" lon="7.268">
        <ele>574.57206</ele>
        <time>2018-05-04T13:41:16Z</time>
      </trkpt>
      <trkpt lat="48.04058" lon="7.268">
        <ele>574.57347</ele>
        <time>2018-05-04T13:41:17Z</time>
      </trkpt>
      <trkpt lat="48.04058" lon="7.26799">
        <ele>574.40735</ele>
        <time>2018-05-04T13:41:18Z</time>
      </trkpt>
      <trkpt lat="48.04059" lon="7.26798">
        <ele>574.30125</ele>
        <time>2018-05-04T13:41:20Z</time>
      </trkpt>
      <trkpt lat="48.04059" lon="7.26796">
        <ele>574.50749</ele>
        <time>2018-05-04T13:41:22Z</time>
      </trkpt>
      <trkpt lat="48.04056" lon="7.26793">
        <ele>574.35302</ele>
        <time>2018-05-04T13:41:30Z</time>
      </trkpt>
      <trkpt lat="48.04055" lon="7.26791">
        <ele>574.19062</ele>
        <time>2018-05-04T13:41:43Z</time>
      </trkpt>
      <trkpt lat="48.04056" lon="7.26789">
        <ele>574.78393</ele>
        <time>2018-05-04T13:41:49Z</time>
      </trkpt>
      <trkpt lat="48.04057" lon="7.26788">
        <ele>574.59235</ele>
        <time>2018-05-04T13:41:50Z</time>
      </trkpt>
      <trkpt lat="48.04058" lon="7.26786">
        <ele>575.10889</ele>
        <time>2018-05-04T13:41:51Z</time>
      </trkpt>
      <trkpt lat="48.04059" lon="7.26785">
        <ele>574.98321</ele>
        <time>2018-05-04T13:41:52Z</time>
      </trkpt>
      <trkpt lat="48.04059" lon="7.26784">
        <ele>575.11731</ele>
        <time>2018-05-04T13:41:53Z</time>
      </trkpt>
      <trkpt lat="48.04059" lon="7.26783">
        <ele>575.03952</ele>
        <time>2018-05-04T13:41:54Z</time>
      </trkpt>
      <trkpt lat="48.04059" lon="7.26778">
        <ele>575.91261</ele>
        <time>2018-05-04T13:41:57Z</time>
      </trkpt>
      <trkpt lat="48.04059" lon="7.26776">
        <ele>576.08703</ele>
        <time>2018-05-04T13:41:58Z</time>
      </trkpt>
      <trkpt lat="48.04059" lon="7.26774">
        <ele>576.29865</ele>
        <time>2018-05-04T13:41:59Z</time>
      </trkpt>
      <trkpt lat="48.04059" lon="7.26772">
        <ele>576.72334</ele>
        <time>2018-05-04T13:42:00Z</time>
      </trkpt>
      <trkpt lat="48.04059" lon="7.2677">
        <ele>576.91388</ele>
        <time>2018-05-04T13:42:01Z</time>
      </trkpt>
      <trkpt lat="48.04058" lon="7.26768">
        <ele>577.44436</ele>
        <time>2018-05-04T13:42:02Z</time>
      </trkpt>
      <trkpt lat="48.04058" lon="7.26767">
        <ele>577.3391</ele>
        <time>2018-05-04T13:42:03Z</time>
      </trkpt>
      <trkpt lat="48.04058" lon="7.26765">
        <ele>577.55166</ele>
        <time>2018-05-04T13:42:04Z</time>
      </trkpt>
      <trkpt lat="48.04058" lon="7.26764">
        <ele>577.92681</ele>
        <time>2018-05-04T13:42:05Z</time>
      </trkpt>
      <trkpt lat="48.04058" lon="7.26762">
        <ele>577.41277</ele>
        <time>2018-05-04T13:42:06Z</time>
      </trkpt>
      <trkpt lat="48.04059" lon="7.26752">
        <ele>579.04055</ele>
        <time>2018-05-04T13:42:10Z</time>
      </trkpt>
      <trkpt lat="48.04059" lon="7.26751">
        <ele>579.01876</ele>
        <time>2018-05-04T13:42:11Z</time>
      </trkpt>
      <trkpt lat="48.0406" lon="7.2675">
        <ele>578.77238</ele>
        <time>2018-05-04T13:42:12Z</time>
      </trkpt>
      <trkpt lat="48.0406" lon="7.26749">
        <ele>579.1901</ele>
        <time>2018-05-04T13:42:13Z</time>
      </trkpt>
      <trkpt lat="48.04059" lon="7.26747">
        <ele>578.9516</ele>
        <time>2018-05-04T13:42:14Z</time>
      </trkpt>
      <trkpt lat="48.04058" lon="7.26746">
        <ele>579.29305</ele>
        <time>2018-05-04T13:42:15Z</time>
      </trkpt>
      <trkpt lat="48.04058" lon="7.26744">
        <ele>579.25315</ele>
        <time>2018-05-04T13:42:16Z</time>
      </trkpt>
      <trkpt lat="48.04058" lon="7.26742">
        <ele>579.40092</ele>
        <time>2018-05-04T13:42:17Z</time>
      </trkpt>
      <trkpt lat="48.04059" lon="7.2674">
        <ele>579.43018</ele>
        <time>2018-05-04T13:42:18Z</time>
      </trkpt>
      <trkpt lat="48.0406" lon="7.26738">
        <ele>579.64854</ele>
        <time>2018-05-04T13:42:19Z</time>
      </trkpt>
      <trkpt lat="48.04061" lon="7.26737">
        <ele>579.4748</ele>
        <time>2018-05-04T13:42:20Z</time>
      </trkpt>
      <trkpt lat="48.04061" lon="7.26735">
        <ele>579.38737</ele>
        <time>2018-05-04T13:42:21Z</time>
      </trkpt>
      <trkpt lat="48.04061" lon="7.26734">
        <ele>579.43233</ele>
        <time>2018-05-04T13:42:22Z</time>
      </trkpt>
      <trkpt lat="48.04062" lon="7.26731">
        <ele>579.27966</ele>
        <time>2018-05-04T13:42:23Z</time>
      </trkpt>
      <trkpt lat="48.04064" lon="7.26727">
        <ele>579.41259</ele>
        <time>2018-05-04T13:42:25Z</time>
      </trkpt>
      <trkpt lat="48.04065" lon="7.26725">
        <ele>579.29111</ele>
        <time>2018-05-04T13:42:26Z</time>
      </trkpt>
      <trkpt lat="48.04065" lon="7.26723">
        <ele>579.32695</ele>
        <time>2018-05-04T13:42:27Z</time>
      </trkpt>
      <trkpt lat="48.04065" lon="7.26721">
        <ele>579.06799</ele>
        <time>2018-05-04T13:42:28Z</time>
      </trkpt>
      <trkpt lat="48.04065" lon="7.26719">
        <ele>579.16517</ele>
        <time>2018-05-04T13:42:29Z</time>
      </trkpt>
      <trkpt lat="48.04065" lon="7.26717">
        <ele>579.4082</ele>
        <time>2018-05-04T13:42:30Z</time>
      </trkpt>
      <trkpt lat="48.04065" lon="7.26715">
        <ele>579.88375</ele>
        <time>2018-05-04T13:42:31Z</time>
      </trkpt>
      <trkpt lat="48.04065" lon="7.2671">
        <ele>580.70639</ele>
        <time>2018-05-04T13:42:34Z</time>
      </trkpt>
      <trkpt lat="48.04065" lon="7.26708">
        <ele>580.88216</ele>
        <time>2018-05-04T13:42:35Z</time>
      </trkpt>
      <trkpt lat="48.04065" lon="7.26706">
        <ele>581.32574</ele>
        <time>2018-05-04T13:42:36Z</time>
      </trkpt>
      <trkpt lat="48.04065" lon="7.26702">
        <ele>581.07385</ele>
        <time>2018-05-04T13:42:38Z</time>
      </trkpt>
      <trkpt lat="48.04065" lon="7.267">
        <ele>581.24277</ele>
        <time>2018-05-04T13:42:39Z</time>
      </trkpt>
      <trkpt lat="48.04065" lon="7.26698">
        <ele>580.95165</ele>
        <time>2018-05-04T13:42:40Z</time>
      </trkpt>
      <trkpt lat="48.04065" lon="7.26694">
        <ele>580.82637</ele>
        <time>2018-05-04T13:42:42Z</time>
      </trkpt>
      <trkpt lat="48.04064" lon="7.26692">
        <ele>580.67579</ele>
        <time>2018-05-04T13:42:43Z</time>
      </trkpt>
      <trkpt lat="48.04063" lon="7.26689">
        <ele>580.61574</ele>
        <time>2018-05-04T13:42:44Z</time>
      </trkpt>
      <trkpt lat="48.04062" lon="7.26687">
        <ele>581.0426</ele>
        <time>2018-05-04T13:42:45Z</time>
      </trkpt>
      <trkpt lat="48.0406" lon="7.26683">
        <ele>581.46851</ele>
        <time>2018-05-04T13:42:47Z</time>
      </trkpt>
      <trkpt lat="48.0406" lon="7.26681">
        <ele>581.75515</ele>
        <time>2018-05-04T13:42:48Z</time>
      </trkpt>
      <trkpt lat="48.04059" lon="7.26679">
        <ele>581.92711</ele>
        <time>2018-05-04T13:42:49Z</time>
      </trkpt>
      <trkpt lat="48.04058" lon="7.26672">
        <ele>583.43687</ele>
        <time>2018-05-04T13:42:52Z</time>
      </trkpt>
      <trkpt lat="48.04057" lon="7.26669">
        <ele>583.7638</ele>
        <time>2018-05-04T13:42:53Z</time>
      </trkpt>
      <trkpt lat="48.04057" lon="7.26667">
        <ele>583.97391</ele>
        <time>2018-05-04T13:42:54Z</time>
      </trkpt>
      <trkpt lat="48.04058" lon="7.26665">
        <ele>584.36229</ele>
        <time>2018-05-04T13:42:55Z</time>
      </trkpt>
      <trkpt lat="48.04058" lon="7.26663">
        <ele>584.09966</ele>
        <time>2018-05-04T13:42:56Z</time>
      </trkpt>
      <trkpt lat="48.04059" lon="7.26662">
        <ele>584.01066</ele>
        <time>2018-05-04T13:42:57Z</time>
      </trkpt>
      <trkpt lat="48.04065" lon="7.26653">
        <ele>584.31164</ele>
        <time>2018-05-04T13:43:02Z</time>
      </trkpt>
      <trkpt lat="48.04065" lon="7.26652">
        <ele>584.57832</ele>
        <time>2018-05-04T13:43:03Z</time>
      </trkpt>
      <trkpt lat="48.04065" lon="7.2665">
        <ele>584.86068</ele>
        <time>2018-05-04T13:43:04Z</time>
      </trkpt>
      <trkpt lat="48.04064" lon="7.26638">
        <ele>585.51988</ele>
        <time>2018-05-04T13:43:09Z</time>
      </trkpt>
      <trkpt lat="48.04063" lon="7.26636">
        <ele>585.64832</ele>
        <time>2018-05-04T13:43:11Z</time>
      </trkpt>
      <trkpt lat="48.04063" lon="7.26635">
        <ele>584.89773</ele>
        <time>2018-05-04T13:43:13Z</time>
      </trkpt>
      <trkpt lat="48.04064" lon="7.26635">
        <ele>584.9292</ele>
        <time>2018-05-04T13:43:16Z</time>
      </trkpt>
      <trkpt lat="48.04063" lon="7.26635">
        <ele>585.14481</ele>
        <time>2018-05-04T13:43:18Z</time>
      </trkpt>
      <trkpt lat="48.04062" lon="7.26634">
        <ele>585.30597</ele>
        <time>2018-05-04T13:43:19Z</time>
      </trkpt>
      <trkpt lat="48.04061" lon="7.26635">
        <ele>585.4864</ele>
        <time>2018-05-04T13:43:20Z</time>
      </trkpt>
      <trkpt lat="48.0406" lon="7.26634">
        <ele>585.53652</ele>
        <time>2018-05-04T13:43:21Z</time>
      </trkpt>
      <trkpt lat="48.04059" lon="7.26634">
        <ele>585.93608</ele>
        <time>2018-05-04T13:43:22Z</time>
      </trkpt>
      <trkpt lat="48.04059" lon="7.26633">
        <ele>586.56202</ele>
        <time>2018-05-04T13:43:23Z</time>
      </trkpt>
      <trkpt lat="48.04058" lon="7.26632">
        <ele>586.86886</ele>
        <time>2018-05-04T13:43:25Z</time>
      </trkpt>
      <trkpt lat="48.04056" lon="7.26631">
        <ele>587.37198</ele>
        <time>2018-05-04T13:43:27Z</time>
      </trkpt>
      <trkpt lat="48.04056" lon="7.2663">
        <ele>587.31544</ele>
        <time>2018-05-04T13:43:28Z</time>
      </trkpt>
      <trkpt lat="48.04055" lon="7.26629">
        <ele>587.75038</ele>
        <time>2018-05-04T13:43:29Z</time>
      </trkpt>
      <trkpt lat="48.04054" lon="7.26628">
        <ele>587.79244</ele>
        <time>2018-05-04T13:43:30Z</time>
      </trkpt>
      <trkpt lat="48.04053" lon="7.26627">
        <ele>587.91779</ele>
        <time>2018-05-04T13:43:31Z</time>
      </trkpt>
      <trkpt lat="48.04048" lon="7.26625">
        <ele>588.72928</ele>
        <time>2018-05-04T13:43:35Z</time>
      </trkpt>
      <trkpt lat="48.04047" lon="7.26624">
        <ele>588.65933</ele>
        <time>2018-05-04T13:43:36Z</time>
      </trkpt>
      <trkpt lat="48.04047" lon="7.26623">
        <ele>588.7831</ele>
        <time>2018-05-04T13:43:37Z</time>
      </trkpt>
      <trkpt lat="48.04046" lon="7.26622">
        <ele>588.76586</ele>
        <time>2018-05-04T13:43:38Z</time>
      </trkpt>
      <trkpt lat="48.04046" lon="7.26622">
        <ele>588.65322</ele>
        <time>2018-05-04T13:43:39Z</time>
      </trkpt>
      <trkpt lat="48.04045" lon="7.26621">
        <ele>589.19125</ele>
        <time>2018-05-04T13:43:40Z</time>
      </trkpt>
      <trkpt lat="48.04044" lon="7.26621">
        <ele>589.24606</ele>
        <time>2018-05-04T13:43:41Z</time>
      </trkpt>
      <trkpt lat="48.04041" lon="7.26619">
        <ele>589.49409</ele>
        <time>2018-05-04T13:43:44Z</time>
      </trkpt>
      <trkpt lat="48.04039" lon="7.26618">
        <ele>589.98755</ele>
        <time>2018-05-04T13:43:45Z</time>
      </trkpt>
      <trkpt lat="48.04038" lon="7.26616">
        <ele>589.9164</ele>
        <time>2018-05-04T13:43:46Z</time>
      </trkpt>
      <trkpt lat="48.04038" lon="7.26615">
        <ele>589.85717</ele>
        <time>2018-05-04T13:43:47Z</time>
      </trkpt>
      <trkpt lat="48.04037" lon="7.26612">
        <ele>589.84124</ele>
        <time>2018-05-04T13:43:49Z</time>
      </trkpt>
      <trkpt lat="48.04037" lon="7.2661">
        <ele>590.15624</ele>
        <time>2018-05-04T13:43:50Z</time>
      </trkpt>
      <trkpt lat="48.04036" lon="7.26609">
        <ele>590.21547</ele>
        <time>2018-05-04T13:43:51Z</time>
      </trkpt>
      <trkpt lat="48.04036" lon="7.26608">
        <ele>590.26132</ele>
        <time>2018-05-04T13:43:52Z</time>
      </trkpt>
      <trkpt lat="48.04035" lon="7.26606">
        <ele>590.49425</ele>
        <time>2018-05-04T13:43:53Z</time>
      </trkpt>
      <trkpt lat="48.04034" lon="7.26605">
        <ele>590.95676</ele>
        <time>2018-05-04T13:43:54Z</time>
      </trkpt>
      <trkpt lat="48.04032" lon="7.26603">
        <ele>591.4444</ele>
        <time>2018-05-04T13:43:56Z</time>
      </trkpt>
      <trkpt lat="48.04031" lon="7.26602">
        <ele>591.32902</ele>
        <time>2018-05-04T13:43:57Z</time>
      </trkpt>
      <trkpt lat="48.04031" lon="7.26602">
        <ele>591.30015</ele>
        <time>2018-05-04T13:43:58Z</time>
      </trkpt>
      <trkpt lat="48.04031" lon="7.26601">
        <ele>591.60454</ele>
        <time>2018-05-04T13:44:00Z</time>
      </trkpt>
      <trkpt lat="48.04029" lon="7.266">
        <ele>591.8048</ele>
        <time>2018-05-04T13:44:02Z</time>
      </trkpt>
      <trkpt lat="48.04028" lon="7.26599">
        <ele>591.51711</ele>
        <time>2018-05-04T13:44:03Z</time>
      </trkpt>
      <trkpt lat="48.04027" lon="7.26598">
        <ele>591.21512</ele>
        <time>2018-05-04T13:44:04Z</time>
      </trkpt>
      <trkpt lat="48.04026" lon="7.26597">
        <ele>591.85914</ele>
        <time>2018-05-04T13:44:05Z</time>
      </trkpt>
      <trkpt lat="48.04026" lon="7.26596">
        <ele>591.79095</ele>
        <time>2018-05-04T13:44:06Z</time>
      </trkpt>
      <trkpt lat="48.04025" lon="7.26595">
        <ele>591.86612</ele>
        <time>2018-05-04T13:44:07Z</time>
      </trkpt>
      <trkpt lat="48.04025" lon="7.26594">
        <ele>592.16763</ele>
        <time>2018-05-04T13:44:08Z</time>
      </trkpt>
      <trkpt lat="48.04023" lon="7.2659">
        <ele>592.23557</ele>
        <time>2018-05-04T13:44:10Z</time>
      </trkpt>
      <trkpt lat="48.04022" lon="7.26584">
        <ele>592.72168</ele>
        <time>2018-05-04T13:44:13Z</time>
      </trkpt>
      <trkpt lat="48.04022" lon="7.2658">
        <ele>593.33233</ele>
        <time>2018-05-04T13:44:15Z</time>
      </trkpt>
      <trkpt lat="48.04022" lon="7.26578">
        <ele>593.43413</ele>
        <time>2018-05-04T13:44:16Z</time>
      </trkpt>
      <trkpt lat="48.04021" lon="7.26576">
        <ele>593.45064</ele>
        <time>2018-05-04T13:44:17Z</time>
      </trkpt>
      <trkpt lat="48.04022" lon="7.26574">
        <ele>593.76108</ele>
        <time>2018-05-04T13:44:18Z</time>
      </trkpt>
      <trkpt lat="48.04022" lon="7.26572">
        <ele>593.83075</ele>
        <time>2018-05-04T13:44:19Z</time>
      </trkpt>
      <trkpt lat="48.04022" lon="7.2657">
        <ele>594.0715</ele>
        <time>2018-05-04T13:44:20Z</time>
      </trkpt>
      <trkpt lat="48.04022" lon="7.26565">
        <ele>594.33432</ele>
        <time>2018-05-04T13:44:23Z</time>
      </trkpt>
      <trkpt lat="48.04022" lon="7.26563">
        <ele>594.36458</ele>
        <time>2018-05-04T13:44:24Z</time>
      </trkpt>
      <trkpt lat="48.04022" lon="7.26562">
        <ele>594.50167</ele>
        <time>2018-05-04T13:44:25Z</time>
      </trkpt>
      <trkpt lat="48.04021" lon="7.26561">
        <ele>593.97526</ele>
        <time>2018-05-04T13:44:31Z</time>
      </trkpt>
      <trkpt lat="48.0402" lon="7.2656">
        <ele>594.04718</ele>
        <time>2018-05-04T13:44:32Z</time>
      </trkpt>
      <trkpt lat="48.0402" lon="7.2656">
        <ele>593.99864</ele>
        <time>2018-05-04T13:44:33Z</time>
      </trkpt>
      <trkpt lat="48.04017" lon="7.26559">
        <ele>593.99032</ele>
        <time>2018-05-04T13:44:36Z</time>
      </trkpt>
      <trkpt lat="48.04017" lon="7.26556">
        <ele>594.13126</ele>
        <time>2018-05-04T13:44:41Z</time>
      </trkpt>
      <trkpt lat="48.04017" lon="7.26552">
        <ele>594.3637</ele>
        <time>2018-05-04T13:45:49Z</time>
      </trkpt>
      <trkpt lat="48.04017" lon="7.26551">
        <ele>594.1226</ele>
        <time>2018-05-04T13:45:50Z</time>
      </trkpt>
      <trkpt lat="48.04018" lon="7.2655">
        <ele>593.84386</ele>
        <time>2018-05-04T13:45:51Z</time>
      </trkpt>
      <trkpt lat="48.04018" lon="7.26549">
        <ele>593.94047</ele>
        <time>2018-05-04T13:45:52Z</time>
      </trkpt>
      <trkpt lat="48.04018" lon="7.26547">
        <ele>593.94917</ele>
        <time>2018-05-04T13:45:53Z</time>
      </trkpt>
      <trkpt lat="48.04017" lon="7.26545">
        <ele>594.03468</ele>
        <time>2018-05-04T13:45:54Z</time>
      </trkpt>
      <trkpt lat="48.04016" lon="7.26544">
        <ele>594.23799</ele>
        <time>2018-05-04T13:45:55Z</time>
      </trkpt>
      <trkpt lat="48.04011" lon="7.26539">
        <ele>593.86614</ele>
        <time>2018-05-04T13:45:58Z</time>
      </trkpt>
      <trkpt lat="48.0401" lon="7.26538">
        <ele>594.48458</ele>
        <time>2018-05-04T13:45:59Z</time>
      </trkpt>
      <trkpt lat="48.04009" lon="7.26537">
        <ele>594.91753</ele>
        <time>2018-05-04T13:46:00Z</time>
      </trkpt>
      <trkpt lat="48.04009" lon="7.26536">
        <ele>594.91753</ele>
        <time>2018-05-04T13:46:01Z</time>
      </trkpt>
      <trkpt lat="48.04008" lon="7.26534">
        <ele>595.14936</ele>
        <time>2018-05-04T13:46:02Z</time>
      </trkpt>
      <trkpt lat="48.04008" lon="7.26532">
        <ele>594.94061</ele>
        <time>2018-05-04T13:46:03Z</time>
      </trkpt>
      <trkpt lat="48.04008" lon="7.26529">
        <ele>595.50619</ele>
        <time>2018-05-04T13:46:04Z</time>
      </trkpt>
      <trkpt lat="48.04008" lon="7.26526">
        <ele>595.71499</ele>
        <time>2018-05-04T13:46:05Z</time>
      </trkpt>
      <trkpt lat="48.04007" lon="7.26523">
        <ele>595.6133</ele>
        <time>2018-05-04T13:46:06Z</time>
      </trkpt>
      <trkpt lat="48.04006" lon="7.26521">
        <ele>595.51361</ele>
        <time>2018-05-04T13:46:07Z</time>
      </trkpt>
      <trkpt lat="48.04004" lon="7.26516">
        <ele>595.92436</ele>
        <time>2018-05-04T13:46:09Z</time>
      </trkpt>
      <trkpt lat="48.04003" lon="7.26512">
        <ele>596.7113</ele>
        <time>2018-05-04T13:46:11Z</time>
      </trkpt>
      <trkpt lat="48.04002" lon="7.2651">
        <ele>597.16554</ele>
        <time>2018-05-04T13:46:12Z</time>
      </trkpt>
      <trkpt lat="48.04002" lon="7.26509">
        <ele>597.36796</ele>
        <time>2018-05-04T13:46:13Z</time>
      </trkpt>
      <trkpt lat="48.04003" lon="7.26509">
        <ele>597.31356</ele>
        <time>2018-05-04T13:46:15Z</time>
      </trkpt>
      <trkpt lat="48.04003" lon="7.26508">
        <ele>596.96163</ele>
        <time>2018-05-04T13:46:16Z</time>
      </trkpt>
      <trkpt lat="48.04004" lon="7.26507">
        <ele>596.67559</ele>
        <time>2018-05-04T13:46:17Z</time>
      </trkpt>
      <trkpt lat="48.04003" lon="7.26506">
        <ele>596.75933</ele>
        <time>2018-05-04T13:46:18Z</time>
      </trkpt>
      <trkpt lat="48.04003" lon="7.26505">
        <ele>596.63761</ele>
        <time>2018-05-04T13:46:19Z</time>
      </trkpt>
      <trkpt lat="48.04003" lon="7.26504">
        <ele>596.57957</ele>
        <time>2018-05-04T13:46:20Z</time>
      </trkpt>
      <trkpt lat="48.04002" lon="7.26502">
        <ele>596.93597</ele>
        <time>2018-05-04T13:46:22Z</time>
      </trkpt>
      <trkpt lat="48.04001" lon="7.265">
        <ele>596.93277</ele>
        <time>2018-05-04T13:46:23Z</time>
      </trkpt>
      <trkpt lat="48.04" lon="7.26498">
        <ele>597.07184</ele>
        <time>2018-05-04T13:46:24Z</time>
      </trkpt>
      <trkpt lat="48.04" lon="7.26497">
        <ele>596.87444</ele>
        <time>2018-05-04T13:46:25Z</time>
      </trkpt>
      <trkpt lat="48.04" lon="7.26495">
        <ele>596.8814</ele>
        <time>2018-05-04T13:46:26Z</time>
      </trkpt>
      <trkpt lat="48.04" lon="7.26493">
        <ele>597.07431</ele>
        <time>2018-05-04T13:46:27Z</time>
      </trkpt>
      <trkpt lat="48.04" lon="7.26492">
        <ele>596.997</ele>
        <time>2018-05-04T13:46:28Z</time>
      </trkpt>
      <trkpt lat="48.04" lon="7.26491">
        <ele>597.239</ele>
        <time>2018-05-04T13:46:29Z</time>
      </trkpt>
      <trkpt lat="48.04" lon="7.26489">
        <ele>597.43074</ele>
        <time>2018-05-04T13:46:30Z</time>
      </trkpt>
      <trkpt lat="48.03998" lon="7.26488">
        <ele>597.5372</ele>
        <time>2018-05-04T13:46:31Z</time>
      </trkpt>
      <trkpt lat="48.03998" lon="7.26486">
        <ele>597.52188</ele>
        <time>2018-05-04T13:46:32Z</time>
      </trkpt>
      <trkpt lat="48.03995" lon="7.26481">
        <ele>597.90688</ele>
        <time>2018-05-04T13:46:34Z</time>
      </trkpt>
      <trkpt lat="48.03994" lon="7.26479">
        <ele>597.93417</ele>
        <time>2018-05-04T13:46:35Z</time>
      </trkpt>
      <trkpt lat="48.03993" lon="7.26477">
        <ele>598.27382</ele>
        <time>2018-05-04T13:46:36Z</time>
      </trkpt>
      <trkpt lat="48.03992" lon="7.26476">
        <ele>598.47631</ele>
        <time>2018-05-04T13:46:37Z</time>
      </trkpt>
      <trkpt lat="48.03992" lon="7.26475">
        <ele>598.71001</ele>
        <time>2018-05-04T13:46:38Z</time>
      </trkpt>
      <trkpt lat="48.03992" lon="7.26468">
        <ele>598.97118</ele>
        <time>2018-05-04T13:46:41Z</time>
      </trkpt>
      <trkpt lat="48.03992" lon="7.26464">
        <ele>598.31078</ele>
        <time>2018-05-04T13:46:42Z</time>
      </trkpt>
      <trkpt lat="48.03993" lon="7.26461">
        <ele>599.50079</ele>
        <time>2018-05-04T13:46:43Z</time>
      </trkpt>
      <trkpt lat="48.03995" lon="7.26458">
        <ele>599.36124</ele>
        <time>2018-05-04T13:46:44Z</time>
      </trkpt>
      <trkpt lat="48.03997" lon="7.26456">
        <ele>599.68125</ele>
        <time>2018-05-04T13:46:45Z</time>
      </trkpt>
      <trkpt lat="48.03999" lon="7.26452">
        <ele>599.74042</ele>
        <time>2018-05-04T13:46:47Z</time>
      </trkpt>
      <trkpt lat="48.04001" lon="7.2645">
        <ele>600.00862</ele>
        <time>2018-05-04T13:46:48Z</time>
      </trkpt>
      <trkpt lat="48.04002" lon="7.26447">
        <ele>600.11541</ele>
        <time>2018-05-04T13:46:49Z</time>
      </trkpt>
      <trkpt lat="48.04003" lon="7.26445">
        <ele>600.37783</ele>
        <time>2018-05-04T13:46:50Z</time>
      </trkpt>
      <trkpt lat="48.04004" lon="7.26443">
        <ele>600.32816</ele>
        <time>2018-05-04T13:46:51Z</time>
      </trkpt>
      <trkpt lat="48.04003" lon="7.26441">
        <ele>601.31197</ele>
        <time>2018-05-04T13:46:52Z</time>
      </trkpt>
      <trkpt lat="48.04003" lon="7.26438">
        <ele>601.28203</ele>
        <time>2018-05-04T13:46:53Z</time>
      </trkpt>
      <trkpt lat="48.04002" lon="7.26434">
        <ele>601.21559</ele>
        <time>2018-05-04T13:46:54Z</time>
      </trkpt>
      <trkpt lat="48.04003" lon="7.26431">
        <ele>601.84796</ele>
        <time>2018-05-04T13:46:55Z</time>
      </trkpt>
      <trkpt lat="48.04003" lon="7.26429">
        <ele>601.81673</ele>
        <time>2018-05-04T13:46:56Z</time>
      </trkpt>
      <trkpt lat="48.04004" lon="7.26426">
        <ele>602.31297</ele>
        <time>2018-05-04T13:46:57Z</time>
      </trkpt>
      <trkpt lat="48.04005" lon="7.26425">
        <ele>602.44939</ele>
        <time>2018-05-04T13:46:58Z</time>
      </trkpt>
      <trkpt lat="48.04005" lon="7.26423">
        <ele>602.60903</ele>
        <time>2018-05-04T13:47:01Z</time>
      </trkpt>
      <trkpt lat="48.04004" lon="7.26422">
        <ele>602.71518</ele>
        <time>2018-05-04T13:47:03Z</time>
      </trkpt>
      <trkpt lat="48.04004" lon="7.26421">
        <ele>602.787</ele>
        <time>2018-05-04T13:47:05Z</time>
      </trkpt>
      <trkpt lat="48.04004" lon="7.2642">
        <ele>602.73545</ele>
        <time>2018-05-04T13:47:06Z</time>
      </trkpt>
      <trkpt lat="48.04003" lon="7.26418">
        <ele>602.75887</ele>
        <time>2018-05-04T13:47:07Z</time>
      </trkpt>
      <trkpt lat="48.04003" lon="7.26416">
        <ele>603.0126</ele>
        <time>2018-05-04T13:47:08Z</time>
      </trkpt>
      <trkpt lat="48.04003" lon="7.26414">
        <ele>603.19973</ele>
        <time>2018-05-04T13:47:09Z</time>
      </trkpt>
      <trkpt lat="48.04004" lon="7.26412">
        <ele>603.43017</ele>
        <time>2018-05-04T13:47:10Z</time>
      </trkpt>
      <trkpt lat="48.04004" lon="7.26411">
        <ele>603.3975</ele>
        <time>2018-05-04T13:47:11Z</time>
      </trkpt>
      <trkpt lat="48.04003" lon="7.2641">
        <ele>603.30939</ele>
        <time>2018-05-04T13:47:13Z</time>
      </trkpt>
      <trkpt lat="48.04003" lon="7.26411">
        <ele>603.4715</ele>
        <time>2018-05-04T13:47:19Z</time>
      </trkpt>
      <trkpt lat="48.04004" lon="7.2641">
        <ele>603.33719</ele>
        <time>2018-05-04T13:47:29Z</time>
      </trkpt>
      <trkpt lat="48.04004" lon="7.26406">
        <ele>603.64318</ele>
        <time>2018-05-04T13:47:31Z</time>
      </trkpt>
      <trkpt lat="48.04005" lon="7.26401">
        <ele>603.79894</ele>
        <time>2018-05-04T13:47:33Z</time>
      </trkpt>
      <trkpt lat="48.04006" lon="7.26398">
        <ele>603.86318</ele>
        <time>2018-05-04T13:47:34Z</time>
      </trkpt>
      <trkpt lat="48.04007" lon="7.26394">
        <ele>603.90148</ele>
        <time>2018-05-04T13:47:36Z</time>
      </trkpt>
      <trkpt lat="48.04008" lon="7.26392">
        <ele>603.87158</ele>
        <time>2018-05-04T13:47:37Z</time>
      </trkpt>
      <trkpt lat="48.04008" lon="7.2639">
        <ele>604.26792</ele>
        <time>2018-05-04T13:47:38Z</time>
      </trkpt>
      <trkpt lat="48.04008" lon="7.26387">
        <ele>604.29457</ele>
        <time>2018-05-04T13:47:39Z</time>
      </trkpt>
      <trkpt lat="48.04007" lon="7.26381">
        <ele>604.55638</ele>
        <time>2018-05-04T13:47:42Z</time>
      </trkpt>
      <trkpt lat="48.04007" lon="7.26378">
        <ele>605.22658</ele>
        <time>2018-05-04T13:47:43Z</time>
      </trkpt>
      <trkpt lat="48.04007" lon="7.26376">
        <ele>605.26128</ele>
        <time>2018-05-04T13:47:44Z</time>
      </trkpt>
      <trkpt lat="48.04008" lon="7.26372">
        <ele>605.43823</ele>
        <time>2018-05-04T13:47:46Z</time>
      </trkpt>
      <trkpt lat="48.04009" lon="7.26363">
        <ele>605.92018</ele>
        <time>2018-05-04T13:47:50Z</time>
      </trkpt>
      <trkpt lat="48.0401" lon="7.26362">
        <ele>606.22069</ele>
        <time>2018-05-04T13:47:51Z</time>
      </trkpt>
      <trkpt lat="48.04011" lon="7.2636">
        <ele>606.28655</ele>
        <time>2018-05-04T13:47:52Z</time>
      </trkpt>
      <trkpt lat="48.04012" lon="7.26359">
        <ele>606.25276</ele>
        <time>2018-05-04T13:47:53Z</time>
      </trkpt>
      <trkpt lat="48.04012" lon="7.26355">
        <ele>606.51371</ele>
        <time>2018-05-04T13:47:55Z</time>
      </trkpt>
      <trkpt lat="48.04009" lon="7.26343">
        <ele>606.06185</ele>
        <time>2018-05-04T13:47:59Z</time>
      </trkpt>
      <trkpt lat="48.04009" lon="7.26341">
        <ele>606.40008</ele>
        <time>2018-05-04T13:48:00Z</time>
      </trkpt>
      <trkpt lat="48.04009" lon="7.2634">
        <ele>606.23255</ele>
        <time>2018-05-04T13:48:01Z</time>
      </trkpt>
      <trkpt lat="48.04009" lon="7.26338">
        <ele>606.4479</ele>
        <time>2018-05-04T13:48:02Z</time>
      </trkpt>
      <trkpt lat="48.04009" lon="7.26337">
        <ele>606.35497</ele>
        <time>2018-05-04T13:48:03Z</time>
      </trkpt>
      <trkpt lat="48.04009" lon="7.26335">
        <ele>606.45869</ele>
        <time>2018-05-04T13:48:05Z</time>
      </trkpt>
      <trkpt lat="48.04009" lon="7.26334">
        <ele>606.66749</ele>
        <time>2018-05-04T13:48:06Z</time>
      </trkpt>
      <trkpt lat="48.04009" lon="7.26332">
        <ele>606.9222</ele>
        <time>2018-05-04T13:48:07Z</time>
      </trkpt>
      <trkpt lat="48.04009" lon="7.26331">
        <ele>606.77604</ele>
        <time>2018-05-04T13:48:08Z</time>
      </trkpt>
      <trkpt lat="48.04008" lon="7.26329">
        <ele>607.0417</ele>
        <time>2018-05-04T13:48:09Z</time>
      </trkpt>
      <trkpt lat="48.04007" lon="7.26328">
        <ele>606.95317</ele>
        <time>2018-05-04T13:48:10Z</time>
      </trkpt>
      <trkpt lat="48.04007" lon="7.26326">
        <ele>607.1853</ele>
        <time>2018-05-04T13:48:11Z</time>
      </trkpt>
      <trkpt lat="48.04005" lon="7.26322">
        <ele>607.45982</ele>
        <time>2018-05-04T13:48:14Z</time>
      </trkpt>
      <trkpt lat="48.04005" lon="7.2632">
        <ele>607.26064</ele>
        <time>2018-05-04T13:48:15Z</time>
      </trkpt>
      <trkpt lat="48.04005" lon="7.26318">
        <ele>607.42695</ele>
        <time>2018-05-04T13:48:16Z</time>
      </trkpt>
      <trkpt lat="48.04005" lon="7.26318">
        <ele>607.74113</ele>
        <time>2018-05-04T13:48:17Z</time>
      </trkpt>
      <trkpt lat="48.04004" lon="7.26317">
        <ele>607.76874</ele>
        <time>2018-05-04T13:48:18Z</time>
      </trkpt>
      <trkpt lat="48.04003" lon="7.26315">
        <ele>607.4872</ele>
        <time>2018-05-04T13:48:19Z</time>
      </trkpt>
      <trkpt lat="48.04003" lon="7.26314">
        <ele>607.89513</ele>
        <time>2018-05-04T13:48:20Z</time>
      </trkpt>
      <trkpt lat="48.04003" lon="7.2631">
        <ele>607.96337</ele>
        <time>2018-05-04T13:48:22Z</time>
      </trkpt>
      <trkpt lat="48.04003" lon="7.26307">
        <ele>608.23822</ele>
        <time>2018-05-04T13:48:24Z</time>
      </trkpt>
      <trkpt lat="48.04003" lon="7.26305">
        <ele>608.1041</ele>
        <time>2018-05-04T13:48:25Z</time>
      </trkpt>
      <trkpt lat="48.04003" lon="7.26303">
        <ele>608.41428</ele>
        <time>2018-05-04T13:48:26Z</time>
      </trkpt>
      <trkpt lat="48.04002" lon="7.26301">
        <ele>608.65753</ele>
        <time>2018-05-04T13:48:27Z</time>
      </trkpt>
      <trkpt lat="48.04001" lon="7.26299">
        <ele>608.65541</ele>
        <time>2018-05-04T13:48:28Z</time>
      </trkpt>
      <trkpt lat="48.04001" lon="7.26297">
        <ele>608.25876</ele>
        <time>2018-05-04T13:48:29Z</time>
      </trkpt>
      <trkpt lat="48.04001" lon="7.26295">
        <ele>609.02159</ele>
        <time>2018-05-04T13:48:30Z</time>
      </trkpt>
      <trkpt lat="48.04" lon="7.26293">
        <ele>608.92657</ele>
        <time>2018-05-04T13:48:31Z</time>
      </trkpt>
      <trkpt lat="48.03999" lon="7.26291">
        <ele>608.77653</ele>
        <time>2018-05-04T13:48:32Z</time>
      </trkpt>
      <trkpt lat="48.03998" lon="7.2629">
        <ele>609.04447</ele>
        <time>2018-05-04T13:48:33Z</time>
      </trkpt>
      <trkpt lat="48.03997" lon="7.26288">
        <ele>609.21615</ele>
        <time>2018-05-04T13:48:34Z</time>
      </trkpt>
      <trkpt lat="48.03996" lon="7.26287">
        <ele>608.8558</ele>
        <time>2018-05-04T13:48:35Z</time>
      </trkpt>
      <trkpt lat="48.03994" lon="7.26281">
        <ele>609.39412</ele>
        <time>2018-05-04T13:48:38Z</time>
      </trkpt>
      <trkpt lat="48.03994" lon="7.26279">
        <ele>609.64219</ele>
        <time>2018-05-04T13:48:39Z</time>
      </trkpt>
      <trkpt lat="48.03994" lon="7.26277">
        <ele>609.82067</ele>
        <time>2018-05-04T13:48:40Z</time>
      </trkpt>
      <trkpt lat="48.03993" lon="7.26276">
        <ele>609.83088</ele>
        <time>2018-05-04T13:48:41Z</time>
      </trkpt>
      <trkpt lat="48.03993" lon="7.26274">
        <ele>610.11761</ele>
        <time>2018-05-04T13:48:43Z</time>
      </trkpt>
      <trkpt lat="48.03989" lon="7.26271">
        <ele>610.45862</ele>
        <time>2018-05-04T13:48:47Z</time>
      </trkpt>
      <trkpt lat="48.03987" lon="7.26269">
        <ele>610.7391</ele>
        <time>2018-05-04T13:48:48Z</time>
      </trkpt>
      <trkpt lat="48.03984" lon="7.26264">
        <ele>611.35454</ele>
        <time>2018-05-04T13:48:51Z</time>
      </trkpt>
      <trkpt lat="48.03984" lon="7.26264">
        <ele>611.48403</ele>
        <time>2018-05-04T13:48:52Z</time>
      </trkpt>
      <trkpt lat="48.03983" lon="7.26262">
        <ele>611.6336</ele>
        <time>2018-05-04T13:48:54Z</time>
      </trkpt>
      <trkpt lat="48.03983" lon="7.2626">
        <ele>611.93501</ele>
        <time>2018-05-04T13:48:56Z</time>
      </trkpt>
      <trkpt lat="48.03983" lon="7.26259">
        <ele>612.38722</ele>
        <time>2018-05-04T13:48:57Z</time>
      </trkpt>
      <trkpt lat="48.03983" lon="7.26258">
        <ele>612.46173</ele>
        <time>2018-05-04T13:48:58Z</time>
      </trkpt>
      <trkpt lat="48.03981" lon="7.26256">
        <ele>612.52769</ele>
        <time>2018-05-04T13:48:59Z</time>
      </trkpt>
      <trkpt lat="48.03979" lon="7.26255">
        <ele>613.02287</ele>
        <time>2018-05-04T13:49:00Z</time>
      </trkpt>
      <trkpt lat="48.03977" lon="7.26254">
        <ele>613.02287</ele>
        <time>2018-05-04T13:49:01Z</time>
      </trkpt>
      <trkpt lat="48.03975" lon="7.26252">
        <ele>612.69651</ele>
        <time>2018-05-04T13:49:03Z</time>
      </trkpt>
      <trkpt lat="48.03973" lon="7.26249">
        <ele>613.18658</ele>
        <time>2018-05-04T13:49:05Z</time>
      </trkpt>
      <trkpt lat="48.03971" lon="7.26247">
        <ele>613.44974</ele>
        <time>2018-05-04T13:49:07Z</time>
      </trkpt>
      <trkpt lat="48.0397" lon="7.26246">
        <ele>613.6652</ele>
        <time>2018-05-04T13:49:08Z</time>
      </trkpt>
      <trkpt lat="48.0397" lon="7.26244">
        <ele>614.04178</ele>
        <time>2018-05-04T13:49:09Z</time>
      </trkpt>
      <trkpt lat="48.03968" lon="7.26241">
        <ele>614.12426</ele>
        <time>2018-05-04T13:49:11Z</time>
      </trkpt>
      <trkpt lat="48.03966" lon="7.26239">
        <ele>614.46</ele>
        <time>2018-05-04T13:49:13Z</time>
      </trkpt>
      <trkpt lat="48.03966" lon="7.26238">
        <ele>614.61221</ele>
        <time>2018-05-04T13:49:14Z</time>
      </trkpt>
      <trkpt lat="48.03965" lon="7.26236">
        <ele>614.54515</ele>
        <time>2018-05-04T13:49:15Z</time>
      </trkpt>
      <trkpt lat="48.03964" lon="7.26235">
        <ele>614.93049</ele>
        <time>2018-05-04T13:49:16Z</time>
      </trkpt>
      <trkpt lat="48.0396" lon="7.26229">
        <ele>615.18437</ele>
        <time>2018-05-04T13:49:21Z</time>
      </trkpt>
      <trkpt lat="48.03959" lon="7.26228">
        <ele>614.99139</ele>
        <time>2018-05-04T13:49:23Z</time>
      </trkpt>
      <trkpt lat="48.03957" lon="7.26227">
        <ele>615.41455</ele>
        <time>2018-05-04T13:49:24Z</time>
      </trkpt>
      <trkpt lat="48.03954" lon="7.26224">
        <ele>615.45916</ele>
        <time>2018-05-04T13:49:26Z</time>
      </trkpt>
      <trkpt lat="48.03953" lon="7.26223">
        <ele>615.33133</ele>
        <time>2018-05-04T13:49:27Z</time>
      </trkpt>
      <trkpt lat="48.03952" lon="7.26223">
        <ele>615.35026</ele>
        <time>2018-05-04T13:49:28Z</time>
      </trkpt>
      <trkpt lat="48.03951" lon="7.26222">
        <ele>615.52729</ele>
        <time>2018-05-04T13:49:29Z</time>
      </trkpt>
      <trkpt lat="48.0395" lon="7.26221">
        <ele>615.56412</ele>
        <time>2018-05-04T13:49:30Z</time>
      </trkpt>
      <trkpt lat="48.0395" lon="7.26217">
        <ele>615.82118</ele>
        <time>2018-05-04T13:49:32Z</time>
      </trkpt>
      <trkpt lat="48.0395" lon="7.26216">
        <ele>615.89096</ele>
        <time>2018-05-04T13:49:33Z</time>
      </trkpt>
      <trkpt lat="48.03949" lon="7.26214">
        <ele>615.90392</ele>
        <time>2018-05-04T13:49:34Z</time>
      </trkpt>
      <trkpt lat="48.03949" lon="7.26213">
        <ele>615.92589</ele>
        <time>2018-05-04T13:49:35Z</time>
      </trkpt>
      <trkpt lat="48.03948" lon="7.26211">
        <ele>616.37602</ele>
        <time>2018-05-04T13:49:36Z</time>
      </trkpt>
      <trkpt lat="48.03947" lon="7.2621">
        <ele>616.78675</ele>
        <time>2018-05-04T13:49:37Z</time>
      </trkpt>
      <trkpt lat="48.03946" lon="7.26209">
        <ele>616.44904</ele>
        <time>2018-05-04T13:49:38Z</time>
      </trkpt>
      <trkpt lat="48.03946" lon="7.26207">
        <ele>616.91267</ele>
        <time>2018-05-04T13:49:40Z</time>
      </trkpt>
      <trkpt lat="48.03945" lon="7.26206">
        <ele>617.0642</ele>
        <time>2018-05-04T13:49:41Z</time>
      </trkpt>
      <trkpt lat="48.03944" lon="7.26202">
        <ele>616.88058</ele>
        <time>2018-05-04T13:50:06Z</time>
      </trkpt>
      <trkpt lat="48.03944" lon="7.26202">
        <ele>616.954</ele>
        <time>2018-05-04T13:50:07Z</time>
      </trkpt>
      <trkpt lat="48.03943" lon="7.26201">
        <ele>616.92794</ele>
        <time>2018-05-04T13:50:08Z</time>
      </trkpt>
      <trkpt lat="48.03942" lon="7.26199">
        <ele>617.04716</ele>
        <time>2018-05-04T13:50:10Z</time>
      </trkpt>
      <trkpt lat="48.03941" lon="7.26198">
        <ele>616.85329</ele>
        <time>2018-05-04T13:50:11Z</time>
      </trkpt>
      <trkpt lat="48.0394" lon="7.26197">
        <ele>617.10755</ele>
        <time>2018-05-04T13:50:12Z</time>
      </trkpt>
      <trkpt lat="48.03939" lon="7.26193">
        <ele>617.7197</ele>
        <time>2018-05-04T13:50:15Z</time>
      </trkpt>
      <trkpt lat="48.03939" lon="7.26191">
        <ele>617.7063</ele>
        <time>2018-05-04T13:50:17Z</time>
      </trkpt>
      <trkpt lat="48.0394" lon="7.26189">
        <ele>618.04064</ele>
        <time>2018-05-04T13:50:21Z</time>
      </trkpt>
      <trkpt lat="48.0394" lon="7.26188">
        <ele>618.04064</ele>
        <time>2018-05-04T13:50:22Z</time>
      </trkpt>
      <trkpt lat="48.03943" lon="7.26184">
        <ele>618.00036</ele>
        <time>2018-05-04T13:50:29Z</time>
      </trkpt>
      <trkpt lat="48.03943" lon="7.26182">
        <ele>617.81504</ele>
        <time>2018-05-04T13:50:30Z</time>
      </trkpt>
      <trkpt lat="48.03943" lon="7.26181">
        <ele>618.24642</ele>
        <time>2018-05-04T13:50:31Z</time>
      </trkpt>
      <trkpt lat="48.03944" lon="7.26179">
        <ele>618.48763</ele>
        <time>2018-05-04T13:50:32Z</time>
      </trkpt>
      <trkpt lat="48.03944" lon="7.26178">
        <ele>618.56937</ele>
        <time>2018-05-04T13:50:33Z</time>
      </trkpt>
      <trkpt lat="48.03943" lon="7.26176">
        <ele>618.70259</ele>
        <time>2018-05-04T13:50:34Z</time>
      </trkpt>
      <trkpt lat="48.03943" lon="7.26175">
        <ele>618.85685</ele>
        <time>2018-05-04T13:50:35Z</time>
      </trkpt>
      <trkpt lat="48.03942" lon="7.26174">
        <ele>618.73323</ele>
        <time>2018-05-04T13:50:36Z</time>
      </trkpt>
      <trkpt lat="48.03942" lon="7.26173">
        <ele>619.17237</ele>
        <time>2018-05-04T13:50:37Z</time>
      </trkpt>
      <trkpt lat="48.03943" lon="7.26171">
        <ele>619.33043</ele>
        <time>2018-05-04T13:50:39Z</time>
      </trkpt>
      <trkpt lat="48.03943" lon="7.26169">
        <ele>619.40216</ele>
        <time>2018-05-04T13:50:40Z</time>
      </trkpt>
      <trkpt lat="48.03942" lon="7.26167">
        <ele>619.50817</ele>
        <time>2018-05-04T13:50:41Z</time>
      </trkpt>
      <trkpt lat="48.03942" lon="7.26166">
        <ele>619.51551</ele>
        <time>2018-05-04T13:50:42Z</time>
      </trkpt>
      <trkpt lat="48.03942" lon="7.26165">
        <ele>619.3922</ele>
        <time>2018-05-04T13:50:43Z</time>
      </trkpt>
      <trkpt lat="48.03942" lon="7.26162">
        <ele>619.98112</ele>
        <time>2018-05-04T13:50:46Z</time>
      </trkpt>
      <trkpt lat="48.03942" lon="7.26161">
        <ele>620.049</ele>
        <time>2018-05-04T13:50:48Z</time>
      </trkpt>
      <trkpt lat="48.03942" lon="7.26159">
        <ele>620.27287</ele>
        <time>2018-05-04T13:50:51Z</time>
      </trkpt>
      <trkpt lat="48.03943" lon="7.26157">
        <ele>620.46141</ele>
        <time>2018-05-04T13:50:53Z</time>
      </trkpt>
      <trkpt lat="48.03942" lon="7.26155">
        <ele>620.53571</ele>
        <time>2018-05-04T13:50:54Z</time>
      </trkpt>
      <trkpt lat="48.03942" lon="7.26154">
        <ele>620.69799</ele>
        <time>2018-05-04T13:50:55Z</time>
      </trkpt>
      <trkpt lat="48.03942" lon="7.26151">
        <ele>620.8541</ele>
        <time>2018-05-04T13:50:57Z</time>
      </trkpt>
      <trkpt lat="48.03942" lon="7.26149">
        <ele>621.25749</ele>
        <time>2018-05-04T13:50:58Z</time>
      </trkpt>
      <trkpt lat="48.03942" lon="7.26148">
        <ele>621.06771</ele>
        <time>2018-05-04T13:50:59Z</time>
      </trkpt>
      <trkpt lat="48.03943" lon="7.26146">
        <ele>621.53885</ele>
        <time>2018-05-04T13:51:00Z</time>
      </trkpt>
      <trkpt lat="48.03943" lon="7.26145">
        <ele>621.39933</ele>
        <time>2018-05-04T13:51:01Z</time>
      </trkpt>
      <trkpt lat="48.03943" lon="7.26144">
        <ele>621.68993</ele>
        <time>2018-05-04T13:51:02Z</time>
      </trkpt>
      <trkpt lat="48.03944" lon="7.26143">
        <ele>621.82607</ele>
        <time>2018-05-04T13:51:04Z</time>
      </trkpt>
      <trkpt lat="48.03944" lon="7.26142">
        <ele>621.935</ele>
        <time>2018-05-04T13:51:05Z</time>
      </trkpt>
      <trkpt lat="48.03943" lon="7.26141">
        <ele>622.15875</ele>
        <time>2018-05-04T13:51:06Z</time>
      </trkpt>
      <trkpt lat="48.03943" lon="7.26139">
        <ele>622.29999</ele>
        <time>2018-05-04T13:51:07Z</time>
      </trkpt>
      <trkpt lat="48.03942" lon="7.26138">
        <ele>622.33286</ele>
        <time>2018-05-04T13:51:08Z</time>
      </trkpt>
      <trkpt lat="48.03942" lon="7.26137">
        <ele>622.33751</ele>
        <time>2018-05-04T13:51:09Z</time>
      </trkpt>
      <trkpt lat="48.03943" lon="7.26136">
        <ele>622.44539</ele>
        <time>2018-05-04T13:51:10Z</time>
      </trkpt>
      <trkpt lat="48.03943" lon="7.26136">
        <ele>622.74216</ele>
        <time>2018-05-04T13:51:11Z</time>
      </trkpt>
      <trkpt lat="48.03943" lon="7.26135">
        <ele>622.67392</ele>
        <time>2018-05-04T13:51:12Z</time>
      </trkpt>
      <trkpt lat="48.03943" lon="7.26134">
        <ele>622.90379</ele>
        <time>2018-05-04T13:51:13Z</time>
      </trkpt>
      <trkpt lat="48.03943" lon="7.26134">
        <ele>622.84686</ele>
        <time>2018-05-04T13:51:14Z</time>
      </trkpt>
      <trkpt lat="48.03943" lon="7.26132">
        <ele>623.15398</ele>
        <time>2018-05-04T13:51:16Z</time>
      </trkpt>
      <trkpt lat="48.03943" lon="7.26131">
        <ele>623.31463</ele>
        <time>2018-05-04T13:51:18Z</time>
      </trkpt>
      <trkpt lat="48.03943" lon="7.2613">
        <ele>623.54766</ele>
        <time>2018-05-04T13:51:19Z</time>
      </trkpt>
      <trkpt lat="48.03943" lon="7.2613">
        <ele>623.41842</ele>
        <time>2018-05-04T13:51:20Z</time>
      </trkpt>
      <trkpt lat="48.03943" lon="7.26129">
        <ele>623.57685</ele>
        <time>2018-05-04T13:51:22Z</time>
      </trkpt>
      <trkpt lat="48.03943" lon="7.26128">
        <ele>623.62315</ele>
        <time>2018-05-04T13:51:23Z</time>
      </trkpt>
      <trkpt lat="48.03943" lon="7.26126">
        <ele>623.51644</ele>
        <time>2018-05-04T13:51:24Z</time>
      </trkpt>
      <trkpt lat="48.03941" lon="7.26125">
        <ele>623.79406</ele>
        <time>2018-05-04T13:51:25Z</time>
      </trkpt>
      <trkpt lat="48.03941" lon="7.26124">
        <ele>623.84256</ele>
        <time>2018-05-04T13:51:26Z</time>
      </trkpt>
      <trkpt lat="48.0394" lon="7.26123">
        <ele>623.83284</ele>
        <time>2018-05-04T13:51:27Z</time>
      </trkpt>
      <trkpt lat="48.03939" lon="7.26122">
        <ele>624.03846</ele>
        <time>2018-05-04T13:51:28Z</time>
      </trkpt>
      <trkpt lat="48.03939" lon="7.26121">
        <ele>623.97831</ele>
        <time>2018-05-04T13:51:29Z</time>
      </trkpt>
      <trkpt lat="48.03939" lon="7.26119">
        <ele>624.30296</ele>
        <time>2018-05-04T13:51:30Z</time>
      </trkpt>
      <trkpt lat="48.03938" lon="7.26117">
        <ele>624.2757</ele>
        <time>2018-05-04T13:51:32Z</time>
      </trkpt>
      <trkpt lat="48.03937" lon="7.26115">
        <ele>624.86661</ele>
        <time>2018-05-04T13:51:34Z</time>
      </trkpt>
      <trkpt lat="48.03937" lon="7.26114">
        <ele>625.12893</ele>
        <time>2018-05-04T13:51:35Z</time>
      </trkpt>
      <trkpt lat="48.03937" lon="7.26113">
        <ele>624.93307</ele>
        <time>2018-05-04T13:51:36Z</time>
      </trkpt>
      <trkpt lat="48.03937" lon="7.26112">
        <ele>625.4629</ele>
        <time>2018-05-04T13:51:37Z</time>
      </trkpt>
      <trkpt lat="48.03938" lon="7.26112">
        <ele>625.51721</ele>
        <time>2018-05-04T13:51:38Z</time>
      </trkpt>
      <trkpt lat="48.03938" lon="7.26111">
        <ele>625.59848</ele>
        <time>2018-05-04T13:51:40Z</time>
      </trkpt>
      <trkpt lat="48.03938" lon="7.2611">
        <ele>626.11778</ele>
        <time>2018-05-04T13:51:41Z</time>
      </trkpt>
      <trkpt lat="48.03938" lon="7.26109">
        <ele>626.32232</ele>
        <time>2018-05-04T13:51:43Z</time>
      </trkpt>
      <trkpt lat="48.03937" lon="7.26108">
        <ele>626.32232</ele>
        <time>2018-05-04T13:51:44Z</time>
      </trkpt>
      <trkpt lat="48.03937" lon="7.26107">
        <ele>626.08334</ele>
        <time>2018-05-04T13:51:46Z</time>
      </trkpt>
      <trkpt lat="48.03937" lon="7.26106">
        <ele>626.38111</ele>
        <time>2018-05-04T13:51:48Z</time>
      </trkpt>
      <trkpt lat="48.03937" lon="7.26106">
        <ele>626.48349</ele>
        <time>2018-05-04T13:51:49Z</time>
      </trkpt>
      <trkpt lat="48.03937" lon="7.26105">
        <ele>626.40646</ele>
        <time>2018-05-04T13:51:50Z</time>
      </trkpt>
      <trkpt lat="48.03938" lon="7.26104">
        <ele>626.78092</ele>
        <time>2018-05-04T13:51:52Z</time>
      </trkpt>
      <trkpt lat="48.03938" lon="7.26102">
        <ele>626.85433</ele>
        <time>2018-05-04T13:51:54Z</time>
      </trkpt>
      <trkpt lat="48.03939" lon="7.26101">
        <ele>627.09735</ele>
        <time>2018-05-04T13:51:55Z</time>
      </trkpt>
      <trkpt lat="48.0394" lon="7.261">
        <ele>627.01391</ele>
        <time>2018-05-04T13:51:56Z</time>
      </trkpt>
      <trkpt lat="48.03942" lon="7.26098">
        <ele>627.58484</ele>
        <time>2018-05-04T13:51:58Z</time>
      </trkpt>
      <trkpt lat="48.03944" lon="7.26096">
        <ele>627.91363</ele>
        <time>2018-05-04T13:52:00Z</time>
      </trkpt>
      <trkpt lat="48.03946" lon="7.26095">
        <ele>628.30892</ele>
        <time>2018-05-04T13:52:01Z</time>
      </trkpt>
      <trkpt lat="48.03946" lon="7.26094">
        <ele>628.43162</ele>
        <time>2018-05-04T13:52:02Z</time>
      </trkpt>
      <trkpt lat="48.03946" lon="7.26093">
        <ele>628.58032</ele>
        <time>2018-05-04T13:52:03Z</time>
      </trkpt>
      <trkpt lat="48.03946" lon="7.26092">
        <ele>629.14969</ele>
        <time>2018-05-04T13:52:04Z</time>
      </trkpt>
      <trkpt lat="48.03946" lon="7.26091">
        <ele>629.02729</ele>
        <time>2018-05-04T13:52:05Z</time>
      </trkpt>
      <trkpt lat="48.03946" lon="7.2609">
        <ele>629.16515</ele>
        <time>2018-05-04T13:52:06Z</time>
      </trkpt>
      <trkpt lat="48.03945" lon="7.26089">
        <ele>629.20302</ele>
        <time>2018-05-04T13:52:07Z</time>
      </trkpt>
      <trkpt lat="48.03945" lon="7.26088">
        <ele>629.5884</ele>
        <time>2018-05-04T13:52:08Z</time>
      </trkpt>
      <trkpt lat="48.03945" lon="7.26087">
        <ele>629.73614</ele>
        <time>2018-05-04T13:52:09Z</time>
      </trkpt>
      <trkpt lat="48.03945" lon="7.26086">
        <ele>629.67418</ele>
        <time>2018-05-04T13:52:10Z</time>
      </trkpt>
      <trkpt lat="48.03944" lon="7.26085">
        <ele>629.88669</ele>
        <time>2018-05-04T13:52:11Z</time>
      </trkpt>
      <trkpt lat="48.03943" lon="7.26084">
        <ele>629.68038</ele>
        <time>2018-05-04T13:52:12Z</time>
      </trkpt>
      <trkpt lat="48.03941" lon="7.26083">
        <ele>629.94746</ele>
        <time>2018-05-04T13:52:13Z</time>
      </trkpt>
      <trkpt lat="48.0394" lon="7.26083">
        <ele>629.8134</ele>
        <time>2018-05-04T13:52:14Z</time>
      </trkpt>
      <trkpt lat="48.0394" lon="7.26082">
        <ele>630.01884</ele>
        <time>2018-05-04T13:52:16Z</time>
      </trkpt>
      <trkpt lat="48.03941" lon="7.26081">
        <ele>630.14484</ele>
        <time>2018-05-04T13:52:18Z</time>
      </trkpt>
      <trkpt lat="48.03941" lon="7.2608">
        <ele>630.26511</ele>
        <time>2018-05-04T13:52:19Z</time>
      </trkpt>
      <trkpt lat="48.0394" lon="7.26079">
        <ele>630.33312</ele>
        <time>2018-05-04T13:52:20Z</time>
      </trkpt>
      <trkpt lat="48.03939" lon="7.26078">
        <ele>630.53453</ele>
        <time>2018-05-04T13:52:21Z</time>
      </trkpt>
      <trkpt lat="48.03938" lon="7.26076">
        <ele>630.6768</ele>
        <time>2018-05-04T13:52:23Z</time>
      </trkpt>
      <trkpt lat="48.03937" lon="7.26075">
        <ele>630.82709</ele>
        <time>2018-05-04T13:52:24Z</time>
      </trkpt>
      <trkpt lat="48.03937" lon="7.26075">
        <ele>630.78008</ele>
        <time>2018-05-04T13:52:25Z</time>
      </trkpt>
      <trkpt lat="48.03937" lon="7.26074">
        <ele>631.03474</ele>
        <time>2018-05-04T13:52:27Z</time>
      </trkpt>
      <trkpt lat="48.03938" lon="7.26073">
        <ele>631.38722</ele>
        <time>2018-05-04T13:52:30Z</time>
      </trkpt>
      <trkpt lat="48.03937" lon="7.26072">
        <ele>631.56383</ele>
        <time>2018-05-04T13:52:32Z</time>
      </trkpt>
      <trkpt lat="48.03937" lon="7.26071">
        <ele>631.69522</ele>
        <time>2018-05-04T13:52:33Z</time>
      </trkpt>
      <trkpt lat="48.03937" lon="7.2607">
        <ele>632.13874</ele>
        <time>2018-05-04T13:52:35Z</time>
      </trkpt>
      <trkpt lat="48.03937" lon="7.26069">
        <ele>632.21912</ele>
        <time>2018-05-04T13:52:36Z</time>
      </trkpt>
      <trkpt lat="48.03937" lon="7.26068">
        <ele>632.17985</ele>
        <time>2018-05-04T13:52:37Z</time>
      </trkpt>
      <trkpt lat="48.03937" lon="7.26067">
        <ele>632.67853</ele>
        <time>2018-05-04T13:52:38Z</time>
      </trkpt>
      <trkpt lat="48.03937" lon="7.2606">
        <ele>633.46556</ele>
        <time>2018-05-04T13:52:44Z</time>
      </trkpt>
      <trkpt lat="48.03937" lon="7.26059">
        <ele>633.65828</ele>
        <time>2018-05-04T13:52:46Z</time>
      </trkpt>
      <trkpt lat="48.03938" lon="7.26058">
        <ele>633.57242</ele>
        <time>2018-05-04T13:52:48Z</time>
      </trkpt>
      <trkpt lat="48.03938" lon="7.26057">
        <ele>633.76254</ele>
        <time>2018-05-04T13:52:49Z</time>
      </trkpt>
      <trkpt lat="48.03939" lon="7.26056">
        <ele>633.75204</ele>
        <time>2018-05-04T13:52:50Z</time>
      </trkpt>
      <trkpt lat="48.03939" lon="7.26055">
        <ele>633.87096</ele>
        <time>2018-05-04T13:52:51Z</time>
      </trkpt>
      <trkpt lat="48.03939" lon="7.26054">
        <ele>634.2184</ele>
        <time>2018-05-04T13:52:55Z</time>
      </trkpt>
      <trkpt lat="48.03938" lon="7.26053">
        <ele>634.34747</ele>
        <time>2018-05-04T13:52:56Z</time>
      </trkpt>
      <trkpt lat="48.03938" lon="7.26052">
        <ele>634.42397</ele>
        <time>2018-05-04T13:52:57Z</time>
      </trkpt>
      <trkpt lat="48.03938" lon="7.2605">
        <ele>634.50932</ele>
        <time>2018-05-04T13:52:58Z</time>
      </trkpt>
      <trkpt lat="48.03938" lon="7.2605">
        <ele>635.01808</ele>
        <time>2018-05-04T13:52:59Z</time>
      </trkpt>
      <trkpt lat="48.03938" lon="7.26049">
        <ele>635.14936</ele>
        <time>2018-05-04T13:53:00Z</time>
      </trkpt>
      <trkpt lat="48.03939" lon="7.26048">
        <ele>635.53556</ele>
        <time>2018-05-04T13:53:02Z</time>
      </trkpt>
      <trkpt lat="48.03939" lon="7.26047">
        <ele>636.04537</ele>
        <time>2018-05-04T13:53:03Z</time>
      </trkpt>
      <trkpt lat="48.0394" lon="7.26047">
        <ele>636.13083</ele>
        <time>2018-05-04T13:53:04Z</time>
      </trkpt>
      <trkpt lat="48.0394" lon="7.26047">
        <ele>636.31296</ele>
        <time>2018-05-04T13:53:05Z</time>
      </trkpt>
      <trkpt lat="48.0394" lon="7.26046">
        <ele>636.61704</ele>
        <time>2018-05-04T13:53:06Z</time>
      </trkpt>
      <trkpt lat="48.0394" lon="7.26045">
        <ele>636.713</ele>
        <time>2018-05-04T13:53:07Z</time>
      </trkpt>
      <trkpt lat="48.03939" lon="7.26043">
        <ele>636.97636</ele>
        <time>2018-05-04T13:53:08Z</time>
      </trkpt>
      <trkpt lat="48.03939" lon="7.26042">
        <ele>636.97636</ele>
        <time>2018-05-04T13:53:09Z</time>
      </trkpt>
      <trkpt lat="48.03938" lon="7.26041">
        <ele>637.10641</ele>
        <time>2018-05-04T13:53:11Z</time>
      </trkpt>
      <trkpt lat="48.03937" lon="7.26039">
        <ele>637.50637</ele>
        <time>2018-05-04T13:53:13Z</time>
      </trkpt>
      <trkpt lat="48.03937" lon="7.26039">
        <ele>637.66914</ele>
        <time>2018-05-04T13:53:15Z</time>
      </trkpt>
      <trkpt lat="48.03937" lon="7.26038">
        <ele>637.88061</ele>
        <time>2018-05-04T13:53:17Z</time>
      </trkpt>
      <trkpt lat="48.03937" lon="7.26037">
        <ele>637.82509</ele>
        <time>2018-05-04T13:53:18Z</time>
      </trkpt>
      <trkpt lat="48.03936" lon="7.26036">
        <ele>637.8747</ele>
        <time>2018-05-04T13:53:19Z</time>
      </trkpt>
      <trkpt lat="48.03936" lon="7.26035">
        <ele>638.05366</ele>
        <time>2018-05-04T13:53:20Z</time>
      </trkpt>
      <trkpt lat="48.03936" lon="7.26034">
        <ele>638.4373</ele>
        <time>2018-05-04T13:53:22Z</time>
      </trkpt>
      <trkpt lat="48.03936" lon="7.26034">
        <ele>638.82757</ele>
        <time>2018-05-04T13:53:24Z</time>
      </trkpt>
      <trkpt lat="48.03936" lon="7.26033">
        <ele>638.98375</ele>
        <time>2018-05-04T13:53:33Z</time>
      </trkpt>
      <trkpt lat="48.03935" lon="7.26031">
        <ele>639.12627</ele>
        <time>2018-05-04T13:53:35Z</time>
      </trkpt>
      <trkpt lat="48.03934" lon="7.2603">
        <ele>639.30095</ele>
        <time>2018-05-04T13:53:36Z</time>
      </trkpt>
      <trkpt lat="48.03933" lon="7.26029">
        <ele>639.52247</ele>
        <time>2018-05-04T13:53:37Z</time>
      </trkpt>
      <trkpt lat="48.03932" lon="7.26028">
        <ele>639.42112</ele>
        <time>2018-05-04T13:53:38Z</time>
      </trkpt>
      <trkpt lat="48.03931" lon="7.26026">
        <ele>639.62219</ele>
        <time>2018-05-04T13:53:39Z</time>
      </trkpt>
      <trkpt lat="48.03931" lon="7.26025">
        <ele>639.64575</ele>
        <time>2018-05-04T13:53:40Z</time>
      </trkpt>
      <trkpt lat="48.03931" lon="7.26024">
        <ele>639.7383</ele>
        <time>2018-05-04T13:53:41Z</time>
      </trkpt>
      <trkpt lat="48.0393" lon="7.2602">
        <ele>639.94933</ele>
        <time>2018-05-04T13:53:44Z</time>
      </trkpt>
      <trkpt lat="48.03929" lon="7.26019">
        <ele>640.04881</ele>
        <time>2018-05-04T13:53:45Z</time>
      </trkpt>
      <trkpt lat="48.03929" lon="7.26017">
        <ele>640.03389</ele>
        <time>2018-05-04T13:53:46Z</time>
      </trkpt>
      <trkpt lat="48.03928" lon="7.26016">
        <ele>640.76928</ele>
        <time>2018-05-04T13:53:47Z</time>
      </trkpt>
      <trkpt lat="48.03926" lon="7.26016">
        <ele>640.65642</ele>
        <time>2018-05-04T13:53:48Z</time>
      </trkpt>
      <trkpt lat="48.03926" lon="7.26015">
        <ele>641.52246</ele>
        <time>2018-05-04T13:53:49Z</time>
      </trkpt>
      <trkpt lat="48.03925" lon="7.26015">
        <ele>641.20611</ele>
        <time>2018-05-04T13:53:50Z</time>
      </trkpt>
      <trkpt lat="48.03925" lon="7.26014">
        <ele>641.93976</ele>
        <time>2018-05-04T13:53:51Z</time>
      </trkpt>
      <trkpt lat="48.03924" lon="7.26013">
        <ele>641.74198</ele>
        <time>2018-05-04T13:53:52Z</time>
      </trkpt>
      <trkpt lat="48.03924" lon="7.26011">
        <ele>642.26606</ele>
        <time>2018-05-04T13:53:54Z</time>
      </trkpt>
      <trkpt lat="48.03924" lon="7.2601">
        <ele>642.25625</ele>
        <time>2018-05-04T13:53:55Z</time>
      </trkpt>
      <trkpt lat="48.03923" lon="7.2601">
        <ele>642.51016</ele>
        <time>2018-05-04T13:53:56Z</time>
      </trkpt>
      <trkpt lat="48.03923" lon="7.26009">
        <ele>642.82602</ele>
        <time>2018-05-04T13:53:57Z</time>
      </trkpt>
      <trkpt lat="48.03923" lon="7.26007">
        <ele>642.88913</ele>
        <time>2018-05-04T13:53:59Z</time>
      </trkpt>
      <trkpt lat="48.03923" lon="7.26005">
        <ele>643.47434</ele>
        <time>2018-05-04T13:54:01Z</time>
      </trkpt>
      <trkpt lat="48.03922" lon="7.26004">
        <ele>643.69311</ele>
        <time>2018-05-04T13:54:02Z</time>
      </trkpt>
      <trkpt lat="48.03922" lon="7.26001">
        <ele>643.85327</ele>
        <time>2018-05-04T13:54:04Z</time>
      </trkpt>
      <trkpt lat="48.03922" lon="7.26">
        <ele>644.29122</ele>
        <time>2018-05-04T13:54:06Z</time>
      </trkpt>
      <trkpt lat="48.03922" lon="7.25999">
        <ele>644.43048</ele>
        <time>2018-05-04T13:54:07Z</time>
      </trkpt>
      <trkpt lat="48.03922" lon="7.25997">
        <ele>644.62806</ele>
        <time>2018-05-04T13:54:08Z</time>
      </trkpt>
      <trkpt lat="48.03922" lon="7.25997">
        <ele>644.73212</ele>
        <time>2018-05-04T13:54:09Z</time>
      </trkpt>
      <trkpt lat="48.03922" lon="7.25996">
        <ele>644.76886</ele>
        <time>2018-05-04T13:54:10Z</time>
      </trkpt>
      <trkpt lat="48.03921" lon="7.25995">
        <ele>645.15389</ele>
        <time>2018-05-04T13:54:11Z</time>
      </trkpt>
      <trkpt lat="48.0392" lon="7.25994">
        <ele>644.85117</ele>
        <time>2018-05-04T13:54:12Z</time>
      </trkpt>
      <trkpt lat="48.03919" lon="7.25992">
        <ele>645.08525</ele>
        <time>2018-05-04T13:54:15Z</time>
      </trkpt>
      <trkpt lat="48.03916" lon="7.2599">
        <ele>645.14651</ele>
        <time>2018-05-04T13:54:18Z</time>
      </trkpt>
      <trkpt lat="48.03918" lon="7.25989">
        <ele>645.58609</ele>
        <time>2018-05-04T13:54:31Z</time>
      </trkpt>
      <trkpt lat="48.03917" lon="7.25989">
        <ele>645.58609</ele>
        <time>2018-05-04T13:54:32Z</time>
      </trkpt>
      <trkpt lat="48.03917" lon="7.25988">
        <ele>645.694</ele>
        <time>2018-05-04T13:54:33Z</time>
      </trkpt>
      <trkpt lat="48.03918" lon="7.25987">
        <ele>645.81641</ele>
        <time>2018-05-04T13:54:34Z</time>
      </trkpt>
      <trkpt lat="48.03918" lon="7.25986">
        <ele>646.15891</ele>
        <time>2018-05-04T13:54:35Z</time>
      </trkpt>
      <trkpt lat="48.03919" lon="7.25985">
        <ele>646.35047</ele>
        <time>2018-05-04T13:54:36Z</time>
      </trkpt>
      <trkpt lat="48.03919" lon="7.25984">
        <ele>646.52582</ele>
        <time>2018-05-04T13:54:37Z</time>
      </trkpt>
      <trkpt lat="48.03919" lon="7.25983">
        <ele>646.68966</ele>
        <time>2018-05-04T13:54:38Z</time>
      </trkpt>
      <trkpt lat="48.03918" lon="7.25982">
        <ele>646.75599</ele>
        <time>2018-05-04T13:54:39Z</time>
      </trkpt>
      <trkpt lat="48.03918" lon="7.2598">
        <ele>647.20478</ele>
        <time>2018-05-04T13:54:40Z</time>
      </trkpt>
      <trkpt lat="48.03917" lon="7.25977">
        <ele>647.82348</ele>
        <time>2018-05-04T13:54:42Z</time>
      </trkpt>
      <trkpt lat="48.03916" lon="7.25976">
        <ele>647.55909</ele>
        <time>2018-05-04T13:54:43Z</time>
      </trkpt>
      <trkpt lat="48.03914" lon="7.25975">
        <ele>648.11001</ele>
        <time>2018-05-04T13:54:45Z</time>
      </trkpt>
      <trkpt lat="48.03914" lon="7.25974">
        <ele>648.28909</ele>
        <time>2018-05-04T13:54:46Z</time>
      </trkpt>
      <trkpt lat="48.03913" lon="7.25974">
        <ele>648.23323</ele>
        <time>2018-05-04T13:54:47Z</time>
      </trkpt>
      <trkpt lat="48.03912" lon="7.25973">
        <ele>648.3224</ele>
        <time>2018-05-04T13:54:48Z</time>
      </trkpt>
      <trkpt lat="48.03912" lon="7.25972">
        <ele>648.28412</ele>
        <time>2018-05-04T13:54:50Z</time>
      </trkpt>
      <trkpt lat="48.03912" lon="7.25971">
        <ele>648.02168</ele>
        <time>2018-05-04T13:54:52Z</time>
      </trkpt>
      <trkpt lat="48.03913" lon="7.25968">
        <ele>648.46287</ele>
        <time>2018-05-04T13:56:17Z</time>
      </trkpt>
      <trkpt lat="48.03915" lon="7.25968">
        <ele>648.54197</ele>
        <time>2018-05-04T13:56:19Z</time>
      </trkpt>
      <trkpt lat="48.03916" lon="7.25969">
        <ele>648.55434</ele>
        <time>2018-05-04T13:56:20Z</time>
      </trkpt>
      <trkpt lat="48.03918" lon="7.25969">
        <ele>648.56322</ele>
        <time>2018-05-04T13:56:21Z</time>
      </trkpt>
      <trkpt lat="48.03919" lon="7.2597">
        <ele>648.46266</ele>
        <time>2018-05-04T13:56:22Z</time>
      </trkpt>
      <trkpt lat="48.03918" lon="7.25973">
        <ele>648.24249</ele>
        <time>2018-05-04T13:56:32Z</time>
      </trkpt>
      <trkpt lat="48.03916" lon="7.25971">
        <ele>648.62084</ele>
        <time>2018-05-04T13:56:57Z</time>
      </trkpt>
      <trkpt lat="48.03917" lon="7.2597">
        <ele>648.61065</ele>
        <time>2018-05-04T13:56:58Z</time>
      </trkpt>
      <trkpt lat="48.03919" lon="7.25966">
        <ele>648.38558</ele>
        <time>2018-05-04T13:57:43Z</time>
      </trkpt>
      <trkpt lat="48.0392" lon="7.25966">
        <ele>648.46486</ele>
        <time>2018-05-04T13:57:46Z</time>
      </trkpt>
      <trkpt lat="48.0392" lon="7.25959">
        <ele>648.18863</ele>
        <time>2018-05-04T13:58:13Z</time>
      </trkpt>
      <trkpt lat="48.0392" lon="7.25959">
        <ele>647.9977</ele>
        <time>2018-05-04T13:58:14Z</time>
      </trkpt>
      <trkpt lat="48.03916" lon="7.25956">
        <ele>648.11762</ele>
        <time>2018-05-04T13:58:17Z</time>
      </trkpt>
      <trkpt lat="48.03915" lon="7.25955">
        <ele>648.04719</ele>
        <time>2018-05-04T13:58:18Z</time>
      </trkpt>
      <trkpt lat="48.03914" lon="7.25953">
        <ele>648.0137</ele>
        <time>2018-05-04T13:58:20Z</time>
      </trkpt>
      <trkpt lat="48.03914" lon="7.25952">
        <ele>647.85576</ele>
        <time>2018-05-04T13:58:21Z</time>
      </trkpt>
      <trkpt lat="48.03915" lon="7.25952">
        <ele>647.61725</ele>
        <time>2018-05-04T13:58:28Z</time>
      </trkpt>
      <trkpt lat="48.03915" lon="7.25951">
        <ele>647.54882</ele>
        <time>2018-05-04T13:58:30Z</time>
      </trkpt>
      <trkpt lat="48.03915" lon="7.25951">
        <ele>647.4437</ele>
        <time>2018-05-04T13:58:34Z</time>
      </trkpt>
      <trkpt lat="48.03914" lon="7.2595">
        <ele>647.78173</ele>
        <time>2018-05-04T13:58:36Z</time>
      </trkpt>
      <trkpt lat="48.03914" lon="7.2595">
        <ele>647.73732</ele>
        <time>2018-05-04T13:58:38Z</time>
      </trkpt>
      <trkpt lat="48.03914" lon="7.25949">
        <ele>648.01831</ele>
        <time>2018-05-04T13:58:43Z</time>
      </trkpt>
      <trkpt lat="48.03913" lon="7.25948">
        <ele>648.22882</ele>
        <time>2018-05-04T13:58:45Z</time>
      </trkpt>
      <trkpt lat="48.03912" lon="7.25946">
        <ele>648.38769</ele>
        <time>2018-05-04T13:58:46Z</time>
      </trkpt>
      <trkpt lat="48.03909" lon="7.25943">
        <ele>648.44697</ele>
        <time>2018-05-04T13:58:48Z</time>
      </trkpt>
      <trkpt lat="48.03908" lon="7.25941">
        <ele>649.0033</ele>
        <time>2018-05-04T13:58:50Z</time>
      </trkpt>
      <trkpt lat="48.03907" lon="7.2594">
        <ele>648.85471</ele>
        <time>2018-05-04T13:58:51Z</time>
      </trkpt>
      <trkpt lat="48.03907" lon="7.25939">
        <ele>649.21626</ele>
        <time>2018-05-04T13:58:52Z</time>
      </trkpt>
      <trkpt lat="48.03907" lon="7.25937">
        <ele>649.24263</ele>
        <time>2018-05-04T13:58:53Z</time>
      </trkpt>
      <trkpt lat="48.03907" lon="7.25937">
        <ele>649.41736</ele>
        <time>2018-05-04T13:58:54Z</time>
      </trkpt>
      <trkpt lat="48.03908" lon="7.25936">
        <ele>649.69952</ele>
        <time>2018-05-04T13:58:56Z</time>
      </trkpt>
      <trkpt lat="48.03909" lon="7.25936">
        <ele>649.79872</ele>
        <time>2018-05-04T13:58:57Z</time>
      </trkpt>
      <trkpt lat="48.03909" lon="7.25935">
        <ele>650.0699</ele>
        <time>2018-05-04T13:58:58Z</time>
      </trkpt>
      <trkpt lat="48.0391" lon="7.25934">
        <ele>650.26734</ele>
        <time>2018-05-04T13:58:59Z</time>
      </trkpt>
      <trkpt lat="48.0391" lon="7.25932">
        <ele>650.44738</ele>
        <time>2018-05-04T13:59:01Z</time>
      </trkpt>
      <trkpt lat="48.0391" lon="7.25931">
        <ele>650.53284</ele>
        <time>2018-05-04T13:59:02Z</time>
      </trkpt>
      <trkpt lat="48.0391" lon="7.2593">
        <ele>650.70852</ele>
        <time>2018-05-04T13:59:03Z</time>
      </trkpt>
      <trkpt lat="48.0391" lon="7.25928">
        <ele>650.98327</ele>
        <time>2018-05-04T13:59:04Z</time>
      </trkpt>
      <trkpt lat="48.03911" lon="7.25926">
        <ele>651.64873</ele>
        <time>2018-05-04T13:59:06Z</time>
      </trkpt>
      <trkpt lat="48.03911" lon="7.25925">
        <ele>651.61893</ele>
        <time>2018-05-04T13:59:08Z</time>
      </trkpt>
      <trkpt lat="48.0391" lon="7.25924">
        <ele>651.57557</ele>
        <time>2018-05-04T13:59:09Z</time>
      </trkpt>
      <trkpt lat="48.03909" lon="7.25923">
        <ele>651.67814</ele>
        <time>2018-05-04T13:59:10Z</time>
      </trkpt>
      <trkpt lat="48.03909" lon="7.25923">
        <ele>651.55794</ele>
        <time>2018-05-04T13:59:11Z</time>
      </trkpt>
      <trkpt lat="48.03908" lon="7.25922">
        <ele>651.25014</ele>
        <time>2018-05-04T13:59:14Z</time>
      </trkpt>
      <trkpt lat="48.03908" lon="7.25922">
        <ele>651.30577</ele>
        <time>2018-05-04T13:59:18Z</time>
      </trkpt>
      <trkpt lat="48.03909" lon="7.2592">
        <ele>651.40049</ele>
        <time>2018-05-04T13:59:19Z</time>
      </trkpt>
      <trkpt lat="48.03909" lon="7.25919">
        <ele>651.5333</ele>
        <time>2018-05-04T13:59:20Z</time>
      </trkpt>
      <trkpt lat="48.03913" lon="7.25916">
        <ele>652.08894</ele>
        <time>2018-05-04T13:59:23Z</time>
      </trkpt>
      <trkpt lat="48.03915" lon="7.25914">
        <ele>652.30291</ele>
        <time>2018-05-04T13:59:25Z</time>
      </trkpt>
      <trkpt lat="48.03915" lon="7.25913">
        <ele>652.53538</ele>
        <time>2018-05-04T13:59:26Z</time>
      </trkpt>
      <trkpt lat="48.03915" lon="7.25912">
        <ele>652.57692</ele>
        <time>2018-05-04T13:59:27Z</time>
      </trkpt>
      <trkpt lat="48.03916" lon="7.25911">
        <ele>652.5547</ele>
        <time>2018-05-04T13:59:28Z</time>
      </trkpt>
      <trkpt lat="48.03917" lon="7.25909">
        <ele>652.78802</ele>
        <time>2018-05-04T13:59:30Z</time>
      </trkpt>
      <trkpt lat="48.03918" lon="7.25908">
        <ele>653.19085</ele>
        <time>2018-05-04T13:59:31Z</time>
      </trkpt>
      <trkpt lat="48.03918" lon="7.25906">
        <ele>653.21215</ele>
        <time>2018-05-04T13:59:32Z</time>
      </trkpt>
      <trkpt lat="48.03923" lon="7.25901">
        <ele>653.94685</ele>
        <time>2018-05-04T13:59:37Z</time>
      </trkpt>
      <trkpt lat="48.03926" lon="7.25896">
        <ele>654.91194</ele>
        <time>2018-05-04T13:59:42Z</time>
      </trkpt>
      <trkpt lat="48.03927" lon="7.25894">
        <ele>655.12927</ele>
        <time>2018-05-04T13:59:44Z</time>
      </trkpt>
      <trkpt lat="48.03928" lon="7.25892">
        <ele>655.63585</ele>
        <time>2018-05-04T13:59:46Z</time>
      </trkpt>
      <trkpt lat="48.03928" lon="7.25891">
        <ele>655.60705</ele>
        <time>2018-05-04T13:59:47Z</time>
      </trkpt>
      <trkpt lat="48.03929" lon="7.2589">
        <ele>655.90495</ele>
        <time>2018-05-04T13:59:48Z</time>
      </trkpt>
      <trkpt lat="48.0393" lon="7.25889">
        <ele>656.18048</ele>
        <time>2018-05-04T13:59:49Z</time>
      </trkpt>
      <trkpt lat="48.0393" lon="7.25889">
        <ele>656.2221</ele>
        <time>2018-05-04T13:59:50Z</time>
      </trkpt>
      <trkpt lat="48.03932" lon="7.25886">
        <ele>657.00695</ele>
        <time>2018-05-04T13:59:53Z</time>
      </trkpt>
      <trkpt lat="48.03933" lon="7.25885">
        <ele>656.79866</ele>
        <time>2018-05-04T13:59:54Z</time>
      </trkpt>
      <trkpt lat="48.03934" lon="7.25884">
        <ele>657.20119</ele>
        <time>2018-05-04T13:59:55Z</time>
      </trkpt>
      <trkpt lat="48.03935" lon="7.25884">
        <ele>657.42838</ele>
        <time>2018-05-04T13:59:56Z</time>
      </trkpt>
      <trkpt lat="48.03936" lon="7.25883">
        <ele>657.57521</ele>
        <time>2018-05-04T13:59:57Z</time>
      </trkpt>
      <trkpt lat="48.03936" lon="7.25883">
        <ele>657.75654</ele>
        <time>2018-05-04T13:59:58Z</time>
      </trkpt>
      <trkpt lat="48.03937" lon="7.25882">
        <ele>658.02829</ele>
        <time>2018-05-04T13:59:59Z</time>
      </trkpt>
      <trkpt lat="48.03937" lon="7.25881">
        <ele>657.87282</ele>
        <time>2018-05-04T14:00:00Z</time>
      </trkpt>
      <trkpt lat="48.03938" lon="7.2588">
        <ele>658.23486</ele>
        <time>2018-05-04T14:00:01Z</time>
      </trkpt>
      <trkpt lat="48.03939" lon="7.25879">
        <ele>658.68368</ele>
        <time>2018-05-04T14:00:03Z</time>
      </trkpt>
      <trkpt lat="48.03939" lon="7.25878">
        <ele>658.81526</ele>
        <time>2018-05-04T14:00:04Z</time>
      </trkpt>
      <trkpt lat="48.03939" lon="7.25877">
        <ele>658.88455</ele>
        <time>2018-05-04T14:00:05Z</time>
      </trkpt>
      <trkpt lat="48.0394" lon="7.25878">
        <ele>658.87746</ele>
        <time>2018-05-04T14:00:07Z</time>
      </trkpt>
      <trkpt lat="48.0394" lon="7.25878">
        <ele>658.81548</ele>
        <time>2018-05-04T14:00:08Z</time>
      </trkpt>
      <trkpt lat="48.03941" lon="7.25878">
        <ele>659.39064</ele>
        <time>2018-05-04T14:00:09Z</time>
      </trkpt>
      <trkpt lat="48.03941" lon="7.25875">
        <ele>659.68283</ele>
        <time>2018-05-04T14:00:11Z</time>
      </trkpt>
      <trkpt lat="48.03942" lon="7.25874">
        <ele>660.14531</ele>
        <time>2018-05-04T14:00:13Z</time>
      </trkpt>
      <trkpt lat="48.03942" lon="7.25873">
        <ele>660.16858</ele>
        <time>2018-05-04T14:00:15Z</time>
      </trkpt>
      <trkpt lat="48.03941" lon="7.25872">
        <ele>660.3217</ele>
        <time>2018-05-04T14:00:16Z</time>
      </trkpt>
      <trkpt lat="48.03942" lon="7.25871">
        <ele>660.41637</ele>
        <time>2018-05-04T14:00:17Z</time>
      </trkpt>
      <trkpt lat="48.03943" lon="7.2587">
        <ele>660.36386</ele>
        <time>2018-05-04T14:00:20Z</time>
      </trkpt>
      <trkpt lat="48.03944" lon="7.25869">
        <ele>660.40414</ele>
        <time>2018-05-04T14:00:21Z</time>
      </trkpt>
      <trkpt lat="48.03945" lon="7.25868">
        <ele>660.68372</ele>
        <time>2018-05-04T14:00:22Z</time>
      </trkpt>
      <trkpt lat="48.03946" lon="7.25868">
        <ele>660.26298</ele>
        <time>2018-05-04T14:00:23Z</time>
      </trkpt>
      <trkpt lat="48.03947" lon="7.25867">
        <ele>660.48674</ele>
        <time>2018-05-04T14:00:24Z</time>
      </trkpt>
      <trkpt lat="48.03948" lon="7.25867">
        <ele>660.83436</ele>
        <time>2018-05-04T14:00:26Z</time>
      </trkpt>
      <trkpt lat="48.03948" lon="7.25865">
        <ele>660.79289</ele>
        <time>2018-05-04T14:00:27Z</time>
      </trkpt>
      <trkpt lat="48.03948" lon="7.25863">
        <ele>660.99771</ele>
        <time>2018-05-04T14:00:28Z</time>
      </trkpt>
      <trkpt lat="48.03948" lon="7.25862">
        <ele>661.38971</ele>
        <time>2018-05-04T14:00:29Z</time>
      </trkpt>
      <trkpt lat="48.03948" lon="7.25861">
        <ele>661.63084</ele>
        <time>2018-05-04T14:00:30Z</time>
      </trkpt>
      <trkpt lat="48.03948" lon="7.2586">
        <ele>661.69354</ele>
        <time>2018-05-04T14:00:31Z</time>
      </trkpt>
      <trkpt lat="48.03948" lon="7.25859">
        <ele>661.527</ele>
        <time>2018-05-04T14:00:33Z</time>
      </trkpt>
      <trkpt lat="48.03949" lon="7.25859">
        <ele>661.80035</ele>
        <time>2018-05-04T14:00:34Z</time>
      </trkpt>
      <trkpt lat="48.0395" lon="7.25859">
        <ele>661.84502</ele>
        <time>2018-05-04T14:00:36Z</time>
      </trkpt>
      <trkpt lat="48.0395" lon="7.2586">
        <ele>661.9137</ele>
        <time>2018-05-04T14:00:38Z</time>
      </trkpt>
      <trkpt lat="48.0395" lon="7.25859">
        <ele>662.00832</ele>
        <time>2018-05-04T14:00:41Z</time>
      </trkpt>
      <trkpt lat="48.0395" lon="7.2586">
        <ele>662.13793</ele>
        <time>2018-05-04T14:00:44Z</time>
      </trkpt>
      <trkpt lat="48.03949" lon="7.2586">
        <ele>661.95003</ele>
        <time>2018-05-04T14:00:45Z</time>
      </trkpt>
      <trkpt lat="48.03948" lon="7.2586">
        <ele>661.75654</ele>
        <time>2018-05-04T14:00:46Z</time>
      </trkpt>
      <trkpt lat="48.03949" lon="7.25861">
        <ele>661.54092</ele>
        <time>2018-05-04T14:00:51Z</time>
      </trkpt>
      <trkpt lat="48.03947" lon="7.25861">
        <ele>661.67282</ele>
        <time>2018-05-04T14:00:54Z</time>
      </trkpt>
      <trkpt lat="48.03946" lon="7.25861">
        <ele>661.69758</ele>
        <time>2018-05-04T14:00:55Z</time>
      </trkpt>
      <trkpt lat="48.03947" lon="7.25861">
        <ele>661.79603</ele>
        <time>2018-05-04T14:00:58Z</time>
      </trkpt>
      <trkpt lat="48.03947" lon="7.2586">
        <ele>661.4997</ele>
        <time>2018-05-04T14:01:10Z</time>
      </trkpt>
      <trkpt lat="48.03945" lon="7.25858">
        <ele>661.48335</ele>
        <time>2018-05-04T14:01:12Z</time>
      </trkpt>
      <trkpt lat="48.03942" lon="7.25856">
        <ele>661.51322</ele>
        <time>2018-05-04T14:01:14Z</time>
      </trkpt>
      <trkpt lat="48.03942" lon="7.25854">
        <ele>661.64842</ele>
        <time>2018-05-04T14:01:58Z</time>
      </trkpt>
      <trkpt lat="48.03942" lon="7.25853">
        <ele>661.93618</ele>
        <time>2018-05-04T14:01:59Z</time>
      </trkpt>
      <trkpt lat="48.03941" lon="7.25852">
        <ele>661.84658</ele>
        <time>2018-05-04T14:02:00Z</time>
      </trkpt>
      <trkpt lat="48.03941" lon="7.2585">
        <ele>662.53551</ele>
        <time>2018-05-04T14:02:04Z</time>
      </trkpt>
      <trkpt lat="48.03941" lon="7.25849">
        <ele>662.80274</ele>
        <time>2018-05-04T14:02:06Z</time>
      </trkpt>
      <trkpt lat="48.03942" lon="7.25848">
        <ele>662.93634</ele>
        <time>2018-05-04T14:02:08Z</time>
      </trkpt>
      <trkpt lat="48.03942" lon="7.25847">
        <ele>662.97719</ele>
        <time>2018-05-04T14:02:10Z</time>
      </trkpt>
      <trkpt lat="48.03943" lon="7.25846">
        <ele>663.41778</ele>
        <time>2018-05-04T14:02:12Z</time>
      </trkpt>
      <trkpt lat="48.03943" lon="7.25845">
        <ele>663.87199</ele>
        <time>2018-05-04T14:02:14Z</time>
      </trkpt>
      <trkpt lat="48.03943" lon="7.25845">
        <ele>664.05241</ele>
        <time>2018-05-04T14:02:15Z</time>
      </trkpt>
      <trkpt lat="48.03943" lon="7.25844">
        <ele>664.06041</ele>
        <time>2018-05-04T14:02:16Z</time>
      </trkpt>
      <trkpt lat="48.03943" lon="7.25843">
        <ele>664.05894</ele>
        <time>2018-05-04T14:02:17Z</time>
      </trkpt>
      <trkpt lat="48.03943" lon="7.25842">
        <ele>664.08505</ele>
        <time>2018-05-04T14:02:18Z</time>
      </trkpt>
      <trkpt lat="48.03941" lon="7.25841">
        <ele>664.57753</ele>
        <time>2018-05-04T14:02:21Z</time>
      </trkpt>
      <trkpt lat="48.03941" lon="7.2584">
        <ele>664.85089</ele>
        <time>2018-05-04T14:02:22Z</time>
      </trkpt>
      <trkpt lat="48.03941" lon="7.25839">
        <ele>665.46457</ele>
        <time>2018-05-04T14:02:24Z</time>
      </trkpt>
      <trkpt lat="48.03942" lon="7.25838">
        <ele>665.3225</ele>
        <time>2018-05-04T14:02:25Z</time>
      </trkpt>
      <trkpt lat="48.03942" lon="7.25838">
        <ele>665.52116</ele>
        <time>2018-05-04T14:02:26Z</time>
      </trkpt>
      <trkpt lat="48.03943" lon="7.25836">
        <ele>665.62526</ele>
        <time>2018-05-04T14:02:28Z</time>
      </trkpt>
      <trkpt lat="48.03943" lon="7.25835">
        <ele>665.75409</ele>
        <time>2018-05-04T14:02:29Z</time>
      </trkpt>
      <trkpt lat="48.03943" lon="7.25833">
        <ele>665.82039</ele>
        <time>2018-05-04T14:02:31Z</time>
      </trkpt>
      <trkpt lat="48.03943" lon="7.25831">
        <ele>666.41305</ele>
        <time>2018-05-04T14:02:34Z</time>
      </trkpt>
      <trkpt lat="48.03943" lon="7.2583">
        <ele>666.71194</ele>
        <time>2018-05-04T14:02:35Z</time>
      </trkpt>
      <trkpt lat="48.03942" lon="7.2583">
        <ele>666.53479</ele>
        <time>2018-05-04T14:02:36Z</time>
      </trkpt>
      <trkpt lat="48.03942" lon="7.25829">
        <ele>666.83065</ele>
        <time>2018-05-04T14:02:37Z</time>
      </trkpt>
      <trkpt lat="48.03942" lon="7.25828">
        <ele>666.80202</ele>
        <time>2018-05-04T14:02:38Z</time>
      </trkpt>
      <trkpt lat="48.03942" lon="7.25827">
        <ele>667.22004</ele>
        <time>2018-05-04T14:02:39Z</time>
      </trkpt>
      <trkpt lat="48.03942" lon="7.25826">
        <ele>667.12927</ele>
        <time>2018-05-04T14:02:40Z</time>
      </trkpt>
      <trkpt lat="48.03943" lon="7.25824">
        <ele>667.42155</ele>
        <time>2018-05-04T14:02:42Z</time>
      </trkpt>
      <trkpt lat="48.03943" lon="7.25823">
        <ele>667.63933</ele>
        <time>2018-05-04T14:02:43Z</time>
      </trkpt>
      <trkpt lat="48.03942" lon="7.25822">
        <ele>667.6136</ele>
        <time>2018-05-04T14:02:44Z</time>
      </trkpt>
      <trkpt lat="48.03942" lon="7.25821">
        <ele>667.87102</ele>
        <time>2018-05-04T14:02:45Z</time>
      </trkpt>
      <trkpt lat="48.03944" lon="7.25818">
        <ele>668.18726</ele>
        <time>2018-05-04T14:02:48Z</time>
      </trkpt>
      <trkpt lat="48.03944" lon="7.25815">
        <ele>668.63943</ele>
        <time>2018-05-04T14:02:51Z</time>
      </trkpt>
      <trkpt lat="48.03944" lon="7.25814">
        <ele>668.88069</ele>
        <time>2018-05-04T14:02:52Z</time>
      </trkpt>
      <trkpt lat="48.03945" lon="7.25812">
        <ele>669.28415</ele>
        <time>2018-05-04T14:02:54Z</time>
      </trkpt>
      <trkpt lat="48.03945" lon="7.25811">
        <ele>669.1905</ele>
        <time>2018-05-04T14:02:55Z</time>
      </trkpt>
      <trkpt lat="48.03945" lon="7.2581">
        <ele>669.45244</ele>
        <time>2018-05-04T14:02:56Z</time>
      </trkpt>
      <trkpt lat="48.03945" lon="7.25809">
        <ele>669.49286</ele>
        <time>2018-05-04T14:02:57Z</time>
      </trkpt>
      <trkpt lat="48.03945" lon="7.25809">
        <ele>669.89396</ele>
        <time>2018-05-04T14:02:58Z</time>
      </trkpt>
      <trkpt lat="48.03944" lon="7.25808">
        <ele>669.81949</ele>
        <time>2018-05-04T14:02:59Z</time>
      </trkpt>
      <trkpt lat="48.03944" lon="7.25807">
        <ele>670.16494</ele>
        <time>2018-05-04T14:03:00Z</time>
      </trkpt>
      <trkpt lat="48.03944" lon="7.25806">
        <ele>670.3237</ele>
        <time>2018-05-04T14:03:01Z</time>
      </trkpt>
      <trkpt lat="48.03944" lon="7.25805">
        <ele>669.99636</ele>
        <time>2018-05-04T14:03:02Z</time>
      </trkpt>
      <trkpt lat="48.03944" lon="7.25804">
        <ele>670.77523</ele>
        <time>2018-05-04T14:03:04Z</time>
      </trkpt>
      <trkpt lat="48.03944" lon="7.25803">
        <ele>670.86367</ele>
        <time>2018-05-04T14:03:05Z</time>
      </trkpt>
      <trkpt lat="48.03945" lon="7.25803">
        <ele>671.17617</ele>
        <time>2018-05-04T14:03:06Z</time>
      </trkpt>
      <trkpt lat="48.03945" lon="7.25802">
        <ele>671.11415</ele>
        <time>2018-05-04T14:03:07Z</time>
      </trkpt>
      <trkpt lat="48.03945" lon="7.25801">
        <ele>671.5763</ele>
        <time>2018-05-04T14:03:08Z</time>
      </trkpt>
      <trkpt lat="48.03945" lon="7.258">
        <ele>671.55536</ele>
        <time>2018-05-04T14:03:09Z</time>
      </trkpt>
      <trkpt lat="48.03945" lon="7.25799">
        <ele>671.51089</ele>
        <time>2018-05-04T14:03:10Z</time>
      </trkpt>
      <trkpt lat="48.03945" lon="7.25799">
        <ele>671.78886</ele>
        <time>2018-05-04T14:03:11Z</time>
      </trkpt>
      <trkpt lat="48.03943" lon="7.25797">
        <ele>672.34478</ele>
        <time>2018-05-04T14:03:13Z</time>
      </trkpt>
      <trkpt lat="48.03942" lon="7.25797">
        <ele>672.35024</ele>
        <time>2018-05-04T14:03:14Z</time>
      </trkpt>
      <trkpt lat="48.03941" lon="7.25796">
        <ele>672.19009</ele>
        <time>2018-05-04T14:03:15Z</time>
      </trkpt>
      <trkpt lat="48.0394" lon="7.25795">
        <ele>672.36249</ele>
        <time>2018-05-04T14:03:16Z</time>
      </trkpt>
      <trkpt lat="48.03939" lon="7.25793">
        <ele>672.36249</ele>
        <time>2018-05-04T14:03:17Z</time>
      </trkpt>
      <trkpt lat="48.03936" lon="7.2579">
        <ele>672.83119</ele>
        <time>2018-05-04T14:03:19Z</time>
      </trkpt>
      <trkpt lat="48.03935" lon="7.25789">
        <ele>673.15999</ele>
        <time>2018-05-04T14:03:20Z</time>
      </trkpt>
      <trkpt lat="48.03934" lon="7.25789">
        <ele>673.15467</ele>
        <time>2018-05-04T14:03:21Z</time>
      </trkpt>
      <trkpt lat="48.03934" lon="7.25788">
        <ele>673.29688</ele>
        <time>2018-05-04T14:03:22Z</time>
      </trkpt>
      <trkpt lat="48.03934" lon="7.25787">
        <ele>673.27488</ele>
        <time>2018-05-04T14:03:23Z</time>
      </trkpt>
      <trkpt lat="48.03936" lon="7.25785">
        <ele>673.84967</ele>
        <time>2018-05-04T14:03:25Z</time>
      </trkpt>
      <trkpt lat="48.03936" lon="7.25784">
        <ele>673.94931</ele>
        <time>2018-05-04T14:03:26Z</time>
      </trkpt>
      <trkpt lat="48.03936" lon="7.25783">
        <ele>674.15108</ele>
        <time>2018-05-04T14:03:27Z</time>
      </trkpt>
      <trkpt lat="48.03937" lon="7.25782">
        <ele>674.31802</ele>
        <time>2018-05-04T14:03:28Z</time>
      </trkpt>
      <trkpt lat="48.03937" lon="7.25782">
        <ele>674.79319</ele>
        <time>2018-05-04T14:03:29Z</time>
      </trkpt>
      <trkpt lat="48.03938" lon="7.25781">
        <ele>674.73714</ele>
        <time>2018-05-04T14:03:30Z</time>
      </trkpt>
      <trkpt lat="48.03938" lon="7.2578">
        <ele>674.5445</ele>
        <time>2018-05-04T14:03:31Z</time>
      </trkpt>
      <trkpt lat="48.03938" lon="7.25779">
        <ele>675.21362</ele>
        <time>2018-05-04T14:03:32Z</time>
      </trkpt>
      <trkpt lat="48.03938" lon="7.25778">
        <ele>675.26026</ele>
        <time>2018-05-04T14:03:33Z</time>
      </trkpt>
      <trkpt lat="48.03939" lon="7.25777">
        <ele>675.3889</ele>
        <time>2018-05-04T14:03:34Z</time>
      </trkpt>
      <trkpt lat="48.03938" lon="7.25775">
        <ele>675.65989</ele>
        <time>2018-05-04T14:03:36Z</time>
      </trkpt>
      <trkpt lat="48.03938" lon="7.25773">
        <ele>676.07962</ele>
        <time>2018-05-04T14:03:38Z</time>
      </trkpt>
      <trkpt lat="48.03937" lon="7.25772">
        <ele>676.21881</ele>
        <time>2018-05-04T14:03:39Z</time>
      </trkpt>
      <trkpt lat="48.03937" lon="7.25771">
        <ele>676.50156</ele>
        <time>2018-05-04T14:03:40Z</time>
      </trkpt>
      <trkpt lat="48.03938" lon="7.2577">
        <ele>676.78087</ele>
        <time>2018-05-04T14:03:41Z</time>
      </trkpt>
      <trkpt lat="48.03938" lon="7.25769">
        <ele>676.58245</ele>
        <time>2018-05-04T14:03:42Z</time>
      </trkpt>
      <trkpt lat="48.03938" lon="7.25767">
        <ele>676.81598</ele>
        <time>2018-05-04T14:03:43Z</time>
      </trkpt>
      <trkpt lat="48.03938" lon="7.25766">
        <ele>676.8384</ele>
        <time>2018-05-04T14:03:44Z</time>
      </trkpt>
      <trkpt lat="48.03938" lon="7.25765">
        <ele>677.34872</ele>
        <time>2018-05-04T14:03:45Z</time>
      </trkpt>
      <trkpt lat="48.03937" lon="7.25764">
        <ele>677.34315</ele>
        <time>2018-05-04T14:03:49Z</time>
      </trkpt>
      <trkpt lat="48.03937" lon="7.25763">
        <ele>677.81472</ele>
        <time>2018-05-04T14:03:51Z</time>
      </trkpt>
      <trkpt lat="48.03937" lon="7.25762">
        <ele>677.83518</ele>
        <time>2018-05-04T14:03:52Z</time>
      </trkpt>
      <trkpt lat="48.03936" lon="7.2576">
        <ele>678.02476</ele>
        <time>2018-05-04T14:03:53Z</time>
      </trkpt>
      <trkpt lat="48.03935" lon="7.25759">
        <ele>678.36573</ele>
        <time>2018-05-04T14:03:54Z</time>
      </trkpt>
      <trkpt lat="48.03935" lon="7.25759">
        <ele>678.44167</ele>
        <time>2018-05-04T14:03:55Z</time>
      </trkpt>
      <trkpt lat="48.03935" lon="7.25756">
        <ele>678.90596</ele>
        <time>2018-05-04T14:03:57Z</time>
      </trkpt>
      <trkpt lat="48.03935" lon="7.25755">
        <ele>678.51888</ele>
        <time>2018-05-04T14:03:58Z</time>
      </trkpt>
      <trkpt lat="48.03936" lon="7.25754">
        <ele>679.02521</ele>
        <time>2018-05-04T14:03:59Z</time>
      </trkpt>
      <trkpt lat="48.03936" lon="7.25752">
        <ele>679.52927</ele>
        <time>2018-05-04T14:04:00Z</time>
      </trkpt>
      <trkpt lat="48.03937" lon="7.2575">
        <ele>679.99021</ele>
        <time>2018-05-04T14:04:02Z</time>
      </trkpt>
      <trkpt lat="48.03937" lon="7.25749">
        <ele>680.12761</ele>
        <time>2018-05-04T14:04:03Z</time>
      </trkpt>
      <trkpt lat="48.03938" lon="7.25748">
        <ele>680.41509</ele>
        <time>2018-05-04T14:04:04Z</time>
      </trkpt>
      <trkpt lat="48.03938" lon="7.25746">
        <ele>680.52936</ele>
        <time>2018-05-04T14:04:05Z</time>
      </trkpt>
      <trkpt lat="48.03939" lon="7.25746">
        <ele>680.67227</ele>
        <time>2018-05-04T14:04:06Z</time>
      </trkpt>
      <trkpt lat="48.03938" lon="7.25742">
        <ele>680.7829</ele>
        <time>2018-05-04T14:04:14Z</time>
      </trkpt>
      <trkpt lat="48.03938" lon="7.2574">
        <ele>680.78433</ele>
        <time>2018-05-04T14:04:15Z</time>
      </trkpt>
      <trkpt lat="48.03938" lon="7.25739">
        <ele>681.08453</ele>
        <time>2018-05-04T14:04:16Z</time>
      </trkpt>
      <trkpt lat="48.03939" lon="7.25738">
        <ele>681.11076</ele>
        <time>2018-05-04T14:04:17Z</time>
      </trkpt>
      <trkpt lat="48.03939" lon="7.25736">
        <ele>681.33889</ele>
        <time>2018-05-04T14:04:18Z</time>
      </trkpt>
      <trkpt lat="48.03939" lon="7.25735">
        <ele>681.23273</ele>
        <time>2018-05-04T14:04:19Z</time>
      </trkpt>
      <trkpt lat="48.03939" lon="7.25734">
        <ele>682.05012</ele>
        <time>2018-05-04T14:04:20Z</time>
      </trkpt>
      <trkpt lat="48.03939" lon="7.25733">
        <ele>681.74825</ele>
        <time>2018-05-04T14:04:21Z</time>
      </trkpt>
      <trkpt lat="48.03938" lon="7.25731">
        <ele>682.05433</ele>
        <time>2018-05-04T14:04:23Z</time>
      </trkpt>
      <trkpt lat="48.03939" lon="7.2573">
        <ele>682.24326</ele>
        <time>2018-05-04T14:04:24Z</time>
      </trkpt>
      <trkpt lat="48.03939" lon="7.25729">
        <ele>682.19165</ele>
        <time>2018-05-04T14:04:25Z</time>
      </trkpt>
      <trkpt lat="48.03939" lon="7.25728">
        <ele>681.85167</ele>
        <time>2018-05-04T14:04:26Z</time>
      </trkpt>
      <trkpt lat="48.03939" lon="7.25728">
        <ele>682.5033</ele>
        <time>2018-05-04T14:04:29Z</time>
      </trkpt>
      <trkpt lat="48.03939" lon="7.25729">
        <ele>682.56819</ele>
        <time>2018-05-04T14:04:30Z</time>
      </trkpt>
      <trkpt lat="48.03939" lon="7.25731">
        <ele>682.32873</ele>
        <time>2018-05-04T14:04:31Z</time>
      </trkpt>
      <trkpt lat="48.0394" lon="7.25733">
        <ele>682.22779</ele>
        <time>2018-05-04T14:04:32Z</time>
      </trkpt>
      <trkpt lat="48.03941" lon="7.25735">
        <ele>681.84599</ele>
        <time>2018-05-04T14:04:33Z</time>
      </trkpt>
      <trkpt lat="48.03942" lon="7.25738">
        <ele>681.15116</ele>
        <time>2018-05-04T14:04:35Z</time>
      </trkpt>
      <trkpt lat="48.03942" lon="7.25743">
        <ele>680.65312</ele>
        <time>2018-05-04T14:04:37Z</time>
      </trkpt>
      <trkpt lat="48.03941" lon="7.25746">
        <ele>680.53088</ele>
        <time>2018-05-04T14:04:38Z</time>
      </trkpt>
      <trkpt lat="48.03941" lon="7.25747">
        <ele>680.2405</ele>
        <time>2018-05-04T14:04:39Z</time>
      </trkpt>
      <trkpt lat="48.03941" lon="7.25749">
        <ele>680.2405</ele>
        <time>2018-05-04T14:04:40Z</time>
      </trkpt>
      <trkpt lat="48.03941" lon="7.25752">
        <ele>679.44371</ele>
        <time>2018-05-04T14:04:42Z</time>
      </trkpt>
      <trkpt lat="48.03941" lon="7.25753">
        <ele>679.02231</ele>
        <time>2018-05-04T14:04:43Z</time>
      </trkpt>
      <trkpt lat="48.03941" lon="7.25754">
        <ele>678.47222</ele>
        <time>2018-05-04T14:04:44Z</time>
      </trkpt>
      <trkpt lat="48.0394" lon="7.25755">
        <ele>678.25292</ele>
        <time>2018-05-04T14:04:45Z</time>
      </trkpt>
      <trkpt lat="48.0394" lon="7.25756">
        <ele>677.69812</ele>
        <time>2018-05-04T14:04:47Z</time>
      </trkpt>
      <trkpt lat="48.03941" lon="7.25755">
        <ele>677.95655</ele>
        <time>2018-05-04T14:04:50Z</time>
      </trkpt>
      <trkpt lat="48.0394" lon="7.25754">
        <ele>678.37261</ele>
        <time>2018-05-04T14:04:51Z</time>
      </trkpt>
      <trkpt lat="48.0394" lon="7.25753">
        <ele>678.63426</ele>
        <time>2018-05-04T14:04:53Z</time>
      </trkpt>
      <trkpt lat="48.03939" lon="7.25752">
        <ele>678.60339</ele>
        <time>2018-05-04T14:04:54Z</time>
      </trkpt>
      <trkpt lat="48.03938" lon="7.25751">
        <ele>679.33877</ele>
        <time>2018-05-04T14:04:55Z</time>
      </trkpt>
      <trkpt lat="48.03938" lon="7.2575">
        <ele>679.21052</ele>
        <time>2018-05-04T14:04:56Z</time>
      </trkpt>
      <trkpt lat="48.03937" lon="7.25749">
        <ele>679.47721</ele>
        <time>2018-05-04T14:04:57Z</time>
      </trkpt>
      <trkpt lat="48.03936" lon="7.25747">
        <ele>680.04392</ele>
        <time>2018-05-04T14:04:59Z</time>
      </trkpt>
      <trkpt lat="48.03936" lon="7.25746">
        <ele>680.03056</ele>
        <time>2018-05-04T14:05:00Z</time>
      </trkpt>
      <trkpt lat="48.03936" lon="7.25741">
        <ele>680.73572</ele>
        <time>2018-05-04T14:05:05Z</time>
      </trkpt>
      <trkpt lat="48.03936" lon="7.2574">
        <ele>680.98813</ele>
        <time>2018-05-04T14:05:06Z</time>
      </trkpt>
      <trkpt lat="48.03935" lon="7.25738">
        <ele>681.13381</ele>
        <time>2018-05-04T14:05:08Z</time>
      </trkpt>
      <trkpt lat="48.03934" lon="7.25736">
        <ele>681.74434</ele>
        <time>2018-05-04T14:05:09Z</time>
      </trkpt>
      <trkpt lat="48.03934" lon="7.25735">
        <ele>681.73909</ele>
        <time>2018-05-04T14:05:10Z</time>
      </trkpt>
      <trkpt lat="48.03934" lon="7.25734">
        <ele>681.72945</ele>
        <time>2018-05-04T14:05:11Z</time>
      </trkpt>
      <trkpt lat="48.03934" lon="7.25732">
        <ele>682.0666</ele>
        <time>2018-05-04T14:05:12Z</time>
      </trkpt>
      <trkpt lat="48.03934" lon="7.25731">
        <ele>681.98642</ele>
        <time>2018-05-04T14:05:13Z</time>
      </trkpt>
      <trkpt lat="48.03936" lon="7.25728">
        <ele>682.23106</ele>
        <time>2018-05-04T14:05:16Z</time>
      </trkpt>
      <trkpt lat="48.03937" lon="7.25727">
        <ele>682.7232</ele>
        <time>2018-05-04T14:05:17Z</time>
      </trkpt>
      <trkpt lat="48.03937" lon="7.25723">
        <ele>683.08017</ele>
        <time>2018-05-04T14:05:20Z</time>
      </trkpt>
      <trkpt lat="48.03938" lon="7.25722">
        <ele>683.09493</ele>
        <time>2018-05-04T14:05:21Z</time>
      </trkpt>
      <trkpt lat="48.03938" lon="7.25721">
        <ele>683.26003</ele>
        <time>2018-05-04T14:05:22Z</time>
      </trkpt>
      <trkpt lat="48.03938" lon="7.2572">
        <ele>683.65766</ele>
        <time>2018-05-04T14:05:23Z</time>
      </trkpt>
      <trkpt lat="48.03938" lon="7.25719">
        <ele>683.48543</ele>
        <time>2018-05-04T14:05:24Z</time>
      </trkpt>
      <trkpt lat="48.03938" lon="7.25718">
        <ele>683.80921</ele>
        <time>2018-05-04T14:05:25Z</time>
      </trkpt>
      <trkpt lat="48.03938" lon="7.25716">
        <ele>683.84496</ele>
        <time>2018-05-04T14:05:27Z</time>
      </trkpt>
      <trkpt lat="48.03938" lon="7.25715">
        <ele>683.92798</ele>
        <time>2018-05-04T14:05:28Z</time>
      </trkpt>
      <trkpt lat="48.03938" lon="7.25713">
        <ele>684.23574</ele>
        <time>2018-05-04T14:05:30Z</time>
      </trkpt>
      <trkpt lat="48.03938" lon="7.25712">
        <ele>684.24658</ele>
        <time>2018-05-04T14:05:31Z</time>
      </trkpt>
      <trkpt lat="48.03937" lon="7.25711">
        <ele>684.71834</ele>
        <time>2018-05-04T14:05:33Z</time>
      </trkpt>
      <trkpt lat="48.03936" lon="7.25709">
        <ele>684.63272</ele>
        <time>2018-05-04T14:05:35Z</time>
      </trkpt>
      <trkpt lat="48.03934" lon="7.25707">
        <ele>685.57967</ele>
        <time>2018-05-04T14:05:40Z</time>
      </trkpt>
      <trkpt lat="48.03934" lon="7.25705">
        <ele>686.00087</ele>
        <time>2018-05-04T14:05:43Z</time>
      </trkpt>
      <trkpt lat="48.03935" lon="7.25704">
        <ele>685.96805</ele>
        <time>2018-05-04T14:05:44Z</time>
      </trkpt>
      <trkpt lat="48.03935" lon="7.25703">
        <ele>686.33495</ele>
        <time>2018-05-04T14:05:45Z</time>
      </trkpt>
      <trkpt lat="48.03935" lon="7.25702">
        <ele>686.41923</ele>
        <time>2018-05-04T14:05:46Z</time>
      </trkpt>
      <trkpt lat="48.03934" lon="7.25701">
        <ele>686.36091</ele>
        <time>2018-05-04T14:05:47Z</time>
      </trkpt>
      <trkpt lat="48.03931" lon="7.25699">
        <ele>686.48991</ele>
        <time>2018-05-04T14:05:50Z</time>
      </trkpt>
      <trkpt lat="48.0393" lon="7.25698">
        <ele>686.701</ele>
        <time>2018-05-04T14:05:51Z</time>
      </trkpt>
      <trkpt lat="48.0393" lon="7.25695">
        <ele>686.08077</ele>
        <time>2018-05-04T14:06:12Z</time>
      </trkpt>
      <trkpt lat="48.03929" lon="7.25694">
        <ele>686.37063</ele>
        <time>2018-05-04T14:06:13Z</time>
      </trkpt>
      <trkpt lat="48.03928" lon="7.25693">
        <ele>686.49029</ele>
        <time>2018-05-04T14:06:14Z</time>
      </trkpt>
      <trkpt lat="48.03926" lon="7.2569">
        <ele>686.68486</ele>
        <time>2018-05-04T14:06:17Z</time>
      </trkpt>
      <trkpt lat="48.03924" lon="7.2569">
        <ele>686.86339</ele>
        <time>2018-05-04T14:06:18Z</time>
      </trkpt>
      <trkpt lat="48.03922" lon="7.25689">
        <ele>686.94349</ele>
        <time>2018-05-04T14:06:19Z</time>
      </trkpt>
      <trkpt lat="48.03919" lon="7.25687">
        <ele>687.1171</ele>
        <time>2018-05-04T14:06:21Z</time>
      </trkpt>
      <trkpt lat="48.03918" lon="7.25687">
        <ele>687.10621</ele>
        <time>2018-05-04T14:06:22Z</time>
      </trkpt>
      <trkpt lat="48.03916" lon="7.25684">
        <ele>687.06608</ele>
        <time>2018-05-04T14:06:24Z</time>
      </trkpt>
      <trkpt lat="48.03915" lon="7.25683">
        <ele>687.24937</ele>
        <time>2018-05-04T14:06:25Z</time>
      </trkpt>
      <trkpt lat="48.03915" lon="7.25682">
        <ele>687.17196</ele>
        <time>2018-05-04T14:06:26Z</time>
      </trkpt>
      <trkpt lat="48.03912" lon="7.25678">
        <ele>687.44178</ele>
        <time>2018-05-04T14:06:29Z</time>
      </trkpt>
      <trkpt lat="48.03912" lon="7.25676">
        <ele>687.4821</ele>
        <time>2018-05-04T14:06:30Z</time>
      </trkpt>
      <trkpt lat="48.03912" lon="7.25674">
        <ele>687.4961</ele>
        <time>2018-05-04T14:06:31Z</time>
      </trkpt>
      <trkpt lat="48.03912" lon="7.25673">
        <ele>687.46783</ele>
        <time>2018-05-04T14:06:32Z</time>
      </trkpt>
      <trkpt lat="48.03912" lon="7.25672">
        <ele>687.72813</ele>
        <time>2018-05-04T14:06:33Z</time>
      </trkpt>
      <trkpt lat="48.03912" lon="7.25671">
        <ele>688.00562</ele>
        <time>2018-05-04T14:06:34Z</time>
      </trkpt>
      <trkpt lat="48.03911" lon="7.25667">
        <ele>688.26827</ele>
        <time>2018-05-04T14:06:36Z</time>
      </trkpt>
      <trkpt lat="48.03911" lon="7.25665">
        <ele>688.42384</ele>
        <time>2018-05-04T14:06:37Z</time>
      </trkpt>
      <trkpt lat="48.03911" lon="7.25663">
        <ele>688.48707</ele>
        <time>2018-05-04T14:06:38Z</time>
      </trkpt>
      <trkpt lat="48.03911" lon="7.25661">
        <ele>688.5545</ele>
        <time>2018-05-04T14:06:39Z</time>
      </trkpt>
      <trkpt lat="48.03912" lon="7.25657">
        <ele>689.29431</ele>
        <time>2018-05-04T14:06:42Z</time>
      </trkpt>
      <trkpt lat="48.03913" lon="7.25656">
        <ele>689.39863</ele>
        <time>2018-05-04T14:06:43Z</time>
      </trkpt>
      <trkpt lat="48.03914" lon="7.25654">
        <ele>689.57905</ele>
        <time>2018-05-04T14:06:45Z</time>
      </trkpt>
      <trkpt lat="48.03915" lon="7.25653">
        <ele>689.55947</ele>
        <time>2018-05-04T14:06:46Z</time>
      </trkpt>
      <trkpt lat="48.03915" lon="7.25652">
        <ele>689.41219</ele>
        <time>2018-05-04T14:06:47Z</time>
      </trkpt>
      <trkpt lat="48.03916" lon="7.2565">
        <ele>689.021</ele>
        <time>2018-05-04T14:06:49Z</time>
      </trkpt>
      <trkpt lat="48.03916" lon="7.25649">
        <ele>689.46509</ele>
        <time>2018-05-04T14:06:50Z</time>
      </trkpt>
      <trkpt lat="48.03916" lon="7.25648">
        <ele>689.3961</ele>
        <time>2018-05-04T14:06:51Z</time>
      </trkpt>
      <trkpt lat="48.03915" lon="7.25647">
        <ele>689.32399</ele>
        <time>2018-05-04T14:06:53Z</time>
      </trkpt>
      <trkpt lat="48.03915" lon="7.25647">
        <ele>689.26987</ele>
        <time>2018-05-04T14:06:55Z</time>
      </trkpt>
      <trkpt lat="48.03916" lon="7.25647">
        <ele>689.14219</ele>
        <time>2018-05-04T14:06:57Z</time>
      </trkpt>
      <trkpt lat="48.03916" lon="7.25647">
        <ele>689.13244</ele>
        <time>2018-05-04T14:06:58Z</time>
      </trkpt>
      <trkpt lat="48.03917" lon="7.25646">
        <ele>688.98667</ele>
        <time>2018-05-04T14:07:24Z</time>
      </trkpt>
      <trkpt lat="48.03917" lon="7.25647">
        <ele>689.12666</ele>
        <time>2018-05-04T14:07:26Z</time>
      </trkpt>
      <trkpt lat="48.03917" lon="7.25648">
        <ele>689.22234</ele>
        <time>2018-05-04T14:07:31Z</time>
      </trkpt>
      <trkpt lat="48.03918" lon="7.25648">
        <ele>689.40075</ele>
        <time>2018-05-04T14:07:36Z</time>
      </trkpt>
      <trkpt lat="48.03918" lon="7.25648">
        <ele>689.49703</ele>
        <time>2018-05-04T14:07:37Z</time>
      </trkpt>
      <trkpt lat="48.03919" lon="7.25648">
        <ele>689.41512</ele>
        <time>2018-05-04T14:07:38Z</time>
      </trkpt>
      <trkpt lat="48.0392" lon="7.25649">
        <ele>689.61339</ele>
        <time>2018-05-04T14:07:40Z</time>
      </trkpt>
      <trkpt lat="48.03921" lon="7.2565">
        <ele>689.7354</ele>
        <time>2018-05-04T14:07:41Z</time>
      </trkpt>
      <trkpt lat="48.03921" lon="7.25648">
        <ele>689.93156</ele>
        <time>2018-05-04T14:07:44Z</time>
      </trkpt>
      <trkpt lat="48.03921" lon="7.25646">
        <ele>690.08891</ele>
        <time>2018-05-04T14:07:45Z</time>
      </trkpt>
      <trkpt lat="48.0392" lon="7.25644">
        <ele>690.1388</ele>
        <time>2018-05-04T14:07:46Z</time>
      </trkpt>
      <trkpt lat="48.0392" lon="7.25643">
        <ele>690.086</ele>
        <time>2018-05-04T14:07:47Z</time>
      </trkpt>
      <trkpt lat="48.0392" lon="7.25645">
        <ele>689.97907</ele>
        <time>2018-05-04T14:07:51Z</time>
      </trkpt>
      <trkpt lat="48.0392" lon="7.25645">
        <ele>690.00651</ele>
        <time>2018-05-04T14:07:56Z</time>
      </trkpt>
      <trkpt lat="48.0392" lon="7.25647">
        <ele>689.99408</ele>
        <time>2018-05-04T14:07:57Z</time>
      </trkpt>
      <trkpt lat="48.0392" lon="7.2565">
        <ele>689.33636</ele>
        <time>2018-05-04T14:08:01Z</time>
      </trkpt>
      <trkpt lat="48.03918" lon="7.25653">
        <ele>689.24869</ele>
        <time>2018-05-04T14:08:03Z</time>
      </trkpt>
      <trkpt lat="48.03917" lon="7.25656">
        <ele>689.06096</ele>
        <time>2018-05-04T14:08:06Z</time>
      </trkpt>
      <trkpt lat="48.03916" lon="7.25657">
        <ele>689.01687</ele>
        <time>2018-05-04T14:08:07Z</time>
      </trkpt>
      <trkpt lat="48.03917" lon="7.25656">
        <ele>689.25403</ele>
        <time>2018-05-04T14:08:10Z</time>
      </trkpt>
      <trkpt lat="48.03918" lon="7.25655">
        <ele>689.33988</ele>
        <time>2018-05-04T14:08:11Z</time>
      </trkpt>
      <trkpt lat="48.0392" lon="7.25654">
        <ele>689.35125</ele>
        <time>2018-05-04T14:08:16Z</time>
      </trkpt>
      <trkpt lat="48.03921" lon="7.25654">
        <ele>689.54149</ele>
        <time>2018-05-04T14:08:18Z</time>
      </trkpt>
      <trkpt lat="48.03922" lon="7.25655">
        <ele>689.6124</ele>
        <time>2018-05-04T14:08:20Z</time>
      </trkpt>
      <trkpt lat="48.03921" lon="7.25655">
        <ele>689.71551</ele>
        <time>2018-05-04T14:08:22Z</time>
      </trkpt>
      <trkpt lat="48.0392" lon="7.25653">
        <ele>689.75068</ele>
        <time>2018-05-04T14:08:26Z</time>
      </trkpt>
      <trkpt lat="48.0392" lon="7.25653">
        <ele>689.61931</ele>
        <time>2018-05-04T14:08:29Z</time>
      </trkpt>
      <trkpt lat="48.03921" lon="7.25652">
        <ele>689.72192</ele>
        <time>2018-05-04T14:08:31Z</time>
      </trkpt>
      <trkpt lat="48.03921" lon="7.25653">
        <ele>689.67954</ele>
        <time>2018-05-04T14:08:33Z</time>
      </trkpt>
      <trkpt lat="48.03927" lon="7.25654">
        <ele>689.7405</ele>
        <time>2018-05-04T14:08:36Z</time>
      </trkpt>
      <trkpt lat="48.03929" lon="7.25654">
        <ele>689.44586</ele>
        <time>2018-05-04T14:08:37Z</time>
      </trkpt>
      <trkpt lat="48.03931" lon="7.25654">
        <ele>689.47139</ele>
        <time>2018-05-04T14:08:38Z</time>
      </trkpt>
      <trkpt lat="48.03935" lon="7.25654">
        <ele>689.67252</ele>
        <time>2018-05-04T14:08:40Z</time>
      </trkpt>
      <trkpt lat="48.0394" lon="7.25655">
        <ele>689.48349</ele>
        <time>2018-05-04T14:08:43Z</time>
      </trkpt>
      <trkpt lat="48.03946" lon="7.25659">
        <ele>689.55344</ele>
        <time>2018-05-04T14:08:47Z</time>
      </trkpt>
      <trkpt lat="48.03948" lon="7.2566">
        <ele>689.50908</ele>
        <time>2018-05-04T14:08:48Z</time>
      </trkpt>
      <trkpt lat="48.03949" lon="7.25661">
        <ele>689.33753</ele>
        <time>2018-05-04T14:08:49Z</time>
      </trkpt>
      <trkpt lat="48.03954" lon="7.25667">
        <ele>689.32092</ele>
        <time>2018-05-04T14:08:53Z</time>
      </trkpt>
      <trkpt lat="48.03961" lon="7.25679">
        <ele>689.11548</ele>
        <time>2018-05-04T14:09:00Z</time>
      </trkpt>
      <trkpt lat="48.03962" lon="7.2568">
        <ele>688.94726</ele>
        <time>2018-05-04T14:09:02Z</time>
      </trkpt>
      <trkpt lat="48.03964" lon="7.25681">
        <ele>688.94786</ele>
        <time>2018-05-04T14:09:03Z</time>
      </trkpt>
      <trkpt lat="48.03965" lon="7.25683">
        <ele>689.10532</ele>
        <time>2018-05-04T14:09:04Z</time>
      </trkpt>
      <trkpt lat="48.03965" lon="7.25684">
        <ele>688.98399</ele>
        <time>2018-05-04T14:09:05Z</time>
      </trkpt>
      <trkpt lat="48.03966" lon="7.25686">
        <ele>688.8308</ele>
        <time>2018-05-04T14:09:06Z</time>
      </trkpt>
      <trkpt lat="48.03966" lon="7.2569">
        <ele>688.77523</ele>
        <time>2018-05-04T14:09:08Z</time>
      </trkpt>
      <trkpt lat="48.03966" lon="7.25693">
        <ele>688.84818</ele>
        <time>2018-05-04T14:09:09Z</time>
      </trkpt>
      <trkpt lat="48.03966" lon="7.25695">
        <ele>688.70551</ele>
        <time>2018-05-04T14:09:10Z</time>
      </trkpt>
      <trkpt lat="48.03966" lon="7.25696">
        <ele>688.63788</ele>
        <time>2018-05-04T14:09:11Z</time>
      </trkpt>
      <trkpt lat="48.03967" lon="7.257">
        <ele>688.50622</ele>
        <time>2018-05-04T14:09:13Z</time>
      </trkpt>
      <trkpt lat="48.03968" lon="7.25702">
        <ele>688.63227</ele>
        <time>2018-05-04T14:09:14Z</time>
      </trkpt>
      <trkpt lat="48.0397" lon="7.25703">
        <ele>688.58439</ele>
        <time>2018-05-04T14:09:15Z</time>
      </trkpt>
      <trkpt lat="48.03971" lon="7.25704">
        <ele>688.40053</ele>
        <time>2018-05-04T14:09:16Z</time>
      </trkpt>
      <trkpt lat="48.03975" lon="7.25707">
        <ele>688.38793</ele>
        <time>2018-05-04T14:09:19Z</time>
      </trkpt>
      <trkpt lat="48.03977" lon="7.25707">
        <ele>687.71136</ele>
        <time>2018-05-04T14:09:20Z</time>
      </trkpt>
      <trkpt lat="48.03981" lon="7.25708">
        <ele>687.83168</ele>
        <time>2018-05-04T14:09:23Z</time>
      </trkpt>
      <trkpt lat="48.03984" lon="7.25707">
        <ele>687.35661</ele>
        <time>2018-05-04T14:09:25Z</time>
      </trkpt>
      <trkpt lat="48.03987" lon="7.25705">
        <ele>686.98505</ele>
        <time>2018-05-04T14:09:27Z</time>
      </trkpt>
      <trkpt lat="48.03989" lon="7.25704">
        <ele>686.61108</ele>
        <time>2018-05-04T14:09:28Z</time>
      </trkpt>
      <trkpt lat="48.0399" lon="7.25703">
        <ele>686.74507</ele>
        <time>2018-05-04T14:09:29Z</time>
      </trkpt>
      <trkpt lat="48.03992" lon="7.25701">
        <ele>686.65136</ele>
        <time>2018-05-04T14:09:30Z</time>
      </trkpt>
      <trkpt lat="48.03993" lon="7.25699">
        <ele>686.53345</ele>
        <time>2018-05-04T14:09:31Z</time>
      </trkpt>
      <trkpt lat="48.03995" lon="7.25694">
        <ele>686.15387</ele>
        <time>2018-05-04T14:09:33Z</time>
      </trkpt>
      <trkpt lat="48.03996" lon="7.2569">
        <ele>685.85698</ele>
        <time>2018-05-04T14:09:35Z</time>
      </trkpt>
      <trkpt lat="48.03998" lon="7.25686">
        <ele>685.57601</ele>
        <time>2018-05-04T14:09:37Z</time>
      </trkpt>
      <trkpt lat="48.03999" lon="7.25684">
        <ele>685.56313</ele>
        <time>2018-05-04T14:09:38Z</time>
      </trkpt>
      <trkpt lat="48.03999" lon="7.2568">
        <ele>685.21139</ele>
        <time>2018-05-04T14:09:40Z</time>
      </trkpt>
      <trkpt lat="48.03998" lon="7.25675">
        <ele>685.12035</ele>
        <time>2018-05-04T14:09:42Z</time>
      </trkpt>
      <trkpt lat="48.03998" lon="7.25671">
        <ele>684.93023</ele>
        <time>2018-05-04T14:09:44Z</time>
      </trkpt>
      <trkpt lat="48.03998" lon="7.25669">
        <ele>684.53762</ele>
        <time>2018-05-04T14:09:45Z</time>
      </trkpt>
      <trkpt lat="48.03998" lon="7.25667">
        <ele>684.72216</ele>
        <time>2018-05-04T14:09:46Z</time>
      </trkpt>
      <trkpt lat="48.03998" lon="7.25664">
        <ele>684.68107</ele>
        <time>2018-05-04T14:09:48Z</time>
      </trkpt>
      <trkpt lat="48.03997" lon="7.25659">
        <ele>684.412</ele>
        <time>2018-05-04T14:09:50Z</time>
      </trkpt>
      <trkpt lat="48.03996" lon="7.25657">
        <ele>683.98902</ele>
        <time>2018-05-04T14:09:51Z</time>
      </trkpt>
      <trkpt lat="48.03996" lon="7.25655">
        <ele>684.05519</ele>
        <time>2018-05-04T14:09:52Z</time>
      </trkpt>
      <trkpt lat="48.03995" lon="7.25653">
        <ele>684.07589</ele>
        <time>2018-05-04T14:09:53Z</time>
      </trkpt>
      <trkpt lat="48.03995" lon="7.25651">
        <ele>683.98779</ele>
        <time>2018-05-04T14:09:54Z</time>
      </trkpt>
      <trkpt lat="48.03995" lon="7.25648">
        <ele>683.58605</ele>
        <time>2018-05-04T14:09:55Z</time>
      </trkpt>
      <trkpt lat="48.03995" lon="7.25646">
        <ele>683.53035</ele>
        <time>2018-05-04T14:09:56Z</time>
      </trkpt>
      <trkpt lat="48.03994" lon="7.25645">
        <ele>683.28584</ele>
        <time>2018-05-04T14:09:57Z</time>
      </trkpt>
      <trkpt lat="48.03994" lon="7.25643">
        <ele>683.21598</ele>
        <time>2018-05-04T14:09:58Z</time>
      </trkpt>
      <trkpt lat="48.03994" lon="7.25642">
        <ele>683.37728</ele>
        <time>2018-05-04T14:09:59Z</time>
      </trkpt>
      <trkpt lat="48.03993" lon="7.2564">
        <ele>682.93085</ele>
        <time>2018-05-04T14:10:00Z</time>
      </trkpt>
      <trkpt lat="48.03992" lon="7.25639">
        <ele>683.36895</ele>
        <time>2018-05-04T14:10:01Z</time>
      </trkpt>
      <trkpt lat="48.03991" lon="7.25637">
        <ele>683.16132</ele>
        <time>2018-05-04T14:10:02Z</time>
      </trkpt>
      <trkpt lat="48.03992" lon="7.25632">
        <ele>683.09981</ele>
        <time>2018-05-04T14:10:04Z</time>
      </trkpt>
      <trkpt lat="48.03993" lon="7.25629">
        <ele>682.90241</ele>
        <time>2018-05-04T14:10:05Z</time>
      </trkpt>
      <trkpt lat="48.03994" lon="7.25624">
        <ele>682.63324</ele>
        <time>2018-05-04T14:10:07Z</time>
      </trkpt>
      <trkpt lat="48.03995" lon="7.25618">
        <ele>682.25344</ele>
        <time>2018-05-04T14:10:09Z</time>
      </trkpt>
      <trkpt lat="48.03996" lon="7.25616">
        <ele>682.45093</ele>
        <time>2018-05-04T14:10:10Z</time>
      </trkpt>
      <trkpt lat="48.03997" lon="7.25608">
        <ele>682.07695</ele>
        <time>2018-05-04T14:10:13Z</time>
      </trkpt>
      <trkpt lat="48.03998" lon="7.25604">
        <ele>681.81952</ele>
        <time>2018-05-04T14:10:15Z</time>
      </trkpt>
      <trkpt lat="48.04" lon="7.256">
        <ele>681.67665</ele>
        <time>2018-05-04T14:10:17Z</time>
      </trkpt>
      <trkpt lat="48.04" lon="7.25598">
        <ele>681.86533</ele>
        <time>2018-05-04T14:10:18Z</time>
      </trkpt>
      <trkpt lat="48.04" lon="7.25596">
        <ele>681.69208</ele>
        <time>2018-05-04T14:10:19Z</time>
      </trkpt>
      <trkpt lat="48.04" lon="7.25594">
        <ele>681.763</ele>
        <time>2018-05-04T14:10:20Z</time>
      </trkpt>
      <trkpt lat="48.03999" lon="7.25592">
        <ele>681.46059</ele>
        <time>2018-05-04T14:10:21Z</time>
      </trkpt>
      <trkpt lat="48.03999" lon="7.25589">
        <ele>681.50033</ele>
        <time>2018-05-04T14:10:22Z</time>
      </trkpt>
      <trkpt lat="48.03998" lon="7.25586">
        <ele>681.279</ele>
        <time>2018-05-04T14:10:24Z</time>
      </trkpt>
      <trkpt lat="48.03998" lon="7.25584">
        <ele>680.85048</ele>
        <time>2018-05-04T14:10:25Z</time>
      </trkpt>
      <trkpt lat="48.03998" lon="7.2558">
        <ele>680.79502</ele>
        <time>2018-05-04T14:10:26Z</time>
      </trkpt>
      <trkpt lat="48.03996" lon="7.25569">
        <ele>680.46586</ele>
        <time>2018-05-04T14:10:30Z</time>
      </trkpt>
      <trkpt lat="48.03994" lon="7.25567">
        <ele>680.34494</ele>
        <time>2018-05-04T14:10:31Z</time>
      </trkpt>
      <trkpt lat="48.03993" lon="7.25564">
        <ele>680.48044</ele>
        <time>2018-05-04T14:10:32Z</time>
      </trkpt>
      <trkpt lat="48.03992" lon="7.25562">
        <ele>680.29103</ele>
        <time>2018-05-04T14:10:33Z</time>
      </trkpt>
      <trkpt lat="48.03992" lon="7.2556">
        <ele>680.29656</ele>
        <time>2018-05-04T14:10:34Z</time>
      </trkpt>
      <trkpt lat="48.03992" lon="7.25557">
        <ele>680.38313</ele>
        <time>2018-05-04T14:10:35Z</time>
      </trkpt>
      <trkpt lat="48.03992" lon="7.25554">
        <ele>680.0465</ele>
        <time>2018-05-04T14:10:36Z</time>
      </trkpt>
      <trkpt lat="48.03994" lon="7.2555">
        <ele>679.90718</ele>
        <time>2018-05-04T14:10:38Z</time>
      </trkpt>
      <trkpt lat="48.03994" lon="7.25547">
        <ele>679.90024</ele>
        <time>2018-05-04T14:10:39Z</time>
      </trkpt>
      <trkpt lat="48.03993" lon="7.25545">
        <ele>679.6736</ele>
        <time>2018-05-04T14:10:40Z</time>
      </trkpt>
      <trkpt lat="48.03992" lon="7.25543">
        <ele>679.46944</ele>
        <time>2018-05-04T14:10:41Z</time>
      </trkpt>
      <trkpt lat="48.03993" lon="7.25542">
        <ele>679.47783</ele>
        <time>2018-05-04T14:10:42Z</time>
      </trkpt>
      <trkpt lat="48.03993" lon="7.25541">
        <ele>679.45613</ele>
        <time>2018-05-04T14:10:43Z</time>
      </trkpt>
      <trkpt lat="48.03995" lon="7.2554">
        <ele>679.12931</ele>
        <time>2018-05-04T14:10:45Z</time>
      </trkpt>
      <trkpt lat="48.03998" lon="7.25537">
        <ele>678.61293</ele>
        <time>2018-05-04T14:10:47Z</time>
      </trkpt>
      <trkpt lat="48.03999" lon="7.25535">
        <ele>678.34925</ele>
        <time>2018-05-04T14:10:48Z</time>
      </trkpt>
      <trkpt lat="48.04" lon="7.25533">
        <ele>678.51483</ele>
        <time>2018-05-04T14:10:49Z</time>
      </trkpt>
      <trkpt lat="48.04" lon="7.25531">
        <ele>678.19493</ele>
        <time>2018-05-04T14:10:50Z</time>
      </trkpt>
      <trkpt lat="48.04" lon="7.25529">
        <ele>678.14974</ele>
        <time>2018-05-04T14:10:51Z</time>
      </trkpt>
      <trkpt lat="48.04001" lon="7.25528">
        <ele>678.08213</ele>
        <time>2018-05-04T14:10:52Z</time>
      </trkpt>
      <trkpt lat="48.04002" lon="7.25527">
        <ele>677.80443</ele>
        <time>2018-05-04T14:10:53Z</time>
      </trkpt>
      <trkpt lat="48.04002" lon="7.25527">
        <ele>677.85816</ele>
        <time>2018-05-04T14:10:54Z</time>
      </trkpt>
      <trkpt lat="48.04003" lon="7.25526">
        <ele>677.41332</ele>
        <time>2018-05-04T14:10:55Z</time>
      </trkpt>
      <trkpt lat="48.04003" lon="7.25525">
        <ele>677.46193</ele>
        <time>2018-05-04T14:10:56Z</time>
      </trkpt>
      <trkpt lat="48.04006" lon="7.25524">
        <ele>677.19453</ele>
        <time>2018-05-04T14:10:57Z</time>
      </trkpt>
      <trkpt lat="48.04009" lon="7.25523">
        <ele>676.82327</ele>
        <time>2018-05-04T14:10:58Z</time>
      </trkpt>
      <trkpt lat="48.0401" lon="7.25523">
        <ele>676.71609</ele>
        <time>2018-05-04T14:10:59Z</time>
      </trkpt>
      <trkpt lat="48.04011" lon="7.25522">
        <ele>676.57159</ele>
        <time>2018-05-04T14:11:00Z</time>
      </trkpt>
      <trkpt lat="48.04014" lon="7.25522">
        <ele>676.42778</ele>
        <time>2018-05-04T14:11:01Z</time>
      </trkpt>
      <trkpt lat="48.04018" lon="7.25522">
        <ele>676.25292</ele>
        <time>2018-05-04T14:11:03Z</time>
      </trkpt>
      <trkpt lat="48.04023" lon="7.25523">
        <ele>675.91745</ele>
        <time>2018-05-04T14:11:05Z</time>
      </trkpt>
      <trkpt lat="48.04028" lon="7.25523">
        <ele>675.59484</ele>
        <time>2018-05-04T14:11:08Z</time>
      </trkpt>
      <trkpt lat="48.04029" lon="7.25524">
        <ele>675.46595</ele>
        <time>2018-05-04T14:11:09Z</time>
      </trkpt>
      <trkpt lat="48.04031" lon="7.25524">
        <ele>675.31167</ele>
        <time>2018-05-04T14:11:10Z</time>
      </trkpt>
      <trkpt lat="48.04032" lon="7.25523">
        <ele>675.14988</ele>
        <time>2018-05-04T14:11:11Z</time>
      </trkpt>
      <trkpt lat="48.04034" lon="7.25522">
        <ele>675.16992</ele>
        <time>2018-05-04T14:11:12Z</time>
      </trkpt>
      <trkpt lat="48.04035" lon="7.25521">
        <ele>674.97249</ele>
        <time>2018-05-04T14:11:13Z</time>
      </trkpt>
      <trkpt lat="48.04037" lon="7.25522">
        <ele>674.48617</ele>
        <time>2018-05-04T14:11:14Z</time>
      </trkpt>
      <trkpt lat="48.04038" lon="7.25522">
        <ele>674.59735</ele>
        <time>2018-05-04T14:11:15Z</time>
      </trkpt>
      <trkpt lat="48.04039" lon="7.25523">
        <ele>674.62337</ele>
        <time>2018-05-04T14:11:16Z</time>
      </trkpt>
      <trkpt lat="48.0404" lon="7.25525">
        <ele>674.40584</ele>
        <time>2018-05-04T14:11:17Z</time>
      </trkpt>
      <trkpt lat="48.04041" lon="7.25527">
        <ele>674.14645</ele>
        <time>2018-05-04T14:11:18Z</time>
      </trkpt>
      <trkpt lat="48.04045" lon="7.2553">
        <ele>673.80196</ele>
        <time>2018-05-04T14:11:20Z</time>
      </trkpt>
      <trkpt lat="48.0405" lon="7.25532">
        <ele>673.91073</ele>
        <time>2018-05-04T14:11:22Z</time>
      </trkpt>
      <trkpt lat="48.04053" lon="7.25535">
        <ele>673.73279</ele>
        <time>2018-05-04T14:11:24Z</time>
      </trkpt>
      <trkpt lat="48.04054" lon="7.25536">
        <ele>673.09124</ele>
        <time>2018-05-04T14:11:25Z</time>
      </trkpt>
      <trkpt lat="48.04055" lon="7.25536">
        <ele>673.08559</ele>
        <time>2018-05-04T14:11:26Z</time>
      </trkpt>
      <trkpt lat="48.04058" lon="7.25538">
        <ele>672.88414</ele>
        <time>2018-05-04T14:11:28Z</time>
      </trkpt>
      <trkpt lat="48.04064" lon="7.2554">
        <ele>672.42442</ele>
        <time>2018-05-04T14:11:31Z</time>
      </trkpt>
      <trkpt lat="48.04067" lon="7.2554">
        <ele>672.32953</ele>
        <time>2018-05-04T14:11:32Z</time>
      </trkpt>
      <trkpt lat="48.04069" lon="7.2554">
        <ele>672.0766</ele>
        <time>2018-05-04T14:11:33Z</time>
      </trkpt>
      <trkpt lat="48.04072" lon="7.2554">
        <ele>671.98411</ele>
        <time>2018-05-04T14:11:34Z</time>
      </trkpt>
      <trkpt lat="48.04076" lon="7.25538">
        <ele>671.71534</ele>
        <time>2018-05-04T14:11:36Z</time>
      </trkpt>
      <trkpt lat="48.04077" lon="7.25538">
        <ele>671.56282</ele>
        <time>2018-05-04T14:11:37Z</time>
      </trkpt>
      <trkpt lat="48.04079" lon="7.25537">
        <ele>671.15461</ele>
        <time>2018-05-04T14:11:38Z</time>
      </trkpt>
      <trkpt lat="48.0408" lon="7.25537">
        <ele>671.12426</ele>
        <time>2018-05-04T14:11:39Z</time>
      </trkpt>
      <trkpt lat="48.04084" lon="7.25538">
        <ele>671.12878</ele>
        <time>2018-05-04T14:11:43Z</time>
      </trkpt>
      <trkpt lat="48.04084" lon="7.25539">
        <ele>671.05587</ele>
        <time>2018-05-04T14:11:44Z</time>
      </trkpt>
      <trkpt lat="48.04085" lon="7.2554">
        <ele>671.18245</ele>
        <time>2018-05-04T14:11:45Z</time>
      </trkpt>
      <trkpt lat="48.04087" lon="7.25542">
        <ele>671.02922</ele>
        <time>2018-05-04T14:11:49Z</time>
      </trkpt>
      <trkpt lat="48.04087" lon="7.25544">
        <ele>670.92786</ele>
        <time>2018-05-04T14:12:12Z</time>
      </trkpt>
      <trkpt lat="48.04088" lon="7.25544">
        <ele>671.02006</ele>
        <time>2018-05-04T14:12:14Z</time>
      </trkpt>
      <trkpt lat="48.04088" lon="7.25543">
        <ele>670.89185</ele>
        <time>2018-05-04T14:12:15Z</time>
      </trkpt>
      <trkpt lat="48.04088" lon="7.25542">
        <ele>670.81697</ele>
        <time>2018-05-04T14:12:16Z</time>
      </trkpt>
      <trkpt lat="48.0409" lon="7.2554">
        <ele>670.38866</ele>
        <time>2018-05-04T14:12:19Z</time>
      </trkpt>
      <trkpt lat="48.0409" lon="7.25539">
        <ele>670.43391</ele>
        <time>2018-05-04T14:12:20Z</time>
      </trkpt>
      <trkpt lat="48.0409" lon="7.25537">
        <ele>670.00628</ele>
        <time>2018-05-04T14:12:22Z</time>
      </trkpt>
      <trkpt lat="48.04091" lon="7.25536">
        <ele>670.07846</ele>
        <time>2018-05-04T14:12:23Z</time>
      </trkpt>
      <trkpt lat="48.04091" lon="7.25535">
        <ele>669.41335</ele>
        <time>2018-05-04T14:12:24Z</time>
      </trkpt>
      <trkpt lat="48.04092" lon="7.25535">
        <ele>669.6088</ele>
        <time>2018-05-04T14:12:25Z</time>
      </trkpt>
      <trkpt lat="48.04093" lon="7.25534">
        <ele>669.25147</ele>
        <time>2018-05-04T14:12:26Z</time>
      </trkpt>
      <trkpt lat="48.04095" lon="7.25535">
        <ele>668.9841</ele>
        <time>2018-05-04T14:12:28Z</time>
      </trkpt>
      <trkpt lat="48.04096" lon="7.25534">
        <ele>668.92943</ele>
        <time>2018-05-04T14:12:29Z</time>
      </trkpt>
      <trkpt lat="48.04096" lon="7.25534">
        <ele>668.64053</ele>
        <time>2018-05-04T14:12:30Z</time>
      </trkpt>
      <trkpt lat="48.04097" lon="7.25534">
        <ele>668.16693</ele>
        <time>2018-05-04T14:12:31Z</time>
      </trkpt>
      <trkpt lat="48.04098" lon="7.25533">
        <ele>668.02969</ele>
        <time>2018-05-04T14:12:32Z</time>
      </trkpt>
      <trkpt lat="48.04099" lon="7.25533">
        <ele>667.95835</ele>
        <time>2018-05-04T14:12:33Z</time>
      </trkpt>
      <trkpt lat="48.04101" lon="7.25533">
        <ele>667.84092</ele>
        <time>2018-05-04T14:12:34Z</time>
      </trkpt>
      <trkpt lat="48.0411" lon="7.25528">
        <ele>667.33836</ele>
        <time>2018-05-04T14:12:38Z</time>
      </trkpt>
      <trkpt lat="48.04112" lon="7.25528">
        <ele>667.30545</ele>
        <time>2018-05-04T14:12:39Z</time>
      </trkpt>
      <trkpt lat="48.04114" lon="7.25527">
        <ele>667.24635</ele>
        <time>2018-05-04T14:12:40Z</time>
      </trkpt>
      <trkpt lat="48.04115" lon="7.25527">
        <ele>667.00285</ele>
        <time>2018-05-04T14:12:41Z</time>
      </trkpt>
      <trkpt lat="48.04116" lon="7.25527">
        <ele>667.16448</ele>
        <time>2018-05-04T14:12:42Z</time>
      </trkpt>
      <trkpt lat="48.04119" lon="7.25525">
        <ele>666.58704</ele>
        <time>2018-05-04T14:12:45Z</time>
      </trkpt>
      <trkpt lat="48.04119" lon="7.25525">
        <ele>666.4875</ele>
        <time>2018-05-04T14:12:46Z</time>
      </trkpt>
      <trkpt lat="48.0412" lon="7.25524">
        <ele>666.34655</ele>
        <time>2018-05-04T14:12:47Z</time>
      </trkpt>
      <trkpt lat="48.04122" lon="7.25522">
        <ele>666.42873</ele>
        <time>2018-05-04T14:12:48Z</time>
      </trkpt>
      <trkpt lat="48.04124" lon="7.25521">
        <ele>665.88032</ele>
        <time>2018-05-04T14:12:49Z</time>
      </trkpt>
      <trkpt lat="48.04125" lon="7.2552">
        <ele>666.32065</ele>
        <time>2018-05-04T14:12:50Z</time>
      </trkpt>
      <trkpt lat="48.04127" lon="7.25521">
        <ele>666.00168</ele>
        <time>2018-05-04T14:12:51Z</time>
      </trkpt>
      <trkpt lat="48.04129" lon="7.25523">
        <ele>666.14661</ele>
        <time>2018-05-04T14:12:52Z</time>
      </trkpt>
      <trkpt lat="48.04131" lon="7.25525">
        <ele>666.34611</ele>
        <time>2018-05-04T14:12:53Z</time>
      </trkpt>
      <trkpt lat="48.04132" lon="7.25527">
        <ele>666.27214</ele>
        <time>2018-05-04T14:12:54Z</time>
      </trkpt>
      <trkpt lat="48.04133" lon="7.25529">
        <ele>666.10766</ele>
        <time>2018-05-04T14:12:55Z</time>
      </trkpt>
      <trkpt lat="48.04134" lon="7.2553">
        <ele>665.9673</ele>
        <time>2018-05-04T14:12:56Z</time>
      </trkpt>
      <trkpt lat="48.04134" lon="7.2553">
        <ele>665.94576</ele>
        <time>2018-05-04T14:12:57Z</time>
      </trkpt>
      <trkpt lat="48.04134" lon="7.25528">
        <ele>665.83794</ele>
        <time>2018-05-04T14:12:58Z</time>
      </trkpt>
      <trkpt lat="48.04134" lon="7.25526">
        <ele>665.87452</ele>
        <time>2018-05-04T14:12:59Z</time>
      </trkpt>
      <trkpt lat="48.04133" lon="7.25524">
        <ele>665.96654</ele>
        <time>2018-05-04T14:13:00Z</time>
      </trkpt>
      <trkpt lat="48.04133" lon="7.25523">
        <ele>665.91436</ele>
        <time>2018-05-04T14:13:01Z</time>
      </trkpt>
      <trkpt lat="48.04134" lon="7.25521">
        <ele>665.78293</ele>
        <time>2018-05-04T14:13:02Z</time>
      </trkpt>
      <trkpt lat="48.04135" lon="7.25519">
        <ele>665.81087</ele>
        <time>2018-05-04T14:13:03Z</time>
      </trkpt>
      <trkpt lat="48.04136" lon="7.25517">
        <ele>665.52803</ele>
        <time>2018-05-04T14:13:04Z</time>
      </trkpt>
      <trkpt lat="48.04135" lon="7.25516">
        <ele>665.47957</ele>
        <time>2018-05-04T14:13:06Z</time>
      </trkpt>
      <trkpt lat="48.04134" lon="7.25516">
        <ele>665.49717</ele>
        <time>2018-05-04T14:13:08Z</time>
      </trkpt>
      <trkpt lat="48.04131" lon="7.25516">
        <ele>665.11688</ele>
        <time>2018-05-04T14:13:15Z</time>
      </trkpt>
      <trkpt lat="48.04131" lon="7.25515">
        <ele>665.15507</ele>
        <time>2018-05-04T14:13:17Z</time>
      </trkpt>
      <trkpt lat="48.0413" lon="7.25515">
        <ele>665.07555</ele>
        <time>2018-05-04T14:13:18Z</time>
      </trkpt>
      <trkpt lat="48.04129" lon="7.25515">
        <ele>665.11028</ele>
        <time>2018-05-04T14:13:19Z</time>
      </trkpt>
      <trkpt lat="48.04129" lon="7.25515">
        <ele>665.12875</ele>
        <time>2018-05-04T14:13:20Z</time>
      </trkpt>
      <trkpt lat="48.04127" lon="7.25518">
        <ele>664.94613</ele>
        <time>2018-05-04T14:13:26Z</time>
      </trkpt>
      <trkpt lat="48.04126" lon="7.25518">
        <ele>665.0276</ele>
        <time>2018-05-04T14:13:29Z</time>
      </trkpt>
      <trkpt lat="48.04127" lon="7.25518">
        <ele>664.86553</ele>
        <time>2018-05-04T14:13:32Z</time>
      </trkpt>
      <trkpt lat="48.04127" lon="7.25519">
        <ele>664.95591</ele>
        <time>2018-05-04T14:13:33Z</time>
      </trkpt>
      <trkpt lat="48.04127" lon="7.25519">
        <ele>665.06487</ele>
        <time>2018-05-04T14:13:35Z</time>
      </trkpt>
      <trkpt lat="48.04126" lon="7.25518">
        <ele>665.05554</ele>
        <time>2018-05-04T14:13:37Z</time>
      </trkpt>
      <trkpt lat="48.04126" lon="7.25517">
        <ele>665.05419</ele>
        <time>2018-05-04T14:13:38Z</time>
      </trkpt>
      <trkpt lat="48.04127" lon="7.25517">
        <ele>664.90406</ele>
        <time>2018-05-04T14:13:39Z</time>
      </trkpt>
      <trkpt lat="48.04128" lon="7.25516">
        <ele>664.79294</ele>
        <time>2018-05-04T14:13:40Z</time>
      </trkpt>
      <trkpt lat="48.0413" lon="7.25517">
        <ele>664.85392</ele>
        <time>2018-05-04T14:13:41Z</time>
      </trkpt>
      <trkpt lat="48.04132" lon="7.25517">
        <ele>664.70797</ele>
        <time>2018-05-04T14:13:42Z</time>
      </trkpt>
      <trkpt lat="48.04133" lon="7.25517">
        <ele>664.65622</ele>
        <time>2018-05-04T14:13:43Z</time>
      </trkpt>
      <trkpt lat="48.04136" lon="7.25515">
        <ele>664.73929</ele>
        <time>2018-05-04T14:13:46Z</time>
      </trkpt>
      <trkpt lat="48.0414" lon="7.25514">
        <ele>664.81505</ele>
        <time>2018-05-04T14:13:48Z</time>
      </trkpt>
      <trkpt lat="48.04142" lon="7.25514">
        <ele>664.59891</ele>
        <time>2018-05-04T14:13:49Z</time>
      </trkpt>
      <trkpt lat="48.04147" lon="7.25513">
        <ele>664.5118</ele>
        <time>2018-05-04T14:13:51Z</time>
      </trkpt>
      <trkpt lat="48.04149" lon="7.25513">
        <ele>664.45224</ele>
        <time>2018-05-04T14:13:52Z</time>
      </trkpt>
      <trkpt lat="48.04151" lon="7.25513">
        <ele>664.33254</ele>
        <time>2018-05-04T14:13:53Z</time>
      </trkpt>
      <trkpt lat="48.04152" lon="7.25512">
        <ele>664.11775</ele>
        <time>2018-05-04T14:13:54Z</time>
      </trkpt>
      <trkpt lat="48.04154" lon="7.25513">
        <ele>664.30811</ele>
        <time>2018-05-04T14:13:55Z</time>
      </trkpt>
      <trkpt lat="48.04155" lon="7.25513">
        <ele>664.00407</ele>
        <time>2018-05-04T14:13:56Z</time>
      </trkpt>
      <trkpt lat="48.04156" lon="7.25514">
        <ele>664.07587</ele>
        <time>2018-05-04T14:13:57Z</time>
      </trkpt>
      <trkpt lat="48.04157" lon="7.25514">
        <ele>664.10965</ele>
        <time>2018-05-04T14:13:58Z</time>
      </trkpt>
      <trkpt lat="48.04158" lon="7.25514">
        <ele>663.92119</ele>
        <time>2018-05-04T14:13:59Z</time>
      </trkpt>
      <trkpt lat="48.04159" lon="7.25513">
        <ele>664.24668</ele>
        <time>2018-05-04T14:14:00Z</time>
      </trkpt>
      <trkpt lat="48.04162" lon="7.25513">
        <ele>664.31548</ele>
        <time>2018-05-04T14:14:02Z</time>
      </trkpt>
      <trkpt lat="48.04164" lon="7.25513">
        <ele>664.56125</ele>
        <time>2018-05-04T14:14:03Z</time>
      </trkpt>
      <trkpt lat="48.04165" lon="7.25514">
        <ele>664.47663</ele>
        <time>2018-05-04T14:14:04Z</time>
      </trkpt>
      <trkpt lat="48.04166" lon="7.25515">
        <ele>664.84226</ele>
        <time>2018-05-04T14:14:05Z</time>
      </trkpt>
      <trkpt lat="48.04171" lon="7.25516">
        <ele>665.26072</ele>
        <time>2018-05-04T14:14:08Z</time>
      </trkpt>
      <trkpt lat="48.04187" lon="7.25527">
        <ele>666.79231</ele>
        <time>2018-05-04T14:14:17Z</time>
      </trkpt>
      <trkpt lat="48.04191" lon="7.25531">
        <ele>666.93311</ele>
        <time>2018-05-04T14:14:20Z</time>
      </trkpt>
      <trkpt lat="48.04195" lon="7.25536">
        <ele>666.13083</ele>
        <time>2018-05-04T14:14:23Z</time>
      </trkpt>
      <trkpt lat="48.04196" lon="7.25538">
        <ele>665.7548</ele>
        <time>2018-05-04T14:14:24Z</time>
      </trkpt>
      <trkpt lat="48.042" lon="7.25542">
        <ele>665.19522</ele>
        <time>2018-05-04T14:14:26Z</time>
      </trkpt>
      <trkpt lat="48.04201" lon="7.25545">
        <ele>664.55821</ele>
        <time>2018-05-04T14:14:27Z</time>
      </trkpt>
      <trkpt lat="48.04202" lon="7.25557">
        <ele>662.91083</ele>
        <time>2018-05-04T14:14:30Z</time>
      </trkpt>
      <trkpt lat="48.04203" lon="7.25559">
        <ele>662.32118</ele>
        <time>2018-05-04T14:14:31Z</time>
      </trkpt>
      <trkpt lat="48.04204" lon="7.25561">
        <ele>661.74195</ele>
        <time>2018-05-04T14:14:32Z</time>
      </trkpt>
      <trkpt lat="48.04206" lon="7.25562">
        <ele>661.69125</ele>
        <time>2018-05-04T14:14:33Z</time>
      </trkpt>
      <trkpt lat="48.04209" lon="7.25564">
        <ele>661.26718</ele>
        <time>2018-05-04T14:14:35Z</time>
      </trkpt>
      <trkpt lat="48.0421" lon="7.25565">
        <ele>661.10534</ele>
        <time>2018-05-04T14:14:36Z</time>
      </trkpt>
      <trkpt lat="48.0421" lon="7.25566">
        <ele>660.6595</ele>
        <time>2018-05-04T14:14:37Z</time>
      </trkpt>
      <trkpt lat="48.04212" lon="7.25568">
        <ele>660.3436</ele>
        <time>2018-05-04T14:14:39Z</time>
      </trkpt>
      <trkpt lat="48.04214" lon="7.2557">
        <ele>659.47024</ele>
        <time>2018-05-04T14:14:42Z</time>
      </trkpt>
      <trkpt lat="48.04215" lon="7.25571">
        <ele>658.60069</ele>
        <time>2018-05-04T14:14:44Z</time>
      </trkpt>
      <trkpt lat="48.04216" lon="7.25571">
        <ele>658.61906</ele>
        <time>2018-05-04T14:14:45Z</time>
      </trkpt>
      <trkpt lat="48.04222" lon="7.25577">
        <ele>656.19088</ele>
        <time>2018-05-04T14:14:51Z</time>
      </trkpt>
      <trkpt lat="48.04223" lon="7.25578">
        <ele>656.43178</ele>
        <time>2018-05-04T14:14:52Z</time>
      </trkpt>
      <trkpt lat="48.04225" lon="7.25579">
        <ele>655.49349</ele>
        <time>2018-05-04T14:14:53Z</time>
      </trkpt>
      <trkpt lat="48.04226" lon="7.25579">
        <ele>655.27228</ele>
        <time>2018-05-04T14:14:54Z</time>
      </trkpt>
      <trkpt lat="48.04227" lon="7.2558">
        <ele>655.38462</ele>
        <time>2018-05-04T14:14:55Z</time>
      </trkpt>
      <trkpt lat="48.04229" lon="7.25581">
        <ele>654.81773</ele>
        <time>2018-05-04T14:14:56Z</time>
      </trkpt>
      <trkpt lat="48.04238" lon="7.2559">
        <ele>654.17034</ele>
        <time>2018-05-04T14:15:01Z</time>
      </trkpt>
      <trkpt lat="48.04241" lon="7.25592">
        <ele>654.14903</ele>
        <time>2018-05-04T14:15:03Z</time>
      </trkpt>
      <trkpt lat="48.04245" lon="7.25596">
        <ele>654.40607</ele>
        <time>2018-05-04T14:15:05Z</time>
      </trkpt>
      <trkpt lat="48.04252" lon="7.25601">
        <ele>653.5667</ele>
        <time>2018-05-04T14:15:12Z</time>
      </trkpt>
      <trkpt lat="48.04253" lon="7.25604">
        <ele>653.2865</ele>
        <time>2018-05-04T14:15:13Z</time>
      </trkpt>
      <trkpt lat="48.04254" lon="7.25606">
        <ele>653.15263</ele>
        <time>2018-05-04T14:15:14Z</time>
      </trkpt>
      <trkpt lat="48.04256" lon="7.25609">
        <ele>653.12507</ele>
        <time>2018-05-04T14:15:15Z</time>
      </trkpt>
      <trkpt lat="48.04257" lon="7.25612">
        <ele>653.14403</ele>
        <time>2018-05-04T14:15:16Z</time>
      </trkpt>
      <trkpt lat="48.04259" lon="7.25614">
        <ele>653.1794</ele>
        <time>2018-05-04T14:15:17Z</time>
      </trkpt>
      <trkpt lat="48.04259" lon="7.25616">
        <ele>653.05533</ele>
        <time>2018-05-04T14:15:18Z</time>
      </trkpt>
      <trkpt lat="48.0426" lon="7.25618">
        <ele>652.95817</ele>
        <time>2018-05-04T14:15:19Z</time>
      </trkpt>
      <trkpt lat="48.04261" lon="7.25621">
        <ele>652.8479</ele>
        <time>2018-05-04T14:15:20Z</time>
      </trkpt>
      <trkpt lat="48.04261" lon="7.25625">
        <ele>652.53938</ele>
        <time>2018-05-04T14:15:21Z</time>
      </trkpt>
      <trkpt lat="48.04262" lon="7.25629">
        <ele>651.77329</ele>
        <time>2018-05-04T14:15:22Z</time>
      </trkpt>
      <trkpt lat="48.04263" lon="7.25632">
        <ele>651.23431</ele>
        <time>2018-05-04T14:15:23Z</time>
      </trkpt>
      <trkpt lat="48.04263" lon="7.25635">
        <ele>650.94192</ele>
        <time>2018-05-04T14:15:24Z</time>
      </trkpt>
      <trkpt lat="48.04264" lon="7.25636">
        <ele>650.66881</ele>
        <time>2018-05-04T14:15:25Z</time>
      </trkpt>
      <trkpt lat="48.04265" lon="7.25637">
        <ele>650.38971</ele>
        <time>2018-05-04T14:15:26Z</time>
      </trkpt>
      <trkpt lat="48.04267" lon="7.25638">
        <ele>650.55464</ele>
        <time>2018-05-04T14:15:27Z</time>
      </trkpt>
      <trkpt lat="48.04275" lon="7.25641">
        <ele>649.23302</ele>
        <time>2018-05-04T14:15:31Z</time>
      </trkpt>
      <trkpt lat="48.04281" lon="7.25645">
        <ele>648.52267</ele>
        <time>2018-05-04T14:15:34Z</time>
      </trkpt>
      <trkpt lat="48.04286" lon="7.25648">
        <ele>647.85199</ele>
        <time>2018-05-04T14:15:36Z</time>
      </trkpt>
      <trkpt lat="48.04292" lon="7.25651">
        <ele>647.28553</ele>
        <time>2018-05-04T14:15:38Z</time>
      </trkpt>
      <trkpt lat="48.043" lon="7.25656">
        <ele>646.50855</ele>
        <time>2018-05-04T14:15:41Z</time>
      </trkpt>
      <trkpt lat="48.04302" lon="7.25657">
        <ele>646.64167</ele>
        <time>2018-05-04T14:15:42Z</time>
      </trkpt>
      <trkpt lat="48.04304" lon="7.25657">
        <ele>645.81139</ele>
        <time>2018-05-04T14:15:43Z</time>
      </trkpt>
      <trkpt lat="48.04305" lon="7.25658">
        <ele>645.52416</ele>
        <time>2018-05-04T14:15:44Z</time>
      </trkpt>
      <trkpt lat="48.04306" lon="7.2566">
        <ele>645.03263</ele>
        <time>2018-05-04T14:15:45Z</time>
      </trkpt>
      <trkpt lat="48.04308" lon="7.25662">
        <ele>644.66082</ele>
        <time>2018-05-04T14:15:46Z</time>
      </trkpt>
      <trkpt lat="48.04312" lon="7.25663">
        <ele>644.1841</ele>
        <time>2018-05-04T14:15:48Z</time>
      </trkpt>
      <trkpt lat="48.04314" lon="7.25664">
        <ele>643.65892</ele>
        <time>2018-05-04T14:15:49Z</time>
      </trkpt>
      <trkpt lat="48.04329" lon="7.25664">
        <ele>642.17584</ele>
        <time>2018-05-04T14:15:54Z</time>
      </trkpt>
      <trkpt lat="48.04331" lon="7.25664">
        <ele>641.43532</ele>
        <time>2018-05-04T14:15:55Z</time>
      </trkpt>
      <trkpt lat="48.0435" lon="7.25656">
        <ele>638.46543</ele>
        <time>2018-05-04T14:16:03Z</time>
      </trkpt>
      <trkpt lat="48.04352" lon="7.25654">
        <ele>637.93716</ele>
        <time>2018-05-04T14:16:04Z</time>
      </trkpt>
      <trkpt lat="48.04353" lon="7.25652">
        <ele>637.32396</ele>
        <time>2018-05-04T14:16:05Z</time>
      </trkpt>
      <trkpt lat="48.04356" lon="7.25647">
        <ele>636.76334</ele>
        <time>2018-05-04T14:16:07Z</time>
      </trkpt>
      <trkpt lat="48.04359" lon="7.25643">
        <ele>636.15151</ele>
        <time>2018-05-04T14:16:09Z</time>
      </trkpt>
      <trkpt lat="48.04363" lon="7.25638">
        <ele>635.71685</ele>
        <time>2018-05-04T14:16:11Z</time>
      </trkpt>
      <trkpt lat="48.04364" lon="7.25637">
        <ele>635.5772</ele>
        <time>2018-05-04T14:16:12Z</time>
      </trkpt>
      <trkpt lat="48.04369" lon="7.25634">
        <ele>635.19187</ele>
        <time>2018-05-04T14:16:15Z</time>
      </trkpt>
      <trkpt lat="48.04369" lon="7.25633">
        <ele>635.04417</ele>
        <time>2018-05-04T14:16:16Z</time>
      </trkpt>
      <trkpt lat="48.0437" lon="7.25629">
        <ele>634.32249</ele>
        <time>2018-05-04T14:16:18Z</time>
      </trkpt>
      <trkpt lat="48.0437" lon="7.25628">
        <ele>634.28926</ele>
        <time>2018-05-04T14:16:19Z</time>
      </trkpt>
      <trkpt lat="48.04372" lon="7.25626">
        <ele>633.62333</ele>
        <time>2018-05-04T14:16:20Z</time>
      </trkpt>
      <trkpt lat="48.04376" lon="7.2562">
        <ele>633.63871</ele>
        <time>2018-05-04T14:16:23Z</time>
      </trkpt>
      <trkpt lat="48.04378" lon="7.25619">
        <ele>633.54098</ele>
        <time>2018-05-04T14:16:24Z</time>
      </trkpt>
      <trkpt lat="48.04386" lon="7.25615">
        <ele>632.89358</ele>
        <time>2018-05-04T14:16:28Z</time>
      </trkpt>
      <trkpt lat="48.04387" lon="7.25614">
        <ele>632.81499</ele>
        <time>2018-05-04T14:16:29Z</time>
      </trkpt>
      <trkpt lat="48.04388" lon="7.25612">
        <ele>632.98577</ele>
        <time>2018-05-04T14:16:30Z</time>
      </trkpt>
      <trkpt lat="48.0439" lon="7.25608">
        <ele>632.81324</ele>
        <time>2018-05-04T14:16:32Z</time>
      </trkpt>
      <trkpt lat="48.04392" lon="7.25606">
        <ele>632.61453</ele>
        <time>2018-05-04T14:16:33Z</time>
      </trkpt>
      <trkpt lat="48.04393" lon="7.25605">
        <ele>632.55781</ele>
        <time>2018-05-04T14:16:34Z</time>
      </trkpt>
      <trkpt lat="48.04394" lon="7.25604">
        <ele>632.88364</ele>
        <time>2018-05-04T14:16:35Z</time>
      </trkpt>
      <trkpt lat="48.04394" lon="7.25603">
        <ele>632.7416</ele>
        <time>2018-05-04T14:16:36Z</time>
      </trkpt>
      <trkpt lat="48.04396" lon="7.25602">
        <ele>632.78301</ele>
        <time>2018-05-04T14:16:38Z</time>
      </trkpt>
      <trkpt lat="48.04397" lon="7.25601">
        <ele>632.65222</ele>
        <time>2018-05-04T14:16:39Z</time>
      </trkpt>
      <trkpt lat="48.044" lon="7.25601">
        <ele>633.08817</ele>
        <time>2018-05-04T14:16:41Z</time>
      </trkpt>
      <trkpt lat="48.04401" lon="7.256">
        <ele>633.29086</ele>
        <time>2018-05-04T14:16:42Z</time>
      </trkpt>
      <trkpt lat="48.04402" lon="7.256">
        <ele>633.32763</ele>
        <time>2018-05-04T14:16:43Z</time>
      </trkpt>
      <trkpt lat="48.04403" lon="7.25599">
        <ele>633.37807</ele>
        <time>2018-05-04T14:16:44Z</time>
      </trkpt>
      <trkpt lat="48.04404" lon="7.25598">
        <ele>633.36887</ele>
        <time>2018-05-04T14:16:45Z</time>
      </trkpt>
      <trkpt lat="48.04405" lon="7.25597">
        <ele>633.39706</ele>
        <time>2018-05-04T14:16:47Z</time>
      </trkpt>
      <trkpt lat="48.04406" lon="7.25596">
        <ele>633.32766</ele>
        <time>2018-05-04T14:16:48Z</time>
      </trkpt>
      <trkpt lat="48.04405" lon="7.25593">
        <ele>633.40149</ele>
        <time>2018-05-04T14:16:53Z</time>
      </trkpt>
      <trkpt lat="48.04406" lon="7.25592">
        <ele>633.37929</ele>
        <time>2018-05-04T14:16:55Z</time>
      </trkpt>
      <trkpt lat="48.04406" lon="7.25591">
        <ele>633.59011</ele>
        <time>2018-05-04T14:16:56Z</time>
      </trkpt>
      <trkpt lat="48.04407" lon="7.2559">
        <ele>633.51963</ele>
        <time>2018-05-04T14:16:57Z</time>
      </trkpt>
      <trkpt lat="48.04409" lon="7.25589">
        <ele>633.76527</ele>
        <time>2018-05-04T14:16:59Z</time>
      </trkpt>
      <trkpt lat="48.04409" lon="7.25588">
        <ele>633.88865</ele>
        <time>2018-05-04T14:17:00Z</time>
      </trkpt>
      <trkpt lat="48.0441" lon="7.25588">
        <ele>633.80648</ele>
        <time>2018-05-04T14:17:01Z</time>
      </trkpt>
      <trkpt lat="48.0441" lon="7.25588">
        <ele>633.97214</ele>
        <time>2018-05-04T14:17:02Z</time>
      </trkpt>
      <trkpt lat="48.04411" lon="7.25588">
        <ele>633.88253</ele>
        <time>2018-05-04T14:17:03Z</time>
      </trkpt>
      <trkpt lat="48.04412" lon="7.25588">
        <ele>634.1914</ele>
        <time>2018-05-04T14:17:04Z</time>
      </trkpt>
      <trkpt lat="48.04413" lon="7.25588">
        <ele>634.17144</ele>
        <time>2018-05-04T14:17:05Z</time>
      </trkpt>
      <trkpt lat="48.04416" lon="7.25586">
        <ele>634.71079</ele>
        <time>2018-05-04T14:17:08Z</time>
      </trkpt>
      <trkpt lat="48.04418" lon="7.25586">
        <ele>634.97472</ele>
        <time>2018-05-04T14:17:09Z</time>
      </trkpt>
      <trkpt lat="48.04418" lon="7.25586">
        <ele>634.78296</ele>
        <time>2018-05-04T14:17:10Z</time>
      </trkpt>
      <trkpt lat="48.04419" lon="7.25586">
        <ele>635.15491</ele>
        <time>2018-05-04T14:17:12Z</time>
      </trkpt>
      <trkpt lat="48.0442" lon="7.25586">
        <ele>635.57754</ele>
        <time>2018-05-04T14:17:14Z</time>
      </trkpt>
      <trkpt lat="48.04421" lon="7.25586">
        <ele>635.76962</ele>
        <time>2018-05-04T14:17:15Z</time>
      </trkpt>
      <trkpt lat="48.04424" lon="7.25588">
        <ele>636.01557</ele>
        <time>2018-05-04T14:17:19Z</time>
      </trkpt>
      <trkpt lat="48.04425" lon="7.25589">
        <ele>636.03796</ele>
        <time>2018-05-04T14:17:20Z</time>
      </trkpt>
      <trkpt lat="48.04426" lon="7.25589">
        <ele>636.36008</ele>
        <time>2018-05-04T14:17:21Z</time>
      </trkpt>
      <trkpt lat="48.04427" lon="7.2559">
        <ele>636.29116</ele>
        <time>2018-05-04T14:17:23Z</time>
      </trkpt>
      <trkpt lat="48.04428" lon="7.25591">
        <ele>636.57768</ele>
        <time>2018-05-04T14:17:24Z</time>
      </trkpt>
      <trkpt lat="48.04428" lon="7.25591">
        <ele>636.60777</ele>
        <time>2018-05-04T14:17:25Z</time>
      </trkpt>
      <trkpt lat="48.04429" lon="7.25592">
        <ele>636.70766</ele>
        <time>2018-05-04T14:17:26Z</time>
      </trkpt>
      <trkpt lat="48.04428" lon="7.25593">
        <ele>636.82983</ele>
        <time>2018-05-04T14:17:28Z</time>
      </trkpt>
      <trkpt lat="48.04428" lon="7.25594">
        <ele>636.76438</ele>
        <time>2018-05-04T14:17:29Z</time>
      </trkpt>
      <trkpt lat="48.04429" lon="7.25595">
        <ele>637.3337</ele>
        <time>2018-05-04T14:17:30Z</time>
      </trkpt>
      <trkpt lat="48.04431" lon="7.25595">
        <ele>637.62938</ele>
        <time>2018-05-04T14:17:32Z</time>
      </trkpt>
      <trkpt lat="48.04432" lon="7.25595">
        <ele>637.80527</ele>
        <time>2018-05-04T14:17:33Z</time>
      </trkpt>
      <trkpt lat="48.04434" lon="7.25596">
        <ele>637.69434</ele>
        <time>2018-05-04T14:17:34Z</time>
      </trkpt>
      <trkpt lat="48.04435" lon="7.25597">
        <ele>637.93581</ele>
        <time>2018-05-04T14:17:35Z</time>
      </trkpt>
      <trkpt lat="48.04436" lon="7.25598">
        <ele>638.09079</ele>
        <time>2018-05-04T14:17:36Z</time>
      </trkpt>
      <trkpt lat="48.04438" lon="7.25599">
        <ele>638.12814</ele>
        <time>2018-05-04T14:17:37Z</time>
      </trkpt>
      <trkpt lat="48.04438" lon="7.256">
        <ele>638.09947</ele>
        <time>2018-05-04T14:17:38Z</time>
      </trkpt>
      <trkpt lat="48.04439" lon="7.25602">
        <ele>638.30647</ele>
        <time>2018-05-04T14:17:39Z</time>
      </trkpt>
      <trkpt lat="48.0444" lon="7.25604">
        <ele>638.26001</ele>
        <time>2018-05-04T14:17:40Z</time>
      </trkpt>
      <trkpt lat="48.0444" lon="7.25606">
        <ele>638.49433</ele>
        <time>2018-05-04T14:17:41Z</time>
      </trkpt>
      <trkpt lat="48.04441" lon="7.25608">
        <ele>638.49285</ele>
        <time>2018-05-04T14:17:42Z</time>
      </trkpt>
      <trkpt lat="48.04444" lon="7.25612">
        <ele>638.7625</ele>
        <time>2018-05-04T14:17:45Z</time>
      </trkpt>
      <trkpt lat="48.04445" lon="7.25614">
        <ele>638.66183</ele>
        <time>2018-05-04T14:17:48Z</time>
      </trkpt>
      <trkpt lat="48.04445" lon="7.25616">
        <ele>638.68363</ele>
        <time>2018-05-04T14:17:49Z</time>
      </trkpt>
      <trkpt lat="48.04445" lon="7.25617">
        <ele>638.91035</ele>
        <time>2018-05-04T14:17:50Z</time>
      </trkpt>
      <trkpt lat="48.04445" lon="7.25619">
        <ele>638.9118</ele>
        <time>2018-05-04T14:17:51Z</time>
      </trkpt>
      <trkpt lat="48.04446" lon="7.2562">
        <ele>638.8214</ele>
        <time>2018-05-04T14:17:52Z</time>
      </trkpt>
      <trkpt lat="48.04446" lon="7.25622">
        <ele>639.02354</ele>
        <time>2018-05-04T14:17:53Z</time>
      </trkpt>
      <trkpt lat="48.04447" lon="7.25624">
        <ele>639.13859</ele>
        <time>2018-05-04T14:17:54Z</time>
      </trkpt>
      <trkpt lat="48.04448" lon="7.25626">
        <ele>638.89472</ele>
        <time>2018-05-04T14:17:55Z</time>
      </trkpt>
      <trkpt lat="48.04448" lon="7.25628">
        <ele>639.23748</ele>
        <time>2018-05-04T14:17:56Z</time>
      </trkpt>
      <trkpt lat="48.04449" lon="7.25632">
        <ele>639.44083</ele>
        <time>2018-05-04T14:17:58Z</time>
      </trkpt>
      <trkpt lat="48.0445" lon="7.25634">
        <ele>639.53149</ele>
        <time>2018-05-04T14:17:59Z</time>
      </trkpt>
      <trkpt lat="48.04451" lon="7.25642">
        <ele>640.05937</ele>
        <time>2018-05-04T14:18:03Z</time>
      </trkpt>
      <trkpt lat="48.04451" lon="7.25644">
        <ele>640.12602</ele>
        <time>2018-05-04T14:18:04Z</time>
      </trkpt>
      <trkpt lat="48.04452" lon="7.25645">
        <ele>640.25651</ele>
        <time>2018-05-04T14:18:05Z</time>
      </trkpt>
      <trkpt lat="48.04453" lon="7.25647">
        <ele>640.30027</ele>
        <time>2018-05-04T14:18:06Z</time>
      </trkpt>
      <trkpt lat="48.04454" lon="7.25649">
        <ele>640.38206</ele>
        <time>2018-05-04T14:18:07Z</time>
      </trkpt>
      <trkpt lat="48.04456" lon="7.2565">
        <ele>640.62358</ele>
        <time>2018-05-04T14:18:08Z</time>
      </trkpt>
      <trkpt lat="48.0446" lon="7.25651">
        <ele>640.6299</ele>
        <time>2018-05-04T14:18:10Z</time>
      </trkpt>
      <trkpt lat="48.04462" lon="7.25653">
        <ele>640.68906</ele>
        <time>2018-05-04T14:18:11Z</time>
      </trkpt>
      <trkpt lat="48.04464" lon="7.25655">
        <ele>641.10972</ele>
        <time>2018-05-04T14:18:12Z</time>
      </trkpt>
      <trkpt lat="48.04465" lon="7.25656">
        <ele>641.08454</ele>
        <time>2018-05-04T14:18:13Z</time>
      </trkpt>
      <trkpt lat="48.04466" lon="7.25658">
        <ele>641.06539</ele>
        <time>2018-05-04T14:18:14Z</time>
      </trkpt>
      <trkpt lat="48.04466" lon="7.25659">
        <ele>641.10076</ele>
        <time>2018-05-04T14:18:15Z</time>
      </trkpt>
      <trkpt lat="48.04467" lon="7.25661">
        <ele>641.27569</ele>
        <time>2018-05-04T14:18:16Z</time>
      </trkpt>
      <trkpt lat="48.04469" lon="7.25664">
        <ele>641.41085</ele>
        <time>2018-05-04T14:18:18Z</time>
      </trkpt>
      <trkpt lat="48.04471" lon="7.25665">
        <ele>641.32722</ele>
        <time>2018-05-04T14:18:19Z</time>
      </trkpt>
      <trkpt lat="48.04474" lon="7.25668">
        <ele>641.22867</ele>
        <time>2018-05-04T14:18:21Z</time>
      </trkpt>
      <trkpt lat="48.04475" lon="7.2567">
        <ele>641.59891</ele>
        <time>2018-05-04T14:18:22Z</time>
      </trkpt>
      <trkpt lat="48.04486" lon="7.25678">
        <ele>642.39045</ele>
        <time>2018-05-04T14:18:28Z</time>
      </trkpt>
      <trkpt lat="48.04492" lon="7.25685">
        <ele>643.33182</ele>
        <time>2018-05-04T14:18:33Z</time>
      </trkpt>
      <trkpt lat="48.04494" lon="7.25688">
        <ele>643.6282</ele>
        <time>2018-05-04T14:18:35Z</time>
      </trkpt>
      <trkpt lat="48.04495" lon="7.25691">
        <ele>643.73018</ele>
        <time>2018-05-04T14:18:37Z</time>
      </trkpt>
      <trkpt lat="48.04495" lon="7.25692">
        <ele>644.30271</ele>
        <time>2018-05-04T14:18:38Z</time>
      </trkpt>
      <trkpt lat="48.04496" lon="7.25694">
        <ele>643.9547</ele>
        <time>2018-05-04T14:18:39Z</time>
      </trkpt>
      <trkpt lat="48.04497" lon="7.25696">
        <ele>644.26525</ele>
        <time>2018-05-04T14:18:40Z</time>
      </trkpt>
      <trkpt lat="48.04499" lon="7.25697">
        <ele>644.59446</ele>
        <time>2018-05-04T14:18:41Z</time>
      </trkpt>
      <trkpt lat="48.045" lon="7.25698">
        <ele>644.89849</ele>
        <time>2018-05-04T14:18:42Z</time>
      </trkpt>
      <trkpt lat="48.04503" lon="7.25699">
        <ele>644.76111</ele>
        <time>2018-05-04T14:18:44Z</time>
      </trkpt>
      <trkpt lat="48.04504" lon="7.257">
        <ele>644.5279</ele>
        <time>2018-05-04T14:18:45Z</time>
      </trkpt>
      <trkpt lat="48.04506" lon="7.25702">
        <ele>645.74501</ele>
        <time>2018-05-04T14:18:48Z</time>
      </trkpt>
      <trkpt lat="48.04507" lon="7.25702">
        <ele>646.08115</ele>
        <time>2018-05-04T14:18:49Z</time>
      </trkpt>
      <trkpt lat="48.04507" lon="7.25703">
        <ele>645.99257</ele>
        <time>2018-05-04T14:18:50Z</time>
      </trkpt>
      <trkpt lat="48.04508" lon="7.25703">
        <ele>646.44632</ele>
        <time>2018-05-04T14:18:51Z</time>
      </trkpt>
      <trkpt lat="48.0451" lon="7.25703">
        <ele>646.60791</ele>
        <time>2018-05-04T14:18:53Z</time>
      </trkpt>
      <trkpt lat="48.0451" lon="7.25704">
        <ele>646.8207</ele>
        <time>2018-05-04T14:18:56Z</time>
      </trkpt>
      <trkpt lat="48.0451" lon="7.25705">
        <ele>646.78107</ele>
        <time>2018-05-04T14:18:57Z</time>
      </trkpt>
      <trkpt lat="48.04511" lon="7.25705">
        <ele>647.01232</ele>
        <time>2018-05-04T14:18:58Z</time>
      </trkpt>
      <trkpt lat="48.04513" lon="7.25706">
        <ele>646.90599</ele>
        <time>2018-05-04T14:18:59Z</time>
      </trkpt>
      <trkpt lat="48.04514" lon="7.25706">
        <ele>647.36116</ele>
        <time>2018-05-04T14:19:00Z</time>
      </trkpt>
      <trkpt lat="48.04517" lon="7.25708">
        <ele>647.63797</ele>
        <time>2018-05-04T14:19:03Z</time>
      </trkpt>
      <trkpt lat="48.04518" lon="7.25709">
        <ele>647.66786</ele>
        <time>2018-05-04T14:19:04Z</time>
      </trkpt>
      <trkpt lat="48.0452" lon="7.25709">
        <ele>648.00861</ele>
        <time>2018-05-04T14:19:06Z</time>
      </trkpt>
      <trkpt lat="48.04521" lon="7.25709">
        <ele>647.98821</ele>
        <time>2018-05-04T14:19:07Z</time>
      </trkpt>
      <trkpt lat="48.04523" lon="7.2571">
        <ele>648.60632</ele>
        <time>2018-05-04T14:19:09Z</time>
      </trkpt>
      <trkpt lat="48.04524" lon="7.2571">
        <ele>648.78231</ele>
        <time>2018-05-04T14:19:11Z</time>
      </trkpt>
      <trkpt lat="48.04533" lon="7.25708">
        <ele>649.35196</ele>
        <time>2018-05-04T14:19:17Z</time>
      </trkpt>
      <trkpt lat="48.04534" lon="7.25708">
        <ele>649.51066</ele>
        <time>2018-05-04T14:19:18Z</time>
      </trkpt>
      <trkpt lat="48.04537" lon="7.25708">
        <ele>650.14404</ele>
        <time>2018-05-04T14:19:21Z</time>
      </trkpt>
      <trkpt lat="48.04538" lon="7.25708">
        <ele>650.16937</ele>
        <time>2018-05-04T14:19:23Z</time>
      </trkpt>
      <trkpt lat="48.04539" lon="7.25708">
        <ele>650.13139</ele>
        <time>2018-05-04T14:19:24Z</time>
      </trkpt>
      <trkpt lat="48.0454" lon="7.25709">
        <ele>650.23038</ele>
        <time>2018-05-04T14:19:25Z</time>
      </trkpt>
      <trkpt lat="48.04541" lon="7.25709">
        <ele>650.52248</ele>
        <time>2018-05-04T14:19:26Z</time>
      </trkpt>
      <trkpt lat="48.04543" lon="7.25709">
        <ele>650.81408</ele>
        <time>2018-05-04T14:19:27Z</time>
      </trkpt>
      <trkpt lat="48.04548" lon="7.25709">
        <ele>650.96829</ele>
        <time>2018-05-04T14:19:29Z</time>
      </trkpt>
      <trkpt lat="48.04552" lon="7.25709">
        <ele>651.07902</ele>
        <time>2018-05-04T14:19:32Z</time>
      </trkpt>
      <trkpt lat="48.04553" lon="7.25709">
        <ele>651.03798</ele>
        <time>2018-05-04T14:19:33Z</time>
      </trkpt>
      <trkpt lat="48.04554" lon="7.25708">
        <ele>651.14201</ele>
        <time>2018-05-04T14:19:34Z</time>
      </trkpt>
      <trkpt lat="48.04555" lon="7.25708">
        <ele>651.34738</ele>
        <time>2018-05-04T14:19:35Z</time>
      </trkpt>
      <trkpt lat="48.04556" lon="7.25708">
        <ele>651.37789</ele>
        <time>2018-05-04T14:19:36Z</time>
      </trkpt>
      <trkpt lat="48.0456" lon="7.25709">
        <ele>650.79894</ele>
        <time>2018-05-04T14:19:41Z</time>
      </trkpt>
      <trkpt lat="48.04561" lon="7.25709">
        <ele>650.7597</ele>
        <time>2018-05-04T14:19:42Z</time>
      </trkpt>
      <trkpt lat="48.04562" lon="7.2571">
        <ele>650.62023</ele>
        <time>2018-05-04T14:19:43Z</time>
      </trkpt>
      <trkpt lat="48.04563" lon="7.2571">
        <ele>650.46032</ele>
        <time>2018-05-04T14:19:44Z</time>
      </trkpt>
      <trkpt lat="48.04563" lon="7.2571">
        <ele>650.65249</ele>
        <time>2018-05-04T14:19:45Z</time>
      </trkpt>
      <trkpt lat="48.04563" lon="7.2571">
        <ele>650.61388</ele>
        <time>2018-05-04T14:19:46Z</time>
      </trkpt>
      <trkpt lat="48.04564" lon="7.2571">
        <ele>650.47287</ele>
        <time>2018-05-04T14:19:47Z</time>
      </trkpt>
      <trkpt lat="48.04565" lon="7.2571">
        <ele>650.39059</ele>
        <time>2018-05-04T14:19:48Z</time>
      </trkpt>
      <trkpt lat="48.04566" lon="7.2571">
        <ele>650.28101</ele>
        <time>2018-05-04T14:19:49Z</time>
      </trkpt>
      <trkpt lat="48.04566" lon="7.25711">
        <ele>650.15666</ele>
        <time>2018-05-04T14:19:50Z</time>
      </trkpt>
      <trkpt lat="48.04568" lon="7.25711">
        <ele>650.02746</ele>
        <time>2018-05-04T14:19:52Z</time>
      </trkpt>
      <trkpt lat="48.0457" lon="7.25712">
        <ele>650.01353</ele>
        <time>2018-05-04T14:19:53Z</time>
      </trkpt>
      <trkpt lat="48.04572" lon="7.25713">
        <ele>649.70728</ele>
        <time>2018-05-04T14:19:54Z</time>
      </trkpt>
      <trkpt lat="48.04575" lon="7.25715">
        <ele>649.52502</ele>
        <time>2018-05-04T14:19:56Z</time>
      </trkpt>
      <trkpt lat="48.04579" lon="7.25716">
        <ele>649.63028</ele>
        <time>2018-05-04T14:19:59Z</time>
      </trkpt>
      <trkpt lat="48.04587" lon="7.25717">
        <ele>649.51446</ele>
        <time>2018-05-04T14:20:05Z</time>
      </trkpt>
      <trkpt lat="48.0459" lon="7.25717">
        <ele>649.58403</ele>
        <time>2018-05-04T14:20:07Z</time>
      </trkpt>
      <trkpt lat="48.04592" lon="7.25718">
        <ele>649.63013</ele>
        <time>2018-05-04T14:20:08Z</time>
      </trkpt>
      <trkpt lat="48.04593" lon="7.25719">
        <ele>649.92181</ele>
        <time>2018-05-04T14:20:09Z</time>
      </trkpt>
      <trkpt lat="48.04594" lon="7.25721">
        <ele>649.8507</ele>
        <time>2018-05-04T14:20:10Z</time>
      </trkpt>
      <trkpt lat="48.04595" lon="7.25722">
        <ele>650.2016</ele>
        <time>2018-05-04T14:20:11Z</time>
      </trkpt>
      <trkpt lat="48.04597" lon="7.25724">
        <ele>649.44293</ele>
        <time>2018-05-04T14:20:12Z</time>
      </trkpt>
      <trkpt lat="48.04598" lon="7.25726">
        <ele>650.10071</ele>
        <time>2018-05-04T14:20:13Z</time>
      </trkpt>
      <trkpt lat="48.046" lon="7.25728">
        <ele>650.04876</ele>
        <time>2018-05-04T14:20:15Z</time>
      </trkpt>
      <trkpt lat="48.04604" lon="7.2573">
        <ele>650.50824</ele>
        <time>2018-05-04T14:20:18Z</time>
      </trkpt>
      <trkpt lat="48.04606" lon="7.2573">
        <ele>650.70653</ele>
        <time>2018-05-04T14:20:19Z</time>
      </trkpt>
      <trkpt lat="48.04609" lon="7.25733">
        <ele>651.36429</ele>
        <time>2018-05-04T14:20:21Z</time>
      </trkpt>
      <trkpt lat="48.04611" lon="7.25733">
        <ele>651.40942</ele>
        <time>2018-05-04T14:20:22Z</time>
      </trkpt>
      <trkpt lat="48.04613" lon="7.25734">
        <ele>651.41441</ele>
        <time>2018-05-04T14:20:23Z</time>
      </trkpt>
      <trkpt lat="48.04619" lon="7.25733">
        <ele>651.72597</ele>
        <time>2018-05-04T14:20:25Z</time>
      </trkpt>
      <trkpt lat="48.04621" lon="7.25734">
        <ele>651.75394</ele>
        <time>2018-05-04T14:20:26Z</time>
      </trkpt>
      <trkpt lat="48.04622" lon="7.25734">
        <ele>651.55735</ele>
        <time>2018-05-04T14:20:27Z</time>
      </trkpt>
      <trkpt lat="48.04626" lon="7.25737">
        <ele>651.20143</ele>
        <time>2018-05-04T14:20:29Z</time>
      </trkpt>
      <trkpt lat="48.04628" lon="7.25738">
        <ele>651.17977</ele>
        <time>2018-05-04T14:20:30Z</time>
      </trkpt>
      <trkpt lat="48.0463" lon="7.25739">
        <ele>651.09692</ele>
        <time>2018-05-04T14:20:31Z</time>
      </trkpt>
      <trkpt lat="48.04631" lon="7.2574">
        <ele>650.95777</ele>
        <time>2018-05-04T14:20:32Z</time>
      </trkpt>
      <trkpt lat="48.04638" lon="7.25746">
        <ele>650.16959</ele>
        <time>2018-05-04T14:20:36Z</time>
      </trkpt>
      <trkpt lat="48.04642" lon="7.25749">
        <ele>650.30372</ele>
        <time>2018-05-04T14:20:39Z</time>
      </trkpt>
      <trkpt lat="48.04643" lon="7.2575">
        <ele>650.16515</ele>
        <time>2018-05-04T14:20:40Z</time>
      </trkpt>
      <trkpt lat="48.04644" lon="7.25751">
        <ele>650.15039</ele>
        <time>2018-05-04T14:20:41Z</time>
      </trkpt>
      <trkpt lat="48.04645" lon="7.25752">
        <ele>650.07678</ele>
        <time>2018-05-04T14:20:42Z</time>
      </trkpt>
      <trkpt lat="48.04645" lon="7.25753">
        <ele>650.5667</ele>
        <time>2018-05-04T14:20:43Z</time>
      </trkpt>
      <trkpt lat="48.04646" lon="7.25754">
        <ele>650.36271</ele>
        <time>2018-05-04T14:20:44Z</time>
      </trkpt>
      <trkpt lat="48.04647" lon="7.25756">
        <ele>650.61116</ele>
        <time>2018-05-04T14:20:45Z</time>
      </trkpt>
      <trkpt lat="48.04649" lon="7.25757">
        <ele>651.05997</ele>
        <time>2018-05-04T14:20:46Z</time>
      </trkpt>
      <trkpt lat="48.04651" lon="7.25757">
        <ele>651.0212</ele>
        <time>2018-05-04T14:20:47Z</time>
      </trkpt>
      <trkpt lat="48.04652" lon="7.25758">
        <ele>651.39173</ele>
        <time>2018-05-04T14:20:48Z</time>
      </trkpt>
      <trkpt lat="48.04653" lon="7.25759">
        <ele>651.12365</ele>
        <time>2018-05-04T14:20:49Z</time>
      </trkpt>
      <trkpt lat="48.04653" lon="7.25761">
        <ele>651.08356</ele>
        <time>2018-05-04T14:20:50Z</time>
      </trkpt>
      <trkpt lat="48.04653" lon="7.25762">
        <ele>651.22088</ele>
        <time>2018-05-04T14:20:51Z</time>
      </trkpt>
      <trkpt lat="48.04653" lon="7.25763">
        <ele>650.86568</ele>
        <time>2018-05-04T14:20:52Z</time>
      </trkpt>
      <trkpt lat="48.04652" lon="7.25764">
        <ele>650.83794</ele>
        <time>2018-05-04T14:20:54Z</time>
      </trkpt>
      <trkpt lat="48.04652" lon="7.25764">
        <ele>650.8578</ele>
        <time>2018-05-04T14:20:55Z</time>
      </trkpt>
      <trkpt lat="48.04652" lon="7.25766">
        <ele>650.63865</ele>
        <time>2018-05-04T14:20:57Z</time>
      </trkpt>
      <trkpt lat="48.04652" lon="7.25767">
        <ele>650.44297</ele>
        <time>2018-05-04T14:20:58Z</time>
      </trkpt>
      <trkpt lat="48.04653" lon="7.25768">
        <ele>650.43415</ele>
        <time>2018-05-04T14:20:59Z</time>
      </trkpt>
      <trkpt lat="48.04653" lon="7.2577">
        <ele>650.11706</ele>
        <time>2018-05-04T14:21:00Z</time>
      </trkpt>
      <trkpt lat="48.04655" lon="7.25772">
        <ele>649.89942</ele>
        <time>2018-05-04T14:21:01Z</time>
      </trkpt>
      <trkpt lat="48.04657" lon="7.25775">
        <ele>649.99023</ele>
        <time>2018-05-04T14:21:02Z</time>
      </trkpt>
      <trkpt lat="48.04659" lon="7.25777">
        <ele>649.76307</ele>
        <time>2018-05-04T14:21:03Z</time>
      </trkpt>
      <trkpt lat="48.04661" lon="7.25779">
        <ele>649.6977</ele>
        <time>2018-05-04T14:21:04Z</time>
      </trkpt>
      <trkpt lat="48.04664" lon="7.25781">
        <ele>649.94945</ele>
        <time>2018-05-04T14:21:05Z</time>
      </trkpt>
      <trkpt lat="48.04665" lon="7.25784">
        <ele>650.01342</ele>
        <time>2018-05-04T14:21:06Z</time>
      </trkpt>
      <trkpt lat="48.04667" lon="7.25789">
        <ele>650.63109</ele>
        <time>2018-05-04T14:21:08Z</time>
      </trkpt>
      <trkpt lat="48.04668" lon="7.25792">
        <ele>650.36167</ele>
        <time>2018-05-04T14:21:09Z</time>
      </trkpt>
      <trkpt lat="48.04669" lon="7.25794">
        <ele>650.44741</ele>
        <time>2018-05-04T14:21:10Z</time>
      </trkpt>
      <trkpt lat="48.04671" lon="7.25799">
        <ele>650.64357</ele>
        <time>2018-05-04T14:21:12Z</time>
      </trkpt>
      <trkpt lat="48.04672" lon="7.25801">
        <ele>650.5126</ele>
        <time>2018-05-04T14:21:13Z</time>
      </trkpt>
      <trkpt lat="48.04674" lon="7.25803">
        <ele>650.48443</ele>
        <time>2018-05-04T14:21:14Z</time>
      </trkpt>
      <trkpt lat="48.04675" lon="7.25806">
        <ele>650.40259</ele>
        <time>2018-05-04T14:21:15Z</time>
      </trkpt>
      <trkpt lat="48.04676" lon="7.25809">
        <ele>650.39802</ele>
        <time>2018-05-04T14:21:16Z</time>
      </trkpt>
      <trkpt lat="48.04678" lon="7.25811">
        <ele>650.76869</ele>
        <time>2018-05-04T14:21:17Z</time>
      </trkpt>
      <trkpt lat="48.0468" lon="7.25812">
        <ele>650.51316</ele>
        <time>2018-05-04T14:21:18Z</time>
      </trkpt>
      <trkpt lat="48.04686" lon="7.25816">
        <ele>651.02439</ele>
        <time>2018-05-04T14:21:22Z</time>
      </trkpt>
      <trkpt lat="48.04688" lon="7.25819">
        <ele>650.83979</ele>
        <time>2018-05-04T14:21:24Z</time>
      </trkpt>
      <trkpt lat="48.04691" lon="7.25825">
        <ele>650.84031</ele>
        <time>2018-05-04T14:21:28Z</time>
      </trkpt>
      <trkpt lat="48.04693" lon="7.25828">
        <ele>650.66039</ele>
        <time>2018-05-04T14:21:30Z</time>
      </trkpt>
      <trkpt lat="48.04694" lon="7.2583">
        <ele>650.84971</ele>
        <time>2018-05-04T14:21:31Z</time>
      </trkpt>
      <trkpt lat="48.04696" lon="7.25832">
        <ele>650.84971</ele>
        <time>2018-05-04T14:21:32Z</time>
      </trkpt>
      <trkpt lat="48.04698" lon="7.25833">
        <ele>650.73613</ele>
        <time>2018-05-04T14:21:33Z</time>
      </trkpt>
      <trkpt lat="48.04699" lon="7.25835">
        <ele>650.64929</ele>
        <time>2018-05-04T14:21:34Z</time>
      </trkpt>
      <trkpt lat="48.047" lon="7.25837">
        <ele>650.57491</ele>
        <time>2018-05-04T14:21:35Z</time>
      </trkpt>
      <trkpt lat="48.04701" lon="7.25839">
        <ele>650.75789</ele>
        <time>2018-05-04T14:21:36Z</time>
      </trkpt>
      <trkpt lat="48.04704" lon="7.25843">
        <ele>650.95772</ele>
        <time>2018-05-04T14:21:38Z</time>
      </trkpt>
      <trkpt lat="48.04706" lon="7.25845">
        <ele>650.60945</ele>
        <time>2018-05-04T14:21:39Z</time>
      </trkpt>
      <trkpt lat="48.04707" lon="7.25846">
        <ele>650.54793</ele>
        <time>2018-05-04T14:21:40Z</time>
      </trkpt>
      <trkpt lat="48.04708" lon="7.25848">
        <ele>650.87777</ele>
        <time>2018-05-04T14:21:41Z</time>
      </trkpt>
      <trkpt lat="48.04708" lon="7.2585">
        <ele>650.75311</ele>
        <time>2018-05-04T14:21:42Z</time>
      </trkpt>
      <trkpt lat="48.04708" lon="7.25852">
        <ele>650.89601</ele>
        <time>2018-05-04T14:21:43Z</time>
      </trkpt>
      <trkpt lat="48.04709" lon="7.25854">
        <ele>650.97207</ele>
        <time>2018-05-04T14:21:44Z</time>
      </trkpt>
      <trkpt lat="48.04712" lon="7.25858">
        <ele>651.27429</ele>
        <time>2018-05-04T14:21:46Z</time>
      </trkpt>
      <trkpt lat="48.04713" lon="7.2586">
        <ele>651.14424</ele>
        <time>2018-05-04T14:21:47Z</time>
      </trkpt>
      <trkpt lat="48.04715" lon="7.25862">
        <ele>651.41402</ele>
        <time>2018-05-04T14:21:48Z</time>
      </trkpt>
      <trkpt lat="48.04716" lon="7.25863">
        <ele>651.13485</ele>
        <time>2018-05-04T14:21:49Z</time>
      </trkpt>
      <trkpt lat="48.04717" lon="7.25864">
        <ele>651.35662</ele>
        <time>2018-05-04T14:21:50Z</time>
      </trkpt>
      <trkpt lat="48.04717" lon="7.25866">
        <ele>651.50437</ele>
        <time>2018-05-04T14:21:51Z</time>
      </trkpt>
      <trkpt lat="48.04718" lon="7.25867">
        <ele>651.56879</ele>
        <time>2018-05-04T14:21:52Z</time>
      </trkpt>
      <trkpt lat="48.04719" lon="7.25869">
        <ele>651.82226</ele>
        <time>2018-05-04T14:21:53Z</time>
      </trkpt>
      <trkpt lat="48.04725" lon="7.25877">
        <ele>652.66077</ele>
        <time>2018-05-04T14:21:58Z</time>
      </trkpt>
      <trkpt lat="48.04729" lon="7.25882">
        <ele>653.44105</ele>
        <time>2018-05-04T14:22:01Z</time>
      </trkpt>
      <trkpt lat="48.0473" lon="7.25884">
        <ele>653.52035</ele>
        <time>2018-05-04T14:22:02Z</time>
      </trkpt>
      <trkpt lat="48.04731" lon="7.25885">
        <ele>653.47855</ele>
        <time>2018-05-04T14:22:03Z</time>
      </trkpt>
      <trkpt lat="48.04735" lon="7.25887">
        <ele>653.94596</ele>
        <time>2018-05-04T14:22:05Z</time>
      </trkpt>
      <trkpt lat="48.04736" lon="7.25889">
        <ele>653.96758</ele>
        <time>2018-05-04T14:22:06Z</time>
      </trkpt>
      <trkpt lat="48.04737" lon="7.2589">
        <ele>654.30525</ele>
        <time>2018-05-04T14:22:07Z</time>
      </trkpt>
      <trkpt lat="48.04738" lon="7.25892">
        <ele>654.39283</ele>
        <time>2018-05-04T14:22:08Z</time>
      </trkpt>
      <trkpt lat="48.0474" lon="7.25896">
        <ele>654.6885</ele>
        <time>2018-05-04T14:22:11Z</time>
      </trkpt>
      <trkpt lat="48.04741" lon="7.25899">
        <ele>654.75565</ele>
        <time>2018-05-04T14:22:12Z</time>
      </trkpt>
      <trkpt lat="48.04741" lon="7.25901">
        <ele>654.80811</ele>
        <time>2018-05-04T14:22:13Z</time>
      </trkpt>
      <trkpt lat="48.04741" lon="7.25904">
        <ele>654.65941</ele>
        <time>2018-05-04T14:22:14Z</time>
      </trkpt>
      <trkpt lat="48.04741" lon="7.25907">
        <ele>654.19716</ele>
        <time>2018-05-04T14:22:15Z</time>
      </trkpt>
      <trkpt lat="48.04741" lon="7.2591">
        <ele>653.78695</ele>
        <time>2018-05-04T14:22:16Z</time>
      </trkpt>
      <trkpt lat="48.04742" lon="7.25916">
        <ele>653.54729</ele>
        <time>2018-05-04T14:22:18Z</time>
      </trkpt>
      <trkpt lat="48.04743" lon="7.25919">
        <ele>653.24926</ele>
        <time>2018-05-04T14:22:19Z</time>
      </trkpt>
      <trkpt lat="48.04743" lon="7.25933">
        <ele>651.83718</ele>
        <time>2018-05-04T14:22:23Z</time>
      </trkpt>
      <trkpt lat="48.04744" lon="7.25939">
        <ele>651.50308</ele>
        <time>2018-05-04T14:22:25Z</time>
      </trkpt>
      <trkpt lat="48.04745" lon="7.25942">
        <ele>650.85426</ele>
        <time>2018-05-04T14:22:26Z</time>
      </trkpt>
      <trkpt lat="48.04745" lon="7.25946">
        <ele>650.28719</ele>
        <time>2018-05-04T14:22:28Z</time>
      </trkpt>
      <trkpt lat="48.04745" lon="7.25949">
        <ele>650.0493</ele>
        <time>2018-05-04T14:22:29Z</time>
      </trkpt>
      <trkpt lat="48.04746" lon="7.25951">
        <ele>649.905</ele>
        <time>2018-05-04T14:22:30Z</time>
      </trkpt>
      <trkpt lat="48.04748" lon="7.25964">
        <ele>648.16102</ele>
        <time>2018-05-04T14:22:35Z</time>
      </trkpt>
      <trkpt lat="48.04749" lon="7.25966">
        <ele>647.82999</ele>
        <time>2018-05-04T14:22:36Z</time>
      </trkpt>
      <trkpt lat="48.04749" lon="7.25968">
        <ele>647.38793</ele>
        <time>2018-05-04T14:22:37Z</time>
      </trkpt>
      <trkpt lat="48.04749" lon="7.2597">
        <ele>647.22695</ele>
        <time>2018-05-04T14:22:38Z</time>
      </trkpt>
      <trkpt lat="48.0475" lon="7.25973">
        <ele>646.7834</ele>
        <time>2018-05-04T14:22:39Z</time>
      </trkpt>
      <trkpt lat="48.04751" lon="7.25975">
        <ele>646.66324</ele>
        <time>2018-05-04T14:22:40Z</time>
      </trkpt>
      <trkpt lat="48.04756" lon="7.25987">
        <ele>644.64864</ele>
        <time>2018-05-04T14:22:45Z</time>
      </trkpt>
      <trkpt lat="48.04757" lon="7.25989">
        <ele>644.10903</ele>
        <time>2018-05-04T14:22:46Z</time>
      </trkpt>
      <trkpt lat="48.04757" lon="7.25992">
        <ele>644.14179</ele>
        <time>2018-05-04T14:22:47Z</time>
      </trkpt>
      <trkpt lat="48.04758" lon="7.25995">
        <ele>643.40103</ele>
        <time>2018-05-04T14:22:48Z</time>
      </trkpt>
      <trkpt lat="48.04757" lon="7.26005">
        <ele>641.98552</ele>
        <time>2018-05-04T14:22:51Z</time>
      </trkpt>
      <trkpt lat="48.04757" lon="7.26008">
        <ele>641.33978</ele>
        <time>2018-05-04T14:22:52Z</time>
      </trkpt>
      <trkpt lat="48.04758" lon="7.26011">
        <ele>640.27266</ele>
        <time>2018-05-04T14:22:53Z</time>
      </trkpt>
      <trkpt lat="48.04759" lon="7.26013">
        <ele>639.73441</ele>
        <time>2018-05-04T14:22:54Z</time>
      </trkpt>
      <trkpt lat="48.0476" lon="7.26015">
        <ele>639.16942</ele>
        <time>2018-05-04T14:22:55Z</time>
      </trkpt>
      <trkpt lat="48.04761" lon="7.26017">
        <ele>638.58321</ele>
        <time>2018-05-04T14:22:56Z</time>
      </trkpt>
      <trkpt lat="48.04765" lon="7.2602">
        <ele>638.53342</ele>
        <time>2018-05-04T14:22:58Z</time>
      </trkpt>
      <trkpt lat="48.04767" lon="7.26021">
        <ele>638.19858</ele>
        <time>2018-05-04T14:22:59Z</time>
      </trkpt>
      <trkpt lat="48.0477" lon="7.26024">
        <ele>637.13234</ele>
        <time>2018-05-04T14:23:01Z</time>
      </trkpt>
      <trkpt lat="48.04772" lon="7.26024">
        <ele>636.8785</ele>
        <time>2018-05-04T14:23:02Z</time>
      </trkpt>
      <trkpt lat="48.04775" lon="7.26025">
        <ele>635.83619</ele>
        <time>2018-05-04T14:23:04Z</time>
      </trkpt>
      <trkpt lat="48.04776" lon="7.26026">
        <ele>635.59298</ele>
        <time>2018-05-04T14:23:05Z</time>
      </trkpt>
      <trkpt lat="48.04777" lon="7.26027">
        <ele>634.99</ele>
        <time>2018-05-04T14:23:06Z</time>
      </trkpt>
      <trkpt lat="48.0478" lon="7.2603">
        <ele>633.47839</ele>
        <time>2018-05-04T14:23:09Z</time>
      </trkpt>
      <trkpt lat="48.04781" lon="7.26032">
        <ele>632.84199</ele>
        <time>2018-05-04T14:23:10Z</time>
      </trkpt>
      <trkpt lat="48.04783" lon="7.26033">
        <ele>632.99395</ele>
        <time>2018-05-04T14:23:11Z</time>
      </trkpt>
      <trkpt lat="48.04785" lon="7.26034">
        <ele>631.58346</ele>
        <time>2018-05-04T14:23:12Z</time>
      </trkpt>
      <trkpt lat="48.04788" lon="7.26035">
        <ele>631.2605</ele>
        <time>2018-05-04T14:23:13Z</time>
      </trkpt>
      <trkpt lat="48.04794" lon="7.26038">
        <ele>629.13759</ele>
        <time>2018-05-04T14:23:16Z</time>
      </trkpt>
      <trkpt lat="48.04796" lon="7.26038">
        <ele>628.84104</ele>
        <time>2018-05-04T14:23:17Z</time>
      </trkpt>
      <trkpt lat="48.04798" lon="7.26038">
        <ele>628.11261</ele>
        <time>2018-05-04T14:23:18Z</time>
      </trkpt>
      <trkpt lat="48.04801" lon="7.26037">
        <ele>627.60878</ele>
        <time>2018-05-04T14:23:20Z</time>
      </trkpt>
      <trkpt lat="48.04803" lon="7.26036">
        <ele>626.76422</ele>
        <time>2018-05-04T14:23:21Z</time>
      </trkpt>
      <trkpt lat="48.04805" lon="7.26037">
        <ele>626.28002</ele>
        <time>2018-05-04T14:23:23Z</time>
      </trkpt>
      <trkpt lat="48.04806" lon="7.26037">
        <ele>625.99242</ele>
        <time>2018-05-04T14:23:24Z</time>
      </trkpt>
      <trkpt lat="48.04808" lon="7.2604">
        <ele>625.02378</ele>
        <time>2018-05-04T14:23:26Z</time>
      </trkpt>
      <trkpt lat="48.04809" lon="7.26043">
        <ele>624.14624</ele>
        <time>2018-05-04T14:23:28Z</time>
      </trkpt>
      <trkpt lat="48.0481" lon="7.26044">
        <ele>623.09632</ele>
        <time>2018-05-04T14:23:29Z</time>
      </trkpt>
      <trkpt lat="48.04831" lon="7.26067">
        <ele>619.51412</ele>
        <time>2018-05-04T14:23:35Z</time>
      </trkpt>
      <trkpt lat="48.04835" lon="7.2607">
        <ele>619.15748</ele>
        <time>2018-05-04T14:23:36Z</time>
      </trkpt>
      <trkpt lat="48.0484" lon="7.26073">
        <ele>619.95647</ele>
        <time>2018-05-04T14:23:37Z</time>
      </trkpt>
      <trkpt lat="48.04843" lon="7.26074">
        <ele>619.34209</ele>
        <time>2018-05-04T14:23:38Z</time>
      </trkpt>
      <trkpt lat="48.04847" lon="7.26074">
        <ele>619.04559</ele>
        <time>2018-05-04T14:23:39Z</time>
      </trkpt>
      <trkpt lat="48.0486" lon="7.26072">
        <ele>618.00705</ele>
        <time>2018-05-04T14:23:43Z</time>
      </trkpt>
      <trkpt lat="48.04862" lon="7.26072">
        <ele>618.3893</ele>
        <time>2018-05-04T14:23:44Z</time>
      </trkpt>
      <trkpt lat="48.04877" lon="7.26077">
        <ele>618.44313</ele>
        <time>2018-05-04T14:23:50Z</time>
      </trkpt>
      <trkpt lat="48.04883" lon="7.26077">
        <ele>618.00365</ele>
        <time>2018-05-04T14:23:55Z</time>
      </trkpt>
      <trkpt lat="48.04885" lon="7.26078">
        <ele>617.91018</ele>
        <time>2018-05-04T14:23:57Z</time>
      </trkpt>
      <trkpt lat="48.04886" lon="7.26078">
        <ele>617.81823</ele>
        <time>2018-05-04T14:23:58Z</time>
      </trkpt>
      <trkpt lat="48.04887" lon="7.26078">
        <ele>617.46729</ele>
        <time>2018-05-04T14:23:59Z</time>
      </trkpt>
      <trkpt lat="48.04892" lon="7.26077">
        <ele>616.92051</ele>
        <time>2018-05-04T14:24:02Z</time>
      </trkpt>
      <trkpt lat="48.04895" lon="7.26075">
        <ele>616.76856</ele>
        <time>2018-05-04T14:24:04Z</time>
      </trkpt>
      <trkpt lat="48.04899" lon="7.26073">
        <ele>616.68955</ele>
        <time>2018-05-04T14:24:06Z</time>
      </trkpt>
      <trkpt lat="48.04903" lon="7.26071">
        <ele>616.44432</ele>
        <time>2018-05-04T14:24:08Z</time>
      </trkpt>
      <trkpt lat="48.04905" lon="7.26071">
        <ele>616.25115</ele>
        <time>2018-05-04T14:24:09Z</time>
      </trkpt>
      <trkpt lat="48.04907" lon="7.26071">
        <ele>616.38204</ele>
        <time>2018-05-04T14:24:10Z</time>
      </trkpt>
      <trkpt lat="48.04909" lon="7.26071">
        <ele>616.4556</ele>
        <time>2018-05-04T14:24:11Z</time>
      </trkpt>
      <trkpt lat="48.04914" lon="7.26072">
        <ele>616.04037</ele>
        <time>2018-05-04T14:24:13Z</time>
      </trkpt>
      <trkpt lat="48.04916" lon="7.26073">
        <ele>615.97061</ele>
        <time>2018-05-04T14:24:14Z</time>
      </trkpt>
      <trkpt lat="48.04918" lon="7.26072">
        <ele>615.67515</ele>
        <time>2018-05-04T14:24:15Z</time>
      </trkpt>
      <trkpt lat="48.04922" lon="7.26073">
        <ele>615.72242</ele>
        <time>2018-05-04T14:24:17Z</time>
      </trkpt>
      <trkpt lat="48.04923" lon="7.26073">
        <ele>615.29624</ele>
        <time>2018-05-04T14:24:18Z</time>
      </trkpt>
      <trkpt lat="48.04923" lon="7.26073">
        <ele>615.27466</ele>
        <time>2018-05-04T14:24:19Z</time>
      </trkpt>
      <trkpt lat="48.04925" lon="7.26075">
        <ele>615.05595</ele>
        <time>2018-05-04T14:24:21Z</time>
      </trkpt>
      <trkpt lat="48.04931" lon="7.26077">
        <ele>614.62605</ele>
        <time>2018-05-04T14:24:24Z</time>
      </trkpt>
      <trkpt lat="48.04932" lon="7.26078">
        <ele>614.35577</ele>
        <time>2018-05-04T14:24:25Z</time>
      </trkpt>
      <trkpt lat="48.04934" lon="7.26079">
        <ele>614.13512</ele>
        <time>2018-05-04T14:24:26Z</time>
      </trkpt>
      <trkpt lat="48.04935" lon="7.2608">
        <ele>614.22244</ele>
        <time>2018-05-04T14:24:27Z</time>
      </trkpt>
      <trkpt lat="48.04937" lon="7.26083">
        <ele>614.26413</ele>
        <time>2018-05-04T14:24:29Z</time>
      </trkpt>
      <trkpt lat="48.04938" lon="7.26085">
        <ele>613.58697</ele>
        <time>2018-05-04T14:24:31Z</time>
      </trkpt>
      <trkpt lat="48.04939" lon="7.26086">
        <ele>613.67309</ele>
        <time>2018-05-04T14:24:34Z</time>
      </trkpt>
      <trkpt lat="48.04942" lon="7.26089">
        <ele>613.80679</ele>
        <time>2018-05-04T14:24:43Z</time>
      </trkpt>
      <trkpt lat="48.04942" lon="7.26089">
        <ele>613.87507</ele>
        <time>2018-05-04T14:24:45Z</time>
      </trkpt>
      <trkpt lat="48.04941" lon="7.26089">
        <ele>613.96268</ele>
        <time>2018-05-04T14:24:46Z</time>
      </trkpt>
      <trkpt lat="48.0494" lon="7.26089">
        <ele>613.93156</ele>
        <time>2018-05-04T14:24:47Z</time>
      </trkpt>
      <trkpt lat="48.0494" lon="7.26088">
        <ele>613.91478</ele>
        <time>2018-05-04T14:24:48Z</time>
      </trkpt>
      <trkpt lat="48.04938" lon="7.26088">
        <ele>613.95242</ele>
        <time>2018-05-04T14:24:49Z</time>
      </trkpt>
      <trkpt lat="48.04938" lon="7.26087">
        <ele>613.86426</ele>
        <time>2018-05-04T14:24:50Z</time>
      </trkpt>
      <trkpt lat="48.04943" lon="7.26089">
        <ele>612.87135</ele>
        <time>2018-05-04T14:24:59Z</time>
      </trkpt>
      <trkpt lat="48.04944" lon="7.2609">
        <ele>612.96815</ele>
        <time>2018-05-04T14:25:00Z</time>
      </trkpt>
      <trkpt lat="48.04946" lon="7.26093">
        <ele>613.04622</ele>
        <time>2018-05-04T14:25:02Z</time>
      </trkpt>
      <trkpt lat="48.04948" lon="7.26095">
        <ele>612.55866</ele>
        <time>2018-05-04T14:25:03Z</time>
      </trkpt>
      <trkpt lat="48.04959" lon="7.26105">
        <ele>612.18284</ele>
        <time>2018-05-04T14:25:08Z</time>
      </trkpt>
      <trkpt lat="48.04961" lon="7.26107">
        <ele>612.05223</ele>
        <time>2018-05-04T14:25:09Z</time>
      </trkpt>
      <trkpt lat="48.04962" lon="7.26109">
        <ele>611.89021</ele>
        <time>2018-05-04T14:25:10Z</time>
      </trkpt>
      <trkpt lat="48.04963" lon="7.26111">
        <ele>611.94739</ele>
        <time>2018-05-04T14:25:11Z</time>
      </trkpt>
      <trkpt lat="48.04963" lon="7.26113">
        <ele>611.95918</ele>
        <time>2018-05-04T14:25:12Z</time>
      </trkpt>
      <trkpt lat="48.04965" lon="7.26116">
        <ele>611.80763</ele>
        <time>2018-05-04T14:25:16Z</time>
      </trkpt>
      <trkpt lat="48.04967" lon="7.2612">
        <ele>611.73998</ele>
        <time>2018-05-04T14:25:44Z</time>
      </trkpt>
      <trkpt lat="48.04967" lon="7.2612">
        <ele>611.75794</ele>
        <time>2018-05-04T14:25:46Z</time>
      </trkpt>
      <trkpt lat="48.04967" lon="7.26121">
        <ele>611.82532</ele>
        <time>2018-05-04T14:25:47Z</time>
      </trkpt>
      <trkpt lat="48.04967" lon="7.26123">
        <ele>611.67529</ele>
        <time>2018-05-04T14:25:48Z</time>
      </trkpt>
      <trkpt lat="48.04968" lon="7.26127">
        <ele>611.78652</ele>
        <time>2018-05-04T14:25:50Z</time>
      </trkpt>
      <trkpt lat="48.04969" lon="7.26129">
        <ele>611.90931</ele>
        <time>2018-05-04T14:25:51Z</time>
      </trkpt>
      <trkpt lat="48.04969" lon="7.26131">
        <ele>611.98311</ele>
        <time>2018-05-04T14:25:52Z</time>
      </trkpt>
      <trkpt lat="48.0497" lon="7.26132">
        <ele>611.80355</ele>
        <time>2018-05-04T14:25:53Z</time>
      </trkpt>
      <trkpt lat="48.0497" lon="7.26134">
        <ele>611.94897</ele>
        <time>2018-05-04T14:25:54Z</time>
      </trkpt>
      <trkpt lat="48.0497" lon="7.26135">
        <ele>612.17161</ele>
        <time>2018-05-04T14:25:55Z</time>
      </trkpt>
      <trkpt lat="48.0497" lon="7.26139">
        <ele>612.30983</ele>
        <time>2018-05-04T14:25:57Z</time>
      </trkpt>
      <trkpt lat="48.0497" lon="7.26141">
        <ele>612.38355</ele>
        <time>2018-05-04T14:25:58Z</time>
      </trkpt>
      <trkpt lat="48.04971" lon="7.26143">
        <ele>612.4027</ele>
        <time>2018-05-04T14:25:59Z</time>
      </trkpt>
      <trkpt lat="48.04971" lon="7.26143">
        <ele>612.40186</ele>
        <time>2018-05-04T14:26:00Z</time>
      </trkpt>
      <trkpt lat="48.0497" lon="7.26144">
        <ele>612.42949</ele>
        <time>2018-05-04T14:26:02Z</time>
      </trkpt>
      <trkpt lat="48.0497" lon="7.26143">
        <ele>612.33339</ele>
        <time>2018-05-04T14:26:03Z</time>
      </trkpt>
      <trkpt lat="48.04969" lon="7.26143">
        <ele>612.34564</ele>
        <time>2018-05-04T14:26:04Z</time>
      </trkpt>
      <trkpt lat="48.0497" lon="7.26145">
        <ele>612.27033</ele>
        <time>2018-05-04T14:26:06Z</time>
      </trkpt>
      <trkpt lat="48.0497" lon="7.26146">
        <ele>612.26925</ele>
        <time>2018-05-04T14:26:07Z</time>
      </trkpt>
      <trkpt lat="48.0497" lon="7.26148">
        <ele>612.60031</ele>
        <time>2018-05-04T14:26:08Z</time>
      </trkpt>
      <trkpt lat="48.04973" lon="7.26157">
        <ele>612.53132</ele>
        <time>2018-05-04T14:26:12Z</time>
      </trkpt>
      <trkpt lat="48.04974" lon="7.26162">
        <ele>612.541</ele>
        <time>2018-05-04T14:26:14Z</time>
      </trkpt>
      <trkpt lat="48.04976" lon="7.26172">
        <ele>612.39835</ele>
        <time>2018-05-04T14:26:18Z</time>
      </trkpt>
      <trkpt lat="48.04978" lon="7.26176">
        <ele>612.80802</ele>
        <time>2018-05-04T14:26:20Z</time>
      </trkpt>
      <trkpt lat="48.0498" lon="7.26179">
        <ele>612.9298</ele>
        <time>2018-05-04T14:26:21Z</time>
      </trkpt>
      <trkpt lat="48.04983" lon="7.26183">
        <ele>612.8926</ele>
        <time>2018-05-04T14:26:23Z</time>
      </trkpt>
      <trkpt lat="48.04984" lon="7.26188">
        <ele>613.11712</ele>
        <time>2018-05-04T14:26:25Z</time>
      </trkpt>
      <trkpt lat="48.04985" lon="7.2619">
        <ele>613.32199</ele>
        <time>2018-05-04T14:26:26Z</time>
      </trkpt>
      <trkpt lat="48.04986" lon="7.26192">
        <ele>613.48988</ele>
        <time>2018-05-04T14:26:27Z</time>
      </trkpt>
      <trkpt lat="48.04986" lon="7.26193">
        <ele>613.54244</ele>
        <time>2018-05-04T14:26:28Z</time>
      </trkpt>
      <trkpt lat="48.04986" lon="7.26194">
        <ele>613.53104</ele>
        <time>2018-05-04T14:26:29Z</time>
      </trkpt>
      <trkpt lat="48.04985" lon="7.26198">
        <ele>613.78675</ele>
        <time>2018-05-04T14:26:31Z</time>
      </trkpt>
      <trkpt lat="48.04983" lon="7.26202">
        <ele>613.75001</ele>
        <time>2018-05-04T14:26:33Z</time>
      </trkpt>
      <trkpt lat="48.04983" lon="7.26205">
        <ele>613.69485</ele>
        <time>2018-05-04T14:26:34Z</time>
      </trkpt>
      <trkpt lat="48.04982" lon="7.26207">
        <ele>613.70429</ele>
        <time>2018-05-04T14:26:35Z</time>
      </trkpt>
      <trkpt lat="48.04983" lon="7.2621">
        <ele>613.63891</ele>
        <time>2018-05-04T14:26:36Z</time>
      </trkpt>
      <trkpt lat="48.04983" lon="7.26213">
        <ele>613.63044</ele>
        <time>2018-05-04T14:26:37Z</time>
      </trkpt>
      <trkpt lat="48.04984" lon="7.26217">
        <ele>613.67077</ele>
        <time>2018-05-04T14:26:38Z</time>
      </trkpt>
      <trkpt lat="48.04984" lon="7.2622">
        <ele>613.60431</ele>
        <time>2018-05-04T14:26:39Z</time>
      </trkpt>
      <trkpt lat="48.04985" lon="7.26222">
        <ele>613.69817</ele>
        <time>2018-05-04T14:26:40Z</time>
      </trkpt>
      <trkpt lat="48.04987" lon="7.26228">
        <ele>613.11525</ele>
        <time>2018-05-04T14:26:42Z</time>
      </trkpt>
      <trkpt lat="48.04988" lon="7.2623">
        <ele>613.07761</ele>
        <time>2018-05-04T14:26:43Z</time>
      </trkpt>
      <trkpt lat="48.04988" lon="7.26233">
        <ele>612.77802</ele>
        <time>2018-05-04T14:26:44Z</time>
      </trkpt>
      <trkpt lat="48.04989" lon="7.26241">
        <ele>612.04109</ele>
        <time>2018-05-04T14:26:47Z</time>
      </trkpt>
      <trkpt lat="48.04989" lon="7.26244">
        <ele>612.00949</ele>
        <time>2018-05-04T14:26:48Z</time>
      </trkpt>
      <trkpt lat="48.04991" lon="7.26248">
        <ele>611.4612</ele>
        <time>2018-05-04T14:26:49Z</time>
      </trkpt>
      <trkpt lat="48.04991" lon="7.2625">
        <ele>611.66218</ele>
        <time>2018-05-04T14:26:50Z</time>
      </trkpt>
      <trkpt lat="48.04991" lon="7.26255">
        <ele>611.06509</ele>
        <time>2018-05-04T14:26:52Z</time>
      </trkpt>
      <trkpt lat="48.04992" lon="7.26256">
        <ele>610.9301</ele>
        <time>2018-05-04T14:26:53Z</time>
      </trkpt>
      <trkpt lat="48.04993" lon="7.26257">
        <ele>610.84213</ele>
        <time>2018-05-04T14:26:54Z</time>
      </trkpt>
      <trkpt lat="48.04995" lon="7.26258">
        <ele>610.56622</ele>
        <time>2018-05-04T14:26:55Z</time>
      </trkpt>
      <trkpt lat="48.04997" lon="7.26258">
        <ele>609.97016</ele>
        <time>2018-05-04T14:26:57Z</time>
      </trkpt>
      <trkpt lat="48.05001" lon="7.26262">
        <ele>609.7907</ele>
        <time>2018-05-04T14:26:59Z</time>
      </trkpt>
      <trkpt lat="48.05003" lon="7.26263">
        <ele>609.40311</ele>
        <time>2018-05-04T14:27:00Z</time>
      </trkpt>
      <trkpt lat="48.05008" lon="7.26266">
        <ele>609.50449</ele>
        <time>2018-05-04T14:27:02Z</time>
      </trkpt>
      <trkpt lat="48.0501" lon="7.26267">
        <ele>609.04006</ele>
        <time>2018-05-04T14:27:03Z</time>
      </trkpt>
      <trkpt lat="48.05011" lon="7.2627">
        <ele>608.8368</ele>
        <time>2018-05-04T14:27:04Z</time>
      </trkpt>
      <trkpt lat="48.05012" lon="7.26273">
        <ele>608.68802</ele>
        <time>2018-05-04T14:27:05Z</time>
      </trkpt>
      <trkpt lat="48.05013" lon="7.26276">
        <ele>608.576</ele>
        <time>2018-05-04T14:27:06Z</time>
      </trkpt>
      <trkpt lat="48.05014" lon="7.26279">
        <ele>608.20346</ele>
        <time>2018-05-04T14:27:07Z</time>
      </trkpt>
      <trkpt lat="48.05017" lon="7.26282">
        <ele>608.27244</ele>
        <time>2018-05-04T14:27:08Z</time>
      </trkpt>
      <trkpt lat="48.05022" lon="7.26288">
        <ele>608.03019</ele>
        <time>2018-05-04T14:27:10Z</time>
      </trkpt>
      <trkpt lat="48.05029" lon="7.26296">
        <ele>608.57538</ele>
        <time>2018-05-04T14:27:13Z</time>
      </trkpt>
      <trkpt lat="48.05032" lon="7.26299">
        <ele>608.01146</ele>
        <time>2018-05-04T14:27:14Z</time>
      </trkpt>
      <trkpt lat="48.05034" lon="7.26303">
        <ele>607.98676</ele>
        <time>2018-05-04T14:27:15Z</time>
      </trkpt>
      <trkpt lat="48.05036" lon="7.26307">
        <ele>607.9493</ele>
        <time>2018-05-04T14:27:16Z</time>
      </trkpt>
      <trkpt lat="48.05042" lon="7.2632">
        <ele>607.72305</ele>
        <time>2018-05-04T14:27:19Z</time>
      </trkpt>
      <trkpt lat="48.05054" lon="7.26352">
        <ele>608.31671</ele>
        <time>2018-05-04T14:27:26Z</time>
      </trkpt>
      <trkpt lat="48.05055" lon="7.26356">
        <ele>607.89142</ele>
        <time>2018-05-04T14:27:27Z</time>
      </trkpt>
      <trkpt lat="48.05055" lon="7.26358">
        <ele>608.03849</ele>
        <time>2018-05-04T14:27:28Z</time>
      </trkpt>
      <trkpt lat="48.05055" lon="7.26361">
        <ele>607.99538</ele>
        <time>2018-05-04T14:27:29Z</time>
      </trkpt>
      <trkpt lat="48.05054" lon="7.26364">
        <ele>607.74485</ele>
        <time>2018-05-04T14:27:30Z</time>
      </trkpt>
      <trkpt lat="48.05054" lon="7.26366">
        <ele>607.84183</ele>
        <time>2018-05-04T14:27:31Z</time>
      </trkpt>
      <trkpt lat="48.05054" lon="7.26368">
        <ele>607.83523</ele>
        <time>2018-05-04T14:27:32Z</time>
      </trkpt>
      <trkpt lat="48.05054" lon="7.2637">
        <ele>608.05975</ele>
        <time>2018-05-04T14:27:33Z</time>
      </trkpt>
      <trkpt lat="48.05055" lon="7.26372">
        <ele>608.22571</ele>
        <time>2018-05-04T14:27:35Z</time>
      </trkpt>
      <trkpt lat="48.05057" lon="7.26375">
        <ele>607.95418</ele>
        <time>2018-05-04T14:27:37Z</time>
      </trkpt>
      <trkpt lat="48.05061" lon="7.2638">
        <ele>608.24119</ele>
        <time>2018-05-04T14:27:40Z</time>
      </trkpt>
      <trkpt lat="48.05064" lon="7.26385">
        <ele>608.11914</ele>
        <time>2018-05-04T14:27:42Z</time>
      </trkpt>
      <trkpt lat="48.05065" lon="7.26386">
        <ele>607.76329</ele>
        <time>2018-05-04T14:27:43Z</time>
      </trkpt>
      <trkpt lat="48.05065" lon="7.26387">
        <ele>607.73447</ele>
        <time>2018-05-04T14:27:44Z</time>
      </trkpt>
      <trkpt lat="48.05066" lon="7.26388">
        <ele>607.56795</ele>
        <time>2018-05-04T14:27:45Z</time>
      </trkpt>
      <trkpt lat="48.05068" lon="7.26396">
        <ele>606.55924</ele>
        <time>2018-05-04T14:27:48Z</time>
      </trkpt>
      <trkpt lat="48.0507" lon="7.26398">
        <ele>606.40366</ele>
        <time>2018-05-04T14:27:49Z</time>
      </trkpt>
      <trkpt lat="48.05073" lon="7.26403">
        <ele>606.0767</ele>
        <time>2018-05-04T14:27:51Z</time>
      </trkpt>
      <trkpt lat="48.05075" lon="7.26406">
        <ele>605.64365</ele>
        <time>2018-05-04T14:27:53Z</time>
      </trkpt>
      <trkpt lat="48.05076" lon="7.26407">
        <ele>605.64899</ele>
        <time>2018-05-04T14:27:54Z</time>
      </trkpt>
      <trkpt lat="48.05077" lon="7.26408">
        <ele>605.50374</ele>
        <time>2018-05-04T14:27:56Z</time>
      </trkpt>
      <trkpt lat="48.05076" lon="7.26409">
        <ele>605.47141</ele>
        <time>2018-05-04T14:27:57Z</time>
      </trkpt>
      <trkpt lat="48.05076" lon="7.2641">
        <ele>605.38065</ele>
        <time>2018-05-04T14:27:58Z</time>
      </trkpt>
      <trkpt lat="48.05075" lon="7.26412">
        <ele>605.38959</ele>
        <time>2018-05-04T14:28:00Z</time>
      </trkpt>
      <trkpt lat="48.05075" lon="7.26412">
        <ele>604.77441</ele>
        <time>2018-05-04T14:28:05Z</time>
      </trkpt>
      <trkpt lat="48.05075" lon="7.26414">
        <ele>604.48733</ele>
        <time>2018-05-04T14:28:06Z</time>
      </trkpt>
      <trkpt lat="48.05078" lon="7.26417">
        <ele>604.30466</ele>
        <time>2018-05-04T14:28:08Z</time>
      </trkpt>
      <trkpt lat="48.05079" lon="7.26419">
        <ele>604.05882</ele>
        <time>2018-05-04T14:28:09Z</time>
      </trkpt>
      <trkpt lat="48.0508" lon="7.2642">
        <ele>603.7437</ele>
        <time>2018-05-04T14:28:10Z</time>
      </trkpt>
      <trkpt lat="48.05082" lon="7.26424">
        <ele>602.98704</ele>
        <time>2018-05-04T14:28:12Z</time>
      </trkpt>
      <trkpt lat="48.05083" lon="7.26425">
        <ele>603.15146</ele>
        <time>2018-05-04T14:28:13Z</time>
      </trkpt>
      <trkpt lat="48.05086" lon="7.26428">
        <ele>602.52392</ele>
        <time>2018-05-04T14:28:15Z</time>
      </trkpt>
      <trkpt lat="48.05093" lon="7.26431">
        <ele>601.20962</ele>
        <time>2018-05-04T14:28:18Z</time>
      </trkpt>
      <trkpt lat="48.05096" lon="7.26433">
        <ele>600.82631</ele>
        <time>2018-05-04T14:28:19Z</time>
      </trkpt>
      <trkpt lat="48.05106" lon="7.26445">
        <ele>597.18171</ele>
        <time>2018-05-04T14:28:27Z</time>
      </trkpt>
      <trkpt lat="48.05107" lon="7.26446">
        <ele>597.32497</ele>
        <time>2018-05-04T14:28:28Z</time>
      </trkpt>
      <trkpt lat="48.05109" lon="7.26447">
        <ele>597.05868</ele>
        <time>2018-05-04T14:28:29Z</time>
      </trkpt>
      <trkpt lat="48.0511" lon="7.26447">
        <ele>597.73802</ele>
        <time>2018-05-04T14:28:30Z</time>
      </trkpt>
      <trkpt lat="48.05111" lon="7.26446">
        <ele>597.40062</ele>
        <time>2018-05-04T14:28:31Z</time>
      </trkpt>
      <trkpt lat="48.05114" lon="7.26446">
        <ele>596.50563</ele>
        <time>2018-05-04T14:28:32Z</time>
      </trkpt>
      <trkpt lat="48.05116" lon="7.26446">
        <ele>596.0648</ele>
        <time>2018-05-04T14:28:33Z</time>
      </trkpt>
      <trkpt lat="48.05119" lon="7.26446">
        <ele>596.27238</ele>
        <time>2018-05-04T14:28:34Z</time>
      </trkpt>
      <trkpt lat="48.05129" lon="7.2645">
        <ele>596.02652</ele>
        <time>2018-05-04T14:28:38Z</time>
      </trkpt>
      <trkpt lat="48.05131" lon="7.26451">
        <ele>595.61908</ele>
        <time>2018-05-04T14:28:39Z</time>
      </trkpt>
      <trkpt lat="48.05139" lon="7.26454">
        <ele>595.52265</ele>
        <time>2018-05-04T14:28:42Z</time>
      </trkpt>
      <trkpt lat="48.05143" lon="7.26455">
        <ele>595.00901</ele>
        <time>2018-05-04T14:28:44Z</time>
      </trkpt>
      <trkpt lat="48.05145" lon="7.26456">
        <ele>595.12811</ele>
        <time>2018-05-04T14:28:45Z</time>
      </trkpt>
      <trkpt lat="48.05146" lon="7.26456">
        <ele>595.17174</ele>
        <time>2018-05-04T14:28:46Z</time>
      </trkpt>
      <trkpt lat="48.05148" lon="7.26456">
        <ele>594.63444</ele>
        <time>2018-05-04T14:28:47Z</time>
      </trkpt>
      <trkpt lat="48.05149" lon="7.26456">
        <ele>594.72551</ele>
        <time>2018-05-04T14:28:48Z</time>
      </trkpt>
      <trkpt lat="48.05151" lon="7.26455">
        <ele>594.45097</ele>
        <time>2018-05-04T14:28:51Z</time>
      </trkpt>
      <trkpt lat="48.05152" lon="7.26456">
        <ele>594.48049</ele>
        <time>2018-05-04T14:28:52Z</time>
      </trkpt>
      <trkpt lat="48.05153" lon="7.26456">
        <ele>594.51179</ele>
        <time>2018-05-04T14:28:53Z</time>
      </trkpt>
      <trkpt lat="48.05154" lon="7.26456">
        <ele>594.12659</ele>
        <time>2018-05-04T14:28:54Z</time>
      </trkpt>
      <trkpt lat="48.05165" lon="7.26454">
        <ele>594.09089</ele>
        <time>2018-05-04T14:29:01Z</time>
      </trkpt>
      <trkpt lat="48.05168" lon="7.26455">
        <ele>593.8654</ele>
        <time>2018-05-04T14:29:02Z</time>
      </trkpt>
      <trkpt lat="48.0517" lon="7.26456">
        <ele>594.27382</ele>
        <time>2018-05-04T14:29:03Z</time>
      </trkpt>
      <trkpt lat="48.05175" lon="7.2646">
        <ele>594.06197</ele>
        <time>2018-05-04T14:29:05Z</time>
      </trkpt>
      <trkpt lat="48.05191" lon="7.2647">
        <ele>592.95074</ele>
        <time>2018-05-04T14:29:10Z</time>
      </trkpt>
      <trkpt lat="48.05203" lon="7.26472">
        <ele>592.33805</ele>
        <time>2018-05-04T14:29:13Z</time>
      </trkpt>
      <trkpt lat="48.05213" lon="7.26476">
        <ele>591.69739</ele>
        <time>2018-05-04T14:29:16Z</time>
      </trkpt>
      <trkpt lat="48.05216" lon="7.26477">
        <ele>591.94542</ele>
        <time>2018-05-04T14:29:17Z</time>
      </trkpt>
      <trkpt lat="48.05221" lon="7.26476">
        <ele>591.73685</ele>
        <time>2018-05-04T14:29:19Z</time>
      </trkpt>
      <trkpt lat="48.05224" lon="7.26475">
        <ele>591.00544</ele>
        <time>2018-05-04T14:29:20Z</time>
      </trkpt>
      <trkpt lat="48.05227" lon="7.26474">
        <ele>591.4975</ele>
        <time>2018-05-04T14:29:21Z</time>
      </trkpt>
      <trkpt lat="48.05229" lon="7.26472">
        <ele>591.24913</ele>
        <time>2018-05-04T14:29:22Z</time>
      </trkpt>
      <trkpt lat="48.05232" lon="7.26471">
        <ele>590.97162</ele>
        <time>2018-05-04T14:29:23Z</time>
      </trkpt>
      <trkpt lat="48.05237" lon="7.26468">
        <ele>591.13155</ele>
        <time>2018-05-04T14:29:25Z</time>
      </trkpt>
      <trkpt lat="48.05247" lon="7.26465">
        <ele>590.9434</ele>
        <time>2018-05-04T14:29:28Z</time>
      </trkpt>
      <trkpt lat="48.0525" lon="7.26466">
        <ele>590.82629</ele>
        <time>2018-05-04T14:29:29Z</time>
      </trkpt>
      <trkpt lat="48.05256" lon="7.2647">
        <ele>590.25381</ele>
        <time>2018-05-04T14:29:31Z</time>
      </trkpt>
      <trkpt lat="48.05259" lon="7.26472">
        <ele>589.83568</ele>
        <time>2018-05-04T14:29:32Z</time>
      </trkpt>
      <trkpt lat="48.05262" lon="7.26472">
        <ele>589.5456</ele>
        <time>2018-05-04T14:29:33Z</time>
      </trkpt>
      <trkpt lat="48.05266" lon="7.26471">
        <ele>589.17608</ele>
        <time>2018-05-04T14:29:35Z</time>
      </trkpt>
      <trkpt lat="48.05268" lon="7.26471">
        <ele>589.0086</ele>
        <time>2018-05-04T14:29:36Z</time>
      </trkpt>
      <trkpt lat="48.05271" lon="7.26472">
        <ele>588.71562</ele>
        <time>2018-05-04T14:29:37Z</time>
      </trkpt>
      <trkpt lat="48.05273" lon="7.26472">
        <ele>588.81861</ele>
        <time>2018-05-04T14:29:38Z</time>
      </trkpt>
      <trkpt lat="48.0528" lon="7.26472">
        <ele>588.28622</ele>
        <time>2018-05-04T14:29:41Z</time>
      </trkpt>
      <trkpt lat="48.05283" lon="7.26473">
        <ele>588.29644</ele>
        <time>2018-05-04T14:29:42Z</time>
      </trkpt>
      <trkpt lat="48.05285" lon="7.26475">
        <ele>587.95788</ele>
        <time>2018-05-04T14:29:43Z</time>
      </trkpt>
      <trkpt lat="48.05287" lon="7.26477">
        <ele>588.07834</ele>
        <time>2018-05-04T14:29:44Z</time>
      </trkpt>
      <trkpt lat="48.05288" lon="7.2648">
        <ele>588.14152</ele>
        <time>2018-05-04T14:29:45Z</time>
      </trkpt>
      <trkpt lat="48.05289" lon="7.26482">
        <ele>588.13656</ele>
        <time>2018-05-04T14:29:46Z</time>
      </trkpt>
      <trkpt lat="48.0529" lon="7.26485">
        <ele>588.4133</ele>
        <time>2018-05-04T14:29:47Z</time>
      </trkpt>
      <trkpt lat="48.0529" lon="7.26487">
        <ele>588.62159</ele>
        <time>2018-05-04T14:29:48Z</time>
      </trkpt>
      <trkpt lat="48.05291" lon="7.2649">
        <ele>588.66626</ele>
        <time>2018-05-04T14:29:49Z</time>
      </trkpt>
      <trkpt lat="48.05291" lon="7.26493">
        <ele>589.07436</ele>
        <time>2018-05-04T14:29:50Z</time>
      </trkpt>
      <trkpt lat="48.05292" lon="7.26495">
        <ele>588.85755</ele>
        <time>2018-05-04T14:29:51Z</time>
      </trkpt>
      <trkpt lat="48.05295" lon="7.26501">
        <ele>588.9357</ele>
        <time>2018-05-04T14:29:54Z</time>
      </trkpt>
      <trkpt lat="48.05296" lon="7.26503">
        <ele>589.30389</ele>
        <time>2018-05-04T14:29:55Z</time>
      </trkpt>
      <trkpt lat="48.05295" lon="7.26505">
        <ele>589.56619</ele>
        <time>2018-05-04T14:29:56Z</time>
      </trkpt>
      <trkpt lat="48.05294" lon="7.26511">
        <ele>589.94253</ele>
        <time>2018-05-04T14:29:59Z</time>
      </trkpt>
      <trkpt lat="48.05294" lon="7.26513">
        <ele>590.19089</ele>
        <time>2018-05-04T14:30:00Z</time>
      </trkpt>
      <trkpt lat="48.05294" lon="7.26516">
        <ele>590.36534</ele>
        <time>2018-05-04T14:30:01Z</time>
      </trkpt>
      <trkpt lat="48.05297" lon="7.26522">
        <ele>590.93704</ele>
        <time>2018-05-04T14:30:04Z</time>
      </trkpt>
      <trkpt lat="48.05298" lon="7.26524">
        <ele>590.82658</ele>
        <time>2018-05-04T14:30:05Z</time>
      </trkpt>
      <trkpt lat="48.05298" lon="7.26525">
        <ele>591.20326</ele>
        <time>2018-05-04T14:30:06Z</time>
      </trkpt>
      <trkpt lat="48.05299" lon="7.26526">
        <ele>591.13291</ele>
        <time>2018-05-04T14:30:07Z</time>
      </trkpt>
      <trkpt lat="48.053" lon="7.2653">
        <ele>591.03549</ele>
        <time>2018-05-04T14:30:11Z</time>
      </trkpt>
      <trkpt lat="48.053" lon="7.2653">
        <ele>590.88366</ele>
        <time>2018-05-04T14:30:12Z</time>
      </trkpt>
      <trkpt lat="48.05301" lon="7.2653">
        <ele>590.98849</ele>
        <time>2018-05-04T14:30:13Z</time>
      </trkpt>
      <trkpt lat="48.05302" lon="7.26531">
        <ele>591.13864</ele>
        <time>2018-05-04T14:30:14Z</time>
      </trkpt>
      <trkpt lat="48.05303" lon="7.26532">
        <ele>591.12244</ele>
        <time>2018-05-04T14:30:15Z</time>
      </trkpt>
      <trkpt lat="48.05303" lon="7.26532">
        <ele>590.78381</ele>
        <time>2018-05-04T14:30:16Z</time>
      </trkpt>
      <trkpt lat="48.05305" lon="7.26533">
        <ele>590.68658</ele>
        <time>2018-05-04T14:30:18Z</time>
      </trkpt>
      <trkpt lat="48.05306" lon="7.26533">
        <ele>590.68201</ele>
        <time>2018-05-04T14:30:19Z</time>
      </trkpt>
      <trkpt lat="48.05306" lon="7.26534">
        <ele>590.96859</ele>
        <time>2018-05-04T14:30:20Z</time>
      </trkpt>
      <trkpt lat="48.05307" lon="7.26534">
        <ele>590.81651</ele>
        <time>2018-05-04T14:30:21Z</time>
      </trkpt>
      <trkpt lat="48.05307" lon="7.26535">
        <ele>590.81166</ele>
        <time>2018-05-04T14:30:22Z</time>
      </trkpt>
      <trkpt lat="48.05309" lon="7.26539">
        <ele>590.54639</ele>
        <time>2018-05-04T14:30:30Z</time>
      </trkpt>
      <trkpt lat="48.05311" lon="7.26539">
        <ele>590.70733</ele>
        <time>2018-05-04T14:30:39Z</time>
      </trkpt>
      <trkpt lat="48.05312" lon="7.26539">
        <ele>590.72108</ele>
        <time>2018-05-04T14:30:40Z</time>
      </trkpt>
      <trkpt lat="48.05314" lon="7.26538">
        <ele>590.67697</ele>
        <time>2018-05-04T14:30:41Z</time>
      </trkpt>
      <trkpt lat="48.05315" lon="7.26539">
        <ele>590.74618</ele>
        <time>2018-05-04T14:30:42Z</time>
      </trkpt>
      <trkpt lat="48.05316" lon="7.26539">
        <ele>590.66447</ele>
        <time>2018-05-04T14:30:43Z</time>
      </trkpt>
      <trkpt lat="48.05317" lon="7.26538">
        <ele>590.66028</ele>
        <time>2018-05-04T14:30:44Z</time>
      </trkpt>
      <trkpt lat="48.05318" lon="7.26538">
        <ele>590.71869</ele>
        <time>2018-05-04T14:30:45Z</time>
      </trkpt>
      <trkpt lat="48.05319" lon="7.26537">
        <ele>590.81067</ele>
        <time>2018-05-04T14:30:46Z</time>
      </trkpt>
      <trkpt lat="48.0532" lon="7.26536">
        <ele>590.74196</ele>
        <time>2018-05-04T14:30:47Z</time>
      </trkpt>
      <trkpt lat="48.05321" lon="7.26536">
        <ele>590.60907</ele>
        <time>2018-05-04T14:30:48Z</time>
      </trkpt>
      <trkpt lat="48.05322" lon="7.26536">
        <ele>590.78717</ele>
        <time>2018-05-04T14:30:49Z</time>
      </trkpt>
      <trkpt lat="48.05323" lon="7.26535">
        <ele>591.33488</ele>
        <time>2018-05-04T14:30:50Z</time>
      </trkpt>
      <trkpt lat="48.05324" lon="7.26535">
        <ele>591.35939</ele>
        <time>2018-05-04T14:30:51Z</time>
      </trkpt>
      <trkpt lat="48.05325" lon="7.26535">
        <ele>591.16501</ele>
        <time>2018-05-04T14:30:52Z</time>
      </trkpt>
      <trkpt lat="48.05327" lon="7.26534">
        <ele>590.84961</ele>
        <time>2018-05-04T14:30:53Z</time>
      </trkpt>
      <trkpt lat="48.05329" lon="7.26532">
        <ele>591.10429</ele>
        <time>2018-05-04T14:30:54Z</time>
      </trkpt>
      <trkpt lat="48.05331" lon="7.2653">
        <ele>590.80917</ele>
        <time>2018-05-04T14:30:55Z</time>
      </trkpt>
      <trkpt lat="48.05332" lon="7.26528">
        <ele>590.72388</ele>
        <time>2018-05-04T14:30:56Z</time>
      </trkpt>
      <trkpt lat="48.05334" lon="7.26526">
        <ele>590.75547</ele>
        <time>2018-05-04T14:30:57Z</time>
      </trkpt>
      <trkpt lat="48.05335" lon="7.26523">
        <ele>590.89426</ele>
        <time>2018-05-04T14:30:58Z</time>
      </trkpt>
      <trkpt lat="48.05339" lon="7.26515">
        <ele>590.52708</ele>
        <time>2018-05-04T14:31:01Z</time>
      </trkpt>
      <trkpt lat="48.05341" lon="7.26512">
        <ele>590.53368</ele>
        <time>2018-05-04T14:31:02Z</time>
      </trkpt>
      <trkpt lat="48.05356" lon="7.26497">
        <ele>590.15146</ele>
        <time>2018-05-04T14:31:07Z</time>
      </trkpt>
      <trkpt lat="48.05358" lon="7.26495">
        <ele>589.99015</ele>
        <time>2018-05-04T14:31:08Z</time>
      </trkpt>
      <trkpt lat="48.0536" lon="7.26493">
        <ele>589.72691</ele>
        <time>2018-05-04T14:31:09Z</time>
      </trkpt>
      <trkpt lat="48.05361" lon="7.26491">
        <ele>590.16665</ele>
        <time>2018-05-04T14:31:10Z</time>
      </trkpt>
      <trkpt lat="48.05362" lon="7.26489">
        <ele>589.49382</ele>
        <time>2018-05-04T14:31:11Z</time>
      </trkpt>
      <trkpt lat="48.05363" lon="7.26487">
        <ele>589.44127</ele>
        <time>2018-05-04T14:31:12Z</time>
      </trkpt>
      <trkpt lat="48.05364" lon="7.26484">
        <ele>589.13453</ele>
        <time>2018-05-04T14:31:13Z</time>
      </trkpt>
      <trkpt lat="48.05365" lon="7.26482">
        <ele>589.34197</ele>
        <time>2018-05-04T14:31:14Z</time>
      </trkpt>
      <trkpt lat="48.05366" lon="7.2648">
        <ele>589.26503</ele>
        <time>2018-05-04T14:31:15Z</time>
      </trkpt>
      <trkpt lat="48.05369" lon="7.26474">
        <ele>588.79901</ele>
        <time>2018-05-04T14:31:17Z</time>
      </trkpt>
      <trkpt lat="48.0537" lon="7.26471">
        <ele>589.11278</ele>
        <time>2018-05-04T14:31:18Z</time>
      </trkpt>
      <trkpt lat="48.05373" lon="7.2647">
        <ele>588.67894</ele>
        <time>2018-05-04T14:31:19Z</time>
      </trkpt>
      <trkpt lat="48.05376" lon="7.26469">
        <ele>588.85285</ele>
        <time>2018-05-04T14:31:20Z</time>
      </trkpt>
      <trkpt lat="48.0538" lon="7.26469">
        <ele>588.729</ele>
        <time>2018-05-04T14:31:21Z</time>
      </trkpt>
      <trkpt lat="48.05393" lon="7.26474">
        <ele>588.30276</ele>
        <time>2018-05-04T14:31:26Z</time>
      </trkpt>
      <trkpt lat="48.05397" lon="7.26477">
        <ele>588.33189</ele>
        <time>2018-05-04T14:31:28Z</time>
      </trkpt>
      <trkpt lat="48.05402" lon="7.26479">
        <ele>588.13223</ele>
        <time>2018-05-04T14:31:30Z</time>
      </trkpt>
      <trkpt lat="48.05423" lon="7.26496">
        <ele>587.42024</ele>
        <time>2018-05-04T14:31:38Z</time>
      </trkpt>
      <trkpt lat="48.05425" lon="7.26498">
        <ele>587.29613</ele>
        <time>2018-05-04T14:31:39Z</time>
      </trkpt>
      <trkpt lat="48.05426" lon="7.265">
        <ele>587.04633</ele>
        <time>2018-05-04T14:31:40Z</time>
      </trkpt>
      <trkpt lat="48.05427" lon="7.26503">
        <ele>587.06293</ele>
        <time>2018-05-04T14:31:41Z</time>
      </trkpt>
      <trkpt lat="48.05428" lon="7.26506">
        <ele>587.04717</ele>
        <time>2018-05-04T14:31:42Z</time>
      </trkpt>
      <trkpt lat="48.05431" lon="7.26512">
        <ele>586.6965</ele>
        <time>2018-05-04T14:31:44Z</time>
      </trkpt>
      <trkpt lat="48.05434" lon="7.26515">
        <ele>586.96762</ele>
        <time>2018-05-04T14:31:45Z</time>
      </trkpt>
      <trkpt lat="48.05439" lon="7.26521">
        <ele>586.37462</ele>
        <time>2018-05-04T14:31:47Z</time>
      </trkpt>
      <trkpt lat="48.05445" lon="7.26526">
        <ele>586.21476</ele>
        <time>2018-05-04T14:31:49Z</time>
      </trkpt>
      <trkpt lat="48.05447" lon="7.26528">
        <ele>585.99503</ele>
        <time>2018-05-04T14:31:50Z</time>
      </trkpt>
      <trkpt lat="48.05452" lon="7.26535">
        <ele>586.0672</ele>
        <time>2018-05-04T14:31:53Z</time>
      </trkpt>
      <trkpt lat="48.05453" lon="7.26538">
        <ele>586.01734</ele>
        <time>2018-05-04T14:31:54Z</time>
      </trkpt>
      <trkpt lat="48.05454" lon="7.26541">
        <ele>585.5105</ele>
        <time>2018-05-04T14:31:55Z</time>
      </trkpt>
      <trkpt lat="48.05455" lon="7.26544">
        <ele>585.47273</ele>
        <time>2018-05-04T14:31:56Z</time>
      </trkpt>
      <trkpt lat="48.05456" lon="7.26547">
        <ele>585.70225</ele>
        <time>2018-05-04T14:31:57Z</time>
      </trkpt>
      <trkpt lat="48.05459" lon="7.26552">
        <ele>585.4086</ele>
        <time>2018-05-04T14:31:59Z</time>
      </trkpt>
      <trkpt lat="48.05461" lon="7.26554">
        <ele>585.64676</ele>
        <time>2018-05-04T14:32:00Z</time>
      </trkpt>
      <trkpt lat="48.05468" lon="7.26562">
        <ele>585.26571</ele>
        <time>2018-05-04T14:32:03Z</time>
      </trkpt>
      <trkpt lat="48.05472" lon="7.26565">
        <ele>585.11172</ele>
        <time>2018-05-04T14:32:05Z</time>
      </trkpt>
      <trkpt lat="48.05478" lon="7.26569">
        <ele>584.89919</ele>
        <time>2018-05-04T14:32:09Z</time>
      </trkpt>
      <trkpt lat="48.0548" lon="7.2657">
        <ele>584.29207</ele>
        <time>2018-05-04T14:32:10Z</time>
      </trkpt>
      <trkpt lat="48.05484" lon="7.26575">
        <ele>584.06106</ele>
        <time>2018-05-04T14:32:13Z</time>
      </trkpt>
      <trkpt lat="48.05486" lon="7.26577">
        <ele>583.77747</ele>
        <time>2018-05-04T14:32:14Z</time>
      </trkpt>
      <trkpt lat="48.05488" lon="7.2658">
        <ele>583.99397</ele>
        <time>2018-05-04T14:32:15Z</time>
      </trkpt>
      <trkpt lat="48.05491" lon="7.26583">
        <ele>583.84251</ele>
        <time>2018-05-04T14:32:16Z</time>
      </trkpt>
      <trkpt lat="48.05492" lon="7.26586">
        <ele>583.69413</ele>
        <time>2018-05-04T14:32:17Z</time>
      </trkpt>
      <trkpt lat="48.05493" lon="7.26588">
        <ele>584.02814</ele>
        <time>2018-05-04T14:32:18Z</time>
      </trkpt>
      <trkpt lat="48.05493" lon="7.26589">
        <ele>583.96797</ele>
        <time>2018-05-04T14:32:19Z</time>
      </trkpt>
      <trkpt lat="48.05494" lon="7.26591">
        <ele>583.74279</ele>
        <time>2018-05-04T14:32:20Z</time>
      </trkpt>
      <trkpt lat="48.05499" lon="7.26597">
        <ele>583.59635</ele>
        <time>2018-05-04T14:32:23Z</time>
      </trkpt>
      <trkpt lat="48.055" lon="7.26599">
        <ele>583.23929</ele>
        <time>2018-05-04T14:32:24Z</time>
      </trkpt>
      <trkpt lat="48.05502" lon="7.26602">
        <ele>583.47268</ele>
        <time>2018-05-04T14:32:25Z</time>
      </trkpt>
      <trkpt lat="48.05505" lon="7.26604">
        <ele>583.21834</ele>
        <time>2018-05-04T14:32:26Z</time>
      </trkpt>
      <trkpt lat="48.05513" lon="7.26609">
        <ele>582.95587</ele>
        <time>2018-05-04T14:32:29Z</time>
      </trkpt>
      <trkpt lat="48.05515" lon="7.2661">
        <ele>583.2333</ele>
        <time>2018-05-04T14:32:30Z</time>
      </trkpt>
      <trkpt lat="48.05522" lon="7.2662">
        <ele>582.48673</ele>
        <time>2018-05-04T14:32:35Z</time>
      </trkpt>
      <trkpt lat="48.05531" lon="7.26626">
        <ele>582.32524</ele>
        <time>2018-05-04T14:32:39Z</time>
      </trkpt>
      <trkpt lat="48.05532" lon="7.26628">
        <ele>581.98982</ele>
        <time>2018-05-04T14:32:40Z</time>
      </trkpt>
      <trkpt lat="48.05533" lon="7.26629">
        <ele>582.00151</ele>
        <time>2018-05-04T14:32:41Z</time>
      </trkpt>
      <trkpt lat="48.05534" lon="7.26629">
        <ele>581.98242</ele>
        <time>2018-05-04T14:32:42Z</time>
      </trkpt>
      <trkpt lat="48.05535" lon="7.26631">
        <ele>582.0118</ele>
        <time>2018-05-04T14:32:43Z</time>
      </trkpt>
      <trkpt lat="48.05536" lon="7.26631">
        <ele>581.82098</ele>
        <time>2018-05-04T14:32:44Z</time>
      </trkpt>
      <trkpt lat="48.05537" lon="7.26632">
        <ele>581.79447</ele>
        <time>2018-05-04T14:32:45Z</time>
      </trkpt>
      <trkpt lat="48.05538" lon="7.26632">
        <ele>581.53651</ele>
        <time>2018-05-04T14:32:46Z</time>
      </trkpt>
      <trkpt lat="48.05539" lon="7.26632">
        <ele>581.35226</ele>
        <time>2018-05-04T14:32:48Z</time>
      </trkpt>
      <trkpt lat="48.0554" lon="7.26632">
        <ele>581.4035</ele>
        <time>2018-05-04T14:32:49Z</time>
      </trkpt>
      <trkpt lat="48.05541" lon="7.26633">
        <ele>581.33901</ele>
        <time>2018-05-04T14:32:50Z</time>
      </trkpt>
      <trkpt lat="48.05542" lon="7.26635">
        <ele>581.47782</ele>
        <time>2018-05-04T14:32:51Z</time>
      </trkpt>
      <trkpt lat="48.05544" lon="7.26637">
        <ele>581.07037</ele>
        <time>2018-05-04T14:32:52Z</time>
      </trkpt>
      <trkpt lat="48.05546" lon="7.26638">
        <ele>580.88705</ele>
        <time>2018-05-04T14:32:53Z</time>
      </trkpt>
      <trkpt lat="48.05547" lon="7.2664">
        <ele>581.41544</ele>
        <time>2018-05-04T14:32:54Z</time>
      </trkpt>
      <trkpt lat="48.05549" lon="7.2664">
        <ele>581.41544</ele>
        <time>2018-05-04T14:32:55Z</time>
      </trkpt>
      <trkpt lat="48.05564" lon="7.26641">
        <ele>580.92069</ele>
        <time>2018-05-04T14:33:00Z</time>
      </trkpt>
      <trkpt lat="48.05567" lon="7.2664">
        <ele>581.02302</ele>
        <time>2018-05-04T14:33:01Z</time>
      </trkpt>
      <trkpt lat="48.05571" lon="7.26638">
        <ele>580.83945</ele>
        <time>2018-05-04T14:33:02Z</time>
      </trkpt>
      <trkpt lat="48.05575" lon="7.26634">
        <ele>580.84961</ele>
        <time>2018-05-04T14:33:03Z</time>
      </trkpt>
      <trkpt lat="48.05578" lon="7.26631">
        <ele>580.69795</ele>
        <time>2018-05-04T14:33:04Z</time>
      </trkpt>
      <trkpt lat="48.05586" lon="7.2662">
        <ele>580.35368</ele>
        <time>2018-05-04T14:33:07Z</time>
      </trkpt>
      <trkpt lat="48.05589" lon="7.26617">
        <ele>580.70664</ele>
        <time>2018-05-04T14:33:08Z</time>
      </trkpt>
      <trkpt lat="48.05592" lon="7.26616">
        <ele>580.46863</ele>
        <time>2018-05-04T14:33:09Z</time>
      </trkpt>
      <trkpt lat="48.05598" lon="7.26614">
        <ele>580.42808</ele>
        <time>2018-05-04T14:33:11Z</time>
      </trkpt>
      <trkpt lat="48.05601" lon="7.26614">
        <ele>580.12905</ele>
        <time>2018-05-04T14:33:12Z</time>
      </trkpt>
      <trkpt lat="48.05608" lon="7.26616">
        <ele>579.90634</ele>
        <time>2018-05-04T14:33:14Z</time>
      </trkpt>
      <trkpt lat="48.05621" lon="7.26622">
        <ele>579.3662</ele>
        <time>2018-05-04T14:33:18Z</time>
      </trkpt>
      <trkpt lat="48.05624" lon="7.26622">
        <ele>579.48157</ele>
        <time>2018-05-04T14:33:19Z</time>
      </trkpt>
      <trkpt lat="48.05628" lon="7.26622">
        <ele>579.25432</ele>
        <time>2018-05-04T14:33:21Z</time>
      </trkpt>
      <trkpt lat="48.05632" lon="7.26623">
        <ele>579.08261</ele>
        <time>2018-05-04T14:33:23Z</time>
      </trkpt>
      <trkpt lat="48.05635" lon="7.26623">
        <ele>578.65156</ele>
        <time>2018-05-04T14:33:24Z</time>
      </trkpt>
      <trkpt lat="48.05641" lon="7.26626">
        <ele>578.53679</ele>
        <time>2018-05-04T14:33:28Z</time>
      </trkpt>
      <trkpt lat="48.05642" lon="7.26626">
        <ele>578.65957</ele>
        <time>2018-05-04T14:33:29Z</time>
      </trkpt>
      <trkpt lat="48.05644" lon="7.26627">
        <ele>578.50062</ele>
        <time>2018-05-04T14:33:30Z</time>
      </trkpt>
      <trkpt lat="48.05649" lon="7.26627">
        <ele>578.62652</ele>
        <time>2018-05-04T14:33:32Z</time>
      </trkpt>
      <trkpt lat="48.05654" lon="7.2663">
        <ele>578.04107</ele>
        <time>2018-05-04T14:33:34Z</time>
      </trkpt>
      <trkpt lat="48.05662" lon="7.26636">
        <ele>578.16151</ele>
        <time>2018-05-04T14:33:36Z</time>
      </trkpt>
      <trkpt lat="48.05664" lon="7.26638">
        <ele>578.33261</ele>
        <time>2018-05-04T14:33:37Z</time>
      </trkpt>
      <trkpt lat="48.0567" lon="7.26644">
        <ele>578.27354</ele>
        <time>2018-05-04T14:33:40Z</time>
      </trkpt>
      <trkpt lat="48.05672" lon="7.26647">
        <ele>578.24032</ele>
        <time>2018-05-04T14:33:41Z</time>
      </trkpt>
      <trkpt lat="48.05676" lon="7.26655">
        <ele>578.15547</ele>
        <time>2018-05-04T14:33:44Z</time>
      </trkpt>
      <trkpt lat="48.05677" lon="7.26657">
        <ele>578.19997</ele>
        <time>2018-05-04T14:33:45Z</time>
      </trkpt>
      <trkpt lat="48.0568" lon="7.26661">
        <ele>578.27618</ele>
        <time>2018-05-04T14:33:46Z</time>
      </trkpt>
      <trkpt lat="48.05687" lon="7.2667">
        <ele>578.22925</ele>
        <time>2018-05-04T14:33:50Z</time>
      </trkpt>
      <trkpt lat="48.0569" lon="7.26674">
        <ele>578.21691</ele>
        <time>2018-05-04T14:33:52Z</time>
      </trkpt>
      <trkpt lat="48.05694" lon="7.26679">
        <ele>578.24208</ele>
        <time>2018-05-04T14:33:55Z</time>
      </trkpt>
      <trkpt lat="48.05695" lon="7.26681">
        <ele>578.46137</ele>
        <time>2018-05-04T14:33:56Z</time>
      </trkpt>
      <trkpt lat="48.05696" lon="7.26685">
        <ele>578.55479</ele>
        <time>2018-05-04T14:33:58Z</time>
      </trkpt>
      <trkpt lat="48.05697" lon="7.26687">
        <ele>578.22963</ele>
        <time>2018-05-04T14:33:59Z</time>
      </trkpt>
      <trkpt lat="48.05697" lon="7.26689">
        <ele>578.56424</ele>
        <time>2018-05-04T14:34:00Z</time>
      </trkpt>
      <trkpt lat="48.05697" lon="7.26691">
        <ele>578.45746</ele>
        <time>2018-05-04T14:34:01Z</time>
      </trkpt>
      <trkpt lat="48.05696" lon="7.26693">
        <ele>578.34824</ele>
        <time>2018-05-04T14:34:02Z</time>
      </trkpt>
      <trkpt lat="48.05697" lon="7.26695">
        <ele>578.67264</ele>
        <time>2018-05-04T14:34:03Z</time>
      </trkpt>
      <trkpt lat="48.05697" lon="7.26697">
        <ele>578.60521</ele>
        <time>2018-05-04T14:34:04Z</time>
      </trkpt>
      <trkpt lat="48.05698" lon="7.26699">
        <ele>578.82794</ele>
        <time>2018-05-04T14:34:05Z</time>
      </trkpt>
      <trkpt lat="48.05699" lon="7.26701">
        <ele>578.62327</ele>
        <time>2018-05-04T14:34:06Z</time>
      </trkpt>
      <trkpt lat="48.05699" lon="7.26704">
        <ele>578.44827</ele>
        <time>2018-05-04T14:34:07Z</time>
      </trkpt>
      <trkpt lat="48.057" lon="7.26706">
        <ele>578.52412</ele>
        <time>2018-05-04T14:34:08Z</time>
      </trkpt>
      <trkpt lat="48.057" lon="7.26709">
        <ele>578.35861</ele>
        <time>2018-05-04T14:34:10Z</time>
      </trkpt>
      <trkpt lat="48.057" lon="7.26714">
        <ele>578.55833</ele>
        <time>2018-05-04T14:34:12Z</time>
      </trkpt>
      <trkpt lat="48.057" lon="7.26716">
        <ele>579.10086</ele>
        <time>2018-05-04T14:34:13Z</time>
      </trkpt>
      <trkpt lat="48.05701" lon="7.26719">
        <ele>578.82061</ele>
        <time>2018-05-04T14:34:14Z</time>
      </trkpt>
      <trkpt lat="48.05702" lon="7.26721">
        <ele>578.91536</ele>
        <time>2018-05-04T14:34:15Z</time>
      </trkpt>
      <trkpt lat="48.05704" lon="7.26723">
        <ele>578.82353</ele>
        <time>2018-05-04T14:34:16Z</time>
      </trkpt>
      <trkpt lat="48.05705" lon="7.26726">
        <ele>578.83011</ele>
        <time>2018-05-04T14:34:17Z</time>
      </trkpt>
      <trkpt lat="48.05706" lon="7.26728">
        <ele>578.76427</ele>
        <time>2018-05-04T14:34:18Z</time>
      </trkpt>
      <trkpt lat="48.05706" lon="7.26731">
        <ele>578.54944</ele>
        <time>2018-05-04T14:34:19Z</time>
      </trkpt>
      <trkpt lat="48.05706" lon="7.26734">
        <ele>578.64519</ele>
        <time>2018-05-04T14:34:20Z</time>
      </trkpt>
      <trkpt lat="48.05707" lon="7.26736">
        <ele>578.64519</ele>
        <time>2018-05-04T14:34:21Z</time>
      </trkpt>
      <trkpt lat="48.05708" lon="7.26738">
        <ele>578.78784</ele>
        <time>2018-05-04T14:34:22Z</time>
      </trkpt>
      <trkpt lat="48.05709" lon="7.26739">
        <ele>578.53739</ele>
        <time>2018-05-04T14:34:23Z</time>
      </trkpt>
      <trkpt lat="48.05709" lon="7.26741">
        <ele>578.73395</ele>
        <time>2018-05-04T14:34:24Z</time>
      </trkpt>
      <trkpt lat="48.0571" lon="7.26743">
        <ele>578.58742</ele>
        <time>2018-05-04T14:34:25Z</time>
      </trkpt>
      <trkpt lat="48.05711" lon="7.26744">
        <ele>578.45552</ele>
        <time>2018-05-04T14:34:26Z</time>
      </trkpt>
      <trkpt lat="48.05712" lon="7.26746">
        <ele>578.50385</ele>
        <time>2018-05-04T14:34:27Z</time>
      </trkpt>
      <trkpt lat="48.05716" lon="7.26748">
        <ele>578.49139</ele>
        <time>2018-05-04T14:34:29Z</time>
      </trkpt>
      <trkpt lat="48.05717" lon="7.26749">
        <ele>578.48349</ele>
        <time>2018-05-04T14:34:30Z</time>
      </trkpt>
      <trkpt lat="48.0572" lon="7.2675">
        <ele>578.73643</ele>
        <time>2018-05-04T14:34:32Z</time>
      </trkpt>
      <trkpt lat="48.0572" lon="7.2675">
        <ele>578.47017</ele>
        <time>2018-05-04T14:34:33Z</time>
      </trkpt>
      <trkpt lat="48.05721" lon="7.2675">
        <ele>578.77208</ele>
        <time>2018-05-04T14:34:34Z</time>
      </trkpt>
      <trkpt lat="48.05724" lon="7.26751">
        <ele>578.88365</ele>
        <time>2018-05-04T14:34:36Z</time>
      </trkpt>
      <trkpt lat="48.05726" lon="7.26752">
        <ele>578.8971</ele>
        <time>2018-05-04T14:34:37Z</time>
      </trkpt>
      <trkpt lat="48.05727" lon="7.26752">
        <ele>579.08155</ele>
        <time>2018-05-04T14:34:38Z</time>
      </trkpt>
      <trkpt lat="48.05729" lon="7.26752">
        <ele>579.06191</ele>
        <time>2018-05-04T14:34:39Z</time>
      </trkpt>
      <trkpt lat="48.05734" lon="7.26752">
        <ele>579.3549</ele>
        <time>2018-05-04T14:34:42Z</time>
      </trkpt>
      <trkpt lat="48.05735" lon="7.26752">
        <ele>579.33583</ele>
        <time>2018-05-04T14:34:43Z</time>
      </trkpt>
      <trkpt lat="48.05736" lon="7.26753">
        <ele>580.05795</ele>
        <time>2018-05-04T14:34:44Z</time>
      </trkpt>
      <trkpt lat="48.05737" lon="7.26753">
        <ele>580.40355</ele>
        <time>2018-05-04T14:34:45Z</time>
      </trkpt>
      <trkpt lat="48.05738" lon="7.26754">
        <ele>580.57548</ele>
        <time>2018-05-04T14:34:46Z</time>
      </trkpt>
      <trkpt lat="48.05739" lon="7.26755">
        <ele>580.55168</ele>
        <time>2018-05-04T14:34:47Z</time>
      </trkpt>
      <trkpt lat="48.0574" lon="7.26757">
        <ele>580.75021</ele>
        <time>2018-05-04T14:34:48Z</time>
      </trkpt>
      <trkpt lat="48.0574" lon="7.26758">
        <ele>580.87294</ele>
        <time>2018-05-04T14:34:49Z</time>
      </trkpt>
      <trkpt lat="48.05741" lon="7.26761">
        <ele>580.9211</ele>
        <time>2018-05-04T14:34:50Z</time>
      </trkpt>
      <trkpt lat="48.05743" lon="7.2677">
        <ele>580.42798</ele>
        <time>2018-05-04T14:34:53Z</time>
      </trkpt>
      <trkpt lat="48.05744" lon="7.26773">
        <ele>580.18968</ele>
        <time>2018-05-04T14:34:54Z</time>
      </trkpt>
      <trkpt lat="48.05744" lon="7.26776">
        <ele>579.90486</ele>
        <time>2018-05-04T14:34:55Z</time>
      </trkpt>
      <trkpt lat="48.05745" lon="7.26779">
        <ele>579.80118</ele>
        <time>2018-05-04T14:34:56Z</time>
      </trkpt>
      <trkpt lat="48.05745" lon="7.26784">
        <ele>579.17814</ele>
        <time>2018-05-04T14:34:58Z</time>
      </trkpt>
      <trkpt lat="48.05746" lon="7.26785">
        <ele>578.88886</ele>
        <time>2018-05-04T14:34:59Z</time>
      </trkpt>
      <trkpt lat="48.05747" lon="7.26786">
        <ele>578.82105</ele>
        <time>2018-05-04T14:35:00Z</time>
      </trkpt>
      <trkpt lat="48.05749" lon="7.26787">
        <ele>578.83933</ele>
        <time>2018-05-04T14:35:02Z</time>
      </trkpt>
      <trkpt lat="48.05751" lon="7.26788">
        <ele>578.79858</ele>
        <time>2018-05-04T14:35:03Z</time>
      </trkpt>
      <trkpt lat="48.05752" lon="7.26787">
        <ele>578.8076</ele>
        <time>2018-05-04T14:35:04Z</time>
      </trkpt>
      <trkpt lat="48.05754" lon="7.26784">
        <ele>579.17276</ele>
        <time>2018-05-04T14:35:06Z</time>
      </trkpt>
      <trkpt lat="48.05755" lon="7.26782">
        <ele>579.12426</ele>
        <time>2018-05-04T14:35:07Z</time>
      </trkpt>
      <trkpt lat="48.05757" lon="7.26782">
        <ele>579.25372</ele>
        <time>2018-05-04T14:35:08Z</time>
      </trkpt>
      <trkpt lat="48.05759" lon="7.26781">
        <ele>579.20712</ele>
        <time>2018-05-04T14:35:09Z</time>
      </trkpt>
      <trkpt lat="48.05761" lon="7.26781">
        <ele>579.21785</ele>
        <time>2018-05-04T14:35:10Z</time>
      </trkpt>
      <trkpt lat="48.05763" lon="7.2678">
        <ele>579.45525</ele>
        <time>2018-05-04T14:35:11Z</time>
      </trkpt>
      <trkpt lat="48.05769" lon="7.26782">
        <ele>579.31011</ele>
        <time>2018-05-04T14:35:14Z</time>
      </trkpt>
      <trkpt lat="48.05771" lon="7.26781">
        <ele>578.92934</ele>
        <time>2018-05-04T14:35:15Z</time>
      </trkpt>
      <trkpt lat="48.05773" lon="7.26779">
        <ele>579.42902</ele>
        <time>2018-05-04T14:35:16Z</time>
      </trkpt>
      <trkpt lat="48.05773" lon="7.26777">
        <ele>579.20709</ele>
        <time>2018-05-04T14:35:17Z</time>
      </trkpt>
      <trkpt lat="48.05773" lon="7.26773">
        <ele>578.98175</ele>
        <time>2018-05-04T14:35:24Z</time>
      </trkpt>
      <trkpt lat="48.05772" lon="7.26773">
        <ele>578.89536</ele>
        <time>2018-05-04T14:35:27Z</time>
      </trkpt>
      <trkpt lat="48.05771" lon="7.26773">
        <ele>578.99695</ele>
        <time>2018-05-04T14:35:28Z</time>
      </trkpt>
      <trkpt lat="48.0577" lon="7.26772">
        <ele>578.92183</ele>
        <time>2018-05-04T14:35:30Z</time>
      </trkpt>
      <trkpt lat="48.05769" lon="7.26771">
        <ele>578.78825</ele>
        <time>2018-05-04T14:35:32Z</time>
      </trkpt>
      <trkpt lat="48.05769" lon="7.26772">
        <ele>578.76594</ele>
        <time>2018-05-04T14:35:36Z</time>
      </trkpt>
      <trkpt lat="48.05769" lon="7.26773">
        <ele>578.76958</ele>
        <time>2018-05-04T14:35:37Z</time>
      </trkpt>
      <trkpt lat="48.05771" lon="7.26773">
        <ele>578.86973</ele>
        <time>2018-05-04T14:35:41Z</time>
      </trkpt>
      <trkpt lat="48.05772" lon="7.26774">
        <ele>578.82477</ele>
        <time>2018-05-04T14:35:45Z</time>
      </trkpt>
      <trkpt lat="48.05773" lon="7.26773">
        <ele>578.75387</ele>
        <time>2018-05-04T14:35:47Z</time>
      </trkpt>
      <trkpt lat="48.05773" lon="7.26773">
        <ele>578.785</ele>
        <time>2018-05-04T14:35:48Z</time>
      </trkpt>
      <trkpt lat="48.05772" lon="7.26774">
        <ele>578.77063</ele>
        <time>2018-05-04T14:35:52Z</time>
      </trkpt>
      <trkpt lat="48.05771" lon="7.26775">
        <ele>578.91476</ele>
        <time>2018-05-04T14:35:53Z</time>
      </trkpt>
      <trkpt lat="48.05769" lon="7.26775">
        <ele>578.91878</ele>
        <time>2018-05-04T14:35:54Z</time>
      </trkpt>
      <trkpt lat="48.05769" lon="7.26774">
        <ele>578.91999</ele>
        <time>2018-05-04T14:35:55Z</time>
      </trkpt>
      <trkpt lat="48.05768" lon="7.26773">
        <ele>578.92352</ele>
        <time>2018-05-04T14:35:58Z</time>
      </trkpt>
      <trkpt lat="48.05769" lon="7.26772">
        <ele>578.82758</ele>
        <time>2018-05-04T14:36:00Z</time>
      </trkpt>
      <trkpt lat="48.05769" lon="7.26771">
        <ele>578.85665</ele>
        <time>2018-05-04T14:36:01Z</time>
      </trkpt>
      <trkpt lat="48.05769" lon="7.2677">
        <ele>578.59496</ele>
        <time>2018-05-04T14:36:02Z</time>
      </trkpt>
      <trkpt lat="48.05769" lon="7.2677">
        <ele>578.70253</ele>
        <time>2018-05-04T14:36:04Z</time>
      </trkpt>
      <trkpt lat="48.0577" lon="7.26771">
        <ele>578.64899</ele>
        <time>2018-05-04T14:36:09Z</time>
      </trkpt>
      <trkpt lat="48.0577" lon="7.26771">
        <ele>578.77434</ele>
        <time>2018-05-04T14:36:12Z</time>
      </trkpt>
      <trkpt lat="48.05773" lon="7.26772">
        <ele>579.02562</ele>
        <time>2018-05-04T14:36:31Z</time>
      </trkpt>
      <trkpt lat="48.05774" lon="7.26772">
        <ele>579.21945</ele>
        <time>2018-05-04T14:36:42Z</time>
      </trkpt>
      <trkpt lat="48.05775" lon="7.26772">
        <ele>579.16406</ele>
        <time>2018-05-04T14:36:45Z</time>
      </trkpt>
      <trkpt lat="48.05775" lon="7.26772">
        <ele>578.99711</ele>
        <time>2018-05-04T14:36:48Z</time>
      </trkpt>
      <trkpt lat="48.05775" lon="7.26774">
        <ele>579.01841</ele>
        <time>2018-05-04T14:36:54Z</time>
      </trkpt>
      <trkpt lat="48.05774" lon="7.26774">
        <ele>578.55277</ele>
        <time>2018-05-04T14:37:14Z</time>
      </trkpt>
      <trkpt lat="48.05775" lon="7.26775">
        <ele>578.63674</ele>
        <time>2018-05-04T14:37:15Z</time>
      </trkpt>
      <trkpt lat="48.05775" lon="7.26776">
        <ele>578.71925</ele>
        <time>2018-05-04T14:37:16Z</time>
      </trkpt>
      <trkpt lat="48.05775" lon="7.26778">
        <ele>578.93989</ele>
        <time>2018-05-04T14:37:17Z</time>
      </trkpt>
      <trkpt lat="48.05775" lon="7.26778">
        <ele>578.82505</ele>
        <time>2018-05-04T14:37:18Z</time>
      </trkpt>
      <trkpt lat="48.05773" lon="7.26778">
        <ele>578.9632</ele>
        <time>2018-05-04T14:37:20Z</time>
      </trkpt>
      <trkpt lat="48.05773" lon="7.26777">
        <ele>579.01907</ele>
        <time>2018-05-04T14:37:21Z</time>
      </trkpt>
      <trkpt lat="48.05773" lon="7.26777">
        <ele>578.84689</ele>
        <time>2018-05-04T14:37:22Z</time>
      </trkpt>
      <trkpt lat="48.05773" lon="7.26776">
        <ele>578.81376</ele>
        <time>2018-05-04T14:37:23Z</time>
      </trkpt>
      <trkpt lat="48.05774" lon="7.26776">
        <ele>578.81928</ele>
        <time>2018-05-04T14:37:24Z</time>
      </trkpt>
      <trkpt lat="48.05774" lon="7.26776">
        <ele>578.86981</ele>
        <time>2018-05-04T14:37:25Z</time>
      </trkpt>
      <trkpt lat="48.05775" lon="7.26776">
        <ele>578.89532</ele>
        <time>2018-05-04T14:37:26Z</time>
      </trkpt>
      <trkpt lat="48.05776" lon="7.26777">
        <ele>578.81077</ele>
        <time>2018-05-04T14:37:29Z</time>
      </trkpt>
      <trkpt lat="48.05775" lon="7.26777">
        <ele>578.84723</ele>
        <time>2018-05-04T14:37:31Z</time>
      </trkpt>
      <trkpt lat="48.05774" lon="7.26777">
        <ele>579.01268</ele>
        <time>2018-05-04T14:37:32Z</time>
      </trkpt>
      <trkpt lat="48.05774" lon="7.26777">
        <ele>578.8001</ele>
        <time>2018-05-04T14:37:35Z</time>
      </trkpt>
      <trkpt lat="48.05775" lon="7.26778">
        <ele>578.6373</ele>
        <time>2018-05-04T14:37:36Z</time>
      </trkpt>
      <trkpt lat="48.05776" lon="7.26778">
        <ele>578.96222</ele>
        <time>2018-05-04T14:37:38Z</time>
      </trkpt>
      <trkpt lat="48.05776" lon="7.26776">
        <ele>578.93654</ele>
        <time>2018-05-04T14:37:39Z</time>
      </trkpt>
      <trkpt lat="48.05776" lon="7.26775">
        <ele>578.69043</ele>
        <time>2018-05-04T14:37:40Z</time>
      </trkpt>
      <trkpt lat="48.05775" lon="7.26774">
        <ele>578.88532</ele>
        <time>2018-05-04T14:37:41Z</time>
      </trkpt>
      <trkpt lat="48.05773" lon="7.26772">
        <ele>578.82113</ele>
        <time>2018-05-04T14:37:52Z</time>
      </trkpt>
      <trkpt lat="48.05774" lon="7.26772">
        <ele>578.7696</ele>
        <time>2018-05-04T14:37:56Z</time>
      </trkpt>
      <trkpt lat="48.05774" lon="7.26771">
        <ele>578.49164</ele>
        <time>2018-05-04T14:38:04Z</time>
      </trkpt>
      <trkpt lat="48.05774" lon="7.2677">
        <ele>578.61787</ele>
        <time>2018-05-04T14:38:11Z</time>
      </trkpt>
      <trkpt lat="48.05773" lon="7.26769">
        <ele>578.63594</ele>
        <time>2018-05-04T14:38:12Z</time>
      </trkpt>
      <trkpt lat="48.05772" lon="7.26769">
        <ele>578.65946</ele>
        <time>2018-05-04T14:38:30Z</time>
      </trkpt>
      <trkpt lat="48.05772" lon="7.26769">
        <ele>578.73572</ele>
        <time>2018-05-04T14:38:32Z</time>
      </trkpt>
      <trkpt lat="48.05772" lon="7.2677">
        <ele>578.85213</ele>
        <time>2018-05-04T14:38:42Z</time>
      </trkpt>
      <trkpt lat="48.05772" lon="7.26771">
        <ele>579.19467</ele>
        <time>2018-05-04T14:38:43Z</time>
      </trkpt>
      <trkpt lat="48.05772" lon="7.26773">
        <ele>579.29449</ele>
        <time>2018-05-04T14:38:54Z</time>
      </trkpt>
      <trkpt lat="48.05773" lon="7.26773">
        <ele>579.42104</ele>
        <time>2018-05-04T14:38:59Z</time>
      </trkpt>
      <trkpt lat="48.05773" lon="7.26772">
        <ele>579.33016</ele>
        <time>2018-05-04T14:39:00Z</time>
      </trkpt>
      <trkpt lat="48.05773" lon="7.26771">
        <ele>579.16687</ele>
        <time>2018-05-04T14:39:01Z</time>
      </trkpt>
      <trkpt lat="48.05773" lon="7.2677">
        <ele>579.21907</ele>
        <time>2018-05-04T14:39:02Z</time>
      </trkpt>
      <trkpt lat="48.05772" lon="7.26771">
        <ele>579.24758</ele>
        <time>2018-05-04T14:39:03Z</time>
      </trkpt>
      <trkpt lat="48.05771" lon="7.2677">
        <ele>579.25723</ele>
        <time>2018-05-04T14:39:13Z</time>
      </trkpt>
      <trkpt lat="48.0577" lon="7.26769">
        <ele>579.07768</ele>
        <time>2018-05-04T14:39:39Z</time>
      </trkpt>
      <trkpt lat="48.05772" lon="7.26771">
        <ele>579.05463</ele>
        <time>2018-05-04T14:39:41Z</time>
      </trkpt>
      <trkpt lat="48.05772" lon="7.26771">
        <ele>579.37941</ele>
        <time>2018-05-04T14:39:48Z</time>
      </trkpt>
      <trkpt lat="48.05772" lon="7.26772">
        <ele>579.24503</ele>
        <time>2018-05-04T14:39:51Z</time>
      </trkpt>
      <trkpt lat="48.05773" lon="7.26772">
        <ele>579.4103</ele>
        <time>2018-05-04T14:39:53Z</time>
      </trkpt>
      <trkpt lat="48.05774" lon="7.26772">
        <ele>579.4103</ele>
        <time>2018-05-04T14:39:54Z</time>
      </trkpt>
      <trkpt lat="48.05774" lon="7.26773">
        <ele>579.44541</ele>
        <time>2018-05-04T14:39:55Z</time>
      </trkpt>
      <trkpt lat="48.05774" lon="7.26773">
        <ele>579.47662</ele>
        <time>2018-05-04T14:39:56Z</time>
      </trkpt>
      <trkpt lat="48.05773" lon="7.26774">
        <ele>579.58446</ele>
        <time>2018-05-04T14:39:57Z</time>
      </trkpt>
      <trkpt lat="48.05772" lon="7.26773">
        <ele>579.44056</ele>
        <time>2018-05-04T14:39:59Z</time>
      </trkpt>
      <trkpt lat="48.05772" lon="7.26774">
        <ele>579.53854</ele>
        <time>2018-05-04T14:40:02Z</time>
      </trkpt>
      <trkpt lat="48.05773" lon="7.26775">
        <ele>579.34546</ele>
        <time>2018-05-04T14:40:07Z</time>
      </trkpt>
      <trkpt lat="48.05772" lon="7.26775">
        <ele>579.0647</ele>
        <time>2018-05-04T14:40:09Z</time>
      </trkpt>
      <trkpt lat="48.05773" lon="7.26775">
        <ele>579.09592</ele>
        <time>2018-05-04T14:40:19Z</time>
      </trkpt>
      <trkpt lat="48.05773" lon="7.26774">
        <ele>579.5547</ele>
        <time>2018-05-04T14:40:20Z</time>
      </trkpt>
      <trkpt lat="48.05773" lon="7.26773">
        <ele>579.39153</ele>
        <time>2018-05-04T14:40:23Z</time>
      </trkpt>
      <trkpt lat="48.05772" lon="7.26773">
        <ele>579.2059</ele>
        <time>2018-05-04T14:40:32Z</time>
      </trkpt>
      <trkpt lat="48.05772" lon="7.26773">
        <ele>579.01987</ele>
        <time>2018-05-04T14:40:37Z</time>
      </trkpt>
      <trkpt lat="48.05772" lon="7.26773">
        <ele>578.9416</ele>
        <time>2018-05-04T14:40:43Z</time>
      </trkpt>
      <trkpt lat="48.05773" lon="7.26773">
        <ele>579.08976</ele>
        <time>2018-05-04T14:40:45Z</time>
      </trkpt>
      <trkpt lat="48.05774" lon="7.26772">
        <ele>579.05894</ele>
        <time>2018-05-04T14:40:50Z</time>
      </trkpt>
      <trkpt lat="48.05773" lon="7.26772">
        <ele>578.99819</ele>
        <time>2018-05-04T14:40:53Z</time>
      </trkpt>
      <trkpt lat="48.05774" lon="7.26773">
        <ele>579.04529</ele>
        <time>2018-05-04T14:41:04Z</time>
      </trkpt>
      <trkpt lat="48.05773" lon="7.26771">
        <ele>578.83353</ele>
        <time>2018-05-04T14:41:06Z</time>
      </trkpt>
      <trkpt lat="48.05773" lon="7.2677">
        <ele>578.80348</ele>
        <time>2018-05-04T14:41:07Z</time>
      </trkpt>
      <trkpt lat="48.05773" lon="7.2677">
        <ele>578.94669</ele>
        <time>2018-05-04T14:41:08Z</time>
      </trkpt>
      <trkpt lat="48.05772" lon="7.2677">
        <ele>578.68751</ele>
        <time>2018-05-04T14:41:09Z</time>
      </trkpt>
      <trkpt lat="48.0577" lon="7.26771">
        <ele>578.71276</ele>
        <time>2018-05-04T14:41:12Z</time>
      </trkpt>
      <trkpt lat="48.05771" lon="7.26771">
        <ele>578.58399</ele>
        <time>2018-05-04T14:41:15Z</time>
      </trkpt>
      <trkpt lat="48.0577" lon="7.26771">
        <ele>578.47449</ele>
        <time>2018-05-04T14:41:20Z</time>
      </trkpt>
      <trkpt lat="48.0577" lon="7.26771">
        <ele>578.71735</ele>
        <time>2018-05-04T14:41:21Z</time>
      </trkpt>
      <trkpt lat="48.0577" lon="7.26772">
        <ele>578.50735</ele>
        <time>2018-05-04T14:41:24Z</time>
      </trkpt>
      <trkpt lat="48.0577" lon="7.26771">
        <ele>578.73403</ele>
        <time>2018-05-04T14:41:27Z</time>
      </trkpt>
      <trkpt lat="48.05771" lon="7.26771">
        <ele>578.93611</ele>
        <time>2018-05-04T14:41:43Z</time>
      </trkpt>
      <trkpt lat="48.05772" lon="7.26771">
        <ele>578.97006</ele>
        <time>2018-05-04T14:41:46Z</time>
      </trkpt>
      <trkpt lat="48.05773" lon="7.26771">
        <ele>579.09241</ele>
        <time>2018-05-04T14:41:50Z</time>
      </trkpt>
      <trkpt lat="48.05773" lon="7.26771">
        <ele>578.93577</ele>
        <time>2018-05-04T14:41:58Z</time>
      </trkpt>
      <trkpt lat="48.05773" lon="7.2677">
        <ele>578.93246</ele>
        <time>2018-05-04T14:42:04Z</time>
      </trkpt>
      <trkpt lat="48.05775" lon="7.26771">
        <ele>579.25984</ele>
        <time>2018-05-04T14:42:08Z</time>
      </trkpt>
      <trkpt lat="48.05774" lon="7.26771">
        <ele>579.49111</ele>
        <time>2018-05-04T14:42:12Z</time>
      </trkpt>
      <trkpt lat="48.05774" lon="7.26771">
        <ele>579.24339</ele>
        <time>2018-05-04T14:42:14Z</time>
      </trkpt>
      <trkpt lat="48.05773" lon="7.26772">
        <ele>579.62573</ele>
        <time>2018-05-04T14:42:15Z</time>
      </trkpt>
      <trkpt lat="48.05772" lon="7.26773">
        <ele>579.37287</ele>
        <time>2018-05-04T14:42:16Z</time>
      </trkpt>
      <trkpt lat="48.05771" lon="7.26773">
        <ele>579.5441</ele>
        <time>2018-05-04T14:42:17Z</time>
      </trkpt>
      <trkpt lat="48.0577" lon="7.26773">
        <ele>579.38137</ele>
        <time>2018-05-04T14:42:18Z</time>
      </trkpt>
      <trkpt lat="48.05769" lon="7.26772">
        <ele>579.22628</ele>
        <time>2018-05-04T14:42:20Z</time>
      </trkpt>
      <trkpt lat="48.05769" lon="7.26772">
        <ele>579.46323</ele>
        <time>2018-05-04T14:42:21Z</time>
      </trkpt>
      <trkpt lat="48.05768" lon="7.26772">
        <ele>579.16447</ele>
        <time>2018-05-04T14:42:22Z</time>
      </trkpt>
      <trkpt lat="48.05768" lon="7.26772">
        <ele>579.27636</ele>
        <time>2018-05-04T14:42:23Z</time>
      </trkpt>
      <trkpt lat="48.05768" lon="7.26773">
        <ele>579.20903</ele>
        <time>2018-05-04T14:42:25Z</time>
      </trkpt>
    </trkseg>
  </trk>
</gpx>